<?xml version="1.0" encoding="UTF-8" standalone="no" ?>
<gpx xmlns="http://www.topografix.com/GPX/1/1" xmlns:xsi="http://www.w3.org/2001/XMLSchema-instance" xsi:schemaLocation="http://www.topografix.com/GPX/1/1 http://www.topografix.com/GPX/1/1/gpx.xsd" version="1.1" creator="VisuGPX - https://www.visugpx.com">
  <metadata>
    <name>2017-07-08 Bike ride VTT-Amberieux Les Cheres O</name>
    <desc><![CDATA[2017-07-08 Bike ride VTT-Amberieux Les Cheres O]]></desc>
  </metadata>
  <wpt lat="45.92459" lon="4.73706">
    <ele>174</ele>
    <name><![CDATA[2017-07-08 10:10 (Start)]]></name>
  </wpt>
  <wpt lat="45.92462" lon="4.73708">
    <ele>174</ele>
    <name><![CDATA[2017-07-08 10:10 (End)]]></name>
    <desc><![CDATA[Created by Google My Tracks on Android  Name: 2017-07-08 10:10 Activity type: biking Description: - Total distance: 22.51 km (14.0 mi) Total time: 1:37:31 Moving time: 1:34:59 Average speed: 13.85 km/h (8.6 mi/h) Average moving speed: 14.22 km/h (8.8 mi/h) Max speed: 31.29 km/h (19.4 mi/h) Average pace: 4:20 min/km (6:58 min/mi) Average moving pace: 4:13 min/km (6:48 min/mi) Fastest pace: 1:55 min/km (3:05 min/mi) Max elevation: 211 m (692 ft) Min elevation: 161 m (528 ft) Elevation gain: 441 m (1447 ft) Max grade: 40 % Min grade: -8 % Recorded: 08/07/2017 10:10]]></desc>
  </wpt>
  <trk>
    <name><![CDATA[2017-07-08 10:10]]></name>
    <trkseg>
      <trkpt lat="45.92459" lon="4.73706">
        <ele>174</ele>
        <time>2017-07-08T08:10:57.244Z</time>
      </trkpt>
      <trkpt lat="45.92462" lon="4.73698">
        <ele>174</ele>
        <time>2017-07-08T08:14:00Z</time>
      </trkpt>
      <trkpt lat="45.92462" lon="4.73694">
        <ele>174</ele>
        <time>2017-07-08T08:14:01Z</time>
      </trkpt>
      <trkpt lat="45.92465" lon="4.73684">
        <ele>174</ele>
        <time>2017-07-08T08:14:04Z</time>
      </trkpt>
      <trkpt lat="45.92466" lon="4.73681">
        <ele>174</ele>
        <time>2017-07-08T08:14:05Z</time>
      </trkpt>
      <trkpt lat="45.92469" lon="4.73672">
        <ele>174</ele>
        <time>2017-07-08T08:14:07Z</time>
      </trkpt>
      <trkpt lat="45.9247" lon="4.73667">
        <ele>174</ele>
        <time>2017-07-08T08:14:08Z</time>
      </trkpt>
      <trkpt lat="45.92471" lon="4.7366">
        <ele>174</ele>
        <time>2017-07-08T08:14:09Z</time>
      </trkpt>
      <trkpt lat="45.92472" lon="4.73654">
        <ele>174</ele>
        <time>2017-07-08T08:14:10Z</time>
      </trkpt>
      <trkpt lat="45.92472" lon="4.73642">
        <ele>174</ele>
        <time>2017-07-08T08:14:12Z</time>
      </trkpt>
      <trkpt lat="45.92471" lon="4.73636">
        <ele>174</ele>
        <time>2017-07-08T08:14:13Z</time>
      </trkpt>
      <trkpt lat="45.92471" lon="4.73624">
        <ele>174</ele>
        <time>2017-07-08T08:14:15Z</time>
      </trkpt>
      <trkpt lat="45.92471" lon="4.73618">
        <ele>174</ele>
        <time>2017-07-08T08:14:16Z</time>
      </trkpt>
      <trkpt lat="45.9247" lon="4.73607">
        <ele>174</ele>
        <time>2017-07-08T08:14:18Z</time>
      </trkpt>
      <trkpt lat="45.92469" lon="4.73602">
        <ele>174</ele>
        <time>2017-07-08T08:14:19Z</time>
      </trkpt>
      <trkpt lat="45.92469" lon="4.73591">
        <ele>174</ele>
        <time>2017-07-08T08:14:21Z</time>
      </trkpt>
      <trkpt lat="45.92468" lon="4.73584">
        <ele>174</ele>
        <time>2017-07-08T08:14:22Z</time>
      </trkpt>
      <trkpt lat="45.92468" lon="4.73574">
        <ele>173</ele>
        <time>2017-07-08T08:14:24Z</time>
      </trkpt>
      <trkpt lat="45.92467" lon="4.73568">
        <ele>173</ele>
        <time>2017-07-08T08:14:25Z</time>
      </trkpt>
      <trkpt lat="45.92463" lon="4.73557">
        <ele>173</ele>
        <time>2017-07-08T08:14:28Z</time>
      </trkpt>
      <trkpt lat="45.9246" lon="4.73557">
        <ele>173</ele>
        <time>2017-07-08T08:14:29Z</time>
      </trkpt>
      <trkpt lat="45.92453" lon="4.73555">
        <ele>174</ele>
        <time>2017-07-08T08:14:31Z</time>
      </trkpt>
      <trkpt lat="45.92449" lon="4.73555">
        <ele>174</ele>
        <time>2017-07-08T08:14:32Z</time>
      </trkpt>
      <trkpt lat="45.92445" lon="4.73556">
        <ele>174</ele>
        <time>2017-07-08T08:14:33Z</time>
      </trkpt>
      <trkpt lat="45.9244" lon="4.73558">
        <ele>174</ele>
        <time>2017-07-08T08:14:34Z</time>
      </trkpt>
      <trkpt lat="45.92435" lon="4.73559">
        <ele>174</ele>
        <time>2017-07-08T08:14:35Z</time>
      </trkpt>
      <trkpt lat="45.92431" lon="4.73562">
        <ele>174</ele>
        <time>2017-07-08T08:14:36Z</time>
      </trkpt>
      <trkpt lat="45.92425" lon="4.73563">
        <ele>174</ele>
        <time>2017-07-08T08:14:37Z</time>
      </trkpt>
      <trkpt lat="45.9242" lon="4.73564">
        <ele>174</ele>
        <time>2017-07-08T08:14:38Z</time>
      </trkpt>
      <trkpt lat="45.92416" lon="4.73566">
        <ele>173</ele>
        <time>2017-07-08T08:14:39Z</time>
      </trkpt>
      <trkpt lat="45.92412" lon="4.73567">
        <ele>173</ele>
        <time>2017-07-08T08:14:40Z</time>
      </trkpt>
      <trkpt lat="45.92407" lon="4.73569">
        <ele>173</ele>
        <time>2017-07-08T08:14:41Z</time>
      </trkpt>
      <trkpt lat="45.92403" lon="4.73572">
        <ele>173</ele>
        <time>2017-07-08T08:14:42Z</time>
      </trkpt>
      <trkpt lat="45.92398" lon="4.73574">
        <ele>173</ele>
        <time>2017-07-08T08:14:43Z</time>
      </trkpt>
      <trkpt lat="45.92393" lon="4.73575">
        <ele>173</ele>
        <time>2017-07-08T08:14:44Z</time>
      </trkpt>
      <trkpt lat="45.92389" lon="4.73578">
        <ele>173</ele>
        <time>2017-07-08T08:14:45Z</time>
      </trkpt>
      <trkpt lat="45.92385" lon="4.7358">
        <ele>173</ele>
        <time>2017-07-08T08:14:46Z</time>
      </trkpt>
      <trkpt lat="45.9238" lon="4.73583">
        <ele>173</ele>
        <time>2017-07-08T08:14:47Z</time>
      </trkpt>
      <trkpt lat="45.92375" lon="4.73585">
        <ele>173</ele>
        <time>2017-07-08T08:14:48Z</time>
      </trkpt>
      <trkpt lat="45.9237" lon="4.73587">
        <ele>173</ele>
        <time>2017-07-08T08:14:49Z</time>
      </trkpt>
      <trkpt lat="45.92365" lon="4.7359">
        <ele>173</ele>
        <time>2017-07-08T08:14:50Z</time>
      </trkpt>
      <trkpt lat="45.92361" lon="4.73592">
        <ele>173</ele>
        <time>2017-07-08T08:14:51Z</time>
      </trkpt>
      <trkpt lat="45.92356" lon="4.73594">
        <ele>173</ele>
        <time>2017-07-08T08:14:52Z</time>
      </trkpt>
      <trkpt lat="45.92352" lon="4.73596">
        <ele>173</ele>
        <time>2017-07-08T08:14:53Z</time>
      </trkpt>
      <trkpt lat="45.92347" lon="4.73598">
        <ele>173</ele>
        <time>2017-07-08T08:14:54Z</time>
      </trkpt>
      <trkpt lat="45.92342" lon="4.736">
        <ele>173</ele>
        <time>2017-07-08T08:14:55Z</time>
      </trkpt>
      <trkpt lat="45.92338" lon="4.73602">
        <ele>172</ele>
        <time>2017-07-08T08:14:56Z</time>
      </trkpt>
      <trkpt lat="45.9233" lon="4.73606">
        <ele>172</ele>
        <time>2017-07-08T08:14:58Z</time>
      </trkpt>
      <trkpt lat="45.92326" lon="4.73608">
        <ele>172</ele>
        <time>2017-07-08T08:14:59Z</time>
      </trkpt>
      <trkpt lat="45.92322" lon="4.7361">
        <ele>172</ele>
        <time>2017-07-08T08:15:00Z</time>
      </trkpt>
      <trkpt lat="45.92317" lon="4.73613">
        <ele>172</ele>
        <time>2017-07-08T08:15:01Z</time>
      </trkpt>
      <trkpt lat="45.92313" lon="4.73616">
        <ele>172</ele>
        <time>2017-07-08T08:15:02Z</time>
      </trkpt>
      <trkpt lat="45.92308" lon="4.73619">
        <ele>172</ele>
        <time>2017-07-08T08:15:03Z</time>
      </trkpt>
      <trkpt lat="45.92303" lon="4.73622">
        <ele>172</ele>
        <time>2017-07-08T08:15:04Z</time>
      </trkpt>
      <trkpt lat="45.92299" lon="4.73625">
        <ele>172</ele>
        <time>2017-07-08T08:15:05Z</time>
      </trkpt>
      <trkpt lat="45.92294" lon="4.73628">
        <ele>172</ele>
        <time>2017-07-08T08:15:06Z</time>
      </trkpt>
      <trkpt lat="45.92289" lon="4.73631">
        <ele>172</ele>
        <time>2017-07-08T08:15:07Z</time>
      </trkpt>
      <trkpt lat="45.92284" lon="4.73634">
        <ele>172</ele>
        <time>2017-07-08T08:15:08Z</time>
      </trkpt>
      <trkpt lat="45.92279" lon="4.73638">
        <ele>172</ele>
        <time>2017-07-08T08:15:09Z</time>
      </trkpt>
      <trkpt lat="45.92274" lon="4.73641">
        <ele>172</ele>
        <time>2017-07-08T08:15:10Z</time>
      </trkpt>
      <trkpt lat="45.9227" lon="4.73643">
        <ele>172</ele>
        <time>2017-07-08T08:15:11Z</time>
      </trkpt>
      <trkpt lat="45.92265" lon="4.73646">
        <ele>172</ele>
        <time>2017-07-08T08:15:12Z</time>
      </trkpt>
      <trkpt lat="45.9226" lon="4.73649">
        <ele>171</ele>
        <time>2017-07-08T08:15:13Z</time>
      </trkpt>
      <trkpt lat="45.92255" lon="4.73651">
        <ele>171</ele>
        <time>2017-07-08T08:15:14Z</time>
      </trkpt>
      <trkpt lat="45.9225" lon="4.73653">
        <ele>171</ele>
        <time>2017-07-08T08:15:15Z</time>
      </trkpt>
      <trkpt lat="45.92245" lon="4.73656">
        <ele>171</ele>
        <time>2017-07-08T08:15:16Z</time>
      </trkpt>
      <trkpt lat="45.9224" lon="4.73659">
        <ele>171</ele>
        <time>2017-07-08T08:15:17Z</time>
      </trkpt>
      <trkpt lat="45.92236" lon="4.73662">
        <ele>171</ele>
        <time>2017-07-08T08:15:18Z</time>
      </trkpt>
      <trkpt lat="45.92231" lon="4.73665">
        <ele>171</ele>
        <time>2017-07-08T08:15:19Z</time>
      </trkpt>
      <trkpt lat="45.92227" lon="4.73668">
        <ele>171</ele>
        <time>2017-07-08T08:15:20Z</time>
      </trkpt>
      <trkpt lat="45.92222" lon="4.73671">
        <ele>171</ele>
        <time>2017-07-08T08:15:21Z</time>
      </trkpt>
      <trkpt lat="45.92217" lon="4.73674">
        <ele>171</ele>
        <time>2017-07-08T08:15:22Z</time>
      </trkpt>
      <trkpt lat="45.92212" lon="4.73677">
        <ele>171</ele>
        <time>2017-07-08T08:15:23Z</time>
      </trkpt>
      <trkpt lat="45.92207" lon="4.7368">
        <ele>171</ele>
        <time>2017-07-08T08:15:24Z</time>
      </trkpt>
      <trkpt lat="45.92202" lon="4.73683">
        <ele>171</ele>
        <time>2017-07-08T08:15:25Z</time>
      </trkpt>
      <trkpt lat="45.92197" lon="4.73686">
        <ele>171</ele>
        <time>2017-07-08T08:15:26Z</time>
      </trkpt>
      <trkpt lat="45.92192" lon="4.73689">
        <ele>171</ele>
        <time>2017-07-08T08:15:27Z</time>
      </trkpt>
      <trkpt lat="45.92188" lon="4.73692">
        <ele>171</ele>
        <time>2017-07-08T08:15:28Z</time>
      </trkpt>
      <trkpt lat="45.92183" lon="4.73695">
        <ele>171</ele>
        <time>2017-07-08T08:15:29Z</time>
      </trkpt>
      <trkpt lat="45.92178" lon="4.73697">
        <ele>171</ele>
        <time>2017-07-08T08:15:30Z</time>
      </trkpt>
      <trkpt lat="45.92173" lon="4.73699">
        <ele>171</ele>
        <time>2017-07-08T08:15:31Z</time>
      </trkpt>
      <trkpt lat="45.92168" lon="4.73702">
        <ele>171</ele>
        <time>2017-07-08T08:15:32Z</time>
      </trkpt>
      <trkpt lat="45.92163" lon="4.73704">
        <ele>171</ele>
        <time>2017-07-08T08:15:33Z</time>
      </trkpt>
      <trkpt lat="45.92158" lon="4.73706">
        <ele>171</ele>
        <time>2017-07-08T08:15:34Z</time>
      </trkpt>
      <trkpt lat="45.92154" lon="4.73708">
        <ele>171</ele>
        <time>2017-07-08T08:15:35Z</time>
      </trkpt>
      <trkpt lat="45.92149" lon="4.7371">
        <ele>171</ele>
        <time>2017-07-08T08:15:36Z</time>
      </trkpt>
      <trkpt lat="45.92144" lon="4.73711">
        <ele>171</ele>
        <time>2017-07-08T08:15:37Z</time>
      </trkpt>
      <trkpt lat="45.92139" lon="4.73713">
        <ele>171</ele>
        <time>2017-07-08T08:15:38Z</time>
      </trkpt>
      <trkpt lat="45.92135" lon="4.73714">
        <ele>171</ele>
        <time>2017-07-08T08:15:39Z</time>
      </trkpt>
      <trkpt lat="45.9213" lon="4.73716">
        <ele>171</ele>
        <time>2017-07-08T08:15:40Z</time>
      </trkpt>
      <trkpt lat="45.92126" lon="4.73718">
        <ele>171</ele>
        <time>2017-07-08T08:15:41Z</time>
      </trkpt>
      <trkpt lat="45.92121" lon="4.73721">
        <ele>171</ele>
        <time>2017-07-08T08:15:42Z</time>
      </trkpt>
      <trkpt lat="45.92118" lon="4.73724">
        <ele>171</ele>
        <time>2017-07-08T08:15:43Z</time>
      </trkpt>
      <trkpt lat="45.92112" lon="4.73725">
        <ele>171</ele>
        <time>2017-07-08T08:15:44Z</time>
      </trkpt>
      <trkpt lat="45.92107" lon="4.73725">
        <ele>171</ele>
        <time>2017-07-08T08:15:45Z</time>
      </trkpt>
      <trkpt lat="45.92102" lon="4.73727">
        <ele>171</ele>
        <time>2017-07-08T08:15:46Z</time>
      </trkpt>
      <trkpt lat="45.92097" lon="4.73729">
        <ele>171</ele>
        <time>2017-07-08T08:15:47Z</time>
      </trkpt>
      <trkpt lat="45.92092" lon="4.7373">
        <ele>171</ele>
        <time>2017-07-08T08:15:48Z</time>
      </trkpt>
      <trkpt lat="45.92086" lon="4.7373">
        <ele>171</ele>
        <time>2017-07-08T08:15:49Z</time>
      </trkpt>
      <trkpt lat="45.9208" lon="4.73729">
        <ele>171</ele>
        <time>2017-07-08T08:15:50Z</time>
      </trkpt>
      <trkpt lat="45.92076" lon="4.73729">
        <ele>171</ele>
        <time>2017-07-08T08:15:51Z</time>
      </trkpt>
      <trkpt lat="45.92071" lon="4.73729">
        <ele>171</ele>
        <time>2017-07-08T08:15:52Z</time>
      </trkpt>
      <trkpt lat="45.92065" lon="4.73729">
        <ele>171</ele>
        <time>2017-07-08T08:15:53Z</time>
      </trkpt>
      <trkpt lat="45.92061" lon="4.73729">
        <ele>171</ele>
        <time>2017-07-08T08:15:54Z</time>
      </trkpt>
      <trkpt lat="45.92055" lon="4.73729">
        <ele>171</ele>
        <time>2017-07-08T08:15:55Z</time>
      </trkpt>
      <trkpt lat="45.9205" lon="4.73729">
        <ele>171</ele>
        <time>2017-07-08T08:15:56Z</time>
      </trkpt>
      <trkpt lat="45.92045" lon="4.73729">
        <ele>171</ele>
        <time>2017-07-08T08:15:57Z</time>
      </trkpt>
      <trkpt lat="45.9204" lon="4.7373">
        <ele>171</ele>
        <time>2017-07-08T08:15:58Z</time>
      </trkpt>
      <trkpt lat="45.92035" lon="4.7373">
        <ele>171</ele>
        <time>2017-07-08T08:15:59Z</time>
      </trkpt>
      <trkpt lat="45.9203" lon="4.7373">
        <ele>171</ele>
        <time>2017-07-08T08:16:00Z</time>
      </trkpt>
      <trkpt lat="45.92025" lon="4.7373">
        <ele>171</ele>
        <time>2017-07-08T08:16:01Z</time>
      </trkpt>
      <trkpt lat="45.9202" lon="4.73729">
        <ele>171</ele>
        <time>2017-07-08T08:16:02Z</time>
      </trkpt>
      <trkpt lat="45.92014" lon="4.73729">
        <ele>171</ele>
        <time>2017-07-08T08:16:03Z</time>
      </trkpt>
      <trkpt lat="45.92008" lon="4.73729">
        <ele>171</ele>
        <time>2017-07-08T08:16:04Z</time>
      </trkpt>
      <trkpt lat="45.92002" lon="4.73729">
        <ele>171</ele>
        <time>2017-07-08T08:16:05Z</time>
      </trkpt>
      <trkpt lat="45.91997" lon="4.73729">
        <ele>171</ele>
        <time>2017-07-08T08:16:06Z</time>
      </trkpt>
      <trkpt lat="45.91992" lon="4.7373">
        <ele>171</ele>
        <time>2017-07-08T08:16:07Z</time>
      </trkpt>
      <trkpt lat="45.91986" lon="4.7373">
        <ele>171</ele>
        <time>2017-07-08T08:16:08Z</time>
      </trkpt>
      <trkpt lat="45.91981" lon="4.7373">
        <ele>171</ele>
        <time>2017-07-08T08:16:09Z</time>
      </trkpt>
      <trkpt lat="45.91976" lon="4.73729">
        <ele>171</ele>
        <time>2017-07-08T08:16:10Z</time>
      </trkpt>
      <trkpt lat="45.9197" lon="4.73729">
        <ele>171</ele>
        <time>2017-07-08T08:16:11Z</time>
      </trkpt>
      <trkpt lat="45.91964" lon="4.73729">
        <ele>171</ele>
        <time>2017-07-08T08:16:12Z</time>
      </trkpt>
      <trkpt lat="45.91959" lon="4.73729">
        <ele>171</ele>
        <time>2017-07-08T08:16:13Z</time>
      </trkpt>
      <trkpt lat="45.91954" lon="4.73729">
        <ele>170</ele>
        <time>2017-07-08T08:16:14Z</time>
      </trkpt>
      <trkpt lat="45.91948" lon="4.73729">
        <ele>170</ele>
        <time>2017-07-08T08:16:15Z</time>
      </trkpt>
      <trkpt lat="45.91943" lon="4.7373">
        <ele>170</ele>
        <time>2017-07-08T08:16:16Z</time>
      </trkpt>
      <trkpt lat="45.91938" lon="4.7373">
        <ele>170</ele>
        <time>2017-07-08T08:16:17Z</time>
      </trkpt>
      <trkpt lat="45.91933" lon="4.7373">
        <ele>170</ele>
        <time>2017-07-08T08:16:18Z</time>
      </trkpt>
      <trkpt lat="45.91929" lon="4.7373">
        <ele>170</ele>
        <time>2017-07-08T08:16:19Z</time>
      </trkpt>
      <trkpt lat="45.91924" lon="4.7373">
        <ele>170</ele>
        <time>2017-07-08T08:16:20Z</time>
      </trkpt>
      <trkpt lat="45.91919" lon="4.7373">
        <ele>170</ele>
        <time>2017-07-08T08:16:21Z</time>
      </trkpt>
      <trkpt lat="45.91913" lon="4.7373">
        <ele>171</ele>
        <time>2017-07-08T08:16:22Z</time>
      </trkpt>
      <trkpt lat="45.91908" lon="4.7373">
        <ele>171</ele>
        <time>2017-07-08T08:16:23Z</time>
      </trkpt>
      <trkpt lat="45.91903" lon="4.7373">
        <ele>171</ele>
        <time>2017-07-08T08:16:24Z</time>
      </trkpt>
      <trkpt lat="45.91898" lon="4.7373">
        <ele>171</ele>
        <time>2017-07-08T08:16:25Z</time>
      </trkpt>
      <trkpt lat="45.91892" lon="4.7373">
        <ele>171</ele>
        <time>2017-07-08T08:16:26Z</time>
      </trkpt>
      <trkpt lat="45.91887" lon="4.73729">
        <ele>171</ele>
        <time>2017-07-08T08:16:27Z</time>
      </trkpt>
      <trkpt lat="45.91882" lon="4.73729">
        <ele>171</ele>
        <time>2017-07-08T08:16:28Z</time>
      </trkpt>
      <trkpt lat="45.91877" lon="4.7373">
        <ele>171</ele>
        <time>2017-07-08T08:16:29Z</time>
      </trkpt>
      <trkpt lat="45.91872" lon="4.7373">
        <ele>171</ele>
        <time>2017-07-08T08:16:30Z</time>
      </trkpt>
      <trkpt lat="45.91866" lon="4.7373">
        <ele>171</ele>
        <time>2017-07-08T08:16:31Z</time>
      </trkpt>
      <trkpt lat="45.91862" lon="4.7373">
        <ele>171</ele>
        <time>2017-07-08T08:16:32Z</time>
      </trkpt>
      <trkpt lat="45.91856" lon="4.7373">
        <ele>171</ele>
        <time>2017-07-08T08:16:33Z</time>
      </trkpt>
      <trkpt lat="45.9185" lon="4.7373">
        <ele>171</ele>
        <time>2017-07-08T08:16:34Z</time>
      </trkpt>
      <trkpt lat="45.91845" lon="4.7373">
        <ele>172</ele>
        <time>2017-07-08T08:16:35Z</time>
      </trkpt>
      <trkpt lat="45.91839" lon="4.7373">
        <ele>172</ele>
        <time>2017-07-08T08:16:36Z</time>
      </trkpt>
      <trkpt lat="45.91834" lon="4.73731">
        <ele>172</ele>
        <time>2017-07-08T08:16:37Z</time>
      </trkpt>
      <trkpt lat="45.91829" lon="4.73731">
        <ele>172</ele>
        <time>2017-07-08T08:16:38Z</time>
      </trkpt>
      <trkpt lat="45.91823" lon="4.73731">
        <ele>172</ele>
        <time>2017-07-08T08:16:39Z</time>
      </trkpt>
      <trkpt lat="45.91819" lon="4.73731">
        <ele>172</ele>
        <time>2017-07-08T08:16:40Z</time>
      </trkpt>
      <trkpt lat="45.91812" lon="4.73731">
        <ele>172</ele>
        <time>2017-07-08T08:16:41Z</time>
      </trkpt>
      <trkpt lat="45.91804" lon="4.73732">
        <ele>172</ele>
        <time>2017-07-08T08:16:43Z</time>
      </trkpt>
      <trkpt lat="45.918" lon="4.73732">
        <ele>172</ele>
        <time>2017-07-08T08:16:44Z</time>
      </trkpt>
      <trkpt lat="45.91791" lon="4.73732">
        <ele>173</ele>
        <time>2017-07-08T08:16:46Z</time>
      </trkpt>
      <trkpt lat="45.91786" lon="4.73732">
        <ele>173</ele>
        <time>2017-07-08T08:16:47Z</time>
      </trkpt>
      <trkpt lat="45.91777" lon="4.73731">
        <ele>173</ele>
        <time>2017-07-08T08:16:49Z</time>
      </trkpt>
      <trkpt lat="45.91774" lon="4.73731">
        <ele>173</ele>
        <time>2017-07-08T08:16:50Z</time>
      </trkpt>
      <trkpt lat="45.91769" lon="4.7373">
        <ele>173</ele>
        <time>2017-07-08T08:16:51Z</time>
      </trkpt>
      <trkpt lat="45.91765" lon="4.7373">
        <ele>173</ele>
        <time>2017-07-08T08:16:52Z</time>
      </trkpt>
      <trkpt lat="45.9176" lon="4.7373">
        <ele>173</ele>
        <time>2017-07-08T08:16:53Z</time>
      </trkpt>
      <trkpt lat="45.91755" lon="4.73729">
        <ele>173</ele>
        <time>2017-07-08T08:16:54Z</time>
      </trkpt>
      <trkpt lat="45.91746" lon="4.73729">
        <ele>173</ele>
        <time>2017-07-08T08:16:56Z</time>
      </trkpt>
      <trkpt lat="45.91742" lon="4.73729">
        <ele>173</ele>
        <time>2017-07-08T08:16:57Z</time>
      </trkpt>
      <trkpt lat="45.91733" lon="4.73728">
        <ele>173</ele>
        <time>2017-07-08T08:16:59Z</time>
      </trkpt>
      <trkpt lat="45.91728" lon="4.73728">
        <ele>173</ele>
        <time>2017-07-08T08:17:00Z</time>
      </trkpt>
      <trkpt lat="45.91723" lon="4.73729">
        <ele>173</ele>
        <time>2017-07-08T08:17:01Z</time>
      </trkpt>
      <trkpt lat="45.91718" lon="4.73729">
        <ele>173</ele>
        <time>2017-07-08T08:17:02Z</time>
      </trkpt>
      <trkpt lat="45.91713" lon="4.7373">
        <ele>173</ele>
        <time>2017-07-08T08:17:03Z</time>
      </trkpt>
      <trkpt lat="45.91708" lon="4.7373">
        <ele>172</ele>
        <time>2017-07-08T08:17:04Z</time>
      </trkpt>
      <trkpt lat="45.91703" lon="4.73731">
        <ele>172</ele>
        <time>2017-07-08T08:17:05Z</time>
      </trkpt>
      <trkpt lat="45.91698" lon="4.73731">
        <ele>172</ele>
        <time>2017-07-08T08:17:06Z</time>
      </trkpt>
      <trkpt lat="45.91693" lon="4.73731">
        <ele>172</ele>
        <time>2017-07-08T08:17:07Z</time>
      </trkpt>
      <trkpt lat="45.91687" lon="4.73731">
        <ele>172</ele>
        <time>2017-07-08T08:17:08Z</time>
      </trkpt>
      <trkpt lat="45.91682" lon="4.73731">
        <ele>172</ele>
        <time>2017-07-08T08:17:09Z</time>
      </trkpt>
      <trkpt lat="45.91677" lon="4.73731">
        <ele>172</ele>
        <time>2017-07-08T08:17:10Z</time>
      </trkpt>
      <trkpt lat="45.91672" lon="4.73731">
        <ele>172</ele>
        <time>2017-07-08T08:17:11Z</time>
      </trkpt>
      <trkpt lat="45.91667" lon="4.73731">
        <ele>172</ele>
        <time>2017-07-08T08:17:12Z</time>
      </trkpt>
      <trkpt lat="45.91662" lon="4.73731">
        <ele>172</ele>
        <time>2017-07-08T08:17:13Z</time>
      </trkpt>
      <trkpt lat="45.91657" lon="4.73731">
        <ele>172</ele>
        <time>2017-07-08T08:17:14Z</time>
      </trkpt>
      <trkpt lat="45.91652" lon="4.73732">
        <ele>172</ele>
        <time>2017-07-08T08:17:15Z</time>
      </trkpt>
      <trkpt lat="45.91647" lon="4.73732">
        <ele>172</ele>
        <time>2017-07-08T08:17:16Z</time>
      </trkpt>
      <trkpt lat="45.91642" lon="4.73732">
        <ele>172</ele>
        <time>2017-07-08T08:17:17Z</time>
      </trkpt>
      <trkpt lat="45.91637" lon="4.73732">
        <ele>172</ele>
        <time>2017-07-08T08:17:18Z</time>
      </trkpt>
      <trkpt lat="45.91631" lon="4.73732">
        <ele>172</ele>
        <time>2017-07-08T08:17:19Z</time>
      </trkpt>
      <trkpt lat="45.91626" lon="4.73732">
        <ele>172</ele>
        <time>2017-07-08T08:17:20Z</time>
      </trkpt>
      <trkpt lat="45.91621" lon="4.73733">
        <ele>173</ele>
        <time>2017-07-08T08:17:21Z</time>
      </trkpt>
      <trkpt lat="45.91615" lon="4.73733">
        <ele>173</ele>
        <time>2017-07-08T08:17:22Z</time>
      </trkpt>
      <trkpt lat="45.9161" lon="4.73734">
        <ele>173</ele>
        <time>2017-07-08T08:17:23Z</time>
      </trkpt>
      <trkpt lat="45.91605" lon="4.73734">
        <ele>173</ele>
        <time>2017-07-08T08:17:24Z</time>
      </trkpt>
      <trkpt lat="45.91599" lon="4.73733">
        <ele>173</ele>
        <time>2017-07-08T08:17:25Z</time>
      </trkpt>
      <trkpt lat="45.91594" lon="4.73733">
        <ele>173</ele>
        <time>2017-07-08T08:17:26Z</time>
      </trkpt>
      <trkpt lat="45.91588" lon="4.73733">
        <ele>173</ele>
        <time>2017-07-08T08:17:27Z</time>
      </trkpt>
      <trkpt lat="45.91583" lon="4.73733">
        <ele>173</ele>
        <time>2017-07-08T08:17:28Z</time>
      </trkpt>
      <trkpt lat="45.91575" lon="4.73733">
        <ele>173</ele>
        <time>2017-07-08T08:17:30Z</time>
      </trkpt>
      <trkpt lat="45.9157" lon="4.73733">
        <ele>173</ele>
        <time>2017-07-08T08:17:31Z</time>
      </trkpt>
      <trkpt lat="45.91566" lon="4.73733">
        <ele>173</ele>
        <time>2017-07-08T08:17:32Z</time>
      </trkpt>
      <trkpt lat="45.91561" lon="4.73733">
        <ele>173</ele>
        <time>2017-07-08T08:17:33Z</time>
      </trkpt>
      <trkpt lat="45.91556" lon="4.73733">
        <ele>174</ele>
        <time>2017-07-08T08:17:34Z</time>
      </trkpt>
      <trkpt lat="45.91551" lon="4.73733">
        <ele>174</ele>
        <time>2017-07-08T08:17:35Z</time>
      </trkpt>
      <trkpt lat="45.91545" lon="4.73733">
        <ele>174</ele>
        <time>2017-07-08T08:17:36Z</time>
      </trkpt>
      <trkpt lat="45.9154" lon="4.73732">
        <ele>174</ele>
        <time>2017-07-08T08:17:37Z</time>
      </trkpt>
      <trkpt lat="45.91535" lon="4.73733">
        <ele>174</ele>
        <time>2017-07-08T08:17:38Z</time>
      </trkpt>
      <trkpt lat="45.9153" lon="4.73733">
        <ele>174</ele>
        <time>2017-07-08T08:17:39Z</time>
      </trkpt>
      <trkpt lat="45.91525" lon="4.73733">
        <ele>174</ele>
        <time>2017-07-08T08:17:40Z</time>
      </trkpt>
      <trkpt lat="45.9152" lon="4.73733">
        <ele>174</ele>
        <time>2017-07-08T08:17:41Z</time>
      </trkpt>
      <trkpt lat="45.91511" lon="4.73735">
        <ele>174</ele>
        <time>2017-07-08T08:17:43Z</time>
      </trkpt>
      <trkpt lat="45.91507" lon="4.73735">
        <ele>174</ele>
        <time>2017-07-08T08:17:44Z</time>
      </trkpt>
      <trkpt lat="45.91502" lon="4.73736">
        <ele>174</ele>
        <time>2017-07-08T08:17:45Z</time>
      </trkpt>
      <trkpt lat="45.91496" lon="4.73737">
        <ele>174</ele>
        <time>2017-07-08T08:17:46Z</time>
      </trkpt>
      <trkpt lat="45.91491" lon="4.73737">
        <ele>174</ele>
        <time>2017-07-08T08:17:47Z</time>
      </trkpt>
      <trkpt lat="45.91485" lon="4.73737">
        <ele>174</ele>
        <time>2017-07-08T08:17:48Z</time>
      </trkpt>
      <trkpt lat="45.91479" lon="4.73737">
        <ele>174</ele>
        <time>2017-07-08T08:17:49Z</time>
      </trkpt>
      <trkpt lat="45.91474" lon="4.73737">
        <ele>174</ele>
        <time>2017-07-08T08:17:50Z</time>
      </trkpt>
      <trkpt lat="45.91468" lon="4.73738">
        <ele>174</ele>
        <time>2017-07-08T08:17:51Z</time>
      </trkpt>
      <trkpt lat="45.91462" lon="4.73737">
        <ele>174</ele>
        <time>2017-07-08T08:17:52Z</time>
      </trkpt>
      <trkpt lat="45.91457" lon="4.73738">
        <ele>173</ele>
        <time>2017-07-08T08:17:53Z</time>
      </trkpt>
      <trkpt lat="45.91452" lon="4.73738">
        <ele>173</ele>
        <time>2017-07-08T08:17:54Z</time>
      </trkpt>
      <trkpt lat="45.91446" lon="4.73738">
        <ele>173</ele>
        <time>2017-07-08T08:17:55Z</time>
      </trkpt>
      <trkpt lat="45.91441" lon="4.73739">
        <ele>173</ele>
        <time>2017-07-08T08:17:56Z</time>
      </trkpt>
      <trkpt lat="45.91436" lon="4.73739">
        <ele>173</ele>
        <time>2017-07-08T08:17:57Z</time>
      </trkpt>
      <trkpt lat="45.91431" lon="4.7374">
        <ele>173</ele>
        <time>2017-07-08T08:17:58Z</time>
      </trkpt>
      <trkpt lat="45.91426" lon="4.7374">
        <ele>173</ele>
        <time>2017-07-08T08:17:59Z</time>
      </trkpt>
      <trkpt lat="45.91422" lon="4.7374">
        <ele>173</ele>
        <time>2017-07-08T08:18:00Z</time>
      </trkpt>
      <trkpt lat="45.91417" lon="4.7374">
        <ele>172</ele>
        <time>2017-07-08T08:18:01Z</time>
      </trkpt>
      <trkpt lat="45.91411" lon="4.7374">
        <ele>172</ele>
        <time>2017-07-08T08:18:02Z</time>
      </trkpt>
      <trkpt lat="45.91405" lon="4.7374">
        <ele>173</ele>
        <time>2017-07-08T08:18:03Z</time>
      </trkpt>
      <trkpt lat="45.91399" lon="4.7374">
        <ele>173</ele>
        <time>2017-07-08T08:18:04Z</time>
      </trkpt>
      <trkpt lat="45.91394" lon="4.7374">
        <ele>173</ele>
        <time>2017-07-08T08:18:05Z</time>
      </trkpt>
      <trkpt lat="45.91389" lon="4.7374">
        <ele>173</ele>
        <time>2017-07-08T08:18:06Z</time>
      </trkpt>
      <trkpt lat="45.91384" lon="4.7374">
        <ele>173</ele>
        <time>2017-07-08T08:18:07Z</time>
      </trkpt>
      <trkpt lat="45.91379" lon="4.7374">
        <ele>173</ele>
        <time>2017-07-08T08:18:08Z</time>
      </trkpt>
      <trkpt lat="45.91374" lon="4.7374">
        <ele>173</ele>
        <time>2017-07-08T08:18:09Z</time>
      </trkpt>
      <trkpt lat="45.91368" lon="4.7374">
        <ele>173</ele>
        <time>2017-07-08T08:18:10Z</time>
      </trkpt>
      <trkpt lat="45.91363" lon="4.73739">
        <ele>173</ele>
        <time>2017-07-08T08:18:11Z</time>
      </trkpt>
      <trkpt lat="45.91358" lon="4.73739">
        <ele>173</ele>
        <time>2017-07-08T08:18:12Z</time>
      </trkpt>
      <trkpt lat="45.91353" lon="4.73739">
        <ele>173</ele>
        <time>2017-07-08T08:18:13Z</time>
      </trkpt>
      <trkpt lat="45.91347" lon="4.7374">
        <ele>173</ele>
        <time>2017-07-08T08:18:14Z</time>
      </trkpt>
      <trkpt lat="45.91342" lon="4.7374">
        <ele>173</ele>
        <time>2017-07-08T08:18:15Z</time>
      </trkpt>
      <trkpt lat="45.91337" lon="4.7374">
        <ele>173</ele>
        <time>2017-07-08T08:18:16Z</time>
      </trkpt>
      <trkpt lat="45.91332" lon="4.7374">
        <ele>173</ele>
        <time>2017-07-08T08:18:17Z</time>
      </trkpt>
      <trkpt lat="45.91327" lon="4.73741">
        <ele>173</ele>
        <time>2017-07-08T08:18:18Z</time>
      </trkpt>
      <trkpt lat="45.91322" lon="4.73741">
        <ele>173</ele>
        <time>2017-07-08T08:18:19Z</time>
      </trkpt>
      <trkpt lat="45.91314" lon="4.73739">
        <ele>174</ele>
        <time>2017-07-08T08:18:20Z</time>
      </trkpt>
      <trkpt lat="45.91309" lon="4.73739">
        <ele>174</ele>
        <time>2017-07-08T08:18:21Z</time>
      </trkpt>
      <trkpt lat="45.91303" lon="4.73739">
        <ele>174</ele>
        <time>2017-07-08T08:18:22Z</time>
      </trkpt>
      <trkpt lat="45.91298" lon="4.73739">
        <ele>174</ele>
        <time>2017-07-08T08:18:23Z</time>
      </trkpt>
      <trkpt lat="45.91293" lon="4.73738">
        <ele>174</ele>
        <time>2017-07-08T08:18:24Z</time>
      </trkpt>
      <trkpt lat="45.91288" lon="4.73739">
        <ele>174</ele>
        <time>2017-07-08T08:18:25Z</time>
      </trkpt>
      <trkpt lat="45.91282" lon="4.73739">
        <ele>174</ele>
        <time>2017-07-08T08:18:26Z</time>
      </trkpt>
      <trkpt lat="45.91277" lon="4.73738">
        <ele>174</ele>
        <time>2017-07-08T08:18:27Z</time>
      </trkpt>
      <trkpt lat="45.91272" lon="4.73738">
        <ele>174</ele>
        <time>2017-07-08T08:18:28Z</time>
      </trkpt>
      <trkpt lat="45.91267" lon="4.73738">
        <ele>174</ele>
        <time>2017-07-08T08:18:29Z</time>
      </trkpt>
      <trkpt lat="45.91262" lon="4.73739">
        <ele>174</ele>
        <time>2017-07-08T08:18:30Z</time>
      </trkpt>
      <trkpt lat="45.91257" lon="4.73739">
        <ele>175</ele>
        <time>2017-07-08T08:18:31Z</time>
      </trkpt>
      <trkpt lat="45.91252" lon="4.73739">
        <ele>175</ele>
        <time>2017-07-08T08:18:32Z</time>
      </trkpt>
      <trkpt lat="45.91247" lon="4.73739">
        <ele>175</ele>
        <time>2017-07-08T08:18:33Z</time>
      </trkpt>
      <trkpt lat="45.91241" lon="4.73739">
        <ele>175</ele>
        <time>2017-07-08T08:18:34Z</time>
      </trkpt>
      <trkpt lat="45.91236" lon="4.73739">
        <ele>175</ele>
        <time>2017-07-08T08:18:35Z</time>
      </trkpt>
      <trkpt lat="45.91231" lon="4.7374">
        <ele>175</ele>
        <time>2017-07-08T08:18:36Z</time>
      </trkpt>
      <trkpt lat="45.91226" lon="4.7374">
        <ele>175</ele>
        <time>2017-07-08T08:18:37Z</time>
      </trkpt>
      <trkpt lat="45.91221" lon="4.7374">
        <ele>175</ele>
        <time>2017-07-08T08:18:38Z</time>
      </trkpt>
      <trkpt lat="45.91216" lon="4.7374">
        <ele>175</ele>
        <time>2017-07-08T08:18:39Z</time>
      </trkpt>
      <trkpt lat="45.91211" lon="4.73739">
        <ele>175</ele>
        <time>2017-07-08T08:18:40Z</time>
      </trkpt>
      <trkpt lat="45.91203" lon="4.73739">
        <ele>175</ele>
        <time>2017-07-08T08:18:42Z</time>
      </trkpt>
      <trkpt lat="45.91198" lon="4.73738">
        <ele>175</ele>
        <time>2017-07-08T08:18:43Z</time>
      </trkpt>
      <trkpt lat="45.91194" lon="4.73737">
        <ele>175</ele>
        <time>2017-07-08T08:18:44Z</time>
      </trkpt>
      <trkpt lat="45.91189" lon="4.73735">
        <ele>175</ele>
        <time>2017-07-08T08:18:45Z</time>
      </trkpt>
      <trkpt lat="45.91184" lon="4.73734">
        <ele>175</ele>
        <time>2017-07-08T08:18:46Z</time>
      </trkpt>
      <trkpt lat="45.91179" lon="4.73732">
        <ele>175</ele>
        <time>2017-07-08T08:18:47Z</time>
      </trkpt>
      <trkpt lat="45.91173" lon="4.73731">
        <ele>175</ele>
        <time>2017-07-08T08:18:49Z</time>
      </trkpt>
      <trkpt lat="45.91169" lon="4.73731">
        <ele>175</ele>
        <time>2017-07-08T08:18:50Z</time>
      </trkpt>
      <trkpt lat="45.91163" lon="4.73736">
        <ele>175</ele>
        <time>2017-07-08T08:18:52Z</time>
      </trkpt>
      <trkpt lat="45.9116" lon="4.73741">
        <ele>175</ele>
        <time>2017-07-08T08:18:53Z</time>
      </trkpt>
      <trkpt lat="45.91159" lon="4.73751">
        <ele>175</ele>
        <time>2017-07-08T08:18:55Z</time>
      </trkpt>
      <trkpt lat="45.9116" lon="4.73758">
        <ele>175</ele>
        <time>2017-07-08T08:18:56Z</time>
      </trkpt>
      <trkpt lat="45.91163" lon="4.73764">
        <ele>175</ele>
        <time>2017-07-08T08:18:57Z</time>
      </trkpt>
      <trkpt lat="45.91166" lon="4.73771">
        <ele>175</ele>
        <time>2017-07-08T08:18:58Z</time>
      </trkpt>
      <trkpt lat="45.91169" lon="4.73777">
        <ele>175</ele>
        <time>2017-07-08T08:18:59Z</time>
      </trkpt>
      <trkpt lat="45.91172" lon="4.73783">
        <ele>175</ele>
        <time>2017-07-08T08:19:00Z</time>
      </trkpt>
      <trkpt lat="45.91174" lon="4.73789">
        <ele>175</ele>
        <time>2017-07-08T08:19:01Z</time>
      </trkpt>
      <trkpt lat="45.91177" lon="4.73795">
        <ele>175</ele>
        <time>2017-07-08T08:19:02Z</time>
      </trkpt>
      <trkpt lat="45.91179" lon="4.73801">
        <ele>175</ele>
        <time>2017-07-08T08:19:03Z</time>
      </trkpt>
      <trkpt lat="45.91182" lon="4.73808">
        <ele>175</ele>
        <time>2017-07-08T08:19:04Z</time>
      </trkpt>
      <trkpt lat="45.91185" lon="4.73814">
        <ele>175</ele>
        <time>2017-07-08T08:19:05Z</time>
      </trkpt>
      <trkpt lat="45.91188" lon="4.7382">
        <ele>175</ele>
        <time>2017-07-08T08:19:06Z</time>
      </trkpt>
      <trkpt lat="45.91191" lon="4.73825">
        <ele>175</ele>
        <time>2017-07-08T08:19:07Z</time>
      </trkpt>
      <trkpt lat="45.91194" lon="4.7383">
        <ele>175</ele>
        <time>2017-07-08T08:19:08Z</time>
      </trkpt>
      <trkpt lat="45.91197" lon="4.73836">
        <ele>174</ele>
        <time>2017-07-08T08:19:09Z</time>
      </trkpt>
      <trkpt lat="45.91199" lon="4.73842">
        <ele>174</ele>
        <time>2017-07-08T08:19:10Z</time>
      </trkpt>
      <trkpt lat="45.91203" lon="4.73853">
        <ele>174</ele>
        <time>2017-07-08T08:19:12Z</time>
      </trkpt>
      <trkpt lat="45.91205" lon="4.73859">
        <ele>174</ele>
        <time>2017-07-08T08:19:13Z</time>
      </trkpt>
      <trkpt lat="45.91207" lon="4.73865">
        <ele>174</ele>
        <time>2017-07-08T08:19:14Z</time>
      </trkpt>
      <trkpt lat="45.91209" lon="4.7387">
        <ele>174</ele>
        <time>2017-07-08T08:19:15Z</time>
      </trkpt>
      <trkpt lat="45.91212" lon="4.73877">
        <ele>174</ele>
        <time>2017-07-08T08:19:16Z</time>
      </trkpt>
      <trkpt lat="45.91213" lon="4.73882">
        <ele>174</ele>
        <time>2017-07-08T08:19:17Z</time>
      </trkpt>
      <trkpt lat="45.91216" lon="4.73893">
        <ele>174</ele>
        <time>2017-07-08T08:19:19Z</time>
      </trkpt>
      <trkpt lat="45.91217" lon="4.73898">
        <ele>174</ele>
        <time>2017-07-08T08:19:20Z</time>
      </trkpt>
      <trkpt lat="45.9122" lon="4.73909">
        <ele>174</ele>
        <time>2017-07-08T08:19:22Z</time>
      </trkpt>
      <trkpt lat="45.91221" lon="4.73915">
        <ele>174</ele>
        <time>2017-07-08T08:19:23Z</time>
      </trkpt>
      <trkpt lat="45.91223" lon="4.73927">
        <ele>173</ele>
        <time>2017-07-08T08:19:25Z</time>
      </trkpt>
      <trkpt lat="45.91224" lon="4.73933">
        <ele>173</ele>
        <time>2017-07-08T08:19:26Z</time>
      </trkpt>
      <trkpt lat="45.91224" lon="4.73945">
        <ele>173</ele>
        <time>2017-07-08T08:19:28Z</time>
      </trkpt>
      <trkpt lat="45.91225" lon="4.73952">
        <ele>173</ele>
        <time>2017-07-08T08:19:29Z</time>
      </trkpt>
      <trkpt lat="45.91225" lon="4.73965">
        <ele>173</ele>
        <time>2017-07-08T08:19:31Z</time>
      </trkpt>
      <trkpt lat="45.91225" lon="4.73971">
        <ele>173</ele>
        <time>2017-07-08T08:19:32Z</time>
      </trkpt>
      <trkpt lat="45.91224" lon="4.73983">
        <ele>173</ele>
        <time>2017-07-08T08:19:34Z</time>
      </trkpt>
      <trkpt lat="45.91223" lon="4.7399">
        <ele>173</ele>
        <time>2017-07-08T08:19:35Z</time>
      </trkpt>
      <trkpt lat="45.91222" lon="4.74001">
        <ele>173</ele>
        <time>2017-07-08T08:19:37Z</time>
      </trkpt>
      <trkpt lat="45.91222" lon="4.74007">
        <ele>173</ele>
        <time>2017-07-08T08:19:38Z</time>
      </trkpt>
      <trkpt lat="45.9122" lon="4.74017">
        <ele>173</ele>
        <time>2017-07-08T08:19:40Z</time>
      </trkpt>
      <trkpt lat="45.91219" lon="4.74023">
        <ele>173</ele>
        <time>2017-07-08T08:19:41Z</time>
      </trkpt>
      <trkpt lat="45.91216" lon="4.74033">
        <ele>173</ele>
        <time>2017-07-08T08:19:43Z</time>
      </trkpt>
      <trkpt lat="45.91215" lon="4.74037">
        <ele>173</ele>
        <time>2017-07-08T08:19:44Z</time>
      </trkpt>
      <trkpt lat="45.91213" lon="4.74048">
        <ele>173</ele>
        <time>2017-07-08T08:19:46Z</time>
      </trkpt>
      <trkpt lat="45.91212" lon="4.74052">
        <ele>173</ele>
        <time>2017-07-08T08:19:47Z</time>
      </trkpt>
      <trkpt lat="45.9121" lon="4.74063">
        <ele>173</ele>
        <time>2017-07-08T08:19:49Z</time>
      </trkpt>
      <trkpt lat="45.91208" lon="4.74069">
        <ele>173</ele>
        <time>2017-07-08T08:19:50Z</time>
      </trkpt>
      <trkpt lat="45.91205" lon="4.74081">
        <ele>173</ele>
        <time>2017-07-08T08:19:52Z</time>
      </trkpt>
      <trkpt lat="45.91204" lon="4.74087">
        <ele>173</ele>
        <time>2017-07-08T08:19:53Z</time>
      </trkpt>
      <trkpt lat="45.91202" lon="4.74098">
        <ele>173</ele>
        <time>2017-07-08T08:19:55Z</time>
      </trkpt>
      <trkpt lat="45.912" lon="4.74103">
        <ele>173</ele>
        <time>2017-07-08T08:19:56Z</time>
      </trkpt>
      <trkpt lat="45.91198" lon="4.74114">
        <ele>174</ele>
        <time>2017-07-08T08:19:58Z</time>
      </trkpt>
      <trkpt lat="45.91196" lon="4.7412">
        <ele>174</ele>
        <time>2017-07-08T08:19:59Z</time>
      </trkpt>
      <trkpt lat="45.91194" lon="4.74126">
        <ele>174</ele>
        <time>2017-07-08T08:20:00Z</time>
      </trkpt>
      <trkpt lat="45.91192" lon="4.74132">
        <ele>174</ele>
        <time>2017-07-08T08:20:01Z</time>
      </trkpt>
      <trkpt lat="45.91191" lon="4.74139">
        <ele>174</ele>
        <time>2017-07-08T08:20:02Z</time>
      </trkpt>
      <trkpt lat="45.9119" lon="4.74145">
        <ele>174</ele>
        <time>2017-07-08T08:20:03Z</time>
      </trkpt>
      <trkpt lat="45.91188" lon="4.74152">
        <ele>174</ele>
        <time>2017-07-08T08:20:04Z</time>
      </trkpt>
      <trkpt lat="45.91187" lon="4.74159">
        <ele>174</ele>
        <time>2017-07-08T08:20:05Z</time>
      </trkpt>
      <trkpt lat="45.91186" lon="4.74166">
        <ele>174</ele>
        <time>2017-07-08T08:20:06Z</time>
      </trkpt>
      <trkpt lat="45.91185" lon="4.74173">
        <ele>174</ele>
        <time>2017-07-08T08:20:07Z</time>
      </trkpt>
      <trkpt lat="45.91184" lon="4.74181">
        <ele>174</ele>
        <time>2017-07-08T08:20:08Z</time>
      </trkpt>
      <trkpt lat="45.91184" lon="4.74188">
        <ele>174</ele>
        <time>2017-07-08T08:20:09Z</time>
      </trkpt>
      <trkpt lat="45.91183" lon="4.74196">
        <ele>175</ele>
        <time>2017-07-08T08:20:10Z</time>
      </trkpt>
      <trkpt lat="45.91183" lon="4.74203">
        <ele>175</ele>
        <time>2017-07-08T08:20:11Z</time>
      </trkpt>
      <trkpt lat="45.91183" lon="4.74212">
        <ele>175</ele>
        <time>2017-07-08T08:20:12Z</time>
      </trkpt>
      <trkpt lat="45.91183" lon="4.7422">
        <ele>175</ele>
        <time>2017-07-08T08:20:13Z</time>
      </trkpt>
      <trkpt lat="45.91184" lon="4.74229">
        <ele>175</ele>
        <time>2017-07-08T08:20:14Z</time>
      </trkpt>
      <trkpt lat="45.91184" lon="4.74239">
        <ele>175</ele>
        <time>2017-07-08T08:20:15Z</time>
      </trkpt>
      <trkpt lat="45.91185" lon="4.74248">
        <ele>175</ele>
        <time>2017-07-08T08:20:16Z</time>
      </trkpt>
      <trkpt lat="45.91186" lon="4.74258">
        <ele>175</ele>
        <time>2017-07-08T08:20:17Z</time>
      </trkpt>
      <trkpt lat="45.91189" lon="4.74268">
        <ele>175</ele>
        <time>2017-07-08T08:20:18Z</time>
      </trkpt>
      <trkpt lat="45.91191" lon="4.74278">
        <ele>175</ele>
        <time>2017-07-08T08:20:19Z</time>
      </trkpt>
      <trkpt lat="45.91193" lon="4.74288">
        <ele>175</ele>
        <time>2017-07-08T08:20:20Z</time>
      </trkpt>
      <trkpt lat="45.91197" lon="4.74298">
        <ele>175</ele>
        <time>2017-07-08T08:20:21Z</time>
      </trkpt>
      <trkpt lat="45.912" lon="4.74309">
        <ele>175</ele>
        <time>2017-07-08T08:20:22Z</time>
      </trkpt>
      <trkpt lat="45.91203" lon="4.7432">
        <ele>175</ele>
        <time>2017-07-08T08:20:23Z</time>
      </trkpt>
      <trkpt lat="45.91206" lon="4.74331">
        <ele>175</ele>
        <time>2017-07-08T08:20:24Z</time>
      </trkpt>
      <trkpt lat="45.91209" lon="4.74342">
        <ele>175</ele>
        <time>2017-07-08T08:20:25Z</time>
      </trkpt>
      <trkpt lat="45.91212" lon="4.74354">
        <ele>175</ele>
        <time>2017-07-08T08:20:26Z</time>
      </trkpt>
      <trkpt lat="45.91215" lon="4.74365">
        <ele>174</ele>
        <time>2017-07-08T08:20:27Z</time>
      </trkpt>
      <trkpt lat="45.91218" lon="4.74376">
        <ele>174</ele>
        <time>2017-07-08T08:20:28Z</time>
      </trkpt>
      <trkpt lat="45.91221" lon="4.74388">
        <ele>174</ele>
        <time>2017-07-08T08:20:29Z</time>
      </trkpt>
      <trkpt lat="45.91224" lon="4.74399">
        <ele>174</ele>
        <time>2017-07-08T08:20:30Z</time>
      </trkpt>
      <trkpt lat="45.91227" lon="4.74409">
        <ele>174</ele>
        <time>2017-07-08T08:20:31Z</time>
      </trkpt>
      <trkpt lat="45.9123" lon="4.74421">
        <ele>174</ele>
        <time>2017-07-08T08:20:32Z</time>
      </trkpt>
      <trkpt lat="45.91233" lon="4.74432">
        <ele>174</ele>
        <time>2017-07-08T08:20:33Z</time>
      </trkpt>
      <trkpt lat="45.91236" lon="4.74442">
        <ele>174</ele>
        <time>2017-07-08T08:20:34Z</time>
      </trkpt>
      <trkpt lat="45.91239" lon="4.74452">
        <ele>174</ele>
        <time>2017-07-08T08:20:35Z</time>
      </trkpt>
      <trkpt lat="45.91242" lon="4.74462">
        <ele>174</ele>
        <time>2017-07-08T08:20:36Z</time>
      </trkpt>
      <trkpt lat="45.91244" lon="4.74472">
        <ele>174</ele>
        <time>2017-07-08T08:20:37Z</time>
      </trkpt>
      <trkpt lat="45.91247" lon="4.74481">
        <ele>174</ele>
        <time>2017-07-08T08:20:38Z</time>
      </trkpt>
      <trkpt lat="45.91249" lon="4.74491">
        <ele>174</ele>
        <time>2017-07-08T08:20:39Z</time>
      </trkpt>
      <trkpt lat="45.91252" lon="4.745">
        <ele>174</ele>
        <time>2017-07-08T08:20:40Z</time>
      </trkpt>
      <trkpt lat="45.91255" lon="4.74508">
        <ele>174</ele>
        <time>2017-07-08T08:20:41Z</time>
      </trkpt>
      <trkpt lat="45.91257" lon="4.74517">
        <ele>174</ele>
        <time>2017-07-08T08:20:42Z</time>
      </trkpt>
      <trkpt lat="45.9126" lon="4.74526">
        <ele>173</ele>
        <time>2017-07-08T08:20:43Z</time>
      </trkpt>
      <trkpt lat="45.91262" lon="4.74533">
        <ele>173</ele>
        <time>2017-07-08T08:20:44Z</time>
      </trkpt>
      <trkpt lat="45.91265" lon="4.7454">
        <ele>173</ele>
        <time>2017-07-08T08:20:45Z</time>
      </trkpt>
      <trkpt lat="45.91268" lon="4.74547">
        <ele>173</ele>
        <time>2017-07-08T08:20:46Z</time>
      </trkpt>
      <trkpt lat="45.91271" lon="4.74554">
        <ele>173</ele>
        <time>2017-07-08T08:20:47Z</time>
      </trkpt>
      <trkpt lat="45.91274" lon="4.74562">
        <ele>173</ele>
        <time>2017-07-08T08:20:48Z</time>
      </trkpt>
      <trkpt lat="45.91276" lon="4.74569">
        <ele>173</ele>
        <time>2017-07-08T08:20:49Z</time>
      </trkpt>
      <trkpt lat="45.91278" lon="4.74577">
        <ele>173</ele>
        <time>2017-07-08T08:20:50Z</time>
      </trkpt>
      <trkpt lat="45.91281" lon="4.74586">
        <ele>173</ele>
        <time>2017-07-08T08:20:51Z</time>
      </trkpt>
      <trkpt lat="45.91284" lon="4.74593">
        <ele>173</ele>
        <time>2017-07-08T08:20:52Z</time>
      </trkpt>
      <trkpt lat="45.91287" lon="4.74601">
        <ele>173</ele>
        <time>2017-07-08T08:20:53Z</time>
      </trkpt>
      <trkpt lat="45.9129" lon="4.74608">
        <ele>173</ele>
        <time>2017-07-08T08:20:54Z</time>
      </trkpt>
      <trkpt lat="45.91293" lon="4.74615">
        <ele>173</ele>
        <time>2017-07-08T08:20:55Z</time>
      </trkpt>
      <trkpt lat="45.91295" lon="4.74622">
        <ele>173</ele>
        <time>2017-07-08T08:20:56Z</time>
      </trkpt>
      <trkpt lat="45.91299" lon="4.74629">
        <ele>173</ele>
        <time>2017-07-08T08:20:57Z</time>
      </trkpt>
      <trkpt lat="45.91302" lon="4.74637">
        <ele>173</ele>
        <time>2017-07-08T08:20:58Z</time>
      </trkpt>
      <trkpt lat="45.91305" lon="4.74644">
        <ele>173</ele>
        <time>2017-07-08T08:20:59Z</time>
      </trkpt>
      <trkpt lat="45.91308" lon="4.74653">
        <ele>173</ele>
        <time>2017-07-08T08:21:00Z</time>
      </trkpt>
      <trkpt lat="45.91311" lon="4.7466">
        <ele>173</ele>
        <time>2017-07-08T08:21:01Z</time>
      </trkpt>
      <trkpt lat="45.91314" lon="4.74666">
        <ele>173</ele>
        <time>2017-07-08T08:21:02Z</time>
      </trkpt>
      <trkpt lat="45.91317" lon="4.74673">
        <ele>173</ele>
        <time>2017-07-08T08:21:03Z</time>
      </trkpt>
      <trkpt lat="45.9132" lon="4.74681">
        <ele>173</ele>
        <time>2017-07-08T08:21:04Z</time>
      </trkpt>
      <trkpt lat="45.91323" lon="4.74687">
        <ele>173</ele>
        <time>2017-07-08T08:21:05Z</time>
      </trkpt>
      <trkpt lat="45.91325" lon="4.74694">
        <ele>173</ele>
        <time>2017-07-08T08:21:06Z</time>
      </trkpt>
      <trkpt lat="45.91326" lon="4.74701">
        <ele>173</ele>
        <time>2017-07-08T08:21:07Z</time>
      </trkpt>
      <trkpt lat="45.91327" lon="4.74709">
        <ele>173</ele>
        <time>2017-07-08T08:21:08Z</time>
      </trkpt>
      <trkpt lat="45.91328" lon="4.74716">
        <ele>173</ele>
        <time>2017-07-08T08:21:09Z</time>
      </trkpt>
      <trkpt lat="45.91328" lon="4.74723">
        <ele>173</ele>
        <time>2017-07-08T08:21:10Z</time>
      </trkpt>
      <trkpt lat="45.91328" lon="4.74729">
        <ele>173</ele>
        <time>2017-07-08T08:21:11Z</time>
      </trkpt>
      <trkpt lat="45.91327" lon="4.74737">
        <ele>173</ele>
        <time>2017-07-08T08:21:12Z</time>
      </trkpt>
      <trkpt lat="45.91326" lon="4.74743">
        <ele>173</ele>
        <time>2017-07-08T08:21:13Z</time>
      </trkpt>
      <trkpt lat="45.91325" lon="4.74751">
        <ele>173</ele>
        <time>2017-07-08T08:21:14Z</time>
      </trkpt>
      <trkpt lat="45.91324" lon="4.74757">
        <ele>174</ele>
        <time>2017-07-08T08:21:15Z</time>
      </trkpt>
      <trkpt lat="45.91323" lon="4.74765">
        <ele>174</ele>
        <time>2017-07-08T08:21:16Z</time>
      </trkpt>
      <trkpt lat="45.91322" lon="4.74772">
        <ele>174</ele>
        <time>2017-07-08T08:21:17Z</time>
      </trkpt>
      <trkpt lat="45.9132" lon="4.7478">
        <ele>174</ele>
        <time>2017-07-08T08:21:18Z</time>
      </trkpt>
      <trkpt lat="45.91318" lon="4.74788">
        <ele>174</ele>
        <time>2017-07-08T08:21:19Z</time>
      </trkpt>
      <trkpt lat="45.91315" lon="4.74797">
        <ele>174</ele>
        <time>2017-07-08T08:21:20Z</time>
      </trkpt>
      <trkpt lat="45.91315" lon="4.74805">
        <ele>175</ele>
        <time>2017-07-08T08:21:21Z</time>
      </trkpt>
      <trkpt lat="45.91315" lon="4.74817">
        <ele>175</ele>
        <time>2017-07-08T08:21:23Z</time>
      </trkpt>
      <trkpt lat="45.91315" lon="4.74823">
        <ele>175</ele>
        <time>2017-07-08T08:21:24Z</time>
      </trkpt>
      <trkpt lat="45.91314" lon="4.74829">
        <ele>175</ele>
        <time>2017-07-08T08:21:25Z</time>
      </trkpt>
      <trkpt lat="45.91313" lon="4.74836">
        <ele>176</ele>
        <time>2017-07-08T08:21:26Z</time>
      </trkpt>
      <trkpt lat="45.91312" lon="4.74843">
        <ele>176</ele>
        <time>2017-07-08T08:21:27Z</time>
      </trkpt>
      <trkpt lat="45.91312" lon="4.74849">
        <ele>176</ele>
        <time>2017-07-08T08:21:28Z</time>
      </trkpt>
      <trkpt lat="45.91313" lon="4.74856">
        <ele>176</ele>
        <time>2017-07-08T08:21:29Z</time>
      </trkpt>
      <trkpt lat="45.91313" lon="4.74863">
        <ele>176</ele>
        <time>2017-07-08T08:21:30Z</time>
      </trkpt>
      <trkpt lat="45.91314" lon="4.7487">
        <ele>176</ele>
        <time>2017-07-08T08:21:31Z</time>
      </trkpt>
      <trkpt lat="45.91314" lon="4.74877">
        <ele>176</ele>
        <time>2017-07-08T08:21:32Z</time>
      </trkpt>
      <trkpt lat="45.91315" lon="4.74884">
        <ele>176</ele>
        <time>2017-07-08T08:21:33Z</time>
      </trkpt>
      <trkpt lat="45.91314" lon="4.74891">
        <ele>176</ele>
        <time>2017-07-08T08:21:34Z</time>
      </trkpt>
      <trkpt lat="45.91314" lon="4.74898">
        <ele>176</ele>
        <time>2017-07-08T08:21:35Z</time>
      </trkpt>
      <trkpt lat="45.91312" lon="4.74905">
        <ele>176</ele>
        <time>2017-07-08T08:21:36Z</time>
      </trkpt>
      <trkpt lat="45.91311" lon="4.74912">
        <ele>176</ele>
        <time>2017-07-08T08:21:37Z</time>
      </trkpt>
      <trkpt lat="45.9131" lon="4.74918">
        <ele>177</ele>
        <time>2017-07-08T08:21:38Z</time>
      </trkpt>
      <trkpt lat="45.91309" lon="4.74924">
        <ele>177</ele>
        <time>2017-07-08T08:21:39Z</time>
      </trkpt>
      <trkpt lat="45.91308" lon="4.74931">
        <ele>177</ele>
        <time>2017-07-08T08:21:40Z</time>
      </trkpt>
      <trkpt lat="45.91307" lon="4.74937">
        <ele>177</ele>
        <time>2017-07-08T08:21:41Z</time>
      </trkpt>
      <trkpt lat="45.91306" lon="4.74944">
        <ele>177</ele>
        <time>2017-07-08T08:21:42Z</time>
      </trkpt>
      <trkpt lat="45.91305" lon="4.7495">
        <ele>177</ele>
        <time>2017-07-08T08:21:43Z</time>
      </trkpt>
      <trkpt lat="45.91305" lon="4.74957">
        <ele>177</ele>
        <time>2017-07-08T08:21:44Z</time>
      </trkpt>
      <trkpt lat="45.91304" lon="4.74964">
        <ele>177</ele>
        <time>2017-07-08T08:21:45Z</time>
      </trkpt>
      <trkpt lat="45.91303" lon="4.74971">
        <ele>177</ele>
        <time>2017-07-08T08:21:46Z</time>
      </trkpt>
      <trkpt lat="45.91303" lon="4.74979">
        <ele>177</ele>
        <time>2017-07-08T08:21:47Z</time>
      </trkpt>
      <trkpt lat="45.91302" lon="4.74987">
        <ele>177</ele>
        <time>2017-07-08T08:21:48Z</time>
      </trkpt>
      <trkpt lat="45.91301" lon="4.74994">
        <ele>177</ele>
        <time>2017-07-08T08:21:49Z</time>
      </trkpt>
      <trkpt lat="45.913" lon="4.75001">
        <ele>177</ele>
        <time>2017-07-08T08:21:50Z</time>
      </trkpt>
      <trkpt lat="45.91298" lon="4.75008">
        <ele>177</ele>
        <time>2017-07-08T08:21:51Z</time>
      </trkpt>
      <trkpt lat="45.91296" lon="4.75014">
        <ele>177</ele>
        <time>2017-07-08T08:21:52Z</time>
      </trkpt>
      <trkpt lat="45.91297" lon="4.75025">
        <ele>177</ele>
        <time>2017-07-08T08:21:54Z</time>
      </trkpt>
      <trkpt lat="45.91297" lon="4.75031">
        <ele>177</ele>
        <time>2017-07-08T08:21:55Z</time>
      </trkpt>
      <trkpt lat="45.91298" lon="4.75038">
        <ele>177</ele>
        <time>2017-07-08T08:21:56Z</time>
      </trkpt>
      <trkpt lat="45.91297" lon="4.75046">
        <ele>177</ele>
        <time>2017-07-08T08:21:57Z</time>
      </trkpt>
      <trkpt lat="45.91298" lon="4.75053">
        <ele>177</ele>
        <time>2017-07-08T08:21:58Z</time>
      </trkpt>
      <trkpt lat="45.91298" lon="4.7506">
        <ele>177</ele>
        <time>2017-07-08T08:21:59Z</time>
      </trkpt>
      <trkpt lat="45.91299" lon="4.75068">
        <ele>177</ele>
        <time>2017-07-08T08:22:00Z</time>
      </trkpt>
      <trkpt lat="45.91299" lon="4.75076">
        <ele>177</ele>
        <time>2017-07-08T08:22:01Z</time>
      </trkpt>
      <trkpt lat="45.913" lon="4.75084">
        <ele>177</ele>
        <time>2017-07-08T08:22:02Z</time>
      </trkpt>
      <trkpt lat="45.91301" lon="4.75091">
        <ele>177</ele>
        <time>2017-07-08T08:22:03Z</time>
      </trkpt>
      <trkpt lat="45.91301" lon="4.75098">
        <ele>177</ele>
        <time>2017-07-08T08:22:04Z</time>
      </trkpt>
      <trkpt lat="45.91301" lon="4.75105">
        <ele>177</ele>
        <time>2017-07-08T08:22:05Z</time>
      </trkpt>
      <trkpt lat="45.91302" lon="4.75111">
        <ele>177</ele>
        <time>2017-07-08T08:22:06Z</time>
      </trkpt>
      <trkpt lat="45.91302" lon="4.75118">
        <ele>177</ele>
        <time>2017-07-08T08:22:07Z</time>
      </trkpt>
      <trkpt lat="45.91303" lon="4.7513">
        <ele>177</ele>
        <time>2017-07-08T08:22:09Z</time>
      </trkpt>
      <trkpt lat="45.91304" lon="4.75137">
        <ele>177</ele>
        <time>2017-07-08T08:22:10Z</time>
      </trkpt>
      <trkpt lat="45.91306" lon="4.75149">
        <ele>177</ele>
        <time>2017-07-08T08:22:12Z</time>
      </trkpt>
      <trkpt lat="45.91307" lon="4.75154">
        <ele>177</ele>
        <time>2017-07-08T08:22:13Z</time>
      </trkpt>
      <trkpt lat="45.91301" lon="4.75161">
        <ele>177</ele>
        <time>2017-07-08T08:22:17Z</time>
      </trkpt>
      <trkpt lat="45.91297" lon="4.75158">
        <ele>177</ele>
        <time>2017-07-08T08:22:18Z</time>
      </trkpt>
      <trkpt lat="45.91289" lon="4.75154">
        <ele>177</ele>
        <time>2017-07-08T08:22:20Z</time>
      </trkpt>
      <trkpt lat="45.91285" lon="4.75153">
        <ele>177</ele>
        <time>2017-07-08T08:22:21Z</time>
      </trkpt>
      <trkpt lat="45.91277" lon="4.75147">
        <ele>177</ele>
        <time>2017-07-08T08:22:23Z</time>
      </trkpt>
      <trkpt lat="45.91273" lon="4.75144">
        <ele>177</ele>
        <time>2017-07-08T08:22:24Z</time>
      </trkpt>
      <trkpt lat="45.91266" lon="4.75139">
        <ele>177</ele>
        <time>2017-07-08T08:22:26Z</time>
      </trkpt>
      <trkpt lat="45.91262" lon="4.75136">
        <ele>177</ele>
        <time>2017-07-08T08:22:27Z</time>
      </trkpt>
      <trkpt lat="45.91255" lon="4.75131">
        <ele>177</ele>
        <time>2017-07-08T08:22:29Z</time>
      </trkpt>
      <trkpt lat="45.91252" lon="4.7513">
        <ele>177</ele>
        <time>2017-07-08T08:22:30Z</time>
      </trkpt>
      <trkpt lat="45.91245" lon="4.75126">
        <ele>177</ele>
        <time>2017-07-08T08:22:32Z</time>
      </trkpt>
      <trkpt lat="45.91241" lon="4.75124">
        <ele>177</ele>
        <time>2017-07-08T08:22:33Z</time>
      </trkpt>
      <trkpt lat="45.91236" lon="4.75122">
        <ele>177</ele>
        <time>2017-07-08T08:22:34Z</time>
      </trkpt>
      <trkpt lat="45.91232" lon="4.7512">
        <ele>177</ele>
        <time>2017-07-08T08:22:35Z</time>
      </trkpt>
      <trkpt lat="45.91227" lon="4.75119">
        <ele>177</ele>
        <time>2017-07-08T08:22:36Z</time>
      </trkpt>
      <trkpt lat="45.91222" lon="4.75118">
        <ele>177</ele>
        <time>2017-07-08T08:22:37Z</time>
      </trkpt>
      <trkpt lat="45.91217" lon="4.75116">
        <ele>177</ele>
        <time>2017-07-08T08:22:38Z</time>
      </trkpt>
      <trkpt lat="45.91213" lon="4.75115">
        <ele>177</ele>
        <time>2017-07-08T08:22:39Z</time>
      </trkpt>
      <trkpt lat="45.91204" lon="4.75112">
        <ele>178</ele>
        <time>2017-07-08T08:22:41Z</time>
      </trkpt>
      <trkpt lat="45.912" lon="4.75111">
        <ele>178</ele>
        <time>2017-07-08T08:22:42Z</time>
      </trkpt>
      <trkpt lat="45.91191" lon="4.75109">
        <ele>178</ele>
        <time>2017-07-08T08:22:44Z</time>
      </trkpt>
      <trkpt lat="45.91187" lon="4.75108">
        <ele>178</ele>
        <time>2017-07-08T08:22:45Z</time>
      </trkpt>
      <trkpt lat="45.91182" lon="4.75106">
        <ele>178</ele>
        <time>2017-07-08T08:22:46Z</time>
      </trkpt>
      <trkpt lat="45.91177" lon="4.75105">
        <ele>178</ele>
        <time>2017-07-08T08:22:47Z</time>
      </trkpt>
      <trkpt lat="45.91171" lon="4.75104">
        <ele>178</ele>
        <time>2017-07-08T08:22:48Z</time>
      </trkpt>
      <trkpt lat="45.91166" lon="4.75102">
        <ele>179</ele>
        <time>2017-07-08T08:22:49Z</time>
      </trkpt>
      <trkpt lat="45.91161" lon="4.75101">
        <ele>179</ele>
        <time>2017-07-08T08:22:50Z</time>
      </trkpt>
      <trkpt lat="45.91156" lon="4.75099">
        <ele>179</ele>
        <time>2017-07-08T08:22:51Z</time>
      </trkpt>
      <trkpt lat="45.91151" lon="4.75097">
        <ele>179</ele>
        <time>2017-07-08T08:22:52Z</time>
      </trkpt>
      <trkpt lat="45.91145" lon="4.75095">
        <ele>179</ele>
        <time>2017-07-08T08:22:53Z</time>
      </trkpt>
      <trkpt lat="45.9114" lon="4.75093">
        <ele>179</ele>
        <time>2017-07-08T08:22:54Z</time>
      </trkpt>
      <trkpt lat="45.91135" lon="4.75092">
        <ele>179</ele>
        <time>2017-07-08T08:22:55Z</time>
      </trkpt>
      <trkpt lat="45.9113" lon="4.7509">
        <ele>179</ele>
        <time>2017-07-08T08:22:56Z</time>
      </trkpt>
      <trkpt lat="45.91126" lon="4.75088">
        <ele>179</ele>
        <time>2017-07-08T08:22:57Z</time>
      </trkpt>
      <trkpt lat="45.91121" lon="4.75087">
        <ele>179</ele>
        <time>2017-07-08T08:22:58Z</time>
      </trkpt>
      <trkpt lat="45.91116" lon="4.75085">
        <ele>179</ele>
        <time>2017-07-08T08:22:59Z</time>
      </trkpt>
      <trkpt lat="45.91112" lon="4.75083">
        <ele>179</ele>
        <time>2017-07-08T08:23:00Z</time>
      </trkpt>
      <trkpt lat="45.91107" lon="4.75081">
        <ele>179</ele>
        <time>2017-07-08T08:23:01Z</time>
      </trkpt>
      <trkpt lat="45.91102" lon="4.75079">
        <ele>179</ele>
        <time>2017-07-08T08:23:02Z</time>
      </trkpt>
      <trkpt lat="45.91097" lon="4.75077">
        <ele>179</ele>
        <time>2017-07-08T08:23:03Z</time>
      </trkpt>
      <trkpt lat="45.91092" lon="4.75074">
        <ele>179</ele>
        <time>2017-07-08T08:23:04Z</time>
      </trkpt>
      <trkpt lat="45.91087" lon="4.75072">
        <ele>179</ele>
        <time>2017-07-08T08:23:05Z</time>
      </trkpt>
      <trkpt lat="45.91082" lon="4.7507">
        <ele>179</ele>
        <time>2017-07-08T08:23:06Z</time>
      </trkpt>
      <trkpt lat="45.91076" lon="4.75069">
        <ele>179</ele>
        <time>2017-07-08T08:23:07Z</time>
      </trkpt>
      <trkpt lat="45.91071" lon="4.75067">
        <ele>179</ele>
        <time>2017-07-08T08:23:08Z</time>
      </trkpt>
      <trkpt lat="45.91067" lon="4.75065">
        <ele>179</ele>
        <time>2017-07-08T08:23:09Z</time>
      </trkpt>
      <trkpt lat="45.91059" lon="4.75063">
        <ele>179</ele>
        <time>2017-07-08T08:23:11Z</time>
      </trkpt>
      <trkpt lat="45.91055" lon="4.75062">
        <ele>179</ele>
        <time>2017-07-08T08:23:12Z</time>
      </trkpt>
      <trkpt lat="45.91047" lon="4.75059">
        <ele>179</ele>
        <time>2017-07-08T08:23:14Z</time>
      </trkpt>
      <trkpt lat="45.91041" lon="4.75057">
        <ele>179</ele>
        <time>2017-07-08T08:23:15Z</time>
      </trkpt>
      <trkpt lat="45.91036" lon="4.75055">
        <ele>179</ele>
        <time>2017-07-08T08:23:16Z</time>
      </trkpt>
      <trkpt lat="45.91032" lon="4.75054">
        <ele>179</ele>
        <time>2017-07-08T08:23:17Z</time>
      </trkpt>
      <trkpt lat="45.91027" lon="4.75052">
        <ele>179</ele>
        <time>2017-07-08T08:23:18Z</time>
      </trkpt>
      <trkpt lat="45.91022" lon="4.7505">
        <ele>178</ele>
        <time>2017-07-08T08:23:19Z</time>
      </trkpt>
      <trkpt lat="45.91017" lon="4.75048">
        <ele>178</ele>
        <time>2017-07-08T08:23:20Z</time>
      </trkpt>
      <trkpt lat="45.91013" lon="4.75046">
        <ele>178</ele>
        <time>2017-07-08T08:23:21Z</time>
      </trkpt>
      <trkpt lat="45.91004" lon="4.75043">
        <ele>178</ele>
        <time>2017-07-08T08:23:23Z</time>
      </trkpt>
      <trkpt lat="45.90998" lon="4.75041">
        <ele>178</ele>
        <time>2017-07-08T08:23:24Z</time>
      </trkpt>
      <trkpt lat="45.9099" lon="4.75038">
        <ele>178</ele>
        <time>2017-07-08T08:23:26Z</time>
      </trkpt>
      <trkpt lat="45.90986" lon="4.75037">
        <ele>178</ele>
        <time>2017-07-08T08:23:27Z</time>
      </trkpt>
      <trkpt lat="45.90978" lon="4.75035">
        <ele>178</ele>
        <time>2017-07-08T08:23:29Z</time>
      </trkpt>
      <trkpt lat="45.90974" lon="4.75034">
        <ele>178</ele>
        <time>2017-07-08T08:23:30Z</time>
      </trkpt>
      <trkpt lat="45.90968" lon="4.75033">
        <ele>179</ele>
        <time>2017-07-08T08:23:32Z</time>
      </trkpt>
      <trkpt lat="45.90963" lon="4.75035">
        <ele>179</ele>
        <time>2017-07-08T08:23:33Z</time>
      </trkpt>
      <trkpt lat="45.90956" lon="4.75041">
        <ele>179</ele>
        <time>2017-07-08T08:23:35Z</time>
      </trkpt>
      <trkpt lat="45.90955" lon="4.75045">
        <ele>179</ele>
        <time>2017-07-08T08:23:36Z</time>
      </trkpt>
      <trkpt lat="45.90954" lon="4.75057">
        <ele>179</ele>
        <time>2017-07-08T08:23:39Z</time>
      </trkpt>
      <trkpt lat="45.90954" lon="4.75061">
        <ele>179</ele>
        <time>2017-07-08T08:23:40Z</time>
      </trkpt>
      <trkpt lat="45.90953" lon="4.7507">
        <ele>179</ele>
        <time>2017-07-08T08:23:42Z</time>
      </trkpt>
      <trkpt lat="45.90953" lon="4.75075">
        <ele>179</ele>
        <time>2017-07-08T08:23:43Z</time>
      </trkpt>
      <trkpt lat="45.90953" lon="4.75084">
        <ele>181</ele>
        <time>2017-07-08T08:23:45Z</time>
      </trkpt>
      <trkpt lat="45.90953" lon="4.7509">
        <ele>181</ele>
        <time>2017-07-08T08:23:46Z</time>
      </trkpt>
      <trkpt lat="45.90952" lon="4.751">
        <ele>181</ele>
        <time>2017-07-08T08:23:48Z</time>
      </trkpt>
      <trkpt lat="45.90952" lon="4.75105">
        <ele>181</ele>
        <time>2017-07-08T08:23:49Z</time>
      </trkpt>
      <trkpt lat="45.90951" lon="4.75115">
        <ele>181</ele>
        <time>2017-07-08T08:23:51Z</time>
      </trkpt>
      <trkpt lat="45.90951" lon="4.75121">
        <ele>181</ele>
        <time>2017-07-08T08:23:52Z</time>
      </trkpt>
      <trkpt lat="45.9095" lon="4.75131">
        <ele>181</ele>
        <time>2017-07-08T08:23:54Z</time>
      </trkpt>
      <trkpt lat="45.90949" lon="4.75137">
        <ele>182</ele>
        <time>2017-07-08T08:23:55Z</time>
      </trkpt>
      <trkpt lat="45.90948" lon="4.75148">
        <ele>182</ele>
        <time>2017-07-08T08:23:57Z</time>
      </trkpt>
      <trkpt lat="45.90948" lon="4.75153">
        <ele>182</ele>
        <time>2017-07-08T08:23:58Z</time>
      </trkpt>
      <trkpt lat="45.90947" lon="4.75162">
        <ele>182</ele>
        <time>2017-07-08T08:24:00Z</time>
      </trkpt>
      <trkpt lat="45.90946" lon="4.75167">
        <ele>182</ele>
        <time>2017-07-08T08:24:01Z</time>
      </trkpt>
      <trkpt lat="45.90945" lon="4.75176">
        <ele>183</ele>
        <time>2017-07-08T08:24:03Z</time>
      </trkpt>
      <trkpt lat="45.90944" lon="4.75181">
        <ele>183</ele>
        <time>2017-07-08T08:24:04Z</time>
      </trkpt>
      <trkpt lat="45.90943" lon="4.7519">
        <ele>183</ele>
        <time>2017-07-08T08:24:06Z</time>
      </trkpt>
      <trkpt lat="45.90943" lon="4.75195">
        <ele>183</ele>
        <time>2017-07-08T08:24:07Z</time>
      </trkpt>
      <trkpt lat="45.90942" lon="4.75206">
        <ele>184</ele>
        <time>2017-07-08T08:24:09Z</time>
      </trkpt>
      <trkpt lat="45.90942" lon="4.75211">
        <ele>184</ele>
        <time>2017-07-08T08:24:10Z</time>
      </trkpt>
      <trkpt lat="45.9094" lon="4.75221">
        <ele>184</ele>
        <time>2017-07-08T08:24:12Z</time>
      </trkpt>
      <trkpt lat="45.9094" lon="4.75226">
        <ele>184</ele>
        <time>2017-07-08T08:24:13Z</time>
      </trkpt>
      <trkpt lat="45.90939" lon="4.75237">
        <ele>184</ele>
        <time>2017-07-08T08:24:15Z</time>
      </trkpt>
      <trkpt lat="45.90938" lon="4.75242">
        <ele>184</ele>
        <time>2017-07-08T08:24:16Z</time>
      </trkpt>
      <trkpt lat="45.90937" lon="4.75252">
        <ele>185</ele>
        <time>2017-07-08T08:24:18Z</time>
      </trkpt>
      <trkpt lat="45.90936" lon="4.75257">
        <ele>185</ele>
        <time>2017-07-08T08:24:19Z</time>
      </trkpt>
      <trkpt lat="45.90935" lon="4.75266">
        <ele>185</ele>
        <time>2017-07-08T08:24:21Z</time>
      </trkpt>
      <trkpt lat="45.90934" lon="4.75271">
        <ele>185</ele>
        <time>2017-07-08T08:24:22Z</time>
      </trkpt>
      <trkpt lat="45.90933" lon="4.75282">
        <ele>185</ele>
        <time>2017-07-08T08:24:24Z</time>
      </trkpt>
      <trkpt lat="45.90933" lon="4.75287">
        <ele>185</ele>
        <time>2017-07-08T08:24:25Z</time>
      </trkpt>
      <trkpt lat="45.90932" lon="4.753">
        <ele>185</ele>
        <time>2017-07-08T08:24:27Z</time>
      </trkpt>
      <trkpt lat="45.90931" lon="4.75306">
        <ele>185</ele>
        <time>2017-07-08T08:24:28Z</time>
      </trkpt>
      <trkpt lat="45.90929" lon="4.75317">
        <ele>185</ele>
        <time>2017-07-08T08:24:30Z</time>
      </trkpt>
      <trkpt lat="45.90928" lon="4.75323">
        <ele>185</ele>
        <time>2017-07-08T08:24:31Z</time>
      </trkpt>
      <trkpt lat="45.90927" lon="4.75332">
        <ele>186</ele>
        <time>2017-07-08T08:24:33Z</time>
      </trkpt>
      <trkpt lat="45.90926" lon="4.75337">
        <ele>186</ele>
        <time>2017-07-08T08:24:34Z</time>
      </trkpt>
      <trkpt lat="45.90925" lon="4.75347">
        <ele>186</ele>
        <time>2017-07-08T08:24:36Z</time>
      </trkpt>
      <trkpt lat="45.90925" lon="4.75351">
        <ele>185</ele>
        <time>2017-07-08T08:24:37Z</time>
      </trkpt>
      <trkpt lat="45.90924" lon="4.75361">
        <ele>185</ele>
        <time>2017-07-08T08:24:39Z</time>
      </trkpt>
      <trkpt lat="45.90923" lon="4.75366">
        <ele>185</ele>
        <time>2017-07-08T08:24:40Z</time>
      </trkpt>
      <trkpt lat="45.90922" lon="4.75378">
        <ele>185</ele>
        <time>2017-07-08T08:24:42Z</time>
      </trkpt>
      <trkpt lat="45.90922" lon="4.75383">
        <ele>185</ele>
        <time>2017-07-08T08:24:43Z</time>
      </trkpt>
      <trkpt lat="45.9092" lon="4.75393">
        <ele>185</ele>
        <time>2017-07-08T08:24:45Z</time>
      </trkpt>
      <trkpt lat="45.9092" lon="4.75399">
        <ele>185</ele>
        <time>2017-07-08T08:24:46Z</time>
      </trkpt>
      <trkpt lat="45.90919" lon="4.75409">
        <ele>185</ele>
        <time>2017-07-08T08:24:48Z</time>
      </trkpt>
      <trkpt lat="45.90918" lon="4.75414">
        <ele>185</ele>
        <time>2017-07-08T08:24:49Z</time>
      </trkpt>
      <trkpt lat="45.90917" lon="4.75424">
        <ele>185</ele>
        <time>2017-07-08T08:24:51Z</time>
      </trkpt>
      <trkpt lat="45.90917" lon="4.75429">
        <ele>185</ele>
        <time>2017-07-08T08:24:52Z</time>
      </trkpt>
      <trkpt lat="45.90916" lon="4.7544">
        <ele>185</ele>
        <time>2017-07-08T08:24:54Z</time>
      </trkpt>
      <trkpt lat="45.90916" lon="4.75446">
        <ele>186</ele>
        <time>2017-07-08T08:24:55Z</time>
      </trkpt>
      <trkpt lat="45.90914" lon="4.75458">
        <ele>186</ele>
        <time>2017-07-08T08:24:57Z</time>
      </trkpt>
      <trkpt lat="45.90914" lon="4.75464">
        <ele>186</ele>
        <time>2017-07-08T08:24:58Z</time>
      </trkpt>
      <trkpt lat="45.90914" lon="4.75476">
        <ele>186</ele>
        <time>2017-07-08T08:25:00Z</time>
      </trkpt>
      <trkpt lat="45.90913" lon="4.75482">
        <ele>186</ele>
        <time>2017-07-08T08:25:01Z</time>
      </trkpt>
      <trkpt lat="45.90911" lon="4.75494">
        <ele>186</ele>
        <time>2017-07-08T08:25:03Z</time>
      </trkpt>
      <trkpt lat="45.90911" lon="4.75499">
        <ele>186</ele>
        <time>2017-07-08T08:25:04Z</time>
      </trkpt>
      <trkpt lat="45.9091" lon="4.75509">
        <ele>186</ele>
        <time>2017-07-08T08:25:06Z</time>
      </trkpt>
      <trkpt lat="45.9091" lon="4.75514">
        <ele>186</ele>
        <time>2017-07-08T08:25:07Z</time>
      </trkpt>
      <trkpt lat="45.90909" lon="4.75524">
        <ele>186</ele>
        <time>2017-07-08T08:25:09Z</time>
      </trkpt>
      <trkpt lat="45.90909" lon="4.75528">
        <ele>186</ele>
        <time>2017-07-08T08:25:10Z</time>
      </trkpt>
      <trkpt lat="45.90907" lon="4.75537">
        <ele>186</ele>
        <time>2017-07-08T08:25:12Z</time>
      </trkpt>
      <trkpt lat="45.90907" lon="4.75542">
        <ele>186</ele>
        <time>2017-07-08T08:25:13Z</time>
      </trkpt>
      <trkpt lat="45.90906" lon="4.75554">
        <ele>186</ele>
        <time>2017-07-08T08:25:15Z</time>
      </trkpt>
      <trkpt lat="45.90905" lon="4.7556">
        <ele>186</ele>
        <time>2017-07-08T08:25:16Z</time>
      </trkpt>
      <trkpt lat="45.90903" lon="4.75572">
        <ele>186</ele>
        <time>2017-07-08T08:25:18Z</time>
      </trkpt>
      <trkpt lat="45.90903" lon="4.75578">
        <ele>185</ele>
        <time>2017-07-08T08:25:19Z</time>
      </trkpt>
      <trkpt lat="45.90902" lon="4.75589">
        <ele>185</ele>
        <time>2017-07-08T08:25:21Z</time>
      </trkpt>
      <trkpt lat="45.90901" lon="4.75595">
        <ele>185</ele>
        <time>2017-07-08T08:25:22Z</time>
      </trkpt>
      <trkpt lat="45.909" lon="4.75606">
        <ele>185</ele>
        <time>2017-07-08T08:25:24Z</time>
      </trkpt>
      <trkpt lat="45.90899" lon="4.75612">
        <ele>185</ele>
        <time>2017-07-08T08:25:25Z</time>
      </trkpt>
      <trkpt lat="45.90897" lon="4.75624">
        <ele>185</ele>
        <time>2017-07-08T08:25:27Z</time>
      </trkpt>
      <trkpt lat="45.90897" lon="4.75632">
        <ele>185</ele>
        <time>2017-07-08T08:25:28Z</time>
      </trkpt>
      <trkpt lat="45.90897" lon="4.75645">
        <ele>185</ele>
        <time>2017-07-08T08:25:30Z</time>
      </trkpt>
      <trkpt lat="45.90898" lon="4.7565">
        <ele>184</ele>
        <time>2017-07-08T08:25:31Z</time>
      </trkpt>
      <trkpt lat="45.90898" lon="4.75662">
        <ele>184</ele>
        <time>2017-07-08T08:25:33Z</time>
      </trkpt>
      <trkpt lat="45.90898" lon="4.75667">
        <ele>184</ele>
        <time>2017-07-08T08:25:34Z</time>
      </trkpt>
      <trkpt lat="45.90898" lon="4.75676">
        <ele>184</ele>
        <time>2017-07-08T08:25:36Z</time>
      </trkpt>
      <trkpt lat="45.90897" lon="4.75681">
        <ele>184</ele>
        <time>2017-07-08T08:25:37Z</time>
      </trkpt>
      <trkpt lat="45.90897" lon="4.75689">
        <ele>184</ele>
        <time>2017-07-08T08:25:39Z</time>
      </trkpt>
      <trkpt lat="45.90897" lon="4.75694">
        <ele>184</ele>
        <time>2017-07-08T08:25:40Z</time>
      </trkpt>
      <trkpt lat="45.90897" lon="4.75704">
        <ele>184</ele>
        <time>2017-07-08T08:25:42Z</time>
      </trkpt>
      <trkpt lat="45.90896" lon="4.75709">
        <ele>184</ele>
        <time>2017-07-08T08:25:43Z</time>
      </trkpt>
      <trkpt lat="45.90895" lon="4.7572">
        <ele>185</ele>
        <time>2017-07-08T08:25:45Z</time>
      </trkpt>
      <trkpt lat="45.90895" lon="4.75725">
        <ele>185</ele>
        <time>2017-07-08T08:25:46Z</time>
      </trkpt>
      <trkpt lat="45.90894" lon="4.75736">
        <ele>185</ele>
        <time>2017-07-08T08:25:48Z</time>
      </trkpt>
      <trkpt lat="45.90893" lon="4.75741">
        <ele>185</ele>
        <time>2017-07-08T08:25:49Z</time>
      </trkpt>
      <trkpt lat="45.90893" lon="4.75752">
        <ele>185</ele>
        <time>2017-07-08T08:25:51Z</time>
      </trkpt>
      <trkpt lat="45.90893" lon="4.75757">
        <ele>185</ele>
        <time>2017-07-08T08:25:52Z</time>
      </trkpt>
      <trkpt lat="45.90893" lon="4.75767">
        <ele>185</ele>
        <time>2017-07-08T08:25:54Z</time>
      </trkpt>
      <trkpt lat="45.90893" lon="4.75772">
        <ele>185</ele>
        <time>2017-07-08T08:25:55Z</time>
      </trkpt>
      <trkpt lat="45.90893" lon="4.75783">
        <ele>185</ele>
        <time>2017-07-08T08:25:57Z</time>
      </trkpt>
      <trkpt lat="45.90893" lon="4.75788">
        <ele>185</ele>
        <time>2017-07-08T08:25:58Z</time>
      </trkpt>
      <trkpt lat="45.90892" lon="4.75798">
        <ele>184</ele>
        <time>2017-07-08T08:26:00Z</time>
      </trkpt>
      <trkpt lat="45.90892" lon="4.75804">
        <ele>184</ele>
        <time>2017-07-08T08:26:01Z</time>
      </trkpt>
      <trkpt lat="45.90892" lon="4.75814">
        <ele>184</ele>
        <time>2017-07-08T08:26:03Z</time>
      </trkpt>
      <trkpt lat="45.9089" lon="4.75819">
        <ele>184</ele>
        <time>2017-07-08T08:26:04Z</time>
      </trkpt>
      <trkpt lat="45.9089" lon="4.75826">
        <ele>184</ele>
        <time>2017-07-08T08:26:05Z</time>
      </trkpt>
      <trkpt lat="45.9089" lon="4.75832">
        <ele>184</ele>
        <time>2017-07-08T08:26:06Z</time>
      </trkpt>
      <trkpt lat="45.9089" lon="4.75839">
        <ele>184</ele>
        <time>2017-07-08T08:26:07Z</time>
      </trkpt>
      <trkpt lat="45.9089" lon="4.75846">
        <ele>184</ele>
        <time>2017-07-08T08:26:08Z</time>
      </trkpt>
      <trkpt lat="45.90889" lon="4.75857">
        <ele>184</ele>
        <time>2017-07-08T08:26:10Z</time>
      </trkpt>
      <trkpt lat="45.90888" lon="4.75861">
        <ele>184</ele>
        <time>2017-07-08T08:26:11Z</time>
      </trkpt>
      <trkpt lat="45.90882" lon="4.75867">
        <ele>184</ele>
        <time>2017-07-08T08:26:13Z</time>
      </trkpt>
      <trkpt lat="45.90879" lon="4.75868">
        <ele>184</ele>
        <time>2017-07-08T08:26:14Z</time>
      </trkpt>
      <trkpt lat="45.90873" lon="4.75868">
        <ele>184</ele>
        <time>2017-07-08T08:26:16Z</time>
      </trkpt>
      <trkpt lat="45.90869" lon="4.75867">
        <ele>184</ele>
        <time>2017-07-08T08:26:17Z</time>
      </trkpt>
      <trkpt lat="45.90861" lon="4.75866">
        <ele>184</ele>
        <time>2017-07-08T08:26:19Z</time>
      </trkpt>
      <trkpt lat="45.90858" lon="4.75866">
        <ele>184</ele>
        <time>2017-07-08T08:26:20Z</time>
      </trkpt>
      <trkpt lat="45.9085" lon="4.75865">
        <ele>184</ele>
        <time>2017-07-08T08:26:22Z</time>
      </trkpt>
      <trkpt lat="45.90845" lon="4.75865">
        <ele>184</ele>
        <time>2017-07-08T08:26:23Z</time>
      </trkpt>
      <trkpt lat="45.90837" lon="4.75866">
        <ele>184</ele>
        <time>2017-07-08T08:26:25Z</time>
      </trkpt>
      <trkpt lat="45.90832" lon="4.75866">
        <ele>185</ele>
        <time>2017-07-08T08:26:26Z</time>
      </trkpt>
      <trkpt lat="45.90824" lon="4.75865">
        <ele>185</ele>
        <time>2017-07-08T08:26:28Z</time>
      </trkpt>
      <trkpt lat="45.9082" lon="4.75866">
        <ele>185</ele>
        <time>2017-07-08T08:26:29Z</time>
      </trkpt>
      <trkpt lat="45.90816" lon="4.75868">
        <ele>185</ele>
        <time>2017-07-08T08:26:31Z</time>
      </trkpt>
      <trkpt lat="45.9081" lon="4.75867">
        <ele>185</ele>
        <time>2017-07-08T08:26:32Z</time>
      </trkpt>
      <trkpt lat="45.90805" lon="4.75866">
        <ele>185</ele>
        <time>2017-07-08T08:26:33Z</time>
      </trkpt>
      <trkpt lat="45.908" lon="4.75866">
        <ele>185</ele>
        <time>2017-07-08T08:26:34Z</time>
      </trkpt>
      <trkpt lat="45.90792" lon="4.75864">
        <ele>185</ele>
        <time>2017-07-08T08:26:36Z</time>
      </trkpt>
      <trkpt lat="45.90787" lon="4.75862">
        <ele>185</ele>
        <time>2017-07-08T08:26:37Z</time>
      </trkpt>
      <trkpt lat="45.90778" lon="4.75862">
        <ele>185</ele>
        <time>2017-07-08T08:26:39Z</time>
      </trkpt>
      <trkpt lat="45.90775" lon="4.75862">
        <ele>185</ele>
        <time>2017-07-08T08:26:40Z</time>
      </trkpt>
      <trkpt lat="45.90768" lon="4.7586">
        <ele>185</ele>
        <time>2017-07-08T08:26:42Z</time>
      </trkpt>
      <trkpt lat="45.90765" lon="4.7586">
        <ele>185</ele>
        <time>2017-07-08T08:26:43Z</time>
      </trkpt>
      <trkpt lat="45.90757" lon="4.75861">
        <ele>185</ele>
        <time>2017-07-08T08:26:45Z</time>
      </trkpt>
      <trkpt lat="45.90753" lon="4.75861">
        <ele>185</ele>
        <time>2017-07-08T08:26:46Z</time>
      </trkpt>
      <trkpt lat="45.90746" lon="4.7586">
        <ele>186</ele>
        <time>2017-07-08T08:26:48Z</time>
      </trkpt>
      <trkpt lat="45.90741" lon="4.7586">
        <ele>186</ele>
        <time>2017-07-08T08:26:49Z</time>
      </trkpt>
      <trkpt lat="45.90736" lon="4.7586">
        <ele>186</ele>
        <time>2017-07-08T08:26:50Z</time>
      </trkpt>
      <trkpt lat="45.90732" lon="4.75859">
        <ele>186</ele>
        <time>2017-07-08T08:26:51Z</time>
      </trkpt>
      <trkpt lat="45.90723" lon="4.75858">
        <ele>186</ele>
        <time>2017-07-08T08:26:53Z</time>
      </trkpt>
      <trkpt lat="45.90719" lon="4.75858">
        <ele>186</ele>
        <time>2017-07-08T08:26:54Z</time>
      </trkpt>
      <trkpt lat="45.90712" lon="4.7586">
        <ele>187</ele>
        <time>2017-07-08T08:26:56Z</time>
      </trkpt>
      <trkpt lat="45.90708" lon="4.7586">
        <ele>187</ele>
        <time>2017-07-08T08:26:57Z</time>
      </trkpt>
      <trkpt lat="45.90701" lon="4.75863">
        <ele>187</ele>
        <time>2017-07-08T08:26:59Z</time>
      </trkpt>
      <trkpt lat="45.90697" lon="4.75865">
        <ele>187</ele>
        <time>2017-07-08T08:27:00Z</time>
      </trkpt>
      <trkpt lat="45.90689" lon="4.75868">
        <ele>187</ele>
        <time>2017-07-08T08:27:02Z</time>
      </trkpt>
      <trkpt lat="45.9068" lon="4.7587">
        <ele>187</ele>
        <time>2017-07-08T08:27:03Z</time>
      </trkpt>
      <trkpt lat="45.90675" lon="4.75872">
        <ele>187</ele>
        <time>2017-07-08T08:27:04Z</time>
      </trkpt>
      <trkpt lat="45.90671" lon="4.75877">
        <ele>187</ele>
        <time>2017-07-08T08:27:05Z</time>
      </trkpt>
      <trkpt lat="45.90665" lon="4.75886">
        <ele>187</ele>
        <time>2017-07-08T08:27:07Z</time>
      </trkpt>
      <trkpt lat="45.90663" lon="4.75891">
        <ele>187</ele>
        <time>2017-07-08T08:27:08Z</time>
      </trkpt>
      <trkpt lat="45.90656" lon="4.759">
        <ele>187</ele>
        <time>2017-07-08T08:27:10Z</time>
      </trkpt>
      <trkpt lat="45.90654" lon="4.75903">
        <ele>187</ele>
        <time>2017-07-08T08:27:11Z</time>
      </trkpt>
      <trkpt lat="45.90648" lon="4.7591">
        <ele>187</ele>
        <time>2017-07-08T08:27:13Z</time>
      </trkpt>
      <trkpt lat="45.90646" lon="4.75914">
        <ele>187</ele>
        <time>2017-07-08T08:27:14Z</time>
      </trkpt>
      <trkpt lat="45.9064" lon="4.75923">
        <ele>186</ele>
        <time>2017-07-08T08:27:16Z</time>
      </trkpt>
      <trkpt lat="45.90638" lon="4.75927">
        <ele>186</ele>
        <time>2017-07-08T08:27:17Z</time>
      </trkpt>
      <trkpt lat="45.90633" lon="4.75937">
        <ele>186</ele>
        <time>2017-07-08T08:27:19Z</time>
      </trkpt>
      <trkpt lat="45.9063" lon="4.75942">
        <ele>186</ele>
        <time>2017-07-08T08:27:20Z</time>
      </trkpt>
      <trkpt lat="45.90627" lon="4.75948">
        <ele>186</ele>
        <time>2017-07-08T08:27:21Z</time>
      </trkpt>
      <trkpt lat="45.90624" lon="4.75953">
        <ele>186</ele>
        <time>2017-07-08T08:27:22Z</time>
      </trkpt>
      <trkpt lat="45.90621" lon="4.75958">
        <ele>186</ele>
        <time>2017-07-08T08:27:23Z</time>
      </trkpt>
      <trkpt lat="45.90618" lon="4.75963">
        <ele>186</ele>
        <time>2017-07-08T08:27:24Z</time>
      </trkpt>
      <trkpt lat="45.90614" lon="4.75969">
        <ele>186</ele>
        <time>2017-07-08T08:27:25Z</time>
      </trkpt>
      <trkpt lat="45.90611" lon="4.75974">
        <ele>186</ele>
        <time>2017-07-08T08:27:26Z</time>
      </trkpt>
      <trkpt lat="45.90607" lon="4.75979">
        <ele>186</ele>
        <time>2017-07-08T08:27:27Z</time>
      </trkpt>
      <trkpt lat="45.90602" lon="4.75981">
        <ele>186</ele>
        <time>2017-07-08T08:27:28Z</time>
      </trkpt>
      <trkpt lat="45.90593" lon="4.75982">
        <ele>186</ele>
        <time>2017-07-08T08:27:30Z</time>
      </trkpt>
      <trkpt lat="45.9059" lon="4.75979">
        <ele>186</ele>
        <time>2017-07-08T08:27:31Z</time>
      </trkpt>
      <trkpt lat="45.90583" lon="4.75973">
        <ele>186</ele>
        <time>2017-07-08T08:27:33Z</time>
      </trkpt>
      <trkpt lat="45.90579" lon="4.7597">
        <ele>186</ele>
        <time>2017-07-08T08:27:34Z</time>
      </trkpt>
      <trkpt lat="45.90572" lon="4.75963">
        <ele>186</ele>
        <time>2017-07-08T08:27:36Z</time>
      </trkpt>
      <trkpt lat="45.90568" lon="4.75959">
        <ele>186</ele>
        <time>2017-07-08T08:27:37Z</time>
      </trkpt>
      <trkpt lat="45.90561" lon="4.75952">
        <ele>186</ele>
        <time>2017-07-08T08:27:39Z</time>
      </trkpt>
      <trkpt lat="45.90557" lon="4.7595">
        <ele>186</ele>
        <time>2017-07-08T08:27:40Z</time>
      </trkpt>
      <trkpt lat="45.90549" lon="4.75944">
        <ele>186</ele>
        <time>2017-07-08T08:27:42Z</time>
      </trkpt>
      <trkpt lat="45.90545" lon="4.75941">
        <ele>186</ele>
        <time>2017-07-08T08:27:43Z</time>
      </trkpt>
      <trkpt lat="45.90538" lon="4.75935">
        <ele>186</ele>
        <time>2017-07-08T08:27:45Z</time>
      </trkpt>
      <trkpt lat="45.90535" lon="4.75932">
        <ele>186</ele>
        <time>2017-07-08T08:27:46Z</time>
      </trkpt>
      <trkpt lat="45.90527" lon="4.75928">
        <ele>186</ele>
        <time>2017-07-08T08:27:48Z</time>
      </trkpt>
      <trkpt lat="45.90523" lon="4.75927">
        <ele>186</ele>
        <time>2017-07-08T08:27:49Z</time>
      </trkpt>
      <trkpt lat="45.90515" lon="4.75926">
        <ele>187</ele>
        <time>2017-07-08T08:27:51Z</time>
      </trkpt>
      <trkpt lat="45.90511" lon="4.75925">
        <ele>187</ele>
        <time>2017-07-08T08:27:52Z</time>
      </trkpt>
      <trkpt lat="45.90504" lon="4.75925">
        <ele>187</ele>
        <time>2017-07-08T08:27:54Z</time>
      </trkpt>
      <trkpt lat="45.90501" lon="4.75926">
        <ele>187</ele>
        <time>2017-07-08T08:27:55Z</time>
      </trkpt>
      <trkpt lat="45.90494" lon="4.75927">
        <ele>187</ele>
        <time>2017-07-08T08:27:57Z</time>
      </trkpt>
      <trkpt lat="45.9049" lon="4.75928">
        <ele>187</ele>
        <time>2017-07-08T08:27:58Z</time>
      </trkpt>
      <trkpt lat="45.90484" lon="4.7593">
        <ele>187</ele>
        <time>2017-07-08T08:28:00Z</time>
      </trkpt>
      <trkpt lat="45.9048" lon="4.7593">
        <ele>187</ele>
        <time>2017-07-08T08:28:01Z</time>
      </trkpt>
      <trkpt lat="45.90472" lon="4.75931">
        <ele>187</ele>
        <time>2017-07-08T08:28:03Z</time>
      </trkpt>
      <trkpt lat="45.90469" lon="4.75931">
        <ele>187</ele>
        <time>2017-07-08T08:28:04Z</time>
      </trkpt>
      <trkpt lat="45.90461" lon="4.75933">
        <ele>187</ele>
        <time>2017-07-08T08:28:06Z</time>
      </trkpt>
      <trkpt lat="45.90457" lon="4.75934">
        <ele>187</ele>
        <time>2017-07-08T08:28:07Z</time>
      </trkpt>
      <trkpt lat="45.90448" lon="4.75934">
        <ele>187</ele>
        <time>2017-07-08T08:28:09Z</time>
      </trkpt>
      <trkpt lat="45.90444" lon="4.75934">
        <ele>187</ele>
        <time>2017-07-08T08:28:10Z</time>
      </trkpt>
      <trkpt lat="45.90437" lon="4.75935">
        <ele>187</ele>
        <time>2017-07-08T08:28:12Z</time>
      </trkpt>
      <trkpt lat="45.90434" lon="4.75936">
        <ele>187</ele>
        <time>2017-07-08T08:28:13Z</time>
      </trkpt>
      <trkpt lat="45.90426" lon="4.75936">
        <ele>187</ele>
        <time>2017-07-08T08:28:15Z</time>
      </trkpt>
      <trkpt lat="45.90423" lon="4.75936">
        <ele>187</ele>
        <time>2017-07-08T08:28:16Z</time>
      </trkpt>
      <trkpt lat="45.90414" lon="4.75937">
        <ele>187</ele>
        <time>2017-07-08T08:28:18Z</time>
      </trkpt>
      <trkpt lat="45.9041" lon="4.75938">
        <ele>187</ele>
        <time>2017-07-08T08:28:19Z</time>
      </trkpt>
      <trkpt lat="45.90405" lon="4.75938">
        <ele>187</ele>
        <time>2017-07-08T08:28:20Z</time>
      </trkpt>
      <trkpt lat="45.90401" lon="4.75939">
        <ele>187</ele>
        <time>2017-07-08T08:28:21Z</time>
      </trkpt>
      <trkpt lat="45.90396" lon="4.7594">
        <ele>187</ele>
        <time>2017-07-08T08:28:22Z</time>
      </trkpt>
      <trkpt lat="45.90391" lon="4.7594">
        <ele>187</ele>
        <time>2017-07-08T08:28:23Z</time>
      </trkpt>
      <trkpt lat="45.90382" lon="4.75938">
        <ele>187</ele>
        <time>2017-07-08T08:28:25Z</time>
      </trkpt>
      <trkpt lat="45.90378" lon="4.75935">
        <ele>187</ele>
        <time>2017-07-08T08:28:26Z</time>
      </trkpt>
      <trkpt lat="45.90371" lon="4.75927">
        <ele>187</ele>
        <time>2017-07-08T08:28:28Z</time>
      </trkpt>
      <trkpt lat="45.90367" lon="4.75922">
        <ele>187</ele>
        <time>2017-07-08T08:28:29Z</time>
      </trkpt>
      <trkpt lat="45.90361" lon="4.75913">
        <ele>188</ele>
        <time>2017-07-08T08:28:31Z</time>
      </trkpt>
      <trkpt lat="45.90359" lon="4.75909">
        <ele>188</ele>
        <time>2017-07-08T08:28:32Z</time>
      </trkpt>
      <trkpt lat="45.90353" lon="4.759">
        <ele>188</ele>
        <time>2017-07-08T08:28:34Z</time>
      </trkpt>
      <trkpt lat="45.9035" lon="4.75896">
        <ele>188</ele>
        <time>2017-07-08T08:28:35Z</time>
      </trkpt>
      <trkpt lat="45.90346" lon="4.75887">
        <ele>188</ele>
        <time>2017-07-08T08:28:37Z</time>
      </trkpt>
      <trkpt lat="45.90344" lon="4.75883">
        <ele>188</ele>
        <time>2017-07-08T08:28:38Z</time>
      </trkpt>
      <trkpt lat="45.90342" lon="4.75878">
        <ele>188</ele>
        <time>2017-07-08T08:28:39Z</time>
      </trkpt>
      <trkpt lat="45.90338" lon="4.75873">
        <ele>188</ele>
        <time>2017-07-08T08:28:40Z</time>
      </trkpt>
      <trkpt lat="45.90333" lon="4.75862">
        <ele>189</ele>
        <time>2017-07-08T08:28:42Z</time>
      </trkpt>
      <trkpt lat="45.9033" lon="4.75857">
        <ele>189</ele>
        <time>2017-07-08T08:28:43Z</time>
      </trkpt>
      <trkpt lat="45.90328" lon="4.75852">
        <ele>189</ele>
        <time>2017-07-08T08:28:44Z</time>
      </trkpt>
      <trkpt lat="45.90325" lon="4.75847">
        <ele>189</ele>
        <time>2017-07-08T08:28:45Z</time>
      </trkpt>
      <trkpt lat="45.9032" lon="4.75842">
        <ele>189</ele>
        <time>2017-07-08T08:28:46Z</time>
      </trkpt>
      <trkpt lat="45.90316" lon="4.75837">
        <ele>189</ele>
        <time>2017-07-08T08:28:47Z</time>
      </trkpt>
      <trkpt lat="45.90308" lon="4.75832">
        <ele>189</ele>
        <time>2017-07-08T08:28:49Z</time>
      </trkpt>
      <trkpt lat="45.90305" lon="4.75831">
        <ele>189</ele>
        <time>2017-07-08T08:28:50Z</time>
      </trkpt>
      <trkpt lat="45.90297" lon="4.75828">
        <ele>189</ele>
        <time>2017-07-08T08:28:52Z</time>
      </trkpt>
      <trkpt lat="45.90293" lon="4.75827">
        <ele>189</ele>
        <time>2017-07-08T08:28:53Z</time>
      </trkpt>
      <trkpt lat="45.90286" lon="4.75826">
        <ele>189</ele>
        <time>2017-07-08T08:28:55Z</time>
      </trkpt>
      <trkpt lat="45.90282" lon="4.75826">
        <ele>189</ele>
        <time>2017-07-08T08:28:56Z</time>
      </trkpt>
      <trkpt lat="45.90277" lon="4.75825">
        <ele>189</ele>
        <time>2017-07-08T08:28:57Z</time>
      </trkpt>
      <trkpt lat="45.90273" lon="4.75825">
        <ele>189</ele>
        <time>2017-07-08T08:28:58Z</time>
      </trkpt>
      <trkpt lat="45.90268" lon="4.75824">
        <ele>190</ele>
        <time>2017-07-08T08:28:59Z</time>
      </trkpt>
      <trkpt lat="45.90264" lon="4.75822">
        <ele>190</ele>
        <time>2017-07-08T08:29:00Z</time>
      </trkpt>
      <trkpt lat="45.90259" lon="4.75821">
        <ele>190</ele>
        <time>2017-07-08T08:29:01Z</time>
      </trkpt>
      <trkpt lat="45.90255" lon="4.75819">
        <ele>190</ele>
        <time>2017-07-08T08:29:02Z</time>
      </trkpt>
      <trkpt lat="45.90247" lon="4.75817">
        <ele>190</ele>
        <time>2017-07-08T08:29:04Z</time>
      </trkpt>
      <trkpt lat="45.90243" lon="4.75816">
        <ele>190</ele>
        <time>2017-07-08T08:29:05Z</time>
      </trkpt>
      <trkpt lat="45.90235" lon="4.75813">
        <ele>190</ele>
        <time>2017-07-08T08:29:07Z</time>
      </trkpt>
      <trkpt lat="45.90231" lon="4.75812">
        <ele>190</ele>
        <time>2017-07-08T08:29:08Z</time>
      </trkpt>
      <trkpt lat="45.90223" lon="4.75809">
        <ele>190</ele>
        <time>2017-07-08T08:29:10Z</time>
      </trkpt>
      <trkpt lat="45.90219" lon="4.75807">
        <ele>190</ele>
        <time>2017-07-08T08:29:11Z</time>
      </trkpt>
      <trkpt lat="45.9021" lon="4.75805">
        <ele>190</ele>
        <time>2017-07-08T08:29:13Z</time>
      </trkpt>
      <trkpt lat="45.90206" lon="4.75804">
        <ele>190</ele>
        <time>2017-07-08T08:29:14Z</time>
      </trkpt>
      <trkpt lat="45.90197" lon="4.75802">
        <ele>190</ele>
        <time>2017-07-08T08:29:16Z</time>
      </trkpt>
      <trkpt lat="45.90193" lon="4.75801">
        <ele>190</ele>
        <time>2017-07-08T08:29:17Z</time>
      </trkpt>
      <trkpt lat="45.90184" lon="4.75801">
        <ele>190</ele>
        <time>2017-07-08T08:29:19Z</time>
      </trkpt>
      <trkpt lat="45.9018" lon="4.75801">
        <ele>190</ele>
        <time>2017-07-08T08:29:20Z</time>
      </trkpt>
      <trkpt lat="45.90173" lon="4.75801">
        <ele>190</ele>
        <time>2017-07-08T08:29:22Z</time>
      </trkpt>
      <trkpt lat="45.90168" lon="4.758">
        <ele>190</ele>
        <time>2017-07-08T08:29:23Z</time>
      </trkpt>
      <trkpt lat="45.90159" lon="4.75799">
        <ele>191</ele>
        <time>2017-07-08T08:29:25Z</time>
      </trkpt>
      <trkpt lat="45.90155" lon="4.75798">
        <ele>191</ele>
        <time>2017-07-08T08:29:26Z</time>
      </trkpt>
      <trkpt lat="45.90151" lon="4.75796">
        <ele>191</ele>
        <time>2017-07-08T08:29:27Z</time>
      </trkpt>
      <trkpt lat="45.90146" lon="4.75794">
        <ele>191</ele>
        <time>2017-07-08T08:29:28Z</time>
      </trkpt>
      <trkpt lat="45.90142" lon="4.75792">
        <ele>191</ele>
        <time>2017-07-08T08:29:29Z</time>
      </trkpt>
      <trkpt lat="45.90137" lon="4.7579">
        <ele>191</ele>
        <time>2017-07-08T08:29:30Z</time>
      </trkpt>
      <trkpt lat="45.90129" lon="4.75785">
        <ele>191</ele>
        <time>2017-07-08T08:29:32Z</time>
      </trkpt>
      <trkpt lat="45.90125" lon="4.75783">
        <ele>191</ele>
        <time>2017-07-08T08:29:33Z</time>
      </trkpt>
      <trkpt lat="45.90117" lon="4.75779">
        <ele>191</ele>
        <time>2017-07-08T08:29:35Z</time>
      </trkpt>
      <trkpt lat="45.90113" lon="4.75778">
        <ele>191</ele>
        <time>2017-07-08T08:29:36Z</time>
      </trkpt>
      <trkpt lat="45.90106" lon="4.75774">
        <ele>191</ele>
        <time>2017-07-08T08:29:38Z</time>
      </trkpt>
      <trkpt lat="45.90102" lon="4.75772">
        <ele>191</ele>
        <time>2017-07-08T08:29:39Z</time>
      </trkpt>
      <trkpt lat="45.90094" lon="4.75768">
        <ele>191</ele>
        <time>2017-07-08T08:29:41Z</time>
      </trkpt>
      <trkpt lat="45.9009" lon="4.75765">
        <ele>192</ele>
        <time>2017-07-08T08:29:42Z</time>
      </trkpt>
      <trkpt lat="45.90083" lon="4.7576">
        <ele>192</ele>
        <time>2017-07-08T08:29:44Z</time>
      </trkpt>
      <trkpt lat="45.90078" lon="4.75757">
        <ele>192</ele>
        <time>2017-07-08T08:29:45Z</time>
      </trkpt>
      <trkpt lat="45.90074" lon="4.75755">
        <ele>192</ele>
        <time>2017-07-08T08:29:46Z</time>
      </trkpt>
      <trkpt lat="45.9007" lon="4.75752">
        <ele>192</ele>
        <time>2017-07-08T08:29:47Z</time>
      </trkpt>
      <trkpt lat="45.90062" lon="4.75748">
        <ele>192</ele>
        <time>2017-07-08T08:29:49Z</time>
      </trkpt>
      <trkpt lat="45.90058" lon="4.75746">
        <ele>192</ele>
        <time>2017-07-08T08:29:50Z</time>
      </trkpt>
      <trkpt lat="45.9005" lon="4.75743">
        <ele>192</ele>
        <time>2017-07-08T08:29:52Z</time>
      </trkpt>
      <trkpt lat="45.90047" lon="4.75741">
        <ele>192</ele>
        <time>2017-07-08T08:29:53Z</time>
      </trkpt>
      <trkpt lat="45.90039" lon="4.75738">
        <ele>193</ele>
        <time>2017-07-08T08:29:55Z</time>
      </trkpt>
      <trkpt lat="45.90035" lon="4.75737">
        <ele>193</ele>
        <time>2017-07-08T08:29:56Z</time>
      </trkpt>
      <trkpt lat="45.90026" lon="4.75736">
        <ele>193</ele>
        <time>2017-07-08T08:29:58Z</time>
      </trkpt>
      <trkpt lat="45.90022" lon="4.75736">
        <ele>193</ele>
        <time>2017-07-08T08:29:59Z</time>
      </trkpt>
      <trkpt lat="45.90017" lon="4.75736">
        <ele>193</ele>
        <time>2017-07-08T08:30:00Z</time>
      </trkpt>
      <trkpt lat="45.90013" lon="4.75737">
        <ele>193</ele>
        <time>2017-07-08T08:30:01Z</time>
      </trkpt>
      <trkpt lat="45.90008" lon="4.75739">
        <ele>193</ele>
        <time>2017-07-08T08:30:02Z</time>
      </trkpt>
      <trkpt lat="45.90003" lon="4.75741">
        <ele>193</ele>
        <time>2017-07-08T08:30:03Z</time>
      </trkpt>
      <trkpt lat="45.89999" lon="4.75743">
        <ele>193</ele>
        <time>2017-07-08T08:30:04Z</time>
      </trkpt>
      <trkpt lat="45.89994" lon="4.75745">
        <ele>193</ele>
        <time>2017-07-08T08:30:05Z</time>
      </trkpt>
      <trkpt lat="45.89986" lon="4.75748">
        <ele>193</ele>
        <time>2017-07-08T08:30:07Z</time>
      </trkpt>
      <trkpt lat="45.89982" lon="4.7575">
        <ele>192</ele>
        <time>2017-07-08T08:30:08Z</time>
      </trkpt>
      <trkpt lat="45.89977" lon="4.75751">
        <ele>192</ele>
        <time>2017-07-08T08:30:09Z</time>
      </trkpt>
      <trkpt lat="45.89972" lon="4.75754">
        <ele>192</ele>
        <time>2017-07-08T08:30:10Z</time>
      </trkpt>
      <trkpt lat="45.89966" lon="4.75756">
        <ele>192</ele>
        <time>2017-07-08T08:30:11Z</time>
      </trkpt>
      <trkpt lat="45.89962" lon="4.75758">
        <ele>192</ele>
        <time>2017-07-08T08:30:12Z</time>
      </trkpt>
      <trkpt lat="45.89957" lon="4.7576">
        <ele>192</ele>
        <time>2017-07-08T08:30:13Z</time>
      </trkpt>
      <trkpt lat="45.89952" lon="4.75763">
        <ele>192</ele>
        <time>2017-07-08T08:30:14Z</time>
      </trkpt>
      <trkpt lat="45.89948" lon="4.75766">
        <ele>192</ele>
        <time>2017-07-08T08:30:15Z</time>
      </trkpt>
      <trkpt lat="45.89943" lon="4.75768">
        <ele>192</ele>
        <time>2017-07-08T08:30:16Z</time>
      </trkpt>
      <trkpt lat="45.89939" lon="4.75771">
        <ele>192</ele>
        <time>2017-07-08T08:30:17Z</time>
      </trkpt>
      <trkpt lat="45.89934" lon="4.75772">
        <ele>192</ele>
        <time>2017-07-08T08:30:18Z</time>
      </trkpt>
      <trkpt lat="45.89926" lon="4.75776">
        <ele>192</ele>
        <time>2017-07-08T08:30:20Z</time>
      </trkpt>
      <trkpt lat="45.89923" lon="4.75778">
        <ele>192</ele>
        <time>2017-07-08T08:30:21Z</time>
      </trkpt>
      <trkpt lat="45.89916" lon="4.75781">
        <ele>192</ele>
        <time>2017-07-08T08:30:23Z</time>
      </trkpt>
      <trkpt lat="45.89912" lon="4.75783">
        <ele>192</ele>
        <time>2017-07-08T08:30:24Z</time>
      </trkpt>
      <trkpt lat="45.89904" lon="4.75787">
        <ele>192</ele>
        <time>2017-07-08T08:30:26Z</time>
      </trkpt>
      <trkpt lat="45.89901" lon="4.75788">
        <ele>192</ele>
        <time>2017-07-08T08:30:27Z</time>
      </trkpt>
      <trkpt lat="45.89893" lon="4.75791">
        <ele>192</ele>
        <time>2017-07-08T08:30:29Z</time>
      </trkpt>
      <trkpt lat="45.89889" lon="4.75793">
        <ele>192</ele>
        <time>2017-07-08T08:30:30Z</time>
      </trkpt>
      <trkpt lat="45.89881" lon="4.75797">
        <ele>192</ele>
        <time>2017-07-08T08:30:32Z</time>
      </trkpt>
      <trkpt lat="45.89877" lon="4.758">
        <ele>192</ele>
        <time>2017-07-08T08:30:33Z</time>
      </trkpt>
      <trkpt lat="45.8987" lon="4.75807">
        <ele>192</ele>
        <time>2017-07-08T08:30:35Z</time>
      </trkpt>
      <trkpt lat="45.89866" lon="4.75811">
        <ele>192</ele>
        <time>2017-07-08T08:30:36Z</time>
      </trkpt>
      <trkpt lat="45.89862" lon="4.75815">
        <ele>192</ele>
        <time>2017-07-08T08:30:37Z</time>
      </trkpt>
      <trkpt lat="45.89857" lon="4.75819">
        <ele>192</ele>
        <time>2017-07-08T08:30:38Z</time>
      </trkpt>
      <trkpt lat="45.89852" lon="4.75823">
        <ele>192</ele>
        <time>2017-07-08T08:30:39Z</time>
      </trkpt>
      <trkpt lat="45.89849" lon="4.75829">
        <ele>192</ele>
        <time>2017-07-08T08:30:40Z</time>
      </trkpt>
      <trkpt lat="45.89843" lon="4.75837">
        <ele>192</ele>
        <time>2017-07-08T08:30:42Z</time>
      </trkpt>
      <trkpt lat="45.89839" lon="4.75841">
        <ele>192</ele>
        <time>2017-07-08T08:30:43Z</time>
      </trkpt>
      <trkpt lat="45.89833" lon="4.7585">
        <ele>193</ele>
        <time>2017-07-08T08:30:45Z</time>
      </trkpt>
      <trkpt lat="45.89829" lon="4.75855">
        <ele>193</ele>
        <time>2017-07-08T08:30:46Z</time>
      </trkpt>
      <trkpt lat="45.89826" lon="4.7586">
        <ele>193</ele>
        <time>2017-07-08T08:30:47Z</time>
      </trkpt>
      <trkpt lat="45.89823" lon="4.75865">
        <ele>194</ele>
        <time>2017-07-08T08:30:48Z</time>
      </trkpt>
      <trkpt lat="45.8982" lon="4.7587">
        <ele>194</ele>
        <time>2017-07-08T08:30:49Z</time>
      </trkpt>
      <trkpt lat="45.89818" lon="4.75876">
        <ele>194</ele>
        <time>2017-07-08T08:30:50Z</time>
      </trkpt>
      <trkpt lat="45.89815" lon="4.75882">
        <ele>194</ele>
        <time>2017-07-08T08:30:51Z</time>
      </trkpt>
      <trkpt lat="45.89813" lon="4.75888">
        <ele>194</ele>
        <time>2017-07-08T08:30:52Z</time>
      </trkpt>
      <trkpt lat="45.89811" lon="4.75895">
        <ele>194</ele>
        <time>2017-07-08T08:30:53Z</time>
      </trkpt>
      <trkpt lat="45.89809" lon="4.75901">
        <ele>194</ele>
        <time>2017-07-08T08:30:54Z</time>
      </trkpt>
      <trkpt lat="45.89807" lon="4.75913">
        <ele>194</ele>
        <time>2017-07-08T08:30:56Z</time>
      </trkpt>
      <trkpt lat="45.89805" lon="4.75918">
        <ele>195</ele>
        <time>2017-07-08T08:30:57Z</time>
      </trkpt>
      <trkpt lat="45.89802" lon="4.75929">
        <ele>195</ele>
        <time>2017-07-08T08:30:59Z</time>
      </trkpt>
      <trkpt lat="45.89801" lon="4.75934">
        <ele>195</ele>
        <time>2017-07-08T08:31:00Z</time>
      </trkpt>
      <trkpt lat="45.89798" lon="4.75945">
        <ele>195</ele>
        <time>2017-07-08T08:31:02Z</time>
      </trkpt>
      <trkpt lat="45.89797" lon="4.7595">
        <ele>195</ele>
        <time>2017-07-08T08:31:03Z</time>
      </trkpt>
      <trkpt lat="45.89794" lon="4.7596">
        <ele>195</ele>
        <time>2017-07-08T08:31:05Z</time>
      </trkpt>
      <trkpt lat="45.89793" lon="4.75964">
        <ele>195</ele>
        <time>2017-07-08T08:31:06Z</time>
      </trkpt>
      <trkpt lat="45.89791" lon="4.75974">
        <ele>195</ele>
        <time>2017-07-08T08:31:08Z</time>
      </trkpt>
      <trkpt lat="45.8979" lon="4.75978">
        <ele>195</ele>
        <time>2017-07-08T08:31:09Z</time>
      </trkpt>
      <trkpt lat="45.89788" lon="4.75989">
        <ele>195</ele>
        <time>2017-07-08T08:31:11Z</time>
      </trkpt>
      <trkpt lat="45.89785" lon="4.75994">
        <ele>195</ele>
        <time>2017-07-08T08:31:12Z</time>
      </trkpt>
      <trkpt lat="45.89783" lon="4.76">
        <ele>195</ele>
        <time>2017-07-08T08:31:13Z</time>
      </trkpt>
      <trkpt lat="45.89781" lon="4.76006">
        <ele>195</ele>
        <time>2017-07-08T08:31:14Z</time>
      </trkpt>
      <trkpt lat="45.89776" lon="4.76017">
        <ele>195</ele>
        <time>2017-07-08T08:31:16Z</time>
      </trkpt>
      <trkpt lat="45.89774" lon="4.76022">
        <ele>195</ele>
        <time>2017-07-08T08:31:17Z</time>
      </trkpt>
      <trkpt lat="45.8977" lon="4.76032">
        <ele>195</ele>
        <time>2017-07-08T08:31:19Z</time>
      </trkpt>
      <trkpt lat="45.89768" lon="4.76036">
        <ele>195</ele>
        <time>2017-07-08T08:31:20Z</time>
      </trkpt>
      <trkpt lat="45.89763" lon="4.76044">
        <ele>195</ele>
        <time>2017-07-08T08:31:22Z</time>
      </trkpt>
      <trkpt lat="45.89761" lon="4.76047">
        <ele>195</ele>
        <time>2017-07-08T08:31:23Z</time>
      </trkpt>
      <trkpt lat="45.8976" lon="4.76049">
        <ele>195</ele>
        <time>2017-07-08T08:31:27Z</time>
      </trkpt>
      <trkpt lat="45.8976" lon="4.7605">
        <ele>195</ele>
        <time>2017-07-08T08:31:28Z</time>
      </trkpt>
      <trkpt lat="45.8976" lon="4.76051">
        <ele>195</ele>
        <time>2017-07-08T08:31:34Z</time>
      </trkpt>
      <trkpt lat="45.89761" lon="4.76051">
        <ele>195</ele>
        <time>2017-07-08T08:31:35Z</time>
      </trkpt>
      <trkpt lat="45.89765" lon="4.7604">
        <ele>195</ele>
        <time>2017-07-08T08:31:41Z</time>
      </trkpt>
      <trkpt lat="45.89767" lon="4.76036">
        <ele>195</ele>
        <time>2017-07-08T08:31:42Z</time>
      </trkpt>
      <trkpt lat="45.89772" lon="4.76027">
        <ele>195</ele>
        <time>2017-07-08T08:31:44Z</time>
      </trkpt>
      <trkpt lat="45.89774" lon="4.76022">
        <ele>195</ele>
        <time>2017-07-08T08:31:45Z</time>
      </trkpt>
      <trkpt lat="45.89776" lon="4.76016">
        <ele>195</ele>
        <time>2017-07-08T08:31:46Z</time>
      </trkpt>
      <trkpt lat="45.89779" lon="4.7601">
        <ele>195</ele>
        <time>2017-07-08T08:31:47Z</time>
      </trkpt>
      <trkpt lat="45.89783" lon="4.76">
        <ele>195</ele>
        <time>2017-07-08T08:31:49Z</time>
      </trkpt>
      <trkpt lat="45.89785" lon="4.75994">
        <ele>195</ele>
        <time>2017-07-08T08:31:50Z</time>
      </trkpt>
      <trkpt lat="45.89787" lon="4.75988">
        <ele>195</ele>
        <time>2017-07-08T08:31:51Z</time>
      </trkpt>
      <trkpt lat="45.89789" lon="4.75982">
        <ele>195</ele>
        <time>2017-07-08T08:31:52Z</time>
      </trkpt>
      <trkpt lat="45.89792" lon="4.7597">
        <ele>195</ele>
        <time>2017-07-08T08:31:54Z</time>
      </trkpt>
      <trkpt lat="45.89794" lon="4.75965">
        <ele>195</ele>
        <time>2017-07-08T08:31:55Z</time>
      </trkpt>
      <trkpt lat="45.89797" lon="4.75955">
        <ele>195</ele>
        <time>2017-07-08T08:31:57Z</time>
      </trkpt>
      <trkpt lat="45.89797" lon="4.75951">
        <ele>195</ele>
        <time>2017-07-08T08:31:58Z</time>
      </trkpt>
      <trkpt lat="45.898" lon="4.7594">
        <ele>195</ele>
        <time>2017-07-08T08:32:02Z</time>
      </trkpt>
      <trkpt lat="45.89801" lon="4.75938">
        <ele>195</ele>
        <time>2017-07-08T08:32:03Z</time>
      </trkpt>
      <trkpt lat="45.89805" lon="4.75927">
        <ele>195</ele>
        <time>2017-07-08T08:32:09Z</time>
      </trkpt>
      <trkpt lat="45.89805" lon="4.75924">
        <ele>195</ele>
        <time>2017-07-08T08:32:10Z</time>
      </trkpt>
      <trkpt lat="45.89808" lon="4.75913">
        <ele>194</ele>
        <time>2017-07-08T08:32:15Z</time>
      </trkpt>
      <trkpt lat="45.89808" lon="4.75911">
        <ele>194</ele>
        <time>2017-07-08T08:32:16Z</time>
      </trkpt>
      <trkpt lat="45.89811" lon="4.759">
        <ele>194</ele>
        <time>2017-07-08T08:32:22Z</time>
      </trkpt>
      <trkpt lat="45.89811" lon="4.75898">
        <ele>194</ele>
        <time>2017-07-08T08:32:23Z</time>
      </trkpt>
      <trkpt lat="45.89808" lon="4.75907">
        <ele>194</ele>
        <time>2017-07-08T08:32:48Z</time>
      </trkpt>
      <trkpt lat="45.89806" lon="4.7591">
        <ele>194</ele>
        <time>2017-07-08T08:32:49Z</time>
      </trkpt>
      <trkpt lat="45.89805" lon="4.75917">
        <ele>195</ele>
        <time>2017-07-08T08:32:51Z</time>
      </trkpt>
      <trkpt lat="45.89805" lon="4.75923">
        <ele>195</ele>
        <time>2017-07-08T08:32:52Z</time>
      </trkpt>
      <trkpt lat="45.89804" lon="4.75935">
        <ele>195</ele>
        <time>2017-07-08T08:32:54Z</time>
      </trkpt>
      <trkpt lat="45.89803" lon="4.75941">
        <ele>195</ele>
        <time>2017-07-08T08:32:55Z</time>
      </trkpt>
      <trkpt lat="45.89799" lon="4.75951">
        <ele>195</ele>
        <time>2017-07-08T08:32:57Z</time>
      </trkpt>
      <trkpt lat="45.89798" lon="4.75955">
        <ele>195</ele>
        <time>2017-07-08T08:32:58Z</time>
      </trkpt>
      <trkpt lat="45.89794" lon="4.75966">
        <ele>195</ele>
        <time>2017-07-08T08:33:01Z</time>
      </trkpt>
      <trkpt lat="45.89793" lon="4.75969">
        <ele>195</ele>
        <time>2017-07-08T08:33:02Z</time>
      </trkpt>
      <trkpt lat="45.89788" lon="4.75979">
        <ele>195</ele>
        <time>2017-07-08T08:33:50Z</time>
      </trkpt>
      <trkpt lat="45.89788" lon="4.7598">
        <ele>195</ele>
        <time>2017-07-08T08:33:51Z</time>
      </trkpt>
      <trkpt lat="45.89784" lon="4.75989">
        <ele>195</ele>
        <time>2017-07-08T08:33:54Z</time>
      </trkpt>
      <trkpt lat="45.89782" lon="4.75992">
        <ele>195</ele>
        <time>2017-07-08T08:33:55Z</time>
      </trkpt>
      <trkpt lat="45.89779" lon="4.76003">
        <ele>195</ele>
        <time>2017-07-08T08:33:58Z</time>
      </trkpt>
      <trkpt lat="45.89778" lon="4.76005">
        <ele>195</ele>
        <time>2017-07-08T08:33:59Z</time>
      </trkpt>
      <trkpt lat="45.89772" lon="4.76014">
        <ele>195</ele>
        <time>2017-07-08T08:34:03Z</time>
      </trkpt>
      <trkpt lat="45.89771" lon="4.76018">
        <ele>195</ele>
        <time>2017-07-08T08:34:04Z</time>
      </trkpt>
      <trkpt lat="45.89768" lon="4.76027">
        <ele>195</ele>
        <time>2017-07-08T08:34:06Z</time>
      </trkpt>
      <trkpt lat="45.89767" lon="4.76032">
        <ele>195</ele>
        <time>2017-07-08T08:34:07Z</time>
      </trkpt>
      <trkpt lat="45.89762" lon="4.76043">
        <ele>195</ele>
        <time>2017-07-08T08:34:09Z</time>
      </trkpt>
      <trkpt lat="45.8976" lon="4.76049">
        <ele>195</ele>
        <time>2017-07-08T08:34:10Z</time>
      </trkpt>
      <trkpt lat="45.89757" lon="4.76055">
        <ele>195</ele>
        <time>2017-07-08T08:34:11Z</time>
      </trkpt>
      <trkpt lat="45.89755" lon="4.76061">
        <ele>195</ele>
        <time>2017-07-08T08:34:12Z</time>
      </trkpt>
      <trkpt lat="45.89753" lon="4.76067">
        <ele>195</ele>
        <time>2017-07-08T08:34:13Z</time>
      </trkpt>
      <trkpt lat="45.89751" lon="4.76073">
        <ele>195</ele>
        <time>2017-07-08T08:34:14Z</time>
      </trkpt>
      <trkpt lat="45.89746" lon="4.76082">
        <ele>195</ele>
        <time>2017-07-08T08:34:16Z</time>
      </trkpt>
      <trkpt lat="45.89744" lon="4.76087">
        <ele>195</ele>
        <time>2017-07-08T08:34:17Z</time>
      </trkpt>
      <trkpt lat="45.89741" lon="4.76097">
        <ele>195</ele>
        <time>2017-07-08T08:34:19Z</time>
      </trkpt>
      <trkpt lat="45.89739" lon="4.76103">
        <ele>195</ele>
        <time>2017-07-08T08:34:20Z</time>
      </trkpt>
      <trkpt lat="45.89737" lon="4.76109">
        <ele>195</ele>
        <time>2017-07-08T08:34:21Z</time>
      </trkpt>
      <trkpt lat="45.89735" lon="4.76115">
        <ele>195</ele>
        <time>2017-07-08T08:34:22Z</time>
      </trkpt>
      <trkpt lat="45.89731" lon="4.76126">
        <ele>195</ele>
        <time>2017-07-08T08:34:24Z</time>
      </trkpt>
      <trkpt lat="45.89729" lon="4.76131">
        <ele>195</ele>
        <time>2017-07-08T08:34:25Z</time>
      </trkpt>
      <trkpt lat="45.89725" lon="4.76141">
        <ele>195</ele>
        <time>2017-07-08T08:34:27Z</time>
      </trkpt>
      <trkpt lat="45.89724" lon="4.76146">
        <ele>195</ele>
        <time>2017-07-08T08:34:28Z</time>
      </trkpt>
      <trkpt lat="45.8972" lon="4.76156">
        <ele>195</ele>
        <time>2017-07-08T08:34:30Z</time>
      </trkpt>
      <trkpt lat="45.89718" lon="4.76162">
        <ele>195</ele>
        <time>2017-07-08T08:34:31Z</time>
      </trkpt>
      <trkpt lat="45.89716" lon="4.76175">
        <ele>195</ele>
        <time>2017-07-08T08:34:33Z</time>
      </trkpt>
      <trkpt lat="45.89714" lon="4.76181">
        <ele>195</ele>
        <time>2017-07-08T08:34:34Z</time>
      </trkpt>
      <trkpt lat="45.89712" lon="4.76187">
        <ele>195</ele>
        <time>2017-07-08T08:34:35Z</time>
      </trkpt>
      <trkpt lat="45.8971" lon="4.76194">
        <ele>195</ele>
        <time>2017-07-08T08:34:36Z</time>
      </trkpt>
      <trkpt lat="45.89707" lon="4.76201">
        <ele>195</ele>
        <time>2017-07-08T08:34:37Z</time>
      </trkpt>
      <trkpt lat="45.89705" lon="4.76207">
        <ele>195</ele>
        <time>2017-07-08T08:34:38Z</time>
      </trkpt>
      <trkpt lat="45.89703" lon="4.76214">
        <ele>195</ele>
        <time>2017-07-08T08:34:39Z</time>
      </trkpt>
      <trkpt lat="45.89702" lon="4.7622">
        <ele>195</ele>
        <time>2017-07-08T08:34:40Z</time>
      </trkpt>
      <trkpt lat="45.89698" lon="4.76231">
        <ele>195</ele>
        <time>2017-07-08T08:34:42Z</time>
      </trkpt>
      <trkpt lat="45.89697" lon="4.76235">
        <ele>195</ele>
        <time>2017-07-08T08:34:43Z</time>
      </trkpt>
      <trkpt lat="45.89693" lon="4.76245">
        <ele>195</ele>
        <time>2017-07-08T08:34:45Z</time>
      </trkpt>
      <trkpt lat="45.89691" lon="4.7625">
        <ele>195</ele>
        <time>2017-07-08T08:34:46Z</time>
      </trkpt>
      <trkpt lat="45.89688" lon="4.76262">
        <ele>195</ele>
        <time>2017-07-08T08:34:48Z</time>
      </trkpt>
      <trkpt lat="45.89686" lon="4.76267">
        <ele>195</ele>
        <time>2017-07-08T08:34:49Z</time>
      </trkpt>
      <trkpt lat="45.89683" lon="4.76274">
        <ele>195</ele>
        <time>2017-07-08T08:34:50Z</time>
      </trkpt>
      <trkpt lat="45.89681" lon="4.7628">
        <ele>195</ele>
        <time>2017-07-08T08:34:51Z</time>
      </trkpt>
      <trkpt lat="45.89679" lon="4.76287">
        <ele>195</ele>
        <time>2017-07-08T08:34:52Z</time>
      </trkpt>
      <trkpt lat="45.89677" lon="4.76293">
        <ele>195</ele>
        <time>2017-07-08T08:34:53Z</time>
      </trkpt>
      <trkpt lat="45.89675" lon="4.763">
        <ele>195</ele>
        <time>2017-07-08T08:34:54Z</time>
      </trkpt>
      <trkpt lat="45.89673" lon="4.76306">
        <ele>195</ele>
        <time>2017-07-08T08:34:55Z</time>
      </trkpt>
      <trkpt lat="45.89669" lon="4.76316">
        <ele>195</ele>
        <time>2017-07-08T08:34:57Z</time>
      </trkpt>
      <trkpt lat="45.89667" lon="4.76322">
        <ele>195</ele>
        <time>2017-07-08T08:34:58Z</time>
      </trkpt>
      <trkpt lat="45.89663" lon="4.76333">
        <ele>195</ele>
        <time>2017-07-08T08:35:00Z</time>
      </trkpt>
      <trkpt lat="45.89661" lon="4.76339">
        <ele>195</ele>
        <time>2017-07-08T08:35:01Z</time>
      </trkpt>
      <trkpt lat="45.89656" lon="4.7635">
        <ele>195</ele>
        <time>2017-07-08T08:35:03Z</time>
      </trkpt>
      <trkpt lat="45.89654" lon="4.76356">
        <ele>195</ele>
        <time>2017-07-08T08:35:04Z</time>
      </trkpt>
      <trkpt lat="45.89652" lon="4.76362">
        <ele>195</ele>
        <time>2017-07-08T08:35:05Z</time>
      </trkpt>
      <trkpt lat="45.8965" lon="4.76367">
        <ele>195</ele>
        <time>2017-07-08T08:35:06Z</time>
      </trkpt>
      <trkpt lat="45.89646" lon="4.76378">
        <ele>195</ele>
        <time>2017-07-08T08:35:08Z</time>
      </trkpt>
      <trkpt lat="45.89643" lon="4.76383">
        <ele>195</ele>
        <time>2017-07-08T08:35:09Z</time>
      </trkpt>
      <trkpt lat="45.89639" lon="4.76393">
        <ele>195</ele>
        <time>2017-07-08T08:35:11Z</time>
      </trkpt>
      <trkpt lat="45.89638" lon="4.76399">
        <ele>195</ele>
        <time>2017-07-08T08:35:12Z</time>
      </trkpt>
      <trkpt lat="45.89633" lon="4.76409">
        <ele>195</ele>
        <time>2017-07-08T08:35:14Z</time>
      </trkpt>
      <trkpt lat="45.89631" lon="4.76413">
        <ele>195</ele>
        <time>2017-07-08T08:35:15Z</time>
      </trkpt>
      <trkpt lat="45.89626" lon="4.76421">
        <ele>195</ele>
        <time>2017-07-08T08:35:17Z</time>
      </trkpt>
      <trkpt lat="45.89624" lon="4.76426">
        <ele>195</ele>
        <time>2017-07-08T08:35:18Z</time>
      </trkpt>
      <trkpt lat="45.89621" lon="4.76435">
        <ele>195</ele>
        <time>2017-07-08T08:35:20Z</time>
      </trkpt>
      <trkpt lat="45.89619" lon="4.76439">
        <ele>195</ele>
        <time>2017-07-08T08:35:21Z</time>
      </trkpt>
      <trkpt lat="45.89615" lon="4.76449">
        <ele>195</ele>
        <time>2017-07-08T08:35:23Z</time>
      </trkpt>
      <trkpt lat="45.89614" lon="4.76454">
        <ele>195</ele>
        <time>2017-07-08T08:35:24Z</time>
      </trkpt>
      <trkpt lat="45.89612" lon="4.7646">
        <ele>194</ele>
        <time>2017-07-08T08:35:25Z</time>
      </trkpt>
      <trkpt lat="45.8961" lon="4.76467">
        <ele>194</ele>
        <time>2017-07-08T08:35:26Z</time>
      </trkpt>
      <trkpt lat="45.89608" lon="4.76473">
        <ele>194</ele>
        <time>2017-07-08T08:35:27Z</time>
      </trkpt>
      <trkpt lat="45.89606" lon="4.76479">
        <ele>194</ele>
        <time>2017-07-08T08:35:28Z</time>
      </trkpt>
      <trkpt lat="45.89602" lon="4.7649">
        <ele>194</ele>
        <time>2017-07-08T08:35:30Z</time>
      </trkpt>
      <trkpt lat="45.896" lon="4.76495">
        <ele>194</ele>
        <time>2017-07-08T08:35:31Z</time>
      </trkpt>
      <trkpt lat="45.89596" lon="4.76505">
        <ele>194</ele>
        <time>2017-07-08T08:35:33Z</time>
      </trkpt>
      <trkpt lat="45.89594" lon="4.7651">
        <ele>194</ele>
        <time>2017-07-08T08:35:34Z</time>
      </trkpt>
      <trkpt lat="45.8959" lon="4.76519">
        <ele>194</ele>
        <time>2017-07-08T08:35:36Z</time>
      </trkpt>
      <trkpt lat="45.89588" lon="4.76523">
        <ele>194</ele>
        <time>2017-07-08T08:35:37Z</time>
      </trkpt>
      <trkpt lat="45.89582" lon="4.76533">
        <ele>194</ele>
        <time>2017-07-08T08:35:40Z</time>
      </trkpt>
      <trkpt lat="45.89581" lon="4.76534">
        <ele>194</ele>
        <time>2017-07-08T08:35:41Z</time>
      </trkpt>
      <trkpt lat="45.89573" lon="4.76534">
        <ele>194</ele>
        <time>2017-07-08T08:35:44Z</time>
      </trkpt>
      <trkpt lat="45.89571" lon="4.76534">
        <ele>194</ele>
        <time>2017-07-08T08:35:45Z</time>
      </trkpt>
      <trkpt lat="45.89563" lon="4.76534">
        <ele>194</ele>
        <time>2017-07-08T08:35:48Z</time>
      </trkpt>
      <trkpt lat="45.89561" lon="4.76534">
        <ele>194</ele>
        <time>2017-07-08T08:35:49Z</time>
      </trkpt>
      <trkpt lat="45.89554" lon="4.76534">
        <ele>194</ele>
        <time>2017-07-08T08:35:52Z</time>
      </trkpt>
      <trkpt lat="45.8955" lon="4.76534">
        <ele>194</ele>
        <time>2017-07-08T08:35:53Z</time>
      </trkpt>
      <trkpt lat="45.89542" lon="4.76535">
        <ele>194</ele>
        <time>2017-07-08T08:35:56Z</time>
      </trkpt>
      <trkpt lat="45.89539" lon="4.76535">
        <ele>194</ele>
        <time>2017-07-08T08:35:57Z</time>
      </trkpt>
      <trkpt lat="45.8953" lon="4.76536">
        <ele>194</ele>
        <time>2017-07-08T08:36:00Z</time>
      </trkpt>
      <trkpt lat="45.89528" lon="4.76537">
        <ele>194</ele>
        <time>2017-07-08T08:36:01Z</time>
      </trkpt>
      <trkpt lat="45.89521" lon="4.76539">
        <ele>194</ele>
        <time>2017-07-08T08:36:04Z</time>
      </trkpt>
      <trkpt lat="45.89518" lon="4.7654">
        <ele>194</ele>
        <time>2017-07-08T08:36:05Z</time>
      </trkpt>
      <trkpt lat="45.89509" lon="4.76542">
        <ele>194</ele>
        <time>2017-07-08T08:36:08Z</time>
      </trkpt>
      <trkpt lat="45.89506" lon="4.76543">
        <ele>194</ele>
        <time>2017-07-08T08:36:09Z</time>
      </trkpt>
      <trkpt lat="45.895" lon="4.76545">
        <ele>194</ele>
        <time>2017-07-08T08:36:11Z</time>
      </trkpt>
      <trkpt lat="45.89497" lon="4.76547">
        <ele>194</ele>
        <time>2017-07-08T08:36:12Z</time>
      </trkpt>
      <trkpt lat="45.89491" lon="4.76549">
        <ele>194</ele>
        <time>2017-07-08T08:36:15Z</time>
      </trkpt>
      <trkpt lat="45.89488" lon="4.7655">
        <ele>194</ele>
        <time>2017-07-08T08:36:16Z</time>
      </trkpt>
      <trkpt lat="45.89481" lon="4.76553">
        <ele>194</ele>
        <time>2017-07-08T08:36:20Z</time>
      </trkpt>
      <trkpt lat="45.89479" lon="4.76554">
        <ele>194</ele>
        <time>2017-07-08T08:36:21Z</time>
      </trkpt>
      <trkpt lat="45.89472" lon="4.76556">
        <ele>194</ele>
        <time>2017-07-08T08:36:25Z</time>
      </trkpt>
      <trkpt lat="45.8947" lon="4.76556">
        <ele>194</ele>
        <time>2017-07-08T08:36:26Z</time>
      </trkpt>
      <trkpt lat="45.89463" lon="4.76557">
        <ele>194</ele>
        <time>2017-07-08T08:36:28Z</time>
      </trkpt>
      <trkpt lat="45.8946" lon="4.76557">
        <ele>194</ele>
        <time>2017-07-08T08:36:29Z</time>
      </trkpt>
      <trkpt lat="45.89453" lon="4.7656">
        <ele>194</ele>
        <time>2017-07-08T08:36:32Z</time>
      </trkpt>
      <trkpt lat="45.89451" lon="4.7656">
        <ele>194</ele>
        <time>2017-07-08T08:36:33Z</time>
      </trkpt>
      <trkpt lat="45.89444" lon="4.7656">
        <ele>194</ele>
        <time>2017-07-08T08:36:37Z</time>
      </trkpt>
      <trkpt lat="45.8944" lon="4.7656">
        <ele>194</ele>
        <time>2017-07-08T08:36:38Z</time>
      </trkpt>
      <trkpt lat="45.89432" lon="4.76557">
        <ele>194</ele>
        <time>2017-07-08T08:36:42Z</time>
      </trkpt>
      <trkpt lat="45.89431" lon="4.76556">
        <ele>194</ele>
        <time>2017-07-08T08:36:43Z</time>
      </trkpt>
      <trkpt lat="45.89423" lon="4.76551">
        <ele>194</ele>
        <time>2017-07-08T08:36:47Z</time>
      </trkpt>
      <trkpt lat="45.8942" lon="4.76551">
        <ele>194</ele>
        <time>2017-07-08T08:36:48Z</time>
      </trkpt>
      <trkpt lat="45.89413" lon="4.76547">
        <ele>194</ele>
        <time>2017-07-08T08:36:51Z</time>
      </trkpt>
      <trkpt lat="45.8941" lon="4.76547">
        <ele>194</ele>
        <time>2017-07-08T08:36:52Z</time>
      </trkpt>
      <trkpt lat="45.89402" lon="4.7655">
        <ele>194</ele>
        <time>2017-07-08T08:36:55Z</time>
      </trkpt>
      <trkpt lat="45.894" lon="4.7655">
        <ele>194</ele>
        <time>2017-07-08T08:36:56Z</time>
      </trkpt>
      <trkpt lat="45.89391" lon="4.76549">
        <ele>194</ele>
        <time>2017-07-08T08:37:00Z</time>
      </trkpt>
      <trkpt lat="45.89389" lon="4.76549">
        <ele>194</ele>
        <time>2017-07-08T08:37:01Z</time>
      </trkpt>
      <trkpt lat="45.89381" lon="4.7655">
        <ele>194</ele>
        <time>2017-07-08T08:37:04Z</time>
      </trkpt>
      <trkpt lat="45.89379" lon="4.76551">
        <ele>194</ele>
        <time>2017-07-08T08:37:05Z</time>
      </trkpt>
      <trkpt lat="45.89371" lon="4.76556">
        <ele>194</ele>
        <time>2017-07-08T08:37:09Z</time>
      </trkpt>
      <trkpt lat="45.89369" lon="4.76557">
        <ele>194</ele>
        <time>2017-07-08T08:37:10Z</time>
      </trkpt>
      <trkpt lat="45.89364" lon="4.76566">
        <ele>194</ele>
        <time>2017-07-08T08:37:14Z</time>
      </trkpt>
      <trkpt lat="45.89363" lon="4.76568">
        <ele>194</ele>
        <time>2017-07-08T08:37:15Z</time>
      </trkpt>
      <trkpt lat="45.89357" lon="4.76575">
        <ele>194</ele>
        <time>2017-07-08T08:37:20Z</time>
      </trkpt>
      <trkpt lat="45.89357" lon="4.76577">
        <ele>194</ele>
        <time>2017-07-08T08:37:21Z</time>
      </trkpt>
      <trkpt lat="45.89358" lon="4.76578">
        <ele>194</ele>
        <time>2017-07-08T08:37:47Z</time>
      </trkpt>
      <trkpt lat="45.89357" lon="4.76578">
        <ele>194</ele>
        <time>2017-07-08T08:37:48Z</time>
      </trkpt>
      <trkpt lat="45.89365" lon="4.76573">
        <ele>194</ele>
        <time>2017-07-08T08:38:34Z</time>
      </trkpt>
      <trkpt lat="45.89365" lon="4.76574">
        <ele>194</ele>
        <time>2017-07-08T08:38:35Z</time>
      </trkpt>
      <trkpt lat="45.89365" lon="4.76586">
        <ele>194</ele>
        <time>2017-07-08T08:38:45Z</time>
      </trkpt>
      <trkpt lat="45.89365" lon="4.76588">
        <ele>194</ele>
        <time>2017-07-08T08:38:46Z</time>
      </trkpt>
      <trkpt lat="45.89364" lon="4.76599">
        <ele>194</ele>
        <time>2017-07-08T08:38:51Z</time>
      </trkpt>
      <trkpt lat="45.89364" lon="4.76602">
        <ele>194</ele>
        <time>2017-07-08T08:38:52Z</time>
      </trkpt>
      <trkpt lat="45.89363" lon="4.76612">
        <ele>194</ele>
        <time>2017-07-08T08:38:55Z</time>
      </trkpt>
      <trkpt lat="45.89363" lon="4.76616">
        <ele>194</ele>
        <time>2017-07-08T08:38:56Z</time>
      </trkpt>
      <trkpt lat="45.89361" lon="4.76627">
        <ele>195</ele>
        <time>2017-07-08T08:39:00Z</time>
      </trkpt>
      <trkpt lat="45.89361" lon="4.76629">
        <ele>195</ele>
        <time>2017-07-08T08:39:01Z</time>
      </trkpt>
      <trkpt lat="45.8936" lon="4.76641">
        <ele>195</ele>
        <time>2017-07-08T08:39:04Z</time>
      </trkpt>
      <trkpt lat="45.8936" lon="4.76645">
        <ele>195</ele>
        <time>2017-07-08T08:39:05Z</time>
      </trkpt>
      <trkpt lat="45.8936" lon="4.76653">
        <ele>195</ele>
        <time>2017-07-08T08:39:07Z</time>
      </trkpt>
      <trkpt lat="45.89359" lon="4.76658">
        <ele>195</ele>
        <time>2017-07-08T08:39:08Z</time>
      </trkpt>
      <trkpt lat="45.89358" lon="4.76667">
        <ele>195</ele>
        <time>2017-07-08T08:39:10Z</time>
      </trkpt>
      <trkpt lat="45.89358" lon="4.76671">
        <ele>195</ele>
        <time>2017-07-08T08:39:11Z</time>
      </trkpt>
      <trkpt lat="45.89357" lon="4.76682">
        <ele>195</ele>
        <time>2017-07-08T08:39:14Z</time>
      </trkpt>
      <trkpt lat="45.89357" lon="4.76685">
        <ele>195</ele>
        <time>2017-07-08T08:39:15Z</time>
      </trkpt>
      <trkpt lat="45.89357" lon="4.76695">
        <ele>195</ele>
        <time>2017-07-08T08:39:19Z</time>
      </trkpt>
      <trkpt lat="45.89357" lon="4.76698">
        <ele>195</ele>
        <time>2017-07-08T08:39:20Z</time>
      </trkpt>
      <trkpt lat="45.89359" lon="4.7671">
        <ele>195</ele>
        <time>2017-07-08T08:39:25Z</time>
      </trkpt>
      <trkpt lat="45.8936" lon="4.76712">
        <ele>195</ele>
        <time>2017-07-08T08:39:26Z</time>
      </trkpt>
      <trkpt lat="45.89365" lon="4.76723">
        <ele>195</ele>
        <time>2017-07-08T08:39:30Z</time>
      </trkpt>
      <trkpt lat="45.89366" lon="4.76726">
        <ele>195</ele>
        <time>2017-07-08T08:39:31Z</time>
      </trkpt>
      <trkpt lat="45.8937" lon="4.76734">
        <ele>195</ele>
        <time>2017-07-08T08:39:34Z</time>
      </trkpt>
      <trkpt lat="45.89371" lon="4.76737">
        <ele>195</ele>
        <time>2017-07-08T08:39:35Z</time>
      </trkpt>
      <trkpt lat="45.89374" lon="4.76743">
        <ele>195</ele>
        <time>2017-07-08T08:39:38Z</time>
      </trkpt>
      <trkpt lat="45.89375" lon="4.76744">
        <ele>195</ele>
        <time>2017-07-08T08:39:39Z</time>
      </trkpt>
      <trkpt lat="45.89376" lon="4.7674">
        <ele>195</ele>
        <time>2017-07-08T08:39:50Z</time>
      </trkpt>
      <trkpt lat="45.89375" lon="4.76739">
        <ele>195</ele>
        <time>2017-07-08T08:39:51Z</time>
      </trkpt>
      <trkpt lat="45.8937" lon="4.76729">
        <ele>195</ele>
        <time>2017-07-08T08:39:56Z</time>
      </trkpt>
      <trkpt lat="45.89368" lon="4.76725">
        <ele>195</ele>
        <time>2017-07-08T08:39:57Z</time>
      </trkpt>
      <trkpt lat="45.89364" lon="4.76716">
        <ele>195</ele>
        <time>2017-07-08T08:39:59Z</time>
      </trkpt>
      <trkpt lat="45.89363" lon="4.76712">
        <ele>195</ele>
        <time>2017-07-08T08:40:00Z</time>
      </trkpt>
      <trkpt lat="45.89361" lon="4.76702">
        <ele>195</ele>
        <time>2017-07-08T08:40:02Z</time>
      </trkpt>
      <trkpt lat="45.89361" lon="4.76698">
        <ele>195</ele>
        <time>2017-07-08T08:40:03Z</time>
      </trkpt>
      <trkpt lat="45.8936" lon="4.76686">
        <ele>195</ele>
        <time>2017-07-08T08:40:05Z</time>
      </trkpt>
      <trkpt lat="45.8936" lon="4.76682">
        <ele>195</ele>
        <time>2017-07-08T08:40:06Z</time>
      </trkpt>
      <trkpt lat="45.89362" lon="4.76669">
        <ele>195</ele>
        <time>2017-07-08T08:40:09Z</time>
      </trkpt>
      <trkpt lat="45.89363" lon="4.76665">
        <ele>195</ele>
        <time>2017-07-08T08:40:10Z</time>
      </trkpt>
      <trkpt lat="45.89363" lon="4.76654">
        <ele>195</ele>
        <time>2017-07-08T08:40:12Z</time>
      </trkpt>
      <trkpt lat="45.89364" lon="4.76649">
        <ele>195</ele>
        <time>2017-07-08T08:40:13Z</time>
      </trkpt>
      <trkpt lat="45.89365" lon="4.76639">
        <ele>195</ele>
        <time>2017-07-08T08:40:15Z</time>
      </trkpt>
      <trkpt lat="45.89366" lon="4.76634">
        <ele>195</ele>
        <time>2017-07-08T08:40:16Z</time>
      </trkpt>
      <trkpt lat="45.89366" lon="4.76622">
        <ele>194</ele>
        <time>2017-07-08T08:40:19Z</time>
      </trkpt>
      <trkpt lat="45.89367" lon="4.76619">
        <ele>194</ele>
        <time>2017-07-08T08:40:20Z</time>
      </trkpt>
      <trkpt lat="45.89367" lon="4.76608">
        <ele>194</ele>
        <time>2017-07-08T08:40:23Z</time>
      </trkpt>
      <trkpt lat="45.89367" lon="4.76604">
        <ele>194</ele>
        <time>2017-07-08T08:40:24Z</time>
      </trkpt>
      <trkpt lat="45.89367" lon="4.76594">
        <ele>194</ele>
        <time>2017-07-08T08:40:26Z</time>
      </trkpt>
      <trkpt lat="45.89367" lon="4.7659">
        <ele>194</ele>
        <time>2017-07-08T08:40:27Z</time>
      </trkpt>
      <trkpt lat="45.89367" lon="4.7658">
        <ele>194</ele>
        <time>2017-07-08T08:40:30Z</time>
      </trkpt>
      <trkpt lat="45.89366" lon="4.76577">
        <ele>194</ele>
        <time>2017-07-08T08:40:31Z</time>
      </trkpt>
      <trkpt lat="45.89358" lon="4.76574">
        <ele>194</ele>
        <time>2017-07-08T08:40:34Z</time>
      </trkpt>
      <trkpt lat="45.89355" lon="4.76573">
        <ele>194</ele>
        <time>2017-07-08T08:40:35Z</time>
      </trkpt>
      <trkpt lat="45.89347" lon="4.76572">
        <ele>194</ele>
        <time>2017-07-08T08:40:38Z</time>
      </trkpt>
      <trkpt lat="45.89344" lon="4.76571">
        <ele>194</ele>
        <time>2017-07-08T08:40:39Z</time>
      </trkpt>
      <trkpt lat="45.89337" lon="4.76569">
        <ele>194</ele>
        <time>2017-07-08T08:40:42Z</time>
      </trkpt>
      <trkpt lat="45.89334" lon="4.76569">
        <ele>194</ele>
        <time>2017-07-08T08:40:43Z</time>
      </trkpt>
      <trkpt lat="45.89327" lon="4.76567">
        <ele>194</ele>
        <time>2017-07-08T08:40:46Z</time>
      </trkpt>
      <trkpt lat="45.89325" lon="4.76566">
        <ele>194</ele>
        <time>2017-07-08T08:40:47Z</time>
      </trkpt>
      <trkpt lat="45.89317" lon="4.76564">
        <ele>194</ele>
        <time>2017-07-08T08:40:50Z</time>
      </trkpt>
      <trkpt lat="45.89314" lon="4.76562">
        <ele>194</ele>
        <time>2017-07-08T08:40:51Z</time>
      </trkpt>
      <trkpt lat="45.89306" lon="4.7656">
        <ele>194</ele>
        <time>2017-07-08T08:40:54Z</time>
      </trkpt>
      <trkpt lat="45.89304" lon="4.7656">
        <ele>194</ele>
        <time>2017-07-08T08:40:55Z</time>
      </trkpt>
      <trkpt lat="45.89296" lon="4.76556">
        <ele>194</ele>
        <time>2017-07-08T08:40:58Z</time>
      </trkpt>
      <trkpt lat="45.89294" lon="4.76554">
        <ele>194</ele>
        <time>2017-07-08T08:40:59Z</time>
      </trkpt>
      <trkpt lat="45.89287" lon="4.76549">
        <ele>194</ele>
        <time>2017-07-08T08:41:02Z</time>
      </trkpt>
      <trkpt lat="45.89285" lon="4.76547">
        <ele>194</ele>
        <time>2017-07-08T08:41:03Z</time>
      </trkpt>
      <trkpt lat="45.89279" lon="4.76539">
        <ele>194</ele>
        <time>2017-07-08T08:41:06Z</time>
      </trkpt>
      <trkpt lat="45.89278" lon="4.76536">
        <ele>194</ele>
        <time>2017-07-08T08:41:07Z</time>
      </trkpt>
      <trkpt lat="45.89274" lon="4.76529">
        <ele>194</ele>
        <time>2017-07-08T08:41:10Z</time>
      </trkpt>
      <trkpt lat="45.89272" lon="4.76526">
        <ele>194</ele>
        <time>2017-07-08T08:41:11Z</time>
      </trkpt>
      <trkpt lat="45.89267" lon="4.76517">
        <ele>194</ele>
        <time>2017-07-08T08:41:14Z</time>
      </trkpt>
      <trkpt lat="45.89265" lon="4.76514">
        <ele>194</ele>
        <time>2017-07-08T08:41:15Z</time>
      </trkpt>
      <trkpt lat="45.89262" lon="4.76505">
        <ele>193</ele>
        <time>2017-07-08T08:41:18Z</time>
      </trkpt>
      <trkpt lat="45.89261" lon="4.76501">
        <ele>193</ele>
        <time>2017-07-08T08:41:19Z</time>
      </trkpt>
      <trkpt lat="45.89257" lon="4.76493">
        <ele>193</ele>
        <time>2017-07-08T08:41:22Z</time>
      </trkpt>
      <trkpt lat="45.89256" lon="4.76491">
        <ele>193</ele>
        <time>2017-07-08T08:41:23Z</time>
      </trkpt>
      <trkpt lat="45.89253" lon="4.7648">
        <ele>193</ele>
        <time>2017-07-08T08:41:27Z</time>
      </trkpt>
      <trkpt lat="45.89251" lon="4.76478">
        <ele>193</ele>
        <time>2017-07-08T08:41:28Z</time>
      </trkpt>
      <trkpt lat="45.89244" lon="4.76471">
        <ele>193</ele>
        <time>2017-07-08T08:41:31Z</time>
      </trkpt>
      <trkpt lat="45.89242" lon="4.76469">
        <ele>193</ele>
        <time>2017-07-08T08:41:32Z</time>
      </trkpt>
      <trkpt lat="45.89236" lon="4.76463">
        <ele>193</ele>
        <time>2017-07-08T08:41:35Z</time>
      </trkpt>
      <trkpt lat="45.89234" lon="4.76462">
        <ele>193</ele>
        <time>2017-07-08T08:41:36Z</time>
      </trkpt>
      <trkpt lat="45.89227" lon="4.76454">
        <ele>194</ele>
        <time>2017-07-08T08:41:39Z</time>
      </trkpt>
      <trkpt lat="45.89225" lon="4.76451">
        <ele>194</ele>
        <time>2017-07-08T08:41:40Z</time>
      </trkpt>
      <trkpt lat="45.89219" lon="4.76443">
        <ele>194</ele>
        <time>2017-07-08T08:41:43Z</time>
      </trkpt>
      <trkpt lat="45.89217" lon="4.76438">
        <ele>194</ele>
        <time>2017-07-08T08:41:44Z</time>
      </trkpt>
      <trkpt lat="45.89212" lon="4.76429">
        <ele>194</ele>
        <time>2017-07-08T08:41:46Z</time>
      </trkpt>
      <trkpt lat="45.8921" lon="4.76425">
        <ele>194</ele>
        <time>2017-07-08T08:41:47Z</time>
      </trkpt>
      <trkpt lat="45.89206" lon="4.76417">
        <ele>194</ele>
        <time>2017-07-08T08:41:49Z</time>
      </trkpt>
      <trkpt lat="45.89205" lon="4.76413">
        <ele>194</ele>
        <time>2017-07-08T08:41:50Z</time>
      </trkpt>
      <trkpt lat="45.89202" lon="4.76406">
        <ele>194</ele>
        <time>2017-07-08T08:41:52Z</time>
      </trkpt>
      <trkpt lat="45.892" lon="4.76402">
        <ele>194</ele>
        <time>2017-07-08T08:41:53Z</time>
      </trkpt>
      <trkpt lat="45.89196" lon="4.76393">
        <ele>194</ele>
        <time>2017-07-08T08:41:55Z</time>
      </trkpt>
      <trkpt lat="45.89194" lon="4.7639">
        <ele>194</ele>
        <time>2017-07-08T08:41:56Z</time>
      </trkpt>
      <trkpt lat="45.89191" lon="4.76382">
        <ele>194</ele>
        <time>2017-07-08T08:41:58Z</time>
      </trkpt>
      <trkpt lat="45.89189" lon="4.76378">
        <ele>194</ele>
        <time>2017-07-08T08:41:59Z</time>
      </trkpt>
      <trkpt lat="45.89185" lon="4.76371">
        <ele>194</ele>
        <time>2017-07-08T08:42:01Z</time>
      </trkpt>
      <trkpt lat="45.89183" lon="4.76368">
        <ele>194</ele>
        <time>2017-07-08T08:42:02Z</time>
      </trkpt>
      <trkpt lat="45.8918" lon="4.76361">
        <ele>194</ele>
        <time>2017-07-08T08:42:04Z</time>
      </trkpt>
      <trkpt lat="45.89178" lon="4.76357">
        <ele>194</ele>
        <time>2017-07-08T08:42:05Z</time>
      </trkpt>
      <trkpt lat="45.89175" lon="4.76349">
        <ele>195</ele>
        <time>2017-07-08T08:42:07Z</time>
      </trkpt>
      <trkpt lat="45.89173" lon="4.76344">
        <ele>195</ele>
        <time>2017-07-08T08:42:08Z</time>
      </trkpt>
      <trkpt lat="45.89167" lon="4.76335">
        <ele>195</ele>
        <time>2017-07-08T08:42:10Z</time>
      </trkpt>
      <trkpt lat="45.89164" lon="4.76331">
        <ele>195</ele>
        <time>2017-07-08T08:42:11Z</time>
      </trkpt>
      <trkpt lat="45.8916" lon="4.76323">
        <ele>196</ele>
        <time>2017-07-08T08:42:13Z</time>
      </trkpt>
      <trkpt lat="45.89158" lon="4.76319">
        <ele>196</ele>
        <time>2017-07-08T08:42:14Z</time>
      </trkpt>
      <trkpt lat="45.89153" lon="4.7631">
        <ele>196</ele>
        <time>2017-07-08T08:42:17Z</time>
      </trkpt>
      <trkpt lat="45.89151" lon="4.76307">
        <ele>196</ele>
        <time>2017-07-08T08:42:18Z</time>
      </trkpt>
      <trkpt lat="45.89148" lon="4.763">
        <ele>196</ele>
        <time>2017-07-08T08:42:20Z</time>
      </trkpt>
      <trkpt lat="45.89146" lon="4.76296">
        <ele>196</ele>
        <time>2017-07-08T08:42:21Z</time>
      </trkpt>
      <trkpt lat="45.89142" lon="4.76288">
        <ele>196</ele>
        <time>2017-07-08T08:42:23Z</time>
      </trkpt>
      <trkpt lat="45.8914" lon="4.76283">
        <ele>196</ele>
        <time>2017-07-08T08:42:24Z</time>
      </trkpt>
      <trkpt lat="45.89136" lon="4.76274">
        <ele>196</ele>
        <time>2017-07-08T08:42:26Z</time>
      </trkpt>
      <trkpt lat="45.89133" lon="4.76269">
        <ele>197</ele>
        <time>2017-07-08T08:42:27Z</time>
      </trkpt>
      <trkpt lat="45.89128" lon="4.7626">
        <ele>197</ele>
        <time>2017-07-08T08:42:29Z</time>
      </trkpt>
      <trkpt lat="45.89126" lon="4.76255">
        <ele>197</ele>
        <time>2017-07-08T08:42:30Z</time>
      </trkpt>
      <trkpt lat="45.89122" lon="4.76245">
        <ele>196</ele>
        <time>2017-07-08T08:42:32Z</time>
      </trkpt>
      <trkpt lat="45.8912" lon="4.7624">
        <ele>196</ele>
        <time>2017-07-08T08:42:33Z</time>
      </trkpt>
      <trkpt lat="45.89116" lon="4.7623">
        <ele>196</ele>
        <time>2017-07-08T08:42:35Z</time>
      </trkpt>
      <trkpt lat="45.89114" lon="4.76226">
        <ele>196</ele>
        <time>2017-07-08T08:42:36Z</time>
      </trkpt>
      <trkpt lat="45.8911" lon="4.76218">
        <ele>196</ele>
        <time>2017-07-08T08:42:38Z</time>
      </trkpt>
      <trkpt lat="45.89108" lon="4.76214">
        <ele>196</ele>
        <time>2017-07-08T08:42:39Z</time>
      </trkpt>
      <trkpt lat="45.89104" lon="4.76207">
        <ele>196</ele>
        <time>2017-07-08T08:42:41Z</time>
      </trkpt>
      <trkpt lat="45.89102" lon="4.76203">
        <ele>196</ele>
        <time>2017-07-08T08:42:42Z</time>
      </trkpt>
      <trkpt lat="45.89098" lon="4.76195">
        <ele>196</ele>
        <time>2017-07-08T08:42:44Z</time>
      </trkpt>
      <trkpt lat="45.89097" lon="4.76191">
        <ele>196</ele>
        <time>2017-07-08T08:42:45Z</time>
      </trkpt>
      <trkpt lat="45.89092" lon="4.76182">
        <ele>196</ele>
        <time>2017-07-08T08:42:47Z</time>
      </trkpt>
      <trkpt lat="45.8909" lon="4.76178">
        <ele>195</ele>
        <time>2017-07-08T08:42:48Z</time>
      </trkpt>
      <trkpt lat="45.89086" lon="4.76171">
        <ele>195</ele>
        <time>2017-07-08T08:42:50Z</time>
      </trkpt>
      <trkpt lat="45.89084" lon="4.76167">
        <ele>195</ele>
        <time>2017-07-08T08:42:51Z</time>
      </trkpt>
      <trkpt lat="45.89081" lon="4.7616">
        <ele>196</ele>
        <time>2017-07-08T08:42:53Z</time>
      </trkpt>
      <trkpt lat="45.89079" lon="4.76155">
        <ele>196</ele>
        <time>2017-07-08T08:42:54Z</time>
      </trkpt>
      <trkpt lat="45.89075" lon="4.76145">
        <ele>196</ele>
        <time>2017-07-08T08:42:56Z</time>
      </trkpt>
      <trkpt lat="45.89072" lon="4.76139">
        <ele>197</ele>
        <time>2017-07-08T08:42:57Z</time>
      </trkpt>
      <trkpt lat="45.89068" lon="4.7613">
        <ele>197</ele>
        <time>2017-07-08T08:42:59Z</time>
      </trkpt>
      <trkpt lat="45.89066" lon="4.76125">
        <ele>197</ele>
        <time>2017-07-08T08:43:00Z</time>
      </trkpt>
      <trkpt lat="45.89062" lon="4.76116">
        <ele>197</ele>
        <time>2017-07-08T08:43:02Z</time>
      </trkpt>
      <trkpt lat="45.8906" lon="4.76112">
        <ele>197</ele>
        <time>2017-07-08T08:43:03Z</time>
      </trkpt>
      <trkpt lat="45.89055" lon="4.76102">
        <ele>197</ele>
        <time>2017-07-08T08:43:06Z</time>
      </trkpt>
      <trkpt lat="45.89053" lon="4.76098">
        <ele>197</ele>
        <time>2017-07-08T08:43:07Z</time>
      </trkpt>
      <trkpt lat="45.89049" lon="4.76089">
        <ele>197</ele>
        <time>2017-07-08T08:43:09Z</time>
      </trkpt>
      <trkpt lat="45.89047" lon="4.76084">
        <ele>198</ele>
        <time>2017-07-08T08:43:10Z</time>
      </trkpt>
      <trkpt lat="45.89042" lon="4.76075">
        <ele>199</ele>
        <time>2017-07-08T08:43:12Z</time>
      </trkpt>
      <trkpt lat="45.8904" lon="4.76071">
        <ele>199</ele>
        <time>2017-07-08T08:43:13Z</time>
      </trkpt>
      <trkpt lat="45.89035" lon="4.76061">
        <ele>199</ele>
        <time>2017-07-08T08:43:16Z</time>
      </trkpt>
      <trkpt lat="45.89033" lon="4.76058">
        <ele>199</ele>
        <time>2017-07-08T08:43:17Z</time>
      </trkpt>
      <trkpt lat="45.89029" lon="4.76051">
        <ele>199</ele>
        <time>2017-07-08T08:43:19Z</time>
      </trkpt>
      <trkpt lat="45.89027" lon="4.76046">
        <ele>199</ele>
        <time>2017-07-08T08:43:20Z</time>
      </trkpt>
      <trkpt lat="45.89023" lon="4.76037">
        <ele>199</ele>
        <time>2017-07-08T08:43:22Z</time>
      </trkpt>
      <trkpt lat="45.8902" lon="4.76032">
        <ele>199</ele>
        <time>2017-07-08T08:43:23Z</time>
      </trkpt>
      <trkpt lat="45.89016" lon="4.76024">
        <ele>199</ele>
        <time>2017-07-08T08:43:25Z</time>
      </trkpt>
      <trkpt lat="45.89014" lon="4.7602">
        <ele>199</ele>
        <time>2017-07-08T08:43:26Z</time>
      </trkpt>
      <trkpt lat="45.8901" lon="4.76013">
        <ele>200</ele>
        <time>2017-07-08T08:43:28Z</time>
      </trkpt>
      <trkpt lat="45.89009" lon="4.76009">
        <ele>200</ele>
        <time>2017-07-08T08:43:29Z</time>
      </trkpt>
      <trkpt lat="45.89005" lon="4.76002">
        <ele>200</ele>
        <time>2017-07-08T08:43:31Z</time>
      </trkpt>
      <trkpt lat="45.89002" lon="4.75998">
        <ele>200</ele>
        <time>2017-07-08T08:43:32Z</time>
      </trkpt>
      <trkpt lat="45.88999" lon="4.75989">
        <ele>200</ele>
        <time>2017-07-08T08:43:34Z</time>
      </trkpt>
      <trkpt lat="45.88997" lon="4.75984">
        <ele>200</ele>
        <time>2017-07-08T08:43:35Z</time>
      </trkpt>
      <trkpt lat="45.88994" lon="4.75975">
        <ele>199</ele>
        <time>2017-07-08T08:43:37Z</time>
      </trkpt>
      <trkpt lat="45.88993" lon="4.75969">
        <ele>199</ele>
        <time>2017-07-08T08:43:38Z</time>
      </trkpt>
      <trkpt lat="45.88991" lon="4.7596">
        <ele>199</ele>
        <time>2017-07-08T08:43:40Z</time>
      </trkpt>
      <trkpt lat="45.8899" lon="4.75956">
        <ele>199</ele>
        <time>2017-07-08T08:43:41Z</time>
      </trkpt>
      <trkpt lat="45.8899" lon="4.75945">
        <ele>199</ele>
        <time>2017-07-08T08:43:44Z</time>
      </trkpt>
      <trkpt lat="45.8899" lon="4.75942">
        <ele>199</ele>
        <time>2017-07-08T08:43:45Z</time>
      </trkpt>
      <trkpt lat="45.88993" lon="4.75932">
        <ele>200</ele>
        <time>2017-07-08T08:43:48Z</time>
      </trkpt>
      <trkpt lat="45.88994" lon="4.75928">
        <ele>200</ele>
        <time>2017-07-08T08:43:49Z</time>
      </trkpt>
      <trkpt lat="45.88998" lon="4.75918">
        <ele>200</ele>
        <time>2017-07-08T08:43:52Z</time>
      </trkpt>
      <trkpt lat="45.88999" lon="4.75915">
        <ele>200</ele>
        <time>2017-07-08T08:43:53Z</time>
      </trkpt>
      <trkpt lat="45.89002" lon="4.75905">
        <ele>200</ele>
        <time>2017-07-08T08:43:56Z</time>
      </trkpt>
      <trkpt lat="45.89004" lon="4.75901">
        <ele>200</ele>
        <time>2017-07-08T08:43:57Z</time>
      </trkpt>
      <trkpt lat="45.89007" lon="4.7589">
        <ele>200</ele>
        <time>2017-07-08T08:44:00Z</time>
      </trkpt>
      <trkpt lat="45.89008" lon="4.75886">
        <ele>200</ele>
        <time>2017-07-08T08:44:01Z</time>
      </trkpt>
      <trkpt lat="45.89012" lon="4.75876">
        <ele>200</ele>
        <time>2017-07-08T08:44:04Z</time>
      </trkpt>
      <trkpt lat="45.89013" lon="4.75873">
        <ele>200</ele>
        <time>2017-07-08T08:44:05Z</time>
      </trkpt>
      <trkpt lat="45.89015" lon="4.75861">
        <ele>200</ele>
        <time>2017-07-08T08:44:08Z</time>
      </trkpt>
      <trkpt lat="45.89016" lon="4.75856">
        <ele>200</ele>
        <time>2017-07-08T08:44:09Z</time>
      </trkpt>
      <trkpt lat="45.89017" lon="4.75845">
        <ele>200</ele>
        <time>2017-07-08T08:44:11Z</time>
      </trkpt>
      <trkpt lat="45.89017" lon="4.75839">
        <ele>200</ele>
        <time>2017-07-08T08:44:12Z</time>
      </trkpt>
      <trkpt lat="45.89017" lon="4.75827">
        <ele>199</ele>
        <time>2017-07-08T08:44:14Z</time>
      </trkpt>
      <trkpt lat="45.89016" lon="4.75821">
        <ele>199</ele>
        <time>2017-07-08T08:44:15Z</time>
      </trkpt>
      <trkpt lat="45.89015" lon="4.75815">
        <ele>199</ele>
        <time>2017-07-08T08:44:16Z</time>
      </trkpt>
      <trkpt lat="45.89013" lon="4.75809">
        <ele>199</ele>
        <time>2017-07-08T08:44:17Z</time>
      </trkpt>
      <trkpt lat="45.89009" lon="4.75799">
        <ele>199</ele>
        <time>2017-07-08T08:44:19Z</time>
      </trkpt>
      <trkpt lat="45.89008" lon="4.75794">
        <ele>199</ele>
        <time>2017-07-08T08:44:20Z</time>
      </trkpt>
      <trkpt lat="45.89005" lon="4.75784">
        <ele>199</ele>
        <time>2017-07-08T08:44:22Z</time>
      </trkpt>
      <trkpt lat="45.89004" lon="4.75778">
        <ele>199</ele>
        <time>2017-07-08T08:44:23Z</time>
      </trkpt>
      <trkpt lat="45.89" lon="4.75767">
        <ele>198</ele>
        <time>2017-07-08T08:44:25Z</time>
      </trkpt>
      <trkpt lat="45.88998" lon="4.75761">
        <ele>198</ele>
        <time>2017-07-08T08:44:26Z</time>
      </trkpt>
      <trkpt lat="45.88995" lon="4.75751">
        <ele>198</ele>
        <time>2017-07-08T08:44:28Z</time>
      </trkpt>
      <trkpt lat="45.88994" lon="4.75746">
        <ele>198</ele>
        <time>2017-07-08T08:44:29Z</time>
      </trkpt>
      <trkpt lat="45.88992" lon="4.75736">
        <ele>198</ele>
        <time>2017-07-08T08:44:31Z</time>
      </trkpt>
      <trkpt lat="45.88991" lon="4.75732">
        <ele>198</ele>
        <time>2017-07-08T08:44:32Z</time>
      </trkpt>
      <trkpt lat="45.88991" lon="4.75721">
        <ele>198</ele>
        <time>2017-07-08T08:44:34Z</time>
      </trkpt>
      <trkpt lat="45.88991" lon="4.75715">
        <ele>198</ele>
        <time>2017-07-08T08:44:35Z</time>
      </trkpt>
      <trkpt lat="45.8899" lon="4.75708">
        <ele>199</ele>
        <time>2017-07-08T08:44:36Z</time>
      </trkpt>
      <trkpt lat="45.88989" lon="4.75701">
        <ele>199</ele>
        <time>2017-07-08T08:44:37Z</time>
      </trkpt>
      <trkpt lat="45.88988" lon="4.75695">
        <ele>198</ele>
        <time>2017-07-08T08:44:38Z</time>
      </trkpt>
      <trkpt lat="45.88987" lon="4.75688">
        <ele>198</ele>
        <time>2017-07-08T08:44:39Z</time>
      </trkpt>
      <trkpt lat="45.88986" lon="4.75682">
        <ele>198</ele>
        <time>2017-07-08T08:44:40Z</time>
      </trkpt>
      <trkpt lat="45.88985" lon="4.75675">
        <ele>198</ele>
        <time>2017-07-08T08:44:41Z</time>
      </trkpt>
      <trkpt lat="45.88983" lon="4.75664">
        <ele>198</ele>
        <time>2017-07-08T08:44:43Z</time>
      </trkpt>
      <trkpt lat="45.88981" lon="4.75658">
        <ele>198</ele>
        <time>2017-07-08T08:44:44Z</time>
      </trkpt>
      <trkpt lat="45.88979" lon="4.75648">
        <ele>198</ele>
        <time>2017-07-08T08:44:46Z</time>
      </trkpt>
      <trkpt lat="45.88978" lon="4.75642">
        <ele>198</ele>
        <time>2017-07-08T08:44:47Z</time>
      </trkpt>
      <trkpt lat="45.88974" lon="4.75631">
        <ele>198</ele>
        <time>2017-07-08T08:44:49Z</time>
      </trkpt>
      <trkpt lat="45.88973" lon="4.75625">
        <ele>198</ele>
        <time>2017-07-08T08:44:50Z</time>
      </trkpt>
      <trkpt lat="45.88972" lon="4.75618">
        <ele>198</ele>
        <time>2017-07-08T08:44:51Z</time>
      </trkpt>
      <trkpt lat="45.8897" lon="4.75611">
        <ele>198</ele>
        <time>2017-07-08T08:44:52Z</time>
      </trkpt>
      <trkpt lat="45.88969" lon="4.75605">
        <ele>198</ele>
        <time>2017-07-08T08:44:53Z</time>
      </trkpt>
      <trkpt lat="45.88968" lon="4.75598">
        <ele>198</ele>
        <time>2017-07-08T08:44:54Z</time>
      </trkpt>
      <trkpt lat="45.88966" lon="4.75591">
        <ele>198</ele>
        <time>2017-07-08T08:44:55Z</time>
      </trkpt>
      <trkpt lat="45.88965" lon="4.75585">
        <ele>198</ele>
        <time>2017-07-08T08:44:56Z</time>
      </trkpt>
      <trkpt lat="45.88964" lon="4.75573">
        <ele>198</ele>
        <time>2017-07-08T08:44:58Z</time>
      </trkpt>
      <trkpt lat="45.88964" lon="4.75568">
        <ele>198</ele>
        <time>2017-07-08T08:44:59Z</time>
      </trkpt>
      <trkpt lat="45.88963" lon="4.75557">
        <ele>198</ele>
        <time>2017-07-08T08:45:01Z</time>
      </trkpt>
      <trkpt lat="45.88962" lon="4.75551">
        <ele>198</ele>
        <time>2017-07-08T08:45:02Z</time>
      </trkpt>
      <trkpt lat="45.88961" lon="4.75539">
        <ele>198</ele>
        <time>2017-07-08T08:45:04Z</time>
      </trkpt>
      <trkpt lat="45.88961" lon="4.75534">
        <ele>198</ele>
        <time>2017-07-08T08:45:05Z</time>
      </trkpt>
      <trkpt lat="45.8896" lon="4.75521">
        <ele>198</ele>
        <time>2017-07-08T08:45:07Z</time>
      </trkpt>
      <trkpt lat="45.88959" lon="4.75515">
        <ele>198</ele>
        <time>2017-07-08T08:45:08Z</time>
      </trkpt>
      <trkpt lat="45.88959" lon="4.75508">
        <ele>198</ele>
        <time>2017-07-08T08:45:09Z</time>
      </trkpt>
      <trkpt lat="45.88959" lon="4.75501">
        <ele>198</ele>
        <time>2017-07-08T08:45:10Z</time>
      </trkpt>
      <trkpt lat="45.88958" lon="4.75489">
        <ele>199</ele>
        <time>2017-07-08T08:45:12Z</time>
      </trkpt>
      <trkpt lat="45.88958" lon="4.75484">
        <ele>199</ele>
        <time>2017-07-08T08:45:13Z</time>
      </trkpt>
      <trkpt lat="45.88957" lon="4.75472">
        <ele>199</ele>
        <time>2017-07-08T08:45:15Z</time>
      </trkpt>
      <trkpt lat="45.88957" lon="4.75467">
        <ele>199</ele>
        <time>2017-07-08T08:45:16Z</time>
      </trkpt>
      <trkpt lat="45.88957" lon="4.75457">
        <ele>199</ele>
        <time>2017-07-08T08:45:18Z</time>
      </trkpt>
      <trkpt lat="45.88957" lon="4.75452">
        <ele>199</ele>
        <time>2017-07-08T08:45:19Z</time>
      </trkpt>
      <trkpt lat="45.88957" lon="4.75441">
        <ele>199</ele>
        <time>2017-07-08T08:45:21Z</time>
      </trkpt>
      <trkpt lat="45.88956" lon="4.75435">
        <ele>199</ele>
        <time>2017-07-08T08:45:22Z</time>
      </trkpt>
      <trkpt lat="45.88958" lon="4.75426">
        <ele>199</ele>
        <time>2017-07-08T08:45:24Z</time>
      </trkpt>
      <trkpt lat="45.8896" lon="4.75423">
        <ele>199</ele>
        <time>2017-07-08T08:45:25Z</time>
      </trkpt>
      <trkpt lat="45.88967" lon="4.75421">
        <ele>199</ele>
        <time>2017-07-08T08:45:27Z</time>
      </trkpt>
      <trkpt lat="45.88971" lon="4.75422">
        <ele>199</ele>
        <time>2017-07-08T08:45:28Z</time>
      </trkpt>
      <trkpt lat="45.88976" lon="4.75423">
        <ele>199</ele>
        <time>2017-07-08T08:45:29Z</time>
      </trkpt>
      <trkpt lat="45.88981" lon="4.75422">
        <ele>199</ele>
        <time>2017-07-08T08:45:30Z</time>
      </trkpt>
      <trkpt lat="45.88986" lon="4.75421">
        <ele>199</ele>
        <time>2017-07-08T08:45:31Z</time>
      </trkpt>
      <trkpt lat="45.88991" lon="4.7542">
        <ele>199</ele>
        <time>2017-07-08T08:45:32Z</time>
      </trkpt>
      <trkpt lat="45.88996" lon="4.75419">
        <ele>199</ele>
        <time>2017-07-08T08:45:33Z</time>
      </trkpt>
      <trkpt lat="45.89001" lon="4.75417">
        <ele>199</ele>
        <time>2017-07-08T08:45:34Z</time>
      </trkpt>
      <trkpt lat="45.89005" lon="4.75415">
        <ele>199</ele>
        <time>2017-07-08T08:45:35Z</time>
      </trkpt>
      <trkpt lat="45.8901" lon="4.75413">
        <ele>199</ele>
        <time>2017-07-08T08:45:36Z</time>
      </trkpt>
      <trkpt lat="45.89014" lon="4.75412">
        <ele>199</ele>
        <time>2017-07-08T08:45:37Z</time>
      </trkpt>
      <trkpt lat="45.89019" lon="4.7541">
        <ele>199</ele>
        <time>2017-07-08T08:45:38Z</time>
      </trkpt>
      <trkpt lat="45.89027" lon="4.75407">
        <ele>199</ele>
        <time>2017-07-08T08:45:40Z</time>
      </trkpt>
      <trkpt lat="45.89031" lon="4.75404">
        <ele>199</ele>
        <time>2017-07-08T08:45:41Z</time>
      </trkpt>
      <trkpt lat="45.89038" lon="4.75399">
        <ele>199</ele>
        <time>2017-07-08T08:45:43Z</time>
      </trkpt>
      <trkpt lat="45.89041" lon="4.75396">
        <ele>199</ele>
        <time>2017-07-08T08:45:44Z</time>
      </trkpt>
      <trkpt lat="45.89044" lon="4.75386">
        <ele>199</ele>
        <time>2017-07-08T08:45:46Z</time>
      </trkpt>
      <trkpt lat="45.89045" lon="4.75381">
        <ele>199</ele>
        <time>2017-07-08T08:45:47Z</time>
      </trkpt>
      <trkpt lat="45.89046" lon="4.7537">
        <ele>199</ele>
        <time>2017-07-08T08:45:49Z</time>
      </trkpt>
      <trkpt lat="45.89046" lon="4.75364">
        <ele>199</ele>
        <time>2017-07-08T08:45:50Z</time>
      </trkpt>
      <trkpt lat="45.89047" lon="4.75352">
        <ele>199</ele>
        <time>2017-07-08T08:45:52Z</time>
      </trkpt>
      <trkpt lat="45.89047" lon="4.75346">
        <ele>199</ele>
        <time>2017-07-08T08:45:53Z</time>
      </trkpt>
      <trkpt lat="45.89048" lon="4.75339">
        <ele>199</ele>
        <time>2017-07-08T08:45:54Z</time>
      </trkpt>
      <trkpt lat="45.89048" lon="4.75332">
        <ele>199</ele>
        <time>2017-07-08T08:45:55Z</time>
      </trkpt>
      <trkpt lat="45.89049" lon="4.7532">
        <ele>199</ele>
        <time>2017-07-08T08:45:57Z</time>
      </trkpt>
      <trkpt lat="45.8905" lon="4.75314">
        <ele>199</ele>
        <time>2017-07-08T08:45:58Z</time>
      </trkpt>
      <trkpt lat="45.89051" lon="4.75304">
        <ele>199</ele>
        <time>2017-07-08T08:46:00Z</time>
      </trkpt>
      <trkpt lat="45.89051" lon="4.75299">
        <ele>199</ele>
        <time>2017-07-08T08:46:01Z</time>
      </trkpt>
      <trkpt lat="45.89053" lon="4.75289">
        <ele>199</ele>
        <time>2017-07-08T08:46:03Z</time>
      </trkpt>
      <trkpt lat="45.89054" lon="4.75283">
        <ele>199</ele>
        <time>2017-07-08T08:46:04Z</time>
      </trkpt>
      <trkpt lat="45.89056" lon="4.75271">
        <ele>199</ele>
        <time>2017-07-08T08:46:06Z</time>
      </trkpt>
      <trkpt lat="45.89057" lon="4.75265">
        <ele>199</ele>
        <time>2017-07-08T08:46:07Z</time>
      </trkpt>
      <trkpt lat="45.89058" lon="4.75252">
        <ele>199</ele>
        <time>2017-07-08T08:46:09Z</time>
      </trkpt>
      <trkpt lat="45.89059" lon="4.75246">
        <ele>199</ele>
        <time>2017-07-08T08:46:10Z</time>
      </trkpt>
      <trkpt lat="45.8906" lon="4.75235">
        <ele>199</ele>
        <time>2017-07-08T08:46:12Z</time>
      </trkpt>
      <trkpt lat="45.89061" lon="4.75229">
        <ele>199</ele>
        <time>2017-07-08T08:46:13Z</time>
      </trkpt>
      <trkpt lat="45.89064" lon="4.7522">
        <ele>199</ele>
        <time>2017-07-08T08:46:15Z</time>
      </trkpt>
      <trkpt lat="45.89065" lon="4.75216">
        <ele>199</ele>
        <time>2017-07-08T08:46:16Z</time>
      </trkpt>
      <trkpt lat="45.89067" lon="4.75206">
        <ele>199</ele>
        <time>2017-07-08T08:46:18Z</time>
      </trkpt>
      <trkpt lat="45.89068" lon="4.75201">
        <ele>199</ele>
        <time>2017-07-08T08:46:19Z</time>
      </trkpt>
      <trkpt lat="45.89069" lon="4.75189">
        <ele>199</ele>
        <time>2017-07-08T08:46:21Z</time>
      </trkpt>
      <trkpt lat="45.89068" lon="4.75183">
        <ele>199</ele>
        <time>2017-07-08T08:46:22Z</time>
      </trkpt>
      <trkpt lat="45.89066" lon="4.75172">
        <ele>199</ele>
        <time>2017-07-08T08:46:24Z</time>
      </trkpt>
      <trkpt lat="45.89066" lon="4.75167">
        <ele>199</ele>
        <time>2017-07-08T08:46:25Z</time>
      </trkpt>
      <trkpt lat="45.89065" lon="4.75157">
        <ele>199</ele>
        <time>2017-07-08T08:46:27Z</time>
      </trkpt>
      <trkpt lat="45.89064" lon="4.75152">
        <ele>199</ele>
        <time>2017-07-08T08:46:28Z</time>
      </trkpt>
      <trkpt lat="45.89062" lon="4.75142">
        <ele>199</ele>
        <time>2017-07-08T08:46:30Z</time>
      </trkpt>
      <trkpt lat="45.89061" lon="4.75136">
        <ele>199</ele>
        <time>2017-07-08T08:46:31Z</time>
      </trkpt>
      <trkpt lat="45.89057" lon="4.75125">
        <ele>199</ele>
        <time>2017-07-08T08:46:33Z</time>
      </trkpt>
      <trkpt lat="45.89054" lon="4.75119">
        <ele>199</ele>
        <time>2017-07-08T08:46:34Z</time>
      </trkpt>
      <trkpt lat="45.89049" lon="4.75109">
        <ele>199</ele>
        <time>2017-07-08T08:46:36Z</time>
      </trkpt>
      <trkpt lat="45.89046" lon="4.75105">
        <ele>199</ele>
        <time>2017-07-08T08:46:37Z</time>
      </trkpt>
      <trkpt lat="45.89042" lon="4.75096">
        <ele>199</ele>
        <time>2017-07-08T08:46:39Z</time>
      </trkpt>
      <trkpt lat="45.8904" lon="4.75093">
        <ele>199</ele>
        <time>2017-07-08T08:46:40Z</time>
      </trkpt>
      <trkpt lat="45.89034" lon="4.75083">
        <ele>199</ele>
        <time>2017-07-08T08:46:43Z</time>
      </trkpt>
      <trkpt lat="45.89032" lon="4.7508">
        <ele>199</ele>
        <time>2017-07-08T08:46:44Z</time>
      </trkpt>
      <trkpt lat="45.89028" lon="4.75071">
        <ele>199</ele>
        <time>2017-07-08T08:46:46Z</time>
      </trkpt>
      <trkpt lat="45.89025" lon="4.75066">
        <ele>199</ele>
        <time>2017-07-08T08:46:47Z</time>
      </trkpt>
      <trkpt lat="45.89022" lon="4.75061">
        <ele>199</ele>
        <time>2017-07-08T08:46:48Z</time>
      </trkpt>
      <trkpt lat="45.8902" lon="4.75055">
        <ele>199</ele>
        <time>2017-07-08T08:46:49Z</time>
      </trkpt>
      <trkpt lat="45.89016" lon="4.75044">
        <ele>199</ele>
        <time>2017-07-08T08:46:51Z</time>
      </trkpt>
      <trkpt lat="45.89015" lon="4.75038">
        <ele>199</ele>
        <time>2017-07-08T08:46:52Z</time>
      </trkpt>
      <trkpt lat="45.89014" lon="4.75028">
        <ele>199</ele>
        <time>2017-07-08T08:46:54Z</time>
      </trkpt>
      <trkpt lat="45.89014" lon="4.75023">
        <ele>199</ele>
        <time>2017-07-08T08:46:55Z</time>
      </trkpt>
      <trkpt lat="45.89014" lon="4.75011">
        <ele>199</ele>
        <time>2017-07-08T08:46:57Z</time>
      </trkpt>
      <trkpt lat="45.89013" lon="4.75004">
        <ele>199</ele>
        <time>2017-07-08T08:46:58Z</time>
      </trkpt>
      <trkpt lat="45.89013" lon="4.74998">
        <ele>199</ele>
        <time>2017-07-08T08:46:59Z</time>
      </trkpt>
      <trkpt lat="45.89013" lon="4.74991">
        <ele>199</ele>
        <time>2017-07-08T08:47:00Z</time>
      </trkpt>
      <trkpt lat="45.89012" lon="4.74979">
        <ele>199</ele>
        <time>2017-07-08T08:47:02Z</time>
      </trkpt>
      <trkpt lat="45.89012" lon="4.74973">
        <ele>199</ele>
        <time>2017-07-08T08:47:03Z</time>
      </trkpt>
      <trkpt lat="45.89012" lon="4.74962">
        <ele>199</ele>
        <time>2017-07-08T08:47:05Z</time>
      </trkpt>
      <trkpt lat="45.89012" lon="4.74957">
        <ele>199</ele>
        <time>2017-07-08T08:47:06Z</time>
      </trkpt>
      <trkpt lat="45.89014" lon="4.74948">
        <ele>199</ele>
        <time>2017-07-08T08:47:08Z</time>
      </trkpt>
      <trkpt lat="45.89015" lon="4.74944">
        <ele>199</ele>
        <time>2017-07-08T08:47:09Z</time>
      </trkpt>
      <trkpt lat="45.89017" lon="4.74935">
        <ele>199</ele>
        <time>2017-07-08T08:47:11Z</time>
      </trkpt>
      <trkpt lat="45.89019" lon="4.7493">
        <ele>199</ele>
        <time>2017-07-08T08:47:12Z</time>
      </trkpt>
      <trkpt lat="45.89021" lon="4.7492">
        <ele>199</ele>
        <time>2017-07-08T08:47:14Z</time>
      </trkpt>
      <trkpt lat="45.89022" lon="4.74915">
        <ele>199</ele>
        <time>2017-07-08T08:47:15Z</time>
      </trkpt>
      <trkpt lat="45.89024" lon="4.74907">
        <ele>199</ele>
        <time>2017-07-08T08:47:17Z</time>
      </trkpt>
      <trkpt lat="45.89025" lon="4.74901">
        <ele>199</ele>
        <time>2017-07-08T08:47:18Z</time>
      </trkpt>
      <trkpt lat="45.89029" lon="4.74892">
        <ele>199</ele>
        <time>2017-07-08T08:47:20Z</time>
      </trkpt>
      <trkpt lat="45.89032" lon="4.7489">
        <ele>199</ele>
        <time>2017-07-08T08:47:21Z</time>
      </trkpt>
      <trkpt lat="45.8904" lon="4.74884">
        <ele>199</ele>
        <time>2017-07-08T08:47:23Z</time>
      </trkpt>
      <trkpt lat="45.89043" lon="4.74879">
        <ele>199</ele>
        <time>2017-07-08T08:47:24Z</time>
      </trkpt>
      <trkpt lat="45.89043" lon="4.74868">
        <ele>199</ele>
        <time>2017-07-08T08:47:26Z</time>
      </trkpt>
      <trkpt lat="45.89041" lon="4.74863">
        <ele>199</ele>
        <time>2017-07-08T08:47:27Z</time>
      </trkpt>
      <trkpt lat="45.89039" lon="4.74852">
        <ele>199</ele>
        <time>2017-07-08T08:47:29Z</time>
      </trkpt>
      <trkpt lat="45.89038" lon="4.74847">
        <ele>199</ele>
        <time>2017-07-08T08:47:30Z</time>
      </trkpt>
      <trkpt lat="45.89037" lon="4.74837">
        <ele>199</ele>
        <time>2017-07-08T08:47:32Z</time>
      </trkpt>
      <trkpt lat="45.89036" lon="4.74832">
        <ele>199</ele>
        <time>2017-07-08T08:47:33Z</time>
      </trkpt>
      <trkpt lat="45.89035" lon="4.74821">
        <ele>199</ele>
        <time>2017-07-08T08:47:35Z</time>
      </trkpt>
      <trkpt lat="45.89034" lon="4.74815">
        <ele>199</ele>
        <time>2017-07-08T08:47:36Z</time>
      </trkpt>
      <trkpt lat="45.89033" lon="4.74803">
        <ele>198</ele>
        <time>2017-07-08T08:47:38Z</time>
      </trkpt>
      <trkpt lat="45.89033" lon="4.74796">
        <ele>198</ele>
        <time>2017-07-08T08:47:39Z</time>
      </trkpt>
      <trkpt lat="45.89032" lon="4.74789">
        <ele>198</ele>
        <time>2017-07-08T08:47:40Z</time>
      </trkpt>
      <trkpt lat="45.89031" lon="4.74782">
        <ele>198</ele>
        <time>2017-07-08T08:47:41Z</time>
      </trkpt>
      <trkpt lat="45.89031" lon="4.74774">
        <ele>198</ele>
        <time>2017-07-08T08:47:42Z</time>
      </trkpt>
      <trkpt lat="45.89031" lon="4.74767">
        <ele>198</ele>
        <time>2017-07-08T08:47:43Z</time>
      </trkpt>
      <trkpt lat="45.8903" lon="4.74758">
        <ele>198</ele>
        <time>2017-07-08T08:47:44Z</time>
      </trkpt>
      <trkpt lat="45.89029" lon="4.7475">
        <ele>198</ele>
        <time>2017-07-08T08:47:45Z</time>
      </trkpt>
      <trkpt lat="45.89028" lon="4.74743">
        <ele>196</ele>
        <time>2017-07-08T08:47:46Z</time>
      </trkpt>
      <trkpt lat="45.89027" lon="4.74737">
        <ele>196</ele>
        <time>2017-07-08T08:47:47Z</time>
      </trkpt>
      <trkpt lat="45.89022" lon="4.74729">
        <ele>195</ele>
        <time>2017-07-08T08:47:49Z</time>
      </trkpt>
      <trkpt lat="45.89018" lon="4.74728">
        <ele>196</ele>
        <time>2017-07-08T08:47:50Z</time>
      </trkpt>
      <trkpt lat="45.89011" lon="4.74729">
        <ele>196</ele>
        <time>2017-07-08T08:47:52Z</time>
      </trkpt>
      <trkpt lat="45.89007" lon="4.74731">
        <ele>196</ele>
        <time>2017-07-08T08:47:53Z</time>
      </trkpt>
      <trkpt lat="45.88999" lon="4.74731">
        <ele>197</ele>
        <time>2017-07-08T08:47:55Z</time>
      </trkpt>
      <trkpt lat="45.88996" lon="4.74729">
        <ele>196</ele>
        <time>2017-07-08T08:47:56Z</time>
      </trkpt>
      <trkpt lat="45.88993" lon="4.74719">
        <ele>196</ele>
        <time>2017-07-08T08:47:58Z</time>
      </trkpt>
      <trkpt lat="45.88994" lon="4.74714">
        <ele>196</ele>
        <time>2017-07-08T08:47:59Z</time>
      </trkpt>
      <trkpt lat="45.88995" lon="4.74707">
        <ele>196</ele>
        <time>2017-07-08T08:48:00Z</time>
      </trkpt>
      <trkpt lat="45.88996" lon="4.747">
        <ele>196</ele>
        <time>2017-07-08T08:48:01Z</time>
      </trkpt>
      <trkpt lat="45.88998" lon="4.74693">
        <ele>195</ele>
        <time>2017-07-08T08:48:02Z</time>
      </trkpt>
      <trkpt lat="45.88999" lon="4.74685">
        <ele>195</ele>
        <time>2017-07-08T08:48:03Z</time>
      </trkpt>
      <trkpt lat="45.89" lon="4.74677">
        <ele>194</ele>
        <time>2017-07-08T08:48:04Z</time>
      </trkpt>
      <trkpt lat="45.89001" lon="4.7467">
        <ele>194</ele>
        <time>2017-07-08T08:48:05Z</time>
      </trkpt>
      <trkpt lat="45.89001" lon="4.74662">
        <ele>194</ele>
        <time>2017-07-08T08:48:06Z</time>
      </trkpt>
      <trkpt lat="45.89002" lon="4.74654">
        <ele>193</ele>
        <time>2017-07-08T08:48:07Z</time>
      </trkpt>
      <trkpt lat="45.89002" lon="4.74646">
        <ele>192</ele>
        <time>2017-07-08T08:48:08Z</time>
      </trkpt>
      <trkpt lat="45.89003" lon="4.74638">
        <ele>192</ele>
        <time>2017-07-08T08:48:09Z</time>
      </trkpt>
      <trkpt lat="45.89004" lon="4.74631">
        <ele>192</ele>
        <time>2017-07-08T08:48:10Z</time>
      </trkpt>
      <trkpt lat="45.89006" lon="4.74624">
        <ele>192</ele>
        <time>2017-07-08T08:48:11Z</time>
      </trkpt>
      <trkpt lat="45.89008" lon="4.74617">
        <ele>192</ele>
        <time>2017-07-08T08:48:12Z</time>
      </trkpt>
      <trkpt lat="45.8901" lon="4.74611">
        <ele>191</ele>
        <time>2017-07-08T08:48:13Z</time>
      </trkpt>
      <trkpt lat="45.89012" lon="4.74605">
        <ele>191</ele>
        <time>2017-07-08T08:48:14Z</time>
      </trkpt>
      <trkpt lat="45.89015" lon="4.74599">
        <ele>191</ele>
        <time>2017-07-08T08:48:15Z</time>
      </trkpt>
      <trkpt lat="45.89017" lon="4.74593">
        <ele>191</ele>
        <time>2017-07-08T08:48:16Z</time>
      </trkpt>
      <trkpt lat="45.89018" lon="4.74586">
        <ele>191</ele>
        <time>2017-07-08T08:48:17Z</time>
      </trkpt>
      <trkpt lat="45.89018" lon="4.74574">
        <ele>190</ele>
        <time>2017-07-08T08:48:19Z</time>
      </trkpt>
      <trkpt lat="45.89018" lon="4.74568">
        <ele>190</ele>
        <time>2017-07-08T08:48:20Z</time>
      </trkpt>
      <trkpt lat="45.89021" lon="4.74558">
        <ele>190</ele>
        <time>2017-07-08T08:48:22Z</time>
      </trkpt>
      <trkpt lat="45.89022" lon="4.74552">
        <ele>190</ele>
        <time>2017-07-08T08:48:23Z</time>
      </trkpt>
      <trkpt lat="45.89025" lon="4.74541">
        <ele>189</ele>
        <time>2017-07-08T08:48:25Z</time>
      </trkpt>
      <trkpt lat="45.89026" lon="4.74536">
        <ele>189</ele>
        <time>2017-07-08T08:48:26Z</time>
      </trkpt>
      <trkpt lat="45.89028" lon="4.74525">
        <ele>189</ele>
        <time>2017-07-08T08:48:28Z</time>
      </trkpt>
      <trkpt lat="45.89028" lon="4.74521">
        <ele>189</ele>
        <time>2017-07-08T08:48:29Z</time>
      </trkpt>
      <trkpt lat="45.89024" lon="4.7451">
        <ele>189</ele>
        <time>2017-07-08T08:48:36Z</time>
      </trkpt>
      <trkpt lat="45.89022" lon="4.74508">
        <ele>189</ele>
        <time>2017-07-08T08:48:37Z</time>
      </trkpt>
      <trkpt lat="45.89016" lon="4.74506">
        <ele>189</ele>
        <time>2017-07-08T08:48:39Z</time>
      </trkpt>
      <trkpt lat="45.89012" lon="4.74504">
        <ele>189</ele>
        <time>2017-07-08T08:48:40Z</time>
      </trkpt>
      <trkpt lat="45.89004" lon="4.745">
        <ele>189</ele>
        <time>2017-07-08T08:48:43Z</time>
      </trkpt>
      <trkpt lat="45.89002" lon="4.74498">
        <ele>189</ele>
        <time>2017-07-08T08:48:44Z</time>
      </trkpt>
      <trkpt lat="45.89004" lon="4.7449">
        <ele>189</ele>
        <time>2017-07-08T08:48:46Z</time>
      </trkpt>
      <trkpt lat="45.89005" lon="4.74485">
        <ele>189</ele>
        <time>2017-07-08T08:48:47Z</time>
      </trkpt>
      <trkpt lat="45.89007" lon="4.74476">
        <ele>188</ele>
        <time>2017-07-08T08:48:49Z</time>
      </trkpt>
      <trkpt lat="45.89007" lon="4.7447">
        <ele>188</ele>
        <time>2017-07-08T08:48:50Z</time>
      </trkpt>
      <trkpt lat="45.89002" lon="4.74465">
        <ele>188</ele>
        <time>2017-07-08T08:48:52Z</time>
      </trkpt>
      <trkpt lat="45.88999" lon="4.74463">
        <ele>189</ele>
        <time>2017-07-08T08:48:53Z</time>
      </trkpt>
      <trkpt lat="45.88994" lon="4.74456">
        <ele>188</ele>
        <time>2017-07-08T08:48:55Z</time>
      </trkpt>
      <trkpt lat="45.88991" lon="4.74453">
        <ele>188</ele>
        <time>2017-07-08T08:48:56Z</time>
      </trkpt>
      <trkpt lat="45.88986" lon="4.74444">
        <ele>188</ele>
        <time>2017-07-08T08:48:58Z</time>
      </trkpt>
      <trkpt lat="45.88983" lon="4.7444">
        <ele>188</ele>
        <time>2017-07-08T08:48:59Z</time>
      </trkpt>
      <trkpt lat="45.88977" lon="4.74437">
        <ele>188</ele>
        <time>2017-07-08T08:49:01Z</time>
      </trkpt>
      <trkpt lat="45.88974" lon="4.74437">
        <ele>188</ele>
        <time>2017-07-08T08:49:02Z</time>
      </trkpt>
      <trkpt lat="45.88967" lon="4.74436">
        <ele>188</ele>
        <time>2017-07-08T08:49:04Z</time>
      </trkpt>
      <trkpt lat="45.88963" lon="4.74434">
        <ele>188</ele>
        <time>2017-07-08T08:49:05Z</time>
      </trkpt>
      <trkpt lat="45.88957" lon="4.7443">
        <ele>188</ele>
        <time>2017-07-08T08:49:07Z</time>
      </trkpt>
      <trkpt lat="45.88954" lon="4.74428">
        <ele>188</ele>
        <time>2017-07-08T08:49:08Z</time>
      </trkpt>
      <trkpt lat="45.88948" lon="4.74422">
        <ele>188</ele>
        <time>2017-07-08T08:49:10Z</time>
      </trkpt>
      <trkpt lat="45.88944" lon="4.7442">
        <ele>188</ele>
        <time>2017-07-08T08:49:11Z</time>
      </trkpt>
      <trkpt lat="45.88939" lon="4.74414">
        <ele>188</ele>
        <time>2017-07-08T08:49:13Z</time>
      </trkpt>
      <trkpt lat="45.88937" lon="4.7441">
        <ele>188</ele>
        <time>2017-07-08T08:49:14Z</time>
      </trkpt>
      <trkpt lat="45.88938" lon="4.74402">
        <ele>188</ele>
        <time>2017-07-08T08:49:16Z</time>
      </trkpt>
      <trkpt lat="45.8894" lon="4.74397">
        <ele>188</ele>
        <time>2017-07-08T08:49:17Z</time>
      </trkpt>
      <trkpt lat="45.88944" lon="4.74388">
        <ele>188</ele>
        <time>2017-07-08T08:49:19Z</time>
      </trkpt>
      <trkpt lat="45.88946" lon="4.74383">
        <ele>188</ele>
        <time>2017-07-08T08:49:20Z</time>
      </trkpt>
      <trkpt lat="45.88952" lon="4.74374">
        <ele>188</ele>
        <time>2017-07-08T08:49:22Z</time>
      </trkpt>
      <trkpt lat="45.88954" lon="4.7437">
        <ele>188</ele>
        <time>2017-07-08T08:49:23Z</time>
      </trkpt>
      <trkpt lat="45.88958" lon="4.7436">
        <ele>188</ele>
        <time>2017-07-08T08:49:25Z</time>
      </trkpt>
      <trkpt lat="45.88961" lon="4.74356">
        <ele>188</ele>
        <time>2017-07-08T08:49:26Z</time>
      </trkpt>
      <trkpt lat="45.88965" lon="4.74347">
        <ele>188</ele>
        <time>2017-07-08T08:49:28Z</time>
      </trkpt>
      <trkpt lat="45.88967" lon="4.74343">
        <ele>188</ele>
        <time>2017-07-08T08:49:29Z</time>
      </trkpt>
      <trkpt lat="45.88971" lon="4.74335">
        <ele>188</ele>
        <time>2017-07-08T08:49:31Z</time>
      </trkpt>
      <trkpt lat="45.88973" lon="4.74331">
        <ele>187</ele>
        <time>2017-07-08T08:49:32Z</time>
      </trkpt>
      <trkpt lat="45.88976" lon="4.74324">
        <ele>187</ele>
        <time>2017-07-08T08:49:34Z</time>
      </trkpt>
      <trkpt lat="45.88977" lon="4.74319">
        <ele>187</ele>
        <time>2017-07-08T08:49:35Z</time>
      </trkpt>
      <trkpt lat="45.88981" lon="4.74313">
        <ele>187</ele>
        <time>2017-07-08T08:49:37Z</time>
      </trkpt>
      <trkpt lat="45.88984" lon="4.7431">
        <ele>187</ele>
        <time>2017-07-08T08:49:38Z</time>
      </trkpt>
      <trkpt lat="45.88988" lon="4.74299">
        <ele>187</ele>
        <time>2017-07-08T08:49:41Z</time>
      </trkpt>
      <trkpt lat="45.8899" lon="4.74297">
        <ele>187</ele>
        <time>2017-07-08T08:49:42Z</time>
      </trkpt>
      <trkpt lat="45.88992" lon="4.74296">
        <ele>187</ele>
        <time>2017-07-08T08:49:44Z</time>
      </trkpt>
      <trkpt lat="45.88992" lon="4.74295">
        <ele>187</ele>
        <time>2017-07-08T08:49:45Z</time>
      </trkpt>
      <trkpt lat="45.88992" lon="4.74288">
        <ele>187</ele>
        <time>2017-07-08T08:49:51Z</time>
      </trkpt>
      <trkpt lat="45.88993" lon="4.74286">
        <ele>187</ele>
        <time>2017-07-08T08:49:52Z</time>
      </trkpt>
      <trkpt lat="45.89" lon="4.7428">
        <ele>187</ele>
        <time>2017-07-08T08:49:56Z</time>
      </trkpt>
      <trkpt lat="45.89002" lon="4.74279">
        <ele>187</ele>
        <time>2017-07-08T08:49:57Z</time>
      </trkpt>
      <trkpt lat="45.89009" lon="4.74278">
        <ele>187</ele>
        <time>2017-07-08T08:50:00Z</time>
      </trkpt>
      <trkpt lat="45.89012" lon="4.74278">
        <ele>187</ele>
        <time>2017-07-08T08:50:01Z</time>
      </trkpt>
      <trkpt lat="45.8902" lon="4.74281">
        <ele>187</ele>
        <time>2017-07-08T08:50:04Z</time>
      </trkpt>
      <trkpt lat="45.89023" lon="4.74281">
        <ele>187</ele>
        <time>2017-07-08T08:50:05Z</time>
      </trkpt>
      <trkpt lat="45.89025" lon="4.7427">
        <ele>187</ele>
        <time>2017-07-08T08:50:08Z</time>
      </trkpt>
      <trkpt lat="45.89022" lon="4.74262">
        <ele>187</ele>
        <time>2017-07-08T08:50:09Z</time>
      </trkpt>
      <trkpt lat="45.8902" lon="4.74256">
        <ele>187</ele>
        <time>2017-07-08T08:50:10Z</time>
      </trkpt>
      <trkpt lat="45.89019" lon="4.7425">
        <ele>186</ele>
        <time>2017-07-08T08:50:11Z</time>
      </trkpt>
      <trkpt lat="45.89013" lon="4.74244">
        <ele>186</ele>
        <time>2017-07-08T08:50:13Z</time>
      </trkpt>
      <trkpt lat="45.8901" lon="4.74242">
        <ele>186</ele>
        <time>2017-07-08T08:50:14Z</time>
      </trkpt>
      <trkpt lat="45.89005" lon="4.74232">
        <ele>186</ele>
        <time>2017-07-08T08:50:20Z</time>
      </trkpt>
      <trkpt lat="45.89006" lon="4.7423">
        <ele>186</ele>
        <time>2017-07-08T08:50:21Z</time>
      </trkpt>
      <trkpt lat="45.89011" lon="4.7422">
        <ele>186</ele>
        <time>2017-07-08T08:50:23Z</time>
      </trkpt>
      <trkpt lat="45.89013" lon="4.74215">
        <ele>186</ele>
        <time>2017-07-08T08:50:24Z</time>
      </trkpt>
      <trkpt lat="45.89017" lon="4.74204">
        <ele>186</ele>
        <time>2017-07-08T08:50:26Z</time>
      </trkpt>
      <trkpt lat="45.89018" lon="4.74198">
        <ele>186</ele>
        <time>2017-07-08T08:50:27Z</time>
      </trkpt>
      <trkpt lat="45.8902" lon="4.74191">
        <ele>186</ele>
        <time>2017-07-08T08:50:28Z</time>
      </trkpt>
      <trkpt lat="45.89021" lon="4.74186">
        <ele>186</ele>
        <time>2017-07-08T08:50:29Z</time>
      </trkpt>
      <trkpt lat="45.89023" lon="4.7418">
        <ele>185</ele>
        <time>2017-07-08T08:50:30Z</time>
      </trkpt>
      <trkpt lat="45.89026" lon="4.74174">
        <ele>185</ele>
        <time>2017-07-08T08:50:31Z</time>
      </trkpt>
      <trkpt lat="45.8903" lon="4.74163">
        <ele>185</ele>
        <time>2017-07-08T08:50:33Z</time>
      </trkpt>
      <trkpt lat="45.89032" lon="4.74157">
        <ele>185</ele>
        <time>2017-07-08T08:50:34Z</time>
      </trkpt>
      <trkpt lat="45.89034" lon="4.74152">
        <ele>185</ele>
        <time>2017-07-08T08:50:35Z</time>
      </trkpt>
      <trkpt lat="45.89036" lon="4.74146">
        <ele>185</ele>
        <time>2017-07-08T08:50:36Z</time>
      </trkpt>
      <trkpt lat="45.89039" lon="4.74139">
        <ele>185</ele>
        <time>2017-07-08T08:50:37Z</time>
      </trkpt>
      <trkpt lat="45.8904" lon="4.74133">
        <ele>185</ele>
        <time>2017-07-08T08:50:38Z</time>
      </trkpt>
      <trkpt lat="45.89041" lon="4.74126">
        <ele>185</ele>
        <time>2017-07-08T08:50:39Z</time>
      </trkpt>
      <trkpt lat="45.89041" lon="4.74119">
        <ele>185</ele>
        <time>2017-07-08T08:50:40Z</time>
      </trkpt>
      <trkpt lat="45.89041" lon="4.74112">
        <ele>185</ele>
        <time>2017-07-08T08:50:41Z</time>
      </trkpt>
      <trkpt lat="45.89042" lon="4.74104">
        <ele>185</ele>
        <time>2017-07-08T08:50:42Z</time>
      </trkpt>
      <trkpt lat="45.89042" lon="4.74097">
        <ele>185</ele>
        <time>2017-07-08T08:50:43Z</time>
      </trkpt>
      <trkpt lat="45.89041" lon="4.74089">
        <ele>185</ele>
        <time>2017-07-08T08:50:44Z</time>
      </trkpt>
      <trkpt lat="45.89041" lon="4.74082">
        <ele>184</ele>
        <time>2017-07-08T08:50:45Z</time>
      </trkpt>
      <trkpt lat="45.8904" lon="4.74075">
        <ele>184</ele>
        <time>2017-07-08T08:50:46Z</time>
      </trkpt>
      <trkpt lat="45.8904" lon="4.74067">
        <ele>184</ele>
        <time>2017-07-08T08:50:47Z</time>
      </trkpt>
      <trkpt lat="45.8904" lon="4.7406">
        <ele>184</ele>
        <time>2017-07-08T08:50:48Z</time>
      </trkpt>
      <trkpt lat="45.8904" lon="4.74052">
        <ele>184</ele>
        <time>2017-07-08T08:50:49Z</time>
      </trkpt>
      <trkpt lat="45.8904" lon="4.74045">
        <ele>184</ele>
        <time>2017-07-08T08:50:50Z</time>
      </trkpt>
      <trkpt lat="45.89039" lon="4.74038">
        <ele>184</ele>
        <time>2017-07-08T08:50:51Z</time>
      </trkpt>
      <trkpt lat="45.89039" lon="4.74031">
        <ele>184</ele>
        <time>2017-07-08T08:50:52Z</time>
      </trkpt>
      <trkpt lat="45.89042" lon="4.74018">
        <ele>184</ele>
        <time>2017-07-08T08:50:54Z</time>
      </trkpt>
      <trkpt lat="45.89044" lon="4.74014">
        <ele>184</ele>
        <time>2017-07-08T08:50:55Z</time>
      </trkpt>
      <trkpt lat="45.89052" lon="4.74008">
        <ele>184</ele>
        <time>2017-07-08T08:50:57Z</time>
      </trkpt>
      <trkpt lat="45.89056" lon="4.74007">
        <ele>184</ele>
        <time>2017-07-08T08:50:58Z</time>
      </trkpt>
      <trkpt lat="45.89064" lon="4.74005">
        <ele>184</ele>
        <time>2017-07-08T08:51:00Z</time>
      </trkpt>
      <trkpt lat="45.89068" lon="4.74005">
        <ele>184</ele>
        <time>2017-07-08T08:51:01Z</time>
      </trkpt>
      <trkpt lat="45.89077" lon="4.74003">
        <ele>183</ele>
        <time>2017-07-08T08:51:03Z</time>
      </trkpt>
      <trkpt lat="45.89081" lon="4.74002">
        <ele>183</ele>
        <time>2017-07-08T08:51:04Z</time>
      </trkpt>
      <trkpt lat="45.8909" lon="4.74">
        <ele>183</ele>
        <time>2017-07-08T08:51:06Z</time>
      </trkpt>
      <trkpt lat="45.89094" lon="4.73999">
        <ele>183</ele>
        <time>2017-07-08T08:51:07Z</time>
      </trkpt>
      <trkpt lat="45.89103" lon="4.73996">
        <ele>183</ele>
        <time>2017-07-08T08:51:09Z</time>
      </trkpt>
      <trkpt lat="45.89107" lon="4.73995">
        <ele>183</ele>
        <time>2017-07-08T08:51:10Z</time>
      </trkpt>
      <trkpt lat="45.89112" lon="4.73995">
        <ele>183</ele>
        <time>2017-07-08T08:51:11Z</time>
      </trkpt>
      <trkpt lat="45.89117" lon="4.73993">
        <ele>183</ele>
        <time>2017-07-08T08:51:12Z</time>
      </trkpt>
      <trkpt lat="45.8912" lon="4.73989">
        <ele>183</ele>
        <time>2017-07-08T08:51:13Z</time>
      </trkpt>
      <trkpt lat="45.89123" lon="4.73984">
        <ele>183</ele>
        <time>2017-07-08T08:51:14Z</time>
      </trkpt>
      <trkpt lat="45.89125" lon="4.73977">
        <ele>183</ele>
        <time>2017-07-08T08:51:15Z</time>
      </trkpt>
      <trkpt lat="45.89125" lon="4.7397">
        <ele>183</ele>
        <time>2017-07-08T08:51:16Z</time>
      </trkpt>
      <trkpt lat="45.89125" lon="4.73962">
        <ele>183</ele>
        <time>2017-07-08T08:51:17Z</time>
      </trkpt>
      <trkpt lat="45.89124" lon="4.73954">
        <ele>183</ele>
        <time>2017-07-08T08:51:18Z</time>
      </trkpt>
      <trkpt lat="45.89123" lon="4.73947">
        <ele>183</ele>
        <time>2017-07-08T08:51:19Z</time>
      </trkpt>
      <trkpt lat="45.89123" lon="4.7394">
        <ele>183</ele>
        <time>2017-07-08T08:51:20Z</time>
      </trkpt>
      <trkpt lat="45.89123" lon="4.73932">
        <ele>183</ele>
        <time>2017-07-08T08:51:21Z</time>
      </trkpt>
      <trkpt lat="45.89123" lon="4.73925">
        <ele>183</ele>
        <time>2017-07-08T08:51:22Z</time>
      </trkpt>
      <trkpt lat="45.89123" lon="4.73919">
        <ele>183</ele>
        <time>2017-07-08T08:51:23Z</time>
      </trkpt>
      <trkpt lat="45.89122" lon="4.73912">
        <ele>182</ele>
        <time>2017-07-08T08:51:24Z</time>
      </trkpt>
      <trkpt lat="45.89122" lon="4.73905">
        <ele>182</ele>
        <time>2017-07-08T08:51:25Z</time>
      </trkpt>
      <trkpt lat="45.89121" lon="4.73899">
        <ele>182</ele>
        <time>2017-07-08T08:51:26Z</time>
      </trkpt>
      <trkpt lat="45.89121" lon="4.73892">
        <ele>182</ele>
        <time>2017-07-08T08:51:27Z</time>
      </trkpt>
      <trkpt lat="45.89121" lon="4.73885">
        <ele>182</ele>
        <time>2017-07-08T08:51:28Z</time>
      </trkpt>
      <trkpt lat="45.89121" lon="4.73878">
        <ele>182</ele>
        <time>2017-07-08T08:51:29Z</time>
      </trkpt>
      <trkpt lat="45.89121" lon="4.73871">
        <ele>182</ele>
        <time>2017-07-08T08:51:30Z</time>
      </trkpt>
      <trkpt lat="45.89121" lon="4.73863">
        <ele>182</ele>
        <time>2017-07-08T08:51:31Z</time>
      </trkpt>
      <trkpt lat="45.8912" lon="4.73856">
        <ele>182</ele>
        <time>2017-07-08T08:51:32Z</time>
      </trkpt>
      <trkpt lat="45.8912" lon="4.73847">
        <ele>182</ele>
        <time>2017-07-08T08:51:33Z</time>
      </trkpt>
      <trkpt lat="45.89119" lon="4.73839">
        <ele>182</ele>
        <time>2017-07-08T08:51:34Z</time>
      </trkpt>
      <trkpt lat="45.89118" lon="4.73831">
        <ele>181</ele>
        <time>2017-07-08T08:51:35Z</time>
      </trkpt>
      <trkpt lat="45.89117" lon="4.73824">
        <ele>181</ele>
        <time>2017-07-08T08:51:36Z</time>
      </trkpt>
      <trkpt lat="45.89117" lon="4.73816">
        <ele>181</ele>
        <time>2017-07-08T08:51:37Z</time>
      </trkpt>
      <trkpt lat="45.89116" lon="4.73809">
        <ele>181</ele>
        <time>2017-07-08T08:51:38Z</time>
      </trkpt>
      <trkpt lat="45.89115" lon="4.73802">
        <ele>181</ele>
        <time>2017-07-08T08:51:39Z</time>
      </trkpt>
      <trkpt lat="45.89115" lon="4.73795">
        <ele>181</ele>
        <time>2017-07-08T08:51:40Z</time>
      </trkpt>
      <trkpt lat="45.89114" lon="4.73782">
        <ele>181</ele>
        <time>2017-07-08T08:51:42Z</time>
      </trkpt>
      <trkpt lat="45.89114" lon="4.73776">
        <ele>181</ele>
        <time>2017-07-08T08:51:43Z</time>
      </trkpt>
      <trkpt lat="45.89113" lon="4.73763">
        <ele>181</ele>
        <time>2017-07-08T08:51:45Z</time>
      </trkpt>
      <trkpt lat="45.89113" lon="4.73757">
        <ele>181</ele>
        <time>2017-07-08T08:51:46Z</time>
      </trkpt>
      <trkpt lat="45.89114" lon="4.73746">
        <ele>181</ele>
        <time>2017-07-08T08:51:48Z</time>
      </trkpt>
      <trkpt lat="45.89114" lon="4.7374">
        <ele>181</ele>
        <time>2017-07-08T08:51:49Z</time>
      </trkpt>
      <trkpt lat="45.89114" lon="4.73728">
        <ele>181</ele>
        <time>2017-07-08T08:51:51Z</time>
      </trkpt>
      <trkpt lat="45.89114" lon="4.73722">
        <ele>181</ele>
        <time>2017-07-08T08:51:52Z</time>
      </trkpt>
      <trkpt lat="45.89112" lon="4.73711">
        <ele>182</ele>
        <time>2017-07-08T08:51:54Z</time>
      </trkpt>
      <trkpt lat="45.89112" lon="4.73705">
        <ele>182</ele>
        <time>2017-07-08T08:51:55Z</time>
      </trkpt>
      <trkpt lat="45.89113" lon="4.73694">
        <ele>182</ele>
        <time>2017-07-08T08:51:57Z</time>
      </trkpt>
      <trkpt lat="45.89114" lon="4.73688">
        <ele>182</ele>
        <time>2017-07-08T08:51:58Z</time>
      </trkpt>
      <trkpt lat="45.89114" lon="4.73681">
        <ele>182</ele>
        <time>2017-07-08T08:51:59Z</time>
      </trkpt>
      <trkpt lat="45.89115" lon="4.73674">
        <ele>182</ele>
        <time>2017-07-08T08:52:00Z</time>
      </trkpt>
      <trkpt lat="45.89116" lon="4.73668">
        <ele>182</ele>
        <time>2017-07-08T08:52:01Z</time>
      </trkpt>
      <trkpt lat="45.89118" lon="4.73661">
        <ele>182</ele>
        <time>2017-07-08T08:52:02Z</time>
      </trkpt>
      <trkpt lat="45.8912" lon="4.7365">
        <ele>182</ele>
        <time>2017-07-08T08:52:04Z</time>
      </trkpt>
      <trkpt lat="45.8912" lon="4.73644">
        <ele>182</ele>
        <time>2017-07-08T08:52:05Z</time>
      </trkpt>
      <trkpt lat="45.89119" lon="4.73633">
        <ele>181</ele>
        <time>2017-07-08T08:52:07Z</time>
      </trkpt>
      <trkpt lat="45.89119" lon="4.73628">
        <ele>181</ele>
        <time>2017-07-08T08:52:08Z</time>
      </trkpt>
      <trkpt lat="45.89115" lon="4.73619">
        <ele>181</ele>
        <time>2017-07-08T08:52:10Z</time>
      </trkpt>
      <trkpt lat="45.89113" lon="4.73614">
        <ele>181</ele>
        <time>2017-07-08T08:52:11Z</time>
      </trkpt>
      <trkpt lat="45.89109" lon="4.73604">
        <ele>181</ele>
        <time>2017-07-08T08:52:13Z</time>
      </trkpt>
      <trkpt lat="45.89107" lon="4.73598">
        <ele>181</ele>
        <time>2017-07-08T08:52:14Z</time>
      </trkpt>
      <trkpt lat="45.89105" lon="4.73592">
        <ele>181</ele>
        <time>2017-07-08T08:52:15Z</time>
      </trkpt>
      <trkpt lat="45.89103" lon="4.73587">
        <ele>181</ele>
        <time>2017-07-08T08:52:16Z</time>
      </trkpt>
      <trkpt lat="45.891" lon="4.73575">
        <ele>181</ele>
        <time>2017-07-08T08:52:18Z</time>
      </trkpt>
      <trkpt lat="45.89098" lon="4.73569">
        <ele>181</ele>
        <time>2017-07-08T08:52:19Z</time>
      </trkpt>
      <trkpt lat="45.89097" lon="4.73557">
        <ele>181</ele>
        <time>2017-07-08T08:52:21Z</time>
      </trkpt>
      <trkpt lat="45.89097" lon="4.73551">
        <ele>181</ele>
        <time>2017-07-08T08:52:22Z</time>
      </trkpt>
      <trkpt lat="45.89097" lon="4.73541">
        <ele>181</ele>
        <time>2017-07-08T08:52:24Z</time>
      </trkpt>
      <trkpt lat="45.89097" lon="4.73536">
        <ele>181</ele>
        <time>2017-07-08T08:52:25Z</time>
      </trkpt>
      <trkpt lat="45.89098" lon="4.73524">
        <ele>181</ele>
        <time>2017-07-08T08:52:27Z</time>
      </trkpt>
      <trkpt lat="45.89099" lon="4.73518">
        <ele>181</ele>
        <time>2017-07-08T08:52:28Z</time>
      </trkpt>
      <trkpt lat="45.89097" lon="4.73506">
        <ele>181</ele>
        <time>2017-07-08T08:52:30Z</time>
      </trkpt>
      <trkpt lat="45.89097" lon="4.735">
        <ele>181</ele>
        <time>2017-07-08T08:52:31Z</time>
      </trkpt>
      <trkpt lat="45.89096" lon="4.7349">
        <ele>180</ele>
        <time>2017-07-08T08:52:33Z</time>
      </trkpt>
      <trkpt lat="45.89096" lon="4.73485">
        <ele>180</ele>
        <time>2017-07-08T08:52:34Z</time>
      </trkpt>
      <trkpt lat="45.89093" lon="4.73475">
        <ele>180</ele>
        <time>2017-07-08T08:52:36Z</time>
      </trkpt>
      <trkpt lat="45.89091" lon="4.7347">
        <ele>180</ele>
        <time>2017-07-08T08:52:37Z</time>
      </trkpt>
      <trkpt lat="45.89088" lon="4.7346">
        <ele>180</ele>
        <time>2017-07-08T08:52:39Z</time>
      </trkpt>
      <trkpt lat="45.89087" lon="4.73454">
        <ele>180</ele>
        <time>2017-07-08T08:52:40Z</time>
      </trkpt>
      <trkpt lat="45.89084" lon="4.73443">
        <ele>180</ele>
        <time>2017-07-08T08:52:42Z</time>
      </trkpt>
      <trkpt lat="45.89083" lon="4.73439">
        <ele>181</ele>
        <time>2017-07-08T08:52:43Z</time>
      </trkpt>
      <trkpt lat="45.89081" lon="4.73429">
        <ele>180</ele>
        <time>2017-07-08T08:52:45Z</time>
      </trkpt>
      <trkpt lat="45.8908" lon="4.73423">
        <ele>180</ele>
        <time>2017-07-08T08:52:46Z</time>
      </trkpt>
      <trkpt lat="45.89085" lon="4.73416">
        <ele>180</ele>
        <time>2017-07-08T08:52:47Z</time>
      </trkpt>
      <trkpt lat="45.89085" lon="4.73412">
        <ele>180</ele>
        <time>2017-07-08T08:52:48Z</time>
      </trkpt>
      <trkpt lat="45.89085" lon="4.73403">
        <ele>180</ele>
        <time>2017-07-08T08:52:51Z</time>
      </trkpt>
      <trkpt lat="45.89085" lon="4.73398">
        <ele>179</ele>
        <time>2017-07-08T08:52:52Z</time>
      </trkpt>
      <trkpt lat="45.89084" lon="4.73386">
        <ele>179</ele>
        <time>2017-07-08T08:52:54Z</time>
      </trkpt>
      <trkpt lat="45.89083" lon="4.7338">
        <ele>180</ele>
        <time>2017-07-08T08:52:55Z</time>
      </trkpt>
      <trkpt lat="45.89082" lon="4.73373">
        <ele>180</ele>
        <time>2017-07-08T08:52:56Z</time>
      </trkpt>
      <trkpt lat="45.89081" lon="4.73366">
        <ele>180</ele>
        <time>2017-07-08T08:52:57Z</time>
      </trkpt>
      <trkpt lat="45.8908" lon="4.73359">
        <ele>180</ele>
        <time>2017-07-08T08:52:58Z</time>
      </trkpt>
      <trkpt lat="45.89079" lon="4.73352">
        <ele>180</ele>
        <time>2017-07-08T08:52:59Z</time>
      </trkpt>
      <trkpt lat="45.89077" lon="4.73341">
        <ele>179</ele>
        <time>2017-07-08T08:53:01Z</time>
      </trkpt>
      <trkpt lat="45.89077" lon="4.73335">
        <ele>179</ele>
        <time>2017-07-08T08:53:02Z</time>
      </trkpt>
      <trkpt lat="45.89075" lon="4.73324">
        <ele>179</ele>
        <time>2017-07-08T08:53:04Z</time>
      </trkpt>
      <trkpt lat="45.89075" lon="4.73318">
        <ele>179</ele>
        <time>2017-07-08T08:53:05Z</time>
      </trkpt>
      <trkpt lat="45.89074" lon="4.73311">
        <ele>179</ele>
        <time>2017-07-08T08:53:06Z</time>
      </trkpt>
      <trkpt lat="45.89071" lon="4.73304">
        <ele>179</ele>
        <time>2017-07-08T08:53:07Z</time>
      </trkpt>
      <trkpt lat="45.89069" lon="4.73298">
        <ele>179</ele>
        <time>2017-07-08T08:53:08Z</time>
      </trkpt>
      <trkpt lat="45.89068" lon="4.73292">
        <ele>179</ele>
        <time>2017-07-08T08:53:09Z</time>
      </trkpt>
      <trkpt lat="45.89065" lon="4.7328">
        <ele>179</ele>
        <time>2017-07-08T08:53:11Z</time>
      </trkpt>
      <trkpt lat="45.89064" lon="4.73275">
        <ele>179</ele>
        <time>2017-07-08T08:53:12Z</time>
      </trkpt>
      <trkpt lat="45.89061" lon="4.73264">
        <ele>179</ele>
        <time>2017-07-08T08:53:14Z</time>
      </trkpt>
      <trkpt lat="45.8906" lon="4.73258">
        <ele>179</ele>
        <time>2017-07-08T08:53:15Z</time>
      </trkpt>
      <trkpt lat="45.89058" lon="4.73245">
        <ele>180</ele>
        <time>2017-07-08T08:53:17Z</time>
      </trkpt>
      <trkpt lat="45.89058" lon="4.73239">
        <ele>180</ele>
        <time>2017-07-08T08:53:18Z</time>
      </trkpt>
      <trkpt lat="45.89056" lon="4.73233">
        <ele>180</ele>
        <time>2017-07-08T08:53:19Z</time>
      </trkpt>
      <trkpt lat="45.89056" lon="4.73226">
        <ele>180</ele>
        <time>2017-07-08T08:53:20Z</time>
      </trkpt>
      <trkpt lat="45.89056" lon="4.73219">
        <ele>180</ele>
        <time>2017-07-08T08:53:21Z</time>
      </trkpt>
      <trkpt lat="45.89055" lon="4.73212">
        <ele>180</ele>
        <time>2017-07-08T08:53:22Z</time>
      </trkpt>
      <trkpt lat="45.89055" lon="4.73205">
        <ele>180</ele>
        <time>2017-07-08T08:53:23Z</time>
      </trkpt>
      <trkpt lat="45.89055" lon="4.73198">
        <ele>180</ele>
        <time>2017-07-08T08:53:24Z</time>
      </trkpt>
      <trkpt lat="45.89055" lon="4.7319">
        <ele>180</ele>
        <time>2017-07-08T08:53:25Z</time>
      </trkpt>
      <trkpt lat="45.89054" lon="4.73183">
        <ele>180</ele>
        <time>2017-07-08T08:53:26Z</time>
      </trkpt>
      <trkpt lat="45.89054" lon="4.73176">
        <ele>180</ele>
        <time>2017-07-08T08:53:27Z</time>
      </trkpt>
      <trkpt lat="45.89054" lon="4.73168">
        <ele>180</ele>
        <time>2017-07-08T08:53:28Z</time>
      </trkpt>
      <trkpt lat="45.89054" lon="4.73162">
        <ele>181</ele>
        <time>2017-07-08T08:53:29Z</time>
      </trkpt>
      <trkpt lat="45.89054" lon="4.73155">
        <ele>181</ele>
        <time>2017-07-08T08:53:30Z</time>
      </trkpt>
      <trkpt lat="45.89054" lon="4.73148">
        <ele>181</ele>
        <time>2017-07-08T08:53:31Z</time>
      </trkpt>
      <trkpt lat="45.89055" lon="4.73141">
        <ele>181</ele>
        <time>2017-07-08T08:53:32Z</time>
      </trkpt>
      <trkpt lat="45.89055" lon="4.73135">
        <ele>182</ele>
        <time>2017-07-08T08:53:33Z</time>
      </trkpt>
      <trkpt lat="45.89055" lon="4.73128">
        <ele>182</ele>
        <time>2017-07-08T08:53:34Z</time>
      </trkpt>
      <trkpt lat="45.89054" lon="4.73116">
        <ele>182</ele>
        <time>2017-07-08T08:53:36Z</time>
      </trkpt>
      <trkpt lat="45.89054" lon="4.7311">
        <ele>182</ele>
        <time>2017-07-08T08:53:37Z</time>
      </trkpt>
      <trkpt lat="45.89053" lon="4.73099">
        <ele>182</ele>
        <time>2017-07-08T08:53:39Z</time>
      </trkpt>
      <trkpt lat="45.89053" lon="4.73094">
        <ele>182</ele>
        <time>2017-07-08T08:53:40Z</time>
      </trkpt>
      <trkpt lat="45.89055" lon="4.73082">
        <ele>182</ele>
        <time>2017-07-08T08:53:42Z</time>
      </trkpt>
      <trkpt lat="45.89056" lon="4.73076">
        <ele>182</ele>
        <time>2017-07-08T08:53:43Z</time>
      </trkpt>
      <trkpt lat="45.89057" lon="4.73064">
        <ele>182</ele>
        <time>2017-07-08T08:53:45Z</time>
      </trkpt>
      <trkpt lat="45.89055" lon="4.73059">
        <ele>182</ele>
        <time>2017-07-08T08:53:46Z</time>
      </trkpt>
      <trkpt lat="45.89049" lon="4.73053">
        <ele>182</ele>
        <time>2017-07-08T08:53:48Z</time>
      </trkpt>
      <trkpt lat="45.89045" lon="4.73052">
        <ele>182</ele>
        <time>2017-07-08T08:53:49Z</time>
      </trkpt>
      <trkpt lat="45.89037" lon="4.73056">
        <ele>182</ele>
        <time>2017-07-08T08:53:51Z</time>
      </trkpt>
      <trkpt lat="45.89033" lon="4.73056">
        <ele>182</ele>
        <time>2017-07-08T08:53:52Z</time>
      </trkpt>
      <trkpt lat="45.89028" lon="4.73057">
        <ele>182</ele>
        <time>2017-07-08T08:53:53Z</time>
      </trkpt>
      <trkpt lat="45.89023" lon="4.73058">
        <ele>182</ele>
        <time>2017-07-08T08:53:54Z</time>
      </trkpt>
      <trkpt lat="45.89018" lon="4.73059">
        <ele>182</ele>
        <time>2017-07-08T08:53:55Z</time>
      </trkpt>
      <trkpt lat="45.89014" lon="4.73061">
        <ele>182</ele>
        <time>2017-07-08T08:53:56Z</time>
      </trkpt>
      <trkpt lat="45.89006" lon="4.73064">
        <ele>182</ele>
        <time>2017-07-08T08:53:58Z</time>
      </trkpt>
      <trkpt lat="45.89001" lon="4.73064">
        <ele>182</ele>
        <time>2017-07-08T08:53:59Z</time>
      </trkpt>
      <trkpt lat="45.88992" lon="4.73064">
        <ele>183</ele>
        <time>2017-07-08T08:54:01Z</time>
      </trkpt>
      <trkpt lat="45.88988" lon="4.73063">
        <ele>183</ele>
        <time>2017-07-08T08:54:02Z</time>
      </trkpt>
      <trkpt lat="45.88981" lon="4.73065">
        <ele>183</ele>
        <time>2017-07-08T08:54:04Z</time>
      </trkpt>
      <trkpt lat="45.88977" lon="4.73066">
        <ele>183</ele>
        <time>2017-07-08T08:54:05Z</time>
      </trkpt>
      <trkpt lat="45.88969" lon="4.73069">
        <ele>183</ele>
        <time>2017-07-08T08:54:07Z</time>
      </trkpt>
      <trkpt lat="45.88965" lon="4.7307">
        <ele>183</ele>
        <time>2017-07-08T08:54:08Z</time>
      </trkpt>
      <trkpt lat="45.8896" lon="4.73071">
        <ele>183</ele>
        <time>2017-07-08T08:54:09Z</time>
      </trkpt>
      <trkpt lat="45.88956" lon="4.73073">
        <ele>183</ele>
        <time>2017-07-08T08:54:10Z</time>
      </trkpt>
      <trkpt lat="45.88951" lon="4.73074">
        <ele>183</ele>
        <time>2017-07-08T08:54:11Z</time>
      </trkpt>
      <trkpt lat="45.88945" lon="4.73075">
        <ele>183</ele>
        <time>2017-07-08T08:54:12Z</time>
      </trkpt>
      <trkpt lat="45.88941" lon="4.73076">
        <ele>183</ele>
        <time>2017-07-08T08:54:13Z</time>
      </trkpt>
      <trkpt lat="45.88936" lon="4.73077">
        <ele>183</ele>
        <time>2017-07-08T08:54:14Z</time>
      </trkpt>
      <trkpt lat="45.88931" lon="4.73078">
        <ele>183</ele>
        <time>2017-07-08T08:54:15Z</time>
      </trkpt>
      <trkpt lat="45.88926" lon="4.73079">
        <ele>183</ele>
        <time>2017-07-08T08:54:16Z</time>
      </trkpt>
      <trkpt lat="45.88918" lon="4.73081">
        <ele>183</ele>
        <time>2017-07-08T08:54:18Z</time>
      </trkpt>
      <trkpt lat="45.88914" lon="4.73082">
        <ele>183</ele>
        <time>2017-07-08T08:54:19Z</time>
      </trkpt>
      <trkpt lat="45.88906" lon="4.73085">
        <ele>183</ele>
        <time>2017-07-08T08:54:21Z</time>
      </trkpt>
      <trkpt lat="45.88902" lon="4.73085">
        <ele>182</ele>
        <time>2017-07-08T08:54:22Z</time>
      </trkpt>
      <trkpt lat="45.88893" lon="4.73087">
        <ele>182</ele>
        <time>2017-07-08T08:54:24Z</time>
      </trkpt>
      <trkpt lat="45.88888" lon="4.73088">
        <ele>182</ele>
        <time>2017-07-08T08:54:25Z</time>
      </trkpt>
      <trkpt lat="45.88883" lon="4.73088">
        <ele>182</ele>
        <time>2017-07-08T08:54:26Z</time>
      </trkpt>
      <trkpt lat="45.88878" lon="4.73089">
        <ele>182</ele>
        <time>2017-07-08T08:54:27Z</time>
      </trkpt>
      <trkpt lat="45.88873" lon="4.73091">
        <ele>182</ele>
        <time>2017-07-08T08:54:28Z</time>
      </trkpt>
      <trkpt lat="45.88868" lon="4.73092">
        <ele>182</ele>
        <time>2017-07-08T08:54:29Z</time>
      </trkpt>
      <trkpt lat="45.88861" lon="4.73094">
        <ele>182</ele>
        <time>2017-07-08T08:54:31Z</time>
      </trkpt>
      <trkpt lat="45.88857" lon="4.73095">
        <ele>182</ele>
        <time>2017-07-08T08:54:32Z</time>
      </trkpt>
      <trkpt lat="45.8885" lon="4.73098">
        <ele>182</ele>
        <time>2017-07-08T08:54:34Z</time>
      </trkpt>
      <trkpt lat="45.88846" lon="4.73098">
        <ele>182</ele>
        <time>2017-07-08T08:54:35Z</time>
      </trkpt>
      <trkpt lat="45.88838" lon="4.73101">
        <ele>182</ele>
        <time>2017-07-08T08:54:37Z</time>
      </trkpt>
      <trkpt lat="45.88834" lon="4.73103">
        <ele>182</ele>
        <time>2017-07-08T08:54:38Z</time>
      </trkpt>
      <trkpt lat="45.88827" lon="4.73105">
        <ele>182</ele>
        <time>2017-07-08T08:54:40Z</time>
      </trkpt>
      <trkpt lat="45.88823" lon="4.73106">
        <ele>182</ele>
        <time>2017-07-08T08:54:41Z</time>
      </trkpt>
      <trkpt lat="45.88816" lon="4.73112">
        <ele>182</ele>
        <time>2017-07-08T08:54:44Z</time>
      </trkpt>
      <trkpt lat="45.88815" lon="4.73113">
        <ele>182</ele>
        <time>2017-07-08T08:54:45Z</time>
      </trkpt>
      <trkpt lat="45.88807" lon="4.73112">
        <ele>182</ele>
        <time>2017-07-08T08:54:51Z</time>
      </trkpt>
      <trkpt lat="45.88805" lon="4.73112">
        <ele>182</ele>
        <time>2017-07-08T08:54:52Z</time>
      </trkpt>
      <trkpt lat="45.88797" lon="4.73113">
        <ele>182</ele>
        <time>2017-07-08T08:54:55Z</time>
      </trkpt>
      <trkpt lat="45.88794" lon="4.73114">
        <ele>182</ele>
        <time>2017-07-08T08:54:56Z</time>
      </trkpt>
      <trkpt lat="45.88788" lon="4.73115">
        <ele>182</ele>
        <time>2017-07-08T08:54:58Z</time>
      </trkpt>
      <trkpt lat="45.88785" lon="4.73114">
        <ele>182</ele>
        <time>2017-07-08T08:54:59Z</time>
      </trkpt>
      <trkpt lat="45.88781" lon="4.73104">
        <ele>182</ele>
        <time>2017-07-08T08:55:02Z</time>
      </trkpt>
      <trkpt lat="45.88782" lon="4.73099">
        <ele>182</ele>
        <time>2017-07-08T08:55:03Z</time>
      </trkpt>
      <trkpt lat="45.88781" lon="4.73087">
        <ele>183</ele>
        <time>2017-07-08T08:55:05Z</time>
      </trkpt>
      <trkpt lat="45.88781" lon="4.73082">
        <ele>184</ele>
        <time>2017-07-08T08:55:06Z</time>
      </trkpt>
      <trkpt lat="45.8878" lon="4.7307">
        <ele>184</ele>
        <time>2017-07-08T08:55:08Z</time>
      </trkpt>
      <trkpt lat="45.8878" lon="4.73065">
        <ele>184</ele>
        <time>2017-07-08T08:55:09Z</time>
      </trkpt>
      <trkpt lat="45.88779" lon="4.73054">
        <ele>184</ele>
        <time>2017-07-08T08:55:11Z</time>
      </trkpt>
      <trkpt lat="45.88779" lon="4.73049">
        <ele>184</ele>
        <time>2017-07-08T08:55:12Z</time>
      </trkpt>
      <trkpt lat="45.88778" lon="4.73039">
        <ele>184</ele>
        <time>2017-07-08T08:55:14Z</time>
      </trkpt>
      <trkpt lat="45.88777" lon="4.73033">
        <ele>184</ele>
        <time>2017-07-08T08:55:15Z</time>
      </trkpt>
      <trkpt lat="45.88777" lon="4.73021">
        <ele>184</ele>
        <time>2017-07-08T08:55:17Z</time>
      </trkpt>
      <trkpt lat="45.88776" lon="4.73015">
        <ele>184</ele>
        <time>2017-07-08T08:55:18Z</time>
      </trkpt>
      <trkpt lat="45.88775" lon="4.73002">
        <ele>184</ele>
        <time>2017-07-08T08:55:20Z</time>
      </trkpt>
      <trkpt lat="45.88775" lon="4.72997">
        <ele>185</ele>
        <time>2017-07-08T08:55:21Z</time>
      </trkpt>
      <trkpt lat="45.88774" lon="4.72985">
        <ele>185</ele>
        <time>2017-07-08T08:55:23Z</time>
      </trkpt>
      <trkpt lat="45.88773" lon="4.72979">
        <ele>185</ele>
        <time>2017-07-08T08:55:24Z</time>
      </trkpt>
      <trkpt lat="45.88772" lon="4.72968">
        <ele>185</ele>
        <time>2017-07-08T08:55:26Z</time>
      </trkpt>
      <trkpt lat="45.88772" lon="4.72962">
        <ele>185</ele>
        <time>2017-07-08T08:55:27Z</time>
      </trkpt>
      <trkpt lat="45.88771" lon="4.72952">
        <ele>185</ele>
        <time>2017-07-08T08:55:29Z</time>
      </trkpt>
      <trkpt lat="45.88771" lon="4.72946">
        <ele>185</ele>
        <time>2017-07-08T08:55:30Z</time>
      </trkpt>
      <trkpt lat="45.88771" lon="4.7294">
        <ele>185</ele>
        <time>2017-07-08T08:55:31Z</time>
      </trkpt>
      <trkpt lat="45.88771" lon="4.72933">
        <ele>185</ele>
        <time>2017-07-08T08:55:32Z</time>
      </trkpt>
      <trkpt lat="45.8877" lon="4.72925">
        <ele>185</ele>
        <time>2017-07-08T08:55:33Z</time>
      </trkpt>
      <trkpt lat="45.8877" lon="4.72918">
        <ele>185</ele>
        <time>2017-07-08T08:55:34Z</time>
      </trkpt>
      <trkpt lat="45.88769" lon="4.72911">
        <ele>185</ele>
        <time>2017-07-08T08:55:35Z</time>
      </trkpt>
      <trkpt lat="45.88768" lon="4.72905">
        <ele>185</ele>
        <time>2017-07-08T08:55:36Z</time>
      </trkpt>
      <trkpt lat="45.88767" lon="4.72898">
        <ele>185</ele>
        <time>2017-07-08T08:55:37Z</time>
      </trkpt>
      <trkpt lat="45.88766" lon="4.72891">
        <ele>185</ele>
        <time>2017-07-08T08:55:38Z</time>
      </trkpt>
      <trkpt lat="45.88765" lon="4.72883">
        <ele>185</ele>
        <time>2017-07-08T08:55:39Z</time>
      </trkpt>
      <trkpt lat="45.88764" lon="4.72876">
        <ele>185</ele>
        <time>2017-07-08T08:55:40Z</time>
      </trkpt>
      <trkpt lat="45.88763" lon="4.72868">
        <ele>185</ele>
        <time>2017-07-08T08:55:41Z</time>
      </trkpt>
      <trkpt lat="45.88762" lon="4.72861">
        <ele>185</ele>
        <time>2017-07-08T08:55:42Z</time>
      </trkpt>
      <trkpt lat="45.88762" lon="4.72853">
        <ele>185</ele>
        <time>2017-07-08T08:55:43Z</time>
      </trkpt>
      <trkpt lat="45.88761" lon="4.72845">
        <ele>185</ele>
        <time>2017-07-08T08:55:44Z</time>
      </trkpt>
      <trkpt lat="45.88761" lon="4.72837">
        <ele>186</ele>
        <time>2017-07-08T08:55:45Z</time>
      </trkpt>
      <trkpt lat="45.88761" lon="4.72828">
        <ele>185</ele>
        <time>2017-07-08T08:55:46Z</time>
      </trkpt>
      <trkpt lat="45.88761" lon="4.7282">
        <ele>185</ele>
        <time>2017-07-08T08:55:47Z</time>
      </trkpt>
      <trkpt lat="45.88762" lon="4.72812">
        <ele>185</ele>
        <time>2017-07-08T08:55:48Z</time>
      </trkpt>
      <trkpt lat="45.88762" lon="4.72804">
        <ele>184</ele>
        <time>2017-07-08T08:55:49Z</time>
      </trkpt>
      <trkpt lat="45.88763" lon="4.72797">
        <ele>184</ele>
        <time>2017-07-08T08:55:50Z</time>
      </trkpt>
      <trkpt lat="45.88763" lon="4.72789">
        <ele>184</ele>
        <time>2017-07-08T08:55:51Z</time>
      </trkpt>
      <trkpt lat="45.88763" lon="4.72782">
        <ele>184</ele>
        <time>2017-07-08T08:55:52Z</time>
      </trkpt>
      <trkpt lat="45.88762" lon="4.72774">
        <ele>184</ele>
        <time>2017-07-08T08:55:53Z</time>
      </trkpt>
      <trkpt lat="45.88762" lon="4.72767">
        <ele>184</ele>
        <time>2017-07-08T08:55:54Z</time>
      </trkpt>
      <trkpt lat="45.88761" lon="4.7276">
        <ele>183</ele>
        <time>2017-07-08T08:55:55Z</time>
      </trkpt>
      <trkpt lat="45.8876" lon="4.72752">
        <ele>183</ele>
        <time>2017-07-08T08:55:56Z</time>
      </trkpt>
      <trkpt lat="45.88759" lon="4.72744">
        <ele>183</ele>
        <time>2017-07-08T08:55:57Z</time>
      </trkpt>
      <trkpt lat="45.88759" lon="4.72735">
        <ele>183</ele>
        <time>2017-07-08T08:55:58Z</time>
      </trkpt>
      <trkpt lat="45.88758" lon="4.72726">
        <ele>183</ele>
        <time>2017-07-08T08:55:59Z</time>
      </trkpt>
      <trkpt lat="45.88757" lon="4.72718">
        <ele>183</ele>
        <time>2017-07-08T08:56:00Z</time>
      </trkpt>
      <trkpt lat="45.88756" lon="4.7271">
        <ele>183</ele>
        <time>2017-07-08T08:56:01Z</time>
      </trkpt>
      <trkpt lat="45.88756" lon="4.72702">
        <ele>182</ele>
        <time>2017-07-08T08:56:02Z</time>
      </trkpt>
      <trkpt lat="45.88755" lon="4.72694">
        <ele>182</ele>
        <time>2017-07-08T08:56:03Z</time>
      </trkpt>
      <trkpt lat="45.88754" lon="4.72686">
        <ele>182</ele>
        <time>2017-07-08T08:56:04Z</time>
      </trkpt>
      <trkpt lat="45.88753" lon="4.72679">
        <ele>182</ele>
        <time>2017-07-08T08:56:05Z</time>
      </trkpt>
      <trkpt lat="45.88752" lon="4.72672">
        <ele>182</ele>
        <time>2017-07-08T08:56:06Z</time>
      </trkpt>
      <trkpt lat="45.88751" lon="4.72666">
        <ele>182</ele>
        <time>2017-07-08T08:56:07Z</time>
      </trkpt>
      <trkpt lat="45.8875" lon="4.72659">
        <ele>182</ele>
        <time>2017-07-08T08:56:08Z</time>
      </trkpt>
      <trkpt lat="45.88749" lon="4.72647">
        <ele>183</ele>
        <time>2017-07-08T08:56:10Z</time>
      </trkpt>
      <trkpt lat="45.88748" lon="4.72641">
        <ele>183</ele>
        <time>2017-07-08T08:56:11Z</time>
      </trkpt>
      <trkpt lat="45.88747" lon="4.72634">
        <ele>183</ele>
        <time>2017-07-08T08:56:12Z</time>
      </trkpt>
      <trkpt lat="45.88747" lon="4.72627">
        <ele>183</ele>
        <time>2017-07-08T08:56:13Z</time>
      </trkpt>
      <trkpt lat="45.88747" lon="4.7262">
        <ele>183</ele>
        <time>2017-07-08T08:56:14Z</time>
      </trkpt>
      <trkpt lat="45.88746" lon="4.72613">
        <ele>183</ele>
        <time>2017-07-08T08:56:15Z</time>
      </trkpt>
      <trkpt lat="45.88746" lon="4.72606">
        <ele>183</ele>
        <time>2017-07-08T08:56:16Z</time>
      </trkpt>
      <trkpt lat="45.88745" lon="4.72598">
        <ele>184</ele>
        <time>2017-07-08T08:56:17Z</time>
      </trkpt>
      <trkpt lat="45.88743" lon="4.72586">
        <ele>184</ele>
        <time>2017-07-08T08:56:19Z</time>
      </trkpt>
      <trkpt lat="45.88742" lon="4.7258">
        <ele>184</ele>
        <time>2017-07-08T08:56:20Z</time>
      </trkpt>
      <trkpt lat="45.88741" lon="4.7257">
        <ele>184</ele>
        <time>2017-07-08T08:56:22Z</time>
      </trkpt>
      <trkpt lat="45.8874" lon="4.72565">
        <ele>183</ele>
        <time>2017-07-08T08:56:23Z</time>
      </trkpt>
      <trkpt lat="45.88737" lon="4.72555">
        <ele>183</ele>
        <time>2017-07-08T08:56:25Z</time>
      </trkpt>
      <trkpt lat="45.88736" lon="4.72549">
        <ele>183</ele>
        <time>2017-07-08T08:56:26Z</time>
      </trkpt>
      <trkpt lat="45.88734" lon="4.72543">
        <ele>183</ele>
        <time>2017-07-08T08:56:27Z</time>
      </trkpt>
      <trkpt lat="45.88733" lon="4.72536">
        <ele>183</ele>
        <time>2017-07-08T08:56:28Z</time>
      </trkpt>
      <trkpt lat="45.88731" lon="4.72529">
        <ele>183</ele>
        <time>2017-07-08T08:56:29Z</time>
      </trkpt>
      <trkpt lat="45.88729" lon="4.72522">
        <ele>183</ele>
        <time>2017-07-08T08:56:30Z</time>
      </trkpt>
      <trkpt lat="45.88728" lon="4.72515">
        <ele>183</ele>
        <time>2017-07-08T08:56:31Z</time>
      </trkpt>
      <trkpt lat="45.88726" lon="4.72508">
        <ele>183</ele>
        <time>2017-07-08T08:56:32Z</time>
      </trkpt>
      <trkpt lat="45.88725" lon="4.72501">
        <ele>183</ele>
        <time>2017-07-08T08:56:33Z</time>
      </trkpt>
      <trkpt lat="45.88726" lon="4.72494">
        <ele>182</ele>
        <time>2017-07-08T08:56:34Z</time>
      </trkpt>
      <trkpt lat="45.88727" lon="4.72487">
        <ele>182</ele>
        <time>2017-07-08T08:56:35Z</time>
      </trkpt>
      <trkpt lat="45.88728" lon="4.7248">
        <ele>182</ele>
        <time>2017-07-08T08:56:36Z</time>
      </trkpt>
      <trkpt lat="45.88728" lon="4.72473">
        <ele>182</ele>
        <time>2017-07-08T08:56:37Z</time>
      </trkpt>
      <trkpt lat="45.88729" lon="4.72466">
        <ele>182</ele>
        <time>2017-07-08T08:56:38Z</time>
      </trkpt>
      <trkpt lat="45.88732" lon="4.72454">
        <ele>182</ele>
        <time>2017-07-08T08:56:40Z</time>
      </trkpt>
      <trkpt lat="45.88733" lon="4.72449">
        <ele>182</ele>
        <time>2017-07-08T08:56:41Z</time>
      </trkpt>
      <trkpt lat="45.88735" lon="4.72443">
        <ele>182</ele>
        <time>2017-07-08T08:56:42Z</time>
      </trkpt>
      <trkpt lat="45.88738" lon="4.72437">
        <ele>182</ele>
        <time>2017-07-08T08:56:43Z</time>
      </trkpt>
      <trkpt lat="45.8874" lon="4.72432">
        <ele>182</ele>
        <time>2017-07-08T08:56:44Z</time>
      </trkpt>
      <trkpt lat="45.88743" lon="4.72426">
        <ele>182</ele>
        <time>2017-07-08T08:56:45Z</time>
      </trkpt>
      <trkpt lat="45.88747" lon="4.7242">
        <ele>182</ele>
        <time>2017-07-08T08:56:46Z</time>
      </trkpt>
      <trkpt lat="45.8875" lon="4.72414">
        <ele>182</ele>
        <time>2017-07-08T08:56:47Z</time>
      </trkpt>
      <trkpt lat="45.88753" lon="4.72407">
        <ele>182</ele>
        <time>2017-07-08T08:56:48Z</time>
      </trkpt>
      <trkpt lat="45.88756" lon="4.724">
        <ele>182</ele>
        <time>2017-07-08T08:56:49Z</time>
      </trkpt>
      <trkpt lat="45.88759" lon="4.72394">
        <ele>182</ele>
        <time>2017-07-08T08:56:50Z</time>
      </trkpt>
      <trkpt lat="45.88763" lon="4.72388">
        <ele>182</ele>
        <time>2017-07-08T08:56:51Z</time>
      </trkpt>
      <trkpt lat="45.88765" lon="4.72382">
        <ele>182</ele>
        <time>2017-07-08T08:56:52Z</time>
      </trkpt>
      <trkpt lat="45.88768" lon="4.72377">
        <ele>182</ele>
        <time>2017-07-08T08:56:53Z</time>
      </trkpt>
      <trkpt lat="45.88773" lon="4.72366">
        <ele>182</ele>
        <time>2017-07-08T08:56:56Z</time>
      </trkpt>
      <trkpt lat="45.88774" lon="4.72364">
        <ele>182</ele>
        <time>2017-07-08T08:56:57Z</time>
      </trkpt>
      <trkpt lat="45.88781" lon="4.72357">
        <ele>182</ele>
        <time>2017-07-08T08:57:01Z</time>
      </trkpt>
      <trkpt lat="45.88783" lon="4.72355">
        <ele>182</ele>
        <time>2017-07-08T08:57:02Z</time>
      </trkpt>
      <trkpt lat="45.88787" lon="4.72347">
        <ele>182</ele>
        <time>2017-07-08T08:57:04Z</time>
      </trkpt>
      <trkpt lat="45.88787" lon="4.72341">
        <ele>182</ele>
        <time>2017-07-08T08:57:05Z</time>
      </trkpt>
      <trkpt lat="45.88789" lon="4.72331">
        <ele>182</ele>
        <time>2017-07-08T08:57:07Z</time>
      </trkpt>
      <trkpt lat="45.88791" lon="4.72325">
        <ele>182</ele>
        <time>2017-07-08T08:57:08Z</time>
      </trkpt>
      <trkpt lat="45.88793" lon="4.72319">
        <ele>182</ele>
        <time>2017-07-08T08:57:09Z</time>
      </trkpt>
      <trkpt lat="45.88795" lon="4.72313">
        <ele>182</ele>
        <time>2017-07-08T08:57:10Z</time>
      </trkpt>
      <trkpt lat="45.88798" lon="4.72306">
        <ele>182</ele>
        <time>2017-07-08T08:57:11Z</time>
      </trkpt>
      <trkpt lat="45.888" lon="4.72299">
        <ele>182</ele>
        <time>2017-07-08T08:57:12Z</time>
      </trkpt>
      <trkpt lat="45.88802" lon="4.72291">
        <ele>182</ele>
        <time>2017-07-08T08:57:13Z</time>
      </trkpt>
      <trkpt lat="45.88803" lon="4.72284">
        <ele>182</ele>
        <time>2017-07-08T08:57:14Z</time>
      </trkpt>
      <trkpt lat="45.88805" lon="4.72276">
        <ele>182</ele>
        <time>2017-07-08T08:57:15Z</time>
      </trkpt>
      <trkpt lat="45.88807" lon="4.72269">
        <ele>182</ele>
        <time>2017-07-08T08:57:16Z</time>
      </trkpt>
      <trkpt lat="45.88808" lon="4.72262">
        <ele>182</ele>
        <time>2017-07-08T08:57:17Z</time>
      </trkpt>
      <trkpt lat="45.8881" lon="4.72254">
        <ele>182</ele>
        <time>2017-07-08T08:57:18Z</time>
      </trkpt>
      <trkpt lat="45.88811" lon="4.72247">
        <ele>182</ele>
        <time>2017-07-08T08:57:19Z</time>
      </trkpt>
      <trkpt lat="45.88812" lon="4.7224">
        <ele>182</ele>
        <time>2017-07-08T08:57:20Z</time>
      </trkpt>
      <trkpt lat="45.88813" lon="4.72234">
        <ele>182</ele>
        <time>2017-07-08T08:57:21Z</time>
      </trkpt>
      <trkpt lat="45.88814" lon="4.72227">
        <ele>182</ele>
        <time>2017-07-08T08:57:22Z</time>
      </trkpt>
      <trkpt lat="45.88814" lon="4.7222">
        <ele>182</ele>
        <time>2017-07-08T08:57:23Z</time>
      </trkpt>
      <trkpt lat="45.88816" lon="4.72214">
        <ele>182</ele>
        <time>2017-07-08T08:57:24Z</time>
      </trkpt>
      <trkpt lat="45.88817" lon="4.72208">
        <ele>182</ele>
        <time>2017-07-08T08:57:25Z</time>
      </trkpt>
      <trkpt lat="45.88818" lon="4.72201">
        <ele>182</ele>
        <time>2017-07-08T08:57:26Z</time>
      </trkpt>
      <trkpt lat="45.88818" lon="4.72194">
        <ele>182</ele>
        <time>2017-07-08T08:57:27Z</time>
      </trkpt>
      <trkpt lat="45.88819" lon="4.72188">
        <ele>182</ele>
        <time>2017-07-08T08:57:28Z</time>
      </trkpt>
      <trkpt lat="45.8882" lon="4.72181">
        <ele>182</ele>
        <time>2017-07-08T08:57:29Z</time>
      </trkpt>
      <trkpt lat="45.88821" lon="4.72174">
        <ele>182</ele>
        <time>2017-07-08T08:57:30Z</time>
      </trkpt>
      <trkpt lat="45.88822" lon="4.72167">
        <ele>182</ele>
        <time>2017-07-08T08:57:31Z</time>
      </trkpt>
      <trkpt lat="45.88823" lon="4.7216">
        <ele>182</ele>
        <time>2017-07-08T08:57:32Z</time>
      </trkpt>
      <trkpt lat="45.88824" lon="4.72154">
        <ele>182</ele>
        <time>2017-07-08T08:57:33Z</time>
      </trkpt>
      <trkpt lat="45.88826" lon="4.72148">
        <ele>182</ele>
        <time>2017-07-08T08:57:34Z</time>
      </trkpt>
      <trkpt lat="45.88829" lon="4.72135">
        <ele>182</ele>
        <time>2017-07-08T08:57:36Z</time>
      </trkpt>
      <trkpt lat="45.8883" lon="4.7213">
        <ele>182</ele>
        <time>2017-07-08T08:57:37Z</time>
      </trkpt>
      <trkpt lat="45.88832" lon="4.72119">
        <ele>181</ele>
        <time>2017-07-08T08:57:39Z</time>
      </trkpt>
      <trkpt lat="45.88832" lon="4.72113">
        <ele>181</ele>
        <time>2017-07-08T08:57:40Z</time>
      </trkpt>
      <trkpt lat="45.88836" lon="4.72104">
        <ele>181</ele>
        <time>2017-07-08T08:57:42Z</time>
      </trkpt>
      <trkpt lat="45.88839" lon="4.72102">
        <ele>181</ele>
        <time>2017-07-08T08:57:43Z</time>
      </trkpt>
      <trkpt lat="45.88847" lon="4.72101">
        <ele>181</ele>
        <time>2017-07-08T08:57:45Z</time>
      </trkpt>
      <trkpt lat="45.88852" lon="4.72103">
        <ele>181</ele>
        <time>2017-07-08T08:57:46Z</time>
      </trkpt>
      <trkpt lat="45.88857" lon="4.72105">
        <ele>181</ele>
        <time>2017-07-08T08:57:47Z</time>
      </trkpt>
      <trkpt lat="45.88863" lon="4.72107">
        <ele>181</ele>
        <time>2017-07-08T08:57:48Z</time>
      </trkpt>
      <trkpt lat="45.88868" lon="4.72108">
        <ele>181</ele>
        <time>2017-07-08T08:57:49Z</time>
      </trkpt>
      <trkpt lat="45.88873" lon="4.7211">
        <ele>181</ele>
        <time>2017-07-08T08:57:50Z</time>
      </trkpt>
      <trkpt lat="45.88878" lon="4.72112">
        <ele>181</ele>
        <time>2017-07-08T08:57:51Z</time>
      </trkpt>
      <trkpt lat="45.88883" lon="4.72113">
        <ele>181</ele>
        <time>2017-07-08T08:57:52Z</time>
      </trkpt>
      <trkpt lat="45.88887" lon="4.72115">
        <ele>181</ele>
        <time>2017-07-08T08:57:53Z</time>
      </trkpt>
      <trkpt lat="45.88892" lon="4.72116">
        <ele>181</ele>
        <time>2017-07-08T08:57:54Z</time>
      </trkpt>
      <trkpt lat="45.889" lon="4.72118">
        <ele>181</ele>
        <time>2017-07-08T08:57:56Z</time>
      </trkpt>
      <trkpt lat="45.88904" lon="4.7212">
        <ele>181</ele>
        <time>2017-07-08T08:57:57Z</time>
      </trkpt>
      <trkpt lat="45.88912" lon="4.72122">
        <ele>181</ele>
        <time>2017-07-08T08:57:59Z</time>
      </trkpt>
      <trkpt lat="45.88915" lon="4.72124">
        <ele>181</ele>
        <time>2017-07-08T08:58:00Z</time>
      </trkpt>
      <trkpt lat="45.88922" lon="4.72127">
        <ele>181</ele>
        <time>2017-07-08T08:58:02Z</time>
      </trkpt>
      <trkpt lat="45.88926" lon="4.72129">
        <ele>181</ele>
        <time>2017-07-08T08:58:03Z</time>
      </trkpt>
      <trkpt lat="45.8893" lon="4.72131">
        <ele>181</ele>
        <time>2017-07-08T08:58:04Z</time>
      </trkpt>
      <trkpt lat="45.88934" lon="4.72133">
        <ele>181</ele>
        <time>2017-07-08T08:58:05Z</time>
      </trkpt>
      <trkpt lat="45.88939" lon="4.72136">
        <ele>181</ele>
        <time>2017-07-08T08:58:06Z</time>
      </trkpt>
      <trkpt lat="45.88945" lon="4.72138">
        <ele>181</ele>
        <time>2017-07-08T08:58:07Z</time>
      </trkpt>
      <trkpt lat="45.8895" lon="4.7214">
        <ele>181</ele>
        <time>2017-07-08T08:58:08Z</time>
      </trkpt>
      <trkpt lat="45.88954" lon="4.72141">
        <ele>181</ele>
        <time>2017-07-08T08:58:09Z</time>
      </trkpt>
      <trkpt lat="45.8896" lon="4.72142">
        <ele>180</ele>
        <time>2017-07-08T08:58:10Z</time>
      </trkpt>
      <trkpt lat="45.88964" lon="4.72143">
        <ele>180</ele>
        <time>2017-07-08T08:58:11Z</time>
      </trkpt>
      <trkpt lat="45.88973" lon="4.72146">
        <ele>180</ele>
        <time>2017-07-08T08:58:13Z</time>
      </trkpt>
      <trkpt lat="45.88977" lon="4.72148">
        <ele>180</ele>
        <time>2017-07-08T08:58:14Z</time>
      </trkpt>
      <trkpt lat="45.88985" lon="4.7215">
        <ele>180</ele>
        <time>2017-07-08T08:58:16Z</time>
      </trkpt>
      <trkpt lat="45.88989" lon="4.72151">
        <ele>180</ele>
        <time>2017-07-08T08:58:17Z</time>
      </trkpt>
      <trkpt lat="45.88994" lon="4.72152">
        <ele>180</ele>
        <time>2017-07-08T08:58:18Z</time>
      </trkpt>
      <trkpt lat="45.88998" lon="4.72153">
        <ele>180</ele>
        <time>2017-07-08T08:58:19Z</time>
      </trkpt>
      <trkpt lat="45.89003" lon="4.72154">
        <ele>180</ele>
        <time>2017-07-08T08:58:20Z</time>
      </trkpt>
      <trkpt lat="45.89008" lon="4.72156">
        <ele>180</ele>
        <time>2017-07-08T08:58:21Z</time>
      </trkpt>
      <trkpt lat="45.89013" lon="4.72158">
        <ele>180</ele>
        <time>2017-07-08T08:58:22Z</time>
      </trkpt>
      <trkpt lat="45.89018" lon="4.72159">
        <ele>180</ele>
        <time>2017-07-08T08:58:23Z</time>
      </trkpt>
      <trkpt lat="45.89023" lon="4.72161">
        <ele>180</ele>
        <time>2017-07-08T08:58:24Z</time>
      </trkpt>
      <trkpt lat="45.89028" lon="4.72163">
        <ele>180</ele>
        <time>2017-07-08T08:58:25Z</time>
      </trkpt>
      <trkpt lat="45.89033" lon="4.72165">
        <ele>180</ele>
        <time>2017-07-08T08:58:26Z</time>
      </trkpt>
      <trkpt lat="45.89037" lon="4.72167">
        <ele>180</ele>
        <time>2017-07-08T08:58:27Z</time>
      </trkpt>
      <trkpt lat="45.89042" lon="4.72169">
        <ele>180</ele>
        <time>2017-07-08T08:58:28Z</time>
      </trkpt>
      <trkpt lat="45.89046" lon="4.72171">
        <ele>180</ele>
        <time>2017-07-08T08:58:29Z</time>
      </trkpt>
      <trkpt lat="45.8905" lon="4.72174">
        <ele>180</ele>
        <time>2017-07-08T08:58:30Z</time>
      </trkpt>
      <trkpt lat="45.89055" lon="4.72176">
        <ele>180</ele>
        <time>2017-07-08T08:58:31Z</time>
      </trkpt>
      <trkpt lat="45.89062" lon="4.72182">
        <ele>180</ele>
        <time>2017-07-08T08:58:33Z</time>
      </trkpt>
      <trkpt lat="45.89065" lon="4.72185">
        <ele>180</ele>
        <time>2017-07-08T08:58:34Z</time>
      </trkpt>
      <trkpt lat="45.8907" lon="4.72189">
        <ele>180</ele>
        <time>2017-07-08T08:58:36Z</time>
      </trkpt>
      <trkpt lat="45.89071" lon="4.72189">
        <ele>180</ele>
        <time>2017-07-08T08:58:37Z</time>
      </trkpt>
      <trkpt lat="45.8907" lon="4.72189">
        <ele>180</ele>
        <time>2017-07-08T08:59:08Z</time>
      </trkpt>
      <trkpt lat="45.8907" lon="4.72188">
        <ele>180</ele>
        <time>2017-07-08T08:59:09Z</time>
      </trkpt>
      <trkpt lat="45.89076" lon="4.72193">
        <ele>180</ele>
        <time>2017-07-08T08:59:14Z</time>
      </trkpt>
      <trkpt lat="45.89078" lon="4.72195">
        <ele>180</ele>
        <time>2017-07-08T08:59:15Z</time>
      </trkpt>
      <trkpt lat="45.89086" lon="4.72201">
        <ele>180</ele>
        <time>2017-07-08T08:59:18Z</time>
      </trkpt>
      <trkpt lat="45.89088" lon="4.72202">
        <ele>180</ele>
        <time>2017-07-08T08:59:19Z</time>
      </trkpt>
      <trkpt lat="45.89095" lon="4.72205">
        <ele>180</ele>
        <time>2017-07-08T08:59:21Z</time>
      </trkpt>
      <trkpt lat="45.89099" lon="4.72206">
        <ele>180</ele>
        <time>2017-07-08T08:59:22Z</time>
      </trkpt>
      <trkpt lat="45.89107" lon="4.72208">
        <ele>180</ele>
        <time>2017-07-08T08:59:24Z</time>
      </trkpt>
      <trkpt lat="45.89111" lon="4.7221">
        <ele>180</ele>
        <time>2017-07-08T08:59:25Z</time>
      </trkpt>
      <trkpt lat="45.89115" lon="4.72212">
        <ele>180</ele>
        <time>2017-07-08T08:59:26Z</time>
      </trkpt>
      <trkpt lat="45.8912" lon="4.72214">
        <ele>180</ele>
        <time>2017-07-08T08:59:27Z</time>
      </trkpt>
      <trkpt lat="45.89125" lon="4.72216">
        <ele>180</ele>
        <time>2017-07-08T08:59:28Z</time>
      </trkpt>
      <trkpt lat="45.8913" lon="4.72219">
        <ele>180</ele>
        <time>2017-07-08T08:59:29Z</time>
      </trkpt>
      <trkpt lat="45.89134" lon="4.72222">
        <ele>180</ele>
        <time>2017-07-08T08:59:30Z</time>
      </trkpt>
      <trkpt lat="45.89138" lon="4.72225">
        <ele>180</ele>
        <time>2017-07-08T08:59:31Z</time>
      </trkpt>
      <trkpt lat="45.89146" lon="4.72228">
        <ele>180</ele>
        <time>2017-07-08T08:59:33Z</time>
      </trkpt>
      <trkpt lat="45.8915" lon="4.7223">
        <ele>180</ele>
        <time>2017-07-08T08:59:34Z</time>
      </trkpt>
      <trkpt lat="45.89157" lon="4.72234">
        <ele>180</ele>
        <time>2017-07-08T08:59:36Z</time>
      </trkpt>
      <trkpt lat="45.8916" lon="4.72235">
        <ele>180</ele>
        <time>2017-07-08T08:59:37Z</time>
      </trkpt>
      <trkpt lat="45.89167" lon="4.72239">
        <ele>180</ele>
        <time>2017-07-08T08:59:39Z</time>
      </trkpt>
      <trkpt lat="45.8917" lon="4.72242">
        <ele>180</ele>
        <time>2017-07-08T08:59:40Z</time>
      </trkpt>
      <trkpt lat="45.89177" lon="4.72247">
        <ele>180</ele>
        <time>2017-07-08T08:59:42Z</time>
      </trkpt>
      <trkpt lat="45.89181" lon="4.72248">
        <ele>180</ele>
        <time>2017-07-08T08:59:43Z</time>
      </trkpt>
      <trkpt lat="45.89189" lon="4.72252">
        <ele>180</ele>
        <time>2017-07-08T08:59:45Z</time>
      </trkpt>
      <trkpt lat="45.89193" lon="4.72255">
        <ele>181</ele>
        <time>2017-07-08T08:59:46Z</time>
      </trkpt>
      <trkpt lat="45.89198" lon="4.72257">
        <ele>181</ele>
        <time>2017-07-08T08:59:47Z</time>
      </trkpt>
      <trkpt lat="45.89203" lon="4.72259">
        <ele>181</ele>
        <time>2017-07-08T08:59:48Z</time>
      </trkpt>
      <trkpt lat="45.89207" lon="4.72261">
        <ele>181</ele>
        <time>2017-07-08T08:59:49Z</time>
      </trkpt>
      <trkpt lat="45.89212" lon="4.72264">
        <ele>181</ele>
        <time>2017-07-08T08:59:50Z</time>
      </trkpt>
      <trkpt lat="45.89216" lon="4.72266">
        <ele>181</ele>
        <time>2017-07-08T08:59:51Z</time>
      </trkpt>
      <trkpt lat="45.89221" lon="4.72268">
        <ele>181</ele>
        <time>2017-07-08T08:59:52Z</time>
      </trkpt>
      <trkpt lat="45.89229" lon="4.72272">
        <ele>181</ele>
        <time>2017-07-08T08:59:54Z</time>
      </trkpt>
      <trkpt lat="45.89233" lon="4.72273">
        <ele>181</ele>
        <time>2017-07-08T08:59:55Z</time>
      </trkpt>
      <trkpt lat="45.8924" lon="4.72276">
        <ele>181</ele>
        <time>2017-07-08T08:59:57Z</time>
      </trkpt>
      <trkpt lat="45.89244" lon="4.72278">
        <ele>181</ele>
        <time>2017-07-08T08:59:58Z</time>
      </trkpt>
      <trkpt lat="45.89251" lon="4.7228">
        <ele>181</ele>
        <time>2017-07-08T09:00:00Z</time>
      </trkpt>
      <trkpt lat="45.89254" lon="4.72281">
        <ele>181</ele>
        <time>2017-07-08T09:00:01Z</time>
      </trkpt>
      <trkpt lat="45.8926" lon="4.72284">
        <ele>181</ele>
        <time>2017-07-08T09:00:03Z</time>
      </trkpt>
      <trkpt lat="45.89264" lon="4.72285">
        <ele>181</ele>
        <time>2017-07-08T09:00:04Z</time>
      </trkpt>
      <trkpt lat="45.89272" lon="4.72288">
        <ele>181</ele>
        <time>2017-07-08T09:00:06Z</time>
      </trkpt>
      <trkpt lat="45.89275" lon="4.72289">
        <ele>181</ele>
        <time>2017-07-08T09:00:07Z</time>
      </trkpt>
      <trkpt lat="45.89282" lon="4.72292">
        <ele>181</ele>
        <time>2017-07-08T09:00:09Z</time>
      </trkpt>
      <trkpt lat="45.89285" lon="4.72294">
        <ele>181</ele>
        <time>2017-07-08T09:00:10Z</time>
      </trkpt>
      <trkpt lat="45.89292" lon="4.72296">
        <ele>181</ele>
        <time>2017-07-08T09:00:12Z</time>
      </trkpt>
      <trkpt lat="45.89296" lon="4.72297">
        <ele>181</ele>
        <time>2017-07-08T09:00:13Z</time>
      </trkpt>
      <trkpt lat="45.893" lon="4.72298">
        <ele>181</ele>
        <time>2017-07-08T09:00:14Z</time>
      </trkpt>
      <trkpt lat="45.89307" lon="4.72302">
        <ele>181</ele>
        <time>2017-07-08T09:00:15Z</time>
      </trkpt>
      <trkpt lat="45.89311" lon="4.72303">
        <ele>181</ele>
        <time>2017-07-08T09:00:16Z</time>
      </trkpt>
      <trkpt lat="45.89317" lon="4.72304">
        <ele>181</ele>
        <time>2017-07-08T09:00:17Z</time>
      </trkpt>
      <trkpt lat="45.89321" lon="4.72305">
        <ele>181</ele>
        <time>2017-07-08T09:00:18Z</time>
      </trkpt>
      <trkpt lat="45.89326" lon="4.72306">
        <ele>181</ele>
        <time>2017-07-08T09:00:19Z</time>
      </trkpt>
      <trkpt lat="45.89331" lon="4.72306">
        <ele>181</ele>
        <time>2017-07-08T09:00:20Z</time>
      </trkpt>
      <trkpt lat="45.89336" lon="4.72306">
        <ele>181</ele>
        <time>2017-07-08T09:00:21Z</time>
      </trkpt>
      <trkpt lat="45.89341" lon="4.72305">
        <ele>181</ele>
        <time>2017-07-08T09:00:22Z</time>
      </trkpt>
      <trkpt lat="45.89345" lon="4.72305">
        <ele>181</ele>
        <time>2017-07-08T09:00:23Z</time>
      </trkpt>
      <trkpt lat="45.89353" lon="4.72304">
        <ele>181</ele>
        <time>2017-07-08T09:00:25Z</time>
      </trkpt>
      <trkpt lat="45.89357" lon="4.72304">
        <ele>181</ele>
        <time>2017-07-08T09:00:26Z</time>
      </trkpt>
      <trkpt lat="45.89364" lon="4.72304">
        <ele>181</ele>
        <time>2017-07-08T09:00:28Z</time>
      </trkpt>
      <trkpt lat="45.89368" lon="4.72303">
        <ele>181</ele>
        <time>2017-07-08T09:00:29Z</time>
      </trkpt>
      <trkpt lat="45.89377" lon="4.72303">
        <ele>181</ele>
        <time>2017-07-08T09:00:31Z</time>
      </trkpt>
      <trkpt lat="45.89382" lon="4.72302">
        <ele>181</ele>
        <time>2017-07-08T09:00:32Z</time>
      </trkpt>
      <trkpt lat="45.89386" lon="4.723">
        <ele>181</ele>
        <time>2017-07-08T09:00:33Z</time>
      </trkpt>
      <trkpt lat="45.8939" lon="4.72299">
        <ele>180</ele>
        <time>2017-07-08T09:00:34Z</time>
      </trkpt>
      <trkpt lat="45.89399" lon="4.72297">
        <ele>180</ele>
        <time>2017-07-08T09:00:36Z</time>
      </trkpt>
      <trkpt lat="45.89403" lon="4.72296">
        <ele>180</ele>
        <time>2017-07-08T09:00:37Z</time>
      </trkpt>
      <trkpt lat="45.89411" lon="4.72295">
        <ele>180</ele>
        <time>2017-07-08T09:00:39Z</time>
      </trkpt>
      <trkpt lat="45.89414" lon="4.72295">
        <ele>180</ele>
        <time>2017-07-08T09:00:40Z</time>
      </trkpt>
      <trkpt lat="45.89422" lon="4.72294">
        <ele>180</ele>
        <time>2017-07-08T09:00:42Z</time>
      </trkpt>
      <trkpt lat="45.89425" lon="4.72294">
        <ele>180</ele>
        <time>2017-07-08T09:00:43Z</time>
      </trkpt>
      <trkpt lat="45.89433" lon="4.72293">
        <ele>179</ele>
        <time>2017-07-08T09:00:46Z</time>
      </trkpt>
      <trkpt lat="45.89436" lon="4.72292">
        <ele>179</ele>
        <time>2017-07-08T09:00:47Z</time>
      </trkpt>
      <trkpt lat="45.89443" lon="4.72289">
        <ele>179</ele>
        <time>2017-07-08T09:00:49Z</time>
      </trkpt>
      <trkpt lat="45.89446" lon="4.72289">
        <ele>179</ele>
        <time>2017-07-08T09:00:50Z</time>
      </trkpt>
      <trkpt lat="45.89454" lon="4.72289">
        <ele>179</ele>
        <time>2017-07-08T09:00:52Z</time>
      </trkpt>
      <trkpt lat="45.89457" lon="4.72289">
        <ele>179</ele>
        <time>2017-07-08T09:00:53Z</time>
      </trkpt>
      <trkpt lat="45.89462" lon="4.72289">
        <ele>179</ele>
        <time>2017-07-08T09:00:54Z</time>
      </trkpt>
      <trkpt lat="45.89467" lon="4.72288">
        <ele>179</ele>
        <time>2017-07-08T09:00:55Z</time>
      </trkpt>
      <trkpt lat="45.89476" lon="4.72287">
        <ele>179</ele>
        <time>2017-07-08T09:00:57Z</time>
      </trkpt>
      <trkpt lat="45.8948" lon="4.72286">
        <ele>179</ele>
        <time>2017-07-08T09:00:58Z</time>
      </trkpt>
      <trkpt lat="45.89489" lon="4.72285">
        <ele>179</ele>
        <time>2017-07-08T09:01:00Z</time>
      </trkpt>
      <trkpt lat="45.89493" lon="4.72284">
        <ele>179</ele>
        <time>2017-07-08T09:01:01Z</time>
      </trkpt>
      <trkpt lat="45.89501" lon="4.72283">
        <ele>179</ele>
        <time>2017-07-08T09:01:03Z</time>
      </trkpt>
      <trkpt lat="45.89505" lon="4.72283">
        <ele>179</ele>
        <time>2017-07-08T09:01:04Z</time>
      </trkpt>
      <trkpt lat="45.89513" lon="4.72283">
        <ele>179</ele>
        <time>2017-07-08T09:01:06Z</time>
      </trkpt>
      <trkpt lat="45.89517" lon="4.72282">
        <ele>179</ele>
        <time>2017-07-08T09:01:07Z</time>
      </trkpt>
      <trkpt lat="45.89522" lon="4.72282">
        <ele>179</ele>
        <time>2017-07-08T09:01:08Z</time>
      </trkpt>
      <trkpt lat="45.89527" lon="4.72281">
        <ele>179</ele>
        <time>2017-07-08T09:01:09Z</time>
      </trkpt>
      <trkpt lat="45.89532" lon="4.72281">
        <ele>179</ele>
        <time>2017-07-08T09:01:10Z</time>
      </trkpt>
      <trkpt lat="45.89537" lon="4.72281">
        <ele>179</ele>
        <time>2017-07-08T09:01:11Z</time>
      </trkpt>
      <trkpt lat="45.89542" lon="4.72281">
        <ele>179</ele>
        <time>2017-07-08T09:01:12Z</time>
      </trkpt>
      <trkpt lat="45.89546" lon="4.72282">
        <ele>179</ele>
        <time>2017-07-08T09:01:13Z</time>
      </trkpt>
      <trkpt lat="45.89554" lon="4.72282">
        <ele>179</ele>
        <time>2017-07-08T09:01:15Z</time>
      </trkpt>
      <trkpt lat="45.89558" lon="4.72283">
        <ele>179</ele>
        <time>2017-07-08T09:01:16Z</time>
      </trkpt>
      <trkpt lat="45.89565" lon="4.72285">
        <ele>179</ele>
        <time>2017-07-08T09:01:18Z</time>
      </trkpt>
      <trkpt lat="45.89569" lon="4.72285">
        <ele>179</ele>
        <time>2017-07-08T09:01:19Z</time>
      </trkpt>
      <trkpt lat="45.89577" lon="4.72284">
        <ele>179</ele>
        <time>2017-07-08T09:01:21Z</time>
      </trkpt>
      <trkpt lat="45.8958" lon="4.72284">
        <ele>179</ele>
        <time>2017-07-08T09:01:22Z</time>
      </trkpt>
      <trkpt lat="45.89589" lon="4.72283">
        <ele>179</ele>
        <time>2017-07-08T09:01:25Z</time>
      </trkpt>
      <trkpt lat="45.89592" lon="4.72283">
        <ele>179</ele>
        <time>2017-07-08T09:01:26Z</time>
      </trkpt>
      <trkpt lat="45.89598" lon="4.72283">
        <ele>179</ele>
        <time>2017-07-08T09:01:28Z</time>
      </trkpt>
      <trkpt lat="45.89602" lon="4.72283">
        <ele>179</ele>
        <time>2017-07-08T09:01:29Z</time>
      </trkpt>
      <trkpt lat="45.89611" lon="4.72283">
        <ele>179</ele>
        <time>2017-07-08T09:01:31Z</time>
      </trkpt>
      <trkpt lat="45.89615" lon="4.72282">
        <ele>179</ele>
        <time>2017-07-08T09:01:32Z</time>
      </trkpt>
      <trkpt lat="45.8962" lon="4.72282">
        <ele>179</ele>
        <time>2017-07-08T09:01:33Z</time>
      </trkpt>
      <trkpt lat="45.89624" lon="4.72282">
        <ele>179</ele>
        <time>2017-07-08T09:01:34Z</time>
      </trkpt>
      <trkpt lat="45.89632" lon="4.7228">
        <ele>179</ele>
        <time>2017-07-08T09:01:36Z</time>
      </trkpt>
      <trkpt lat="45.89637" lon="4.72279">
        <ele>179</ele>
        <time>2017-07-08T09:01:37Z</time>
      </trkpt>
      <trkpt lat="45.89645" lon="4.72278">
        <ele>179</ele>
        <time>2017-07-08T09:01:39Z</time>
      </trkpt>
      <trkpt lat="45.89648" lon="4.72277">
        <ele>179</ele>
        <time>2017-07-08T09:01:40Z</time>
      </trkpt>
      <trkpt lat="45.89654" lon="4.72272">
        <ele>179</ele>
        <time>2017-07-08T09:01:42Z</time>
      </trkpt>
      <trkpt lat="45.89655" lon="4.72269">
        <ele>179</ele>
        <time>2017-07-08T09:01:43Z</time>
      </trkpt>
      <trkpt lat="45.89656" lon="4.7226">
        <ele>179</ele>
        <time>2017-07-08T09:01:45Z</time>
      </trkpt>
      <trkpt lat="45.89656" lon="4.72255">
        <ele>179</ele>
        <time>2017-07-08T09:01:46Z</time>
      </trkpt>
      <trkpt lat="45.89656" lon="4.72243">
        <ele>179</ele>
        <time>2017-07-08T09:01:48Z</time>
      </trkpt>
      <trkpt lat="45.89656" lon="4.72237">
        <ele>179</ele>
        <time>2017-07-08T09:01:49Z</time>
      </trkpt>
      <trkpt lat="45.89657" lon="4.72224">
        <ele>179</ele>
        <time>2017-07-08T09:01:51Z</time>
      </trkpt>
      <trkpt lat="45.89657" lon="4.72219">
        <ele>179</ele>
        <time>2017-07-08T09:01:52Z</time>
      </trkpt>
      <trkpt lat="45.89658" lon="4.72209">
        <ele>179</ele>
        <time>2017-07-08T09:01:54Z</time>
      </trkpt>
      <trkpt lat="45.89658" lon="4.72204">
        <ele>179</ele>
        <time>2017-07-08T09:01:55Z</time>
      </trkpt>
      <trkpt lat="45.89658" lon="4.72195">
        <ele>179</ele>
        <time>2017-07-08T09:01:57Z</time>
      </trkpt>
      <trkpt lat="45.89659" lon="4.7219">
        <ele>179</ele>
        <time>2017-07-08T09:01:58Z</time>
      </trkpt>
      <trkpt lat="45.89658" lon="4.72178">
        <ele>179</ele>
        <time>2017-07-08T09:02:00Z</time>
      </trkpt>
      <trkpt lat="45.89658" lon="4.72172">
        <ele>179</ele>
        <time>2017-07-08T09:02:01Z</time>
      </trkpt>
      <trkpt lat="45.89659" lon="4.72165">
        <ele>179</ele>
        <time>2017-07-08T09:02:02Z</time>
      </trkpt>
      <trkpt lat="45.89659" lon="4.72158">
        <ele>179</ele>
        <time>2017-07-08T09:02:03Z</time>
      </trkpt>
      <trkpt lat="45.89659" lon="4.72151">
        <ele>179</ele>
        <time>2017-07-08T09:02:04Z</time>
      </trkpt>
      <trkpt lat="45.89659" lon="4.72144">
        <ele>179</ele>
        <time>2017-07-08T09:02:05Z</time>
      </trkpt>
      <trkpt lat="45.89659" lon="4.72137">
        <ele>179</ele>
        <time>2017-07-08T09:02:06Z</time>
      </trkpt>
      <trkpt lat="45.89659" lon="4.72131">
        <ele>179</ele>
        <time>2017-07-08T09:02:07Z</time>
      </trkpt>
      <trkpt lat="45.89659" lon="4.72119">
        <ele>179</ele>
        <time>2017-07-08T09:02:09Z</time>
      </trkpt>
      <trkpt lat="45.89659" lon="4.72113">
        <ele>179</ele>
        <time>2017-07-08T09:02:10Z</time>
      </trkpt>
      <trkpt lat="45.89659" lon="4.72102">
        <ele>180</ele>
        <time>2017-07-08T09:02:12Z</time>
      </trkpt>
      <trkpt lat="45.89659" lon="4.72097">
        <ele>180</ele>
        <time>2017-07-08T09:02:13Z</time>
      </trkpt>
      <trkpt lat="45.89658" lon="4.72088">
        <ele>180</ele>
        <time>2017-07-08T09:02:15Z</time>
      </trkpt>
      <trkpt lat="45.89658" lon="4.72083">
        <ele>180</ele>
        <time>2017-07-08T09:02:16Z</time>
      </trkpt>
      <trkpt lat="45.89657" lon="4.72073">
        <ele>180</ele>
        <time>2017-07-08T09:02:18Z</time>
      </trkpt>
      <trkpt lat="45.89659" lon="4.72068">
        <ele>180</ele>
        <time>2017-07-08T09:02:19Z</time>
      </trkpt>
      <trkpt lat="45.89661" lon="4.72056">
        <ele>180</ele>
        <time>2017-07-08T09:02:21Z</time>
      </trkpt>
      <trkpt lat="45.8966" lon="4.72051">
        <ele>180</ele>
        <time>2017-07-08T09:02:22Z</time>
      </trkpt>
      <trkpt lat="45.8966" lon="4.72039">
        <ele>180</ele>
        <time>2017-07-08T09:02:24Z</time>
      </trkpt>
      <trkpt lat="45.89659" lon="4.72033">
        <ele>180</ele>
        <time>2017-07-08T09:02:25Z</time>
      </trkpt>
      <trkpt lat="45.89659" lon="4.7202">
        <ele>180</ele>
        <time>2017-07-08T09:02:27Z</time>
      </trkpt>
      <trkpt lat="45.89659" lon="4.72014">
        <ele>181</ele>
        <time>2017-07-08T09:02:28Z</time>
      </trkpt>
      <trkpt lat="45.89659" lon="4.72003">
        <ele>181</ele>
        <time>2017-07-08T09:02:30Z</time>
      </trkpt>
      <trkpt lat="45.89659" lon="4.71998">
        <ele>181</ele>
        <time>2017-07-08T09:02:31Z</time>
      </trkpt>
      <trkpt lat="45.8966" lon="4.71989">
        <ele>181</ele>
        <time>2017-07-08T09:02:33Z</time>
      </trkpt>
      <trkpt lat="45.8966" lon="4.71984">
        <ele>181</ele>
        <time>2017-07-08T09:02:34Z</time>
      </trkpt>
      <trkpt lat="45.8966" lon="4.71974">
        <ele>181</ele>
        <time>2017-07-08T09:02:36Z</time>
      </trkpt>
      <trkpt lat="45.8966" lon="4.71968">
        <ele>181</ele>
        <time>2017-07-08T09:02:37Z</time>
      </trkpt>
      <trkpt lat="45.8966" lon="4.71958">
        <ele>181</ele>
        <time>2017-07-08T09:02:39Z</time>
      </trkpt>
      <trkpt lat="45.8966" lon="4.71953">
        <ele>181</ele>
        <time>2017-07-08T09:02:40Z</time>
      </trkpt>
      <trkpt lat="45.89661" lon="4.71943">
        <ele>181</ele>
        <time>2017-07-08T09:02:42Z</time>
      </trkpt>
      <trkpt lat="45.89661" lon="4.71937">
        <ele>181</ele>
        <time>2017-07-08T09:02:43Z</time>
      </trkpt>
      <trkpt lat="45.89661" lon="4.71925">
        <ele>181</ele>
        <time>2017-07-08T09:02:45Z</time>
      </trkpt>
      <trkpt lat="45.89661" lon="4.71919">
        <ele>181</ele>
        <time>2017-07-08T09:02:46Z</time>
      </trkpt>
      <trkpt lat="45.89662" lon="4.71912">
        <ele>181</ele>
        <time>2017-07-08T09:02:47Z</time>
      </trkpt>
      <trkpt lat="45.89662" lon="4.71906">
        <ele>181</ele>
        <time>2017-07-08T09:02:48Z</time>
      </trkpt>
      <trkpt lat="45.89662" lon="4.71899">
        <ele>181</ele>
        <time>2017-07-08T09:02:49Z</time>
      </trkpt>
      <trkpt lat="45.89661" lon="4.71893">
        <ele>181</ele>
        <time>2017-07-08T09:02:50Z</time>
      </trkpt>
      <trkpt lat="45.89662" lon="4.71881">
        <ele>181</ele>
        <time>2017-07-08T09:02:52Z</time>
      </trkpt>
      <trkpt lat="45.89662" lon="4.71877">
        <ele>181</ele>
        <time>2017-07-08T09:02:53Z</time>
      </trkpt>
      <trkpt lat="45.89662" lon="4.71867">
        <ele>181</ele>
        <time>2017-07-08T09:02:55Z</time>
      </trkpt>
      <trkpt lat="45.89663" lon="4.71862">
        <ele>181</ele>
        <time>2017-07-08T09:02:56Z</time>
      </trkpt>
      <trkpt lat="45.89663" lon="4.71851">
        <ele>181</ele>
        <time>2017-07-08T09:02:58Z</time>
      </trkpt>
      <trkpt lat="45.89664" lon="4.71845">
        <ele>181</ele>
        <time>2017-07-08T09:02:59Z</time>
      </trkpt>
      <trkpt lat="45.89665" lon="4.71833">
        <ele>181</ele>
        <time>2017-07-08T09:03:01Z</time>
      </trkpt>
      <trkpt lat="45.89666" lon="4.71828">
        <ele>181</ele>
        <time>2017-07-08T09:03:02Z</time>
      </trkpt>
      <trkpt lat="45.89666" lon="4.71816">
        <ele>182</ele>
        <time>2017-07-08T09:03:04Z</time>
      </trkpt>
      <trkpt lat="45.89666" lon="4.71811">
        <ele>182</ele>
        <time>2017-07-08T09:03:05Z</time>
      </trkpt>
      <trkpt lat="45.89665" lon="4.718">
        <ele>182</ele>
        <time>2017-07-08T09:03:07Z</time>
      </trkpt>
      <trkpt lat="45.89664" lon="4.71795">
        <ele>182</ele>
        <time>2017-07-08T09:03:08Z</time>
      </trkpt>
      <trkpt lat="45.89663" lon="4.71784">
        <ele>182</ele>
        <time>2017-07-08T09:03:10Z</time>
      </trkpt>
      <trkpt lat="45.89662" lon="4.71778">
        <ele>182</ele>
        <time>2017-07-08T09:03:11Z</time>
      </trkpt>
      <trkpt lat="45.89661" lon="4.71768">
        <ele>182</ele>
        <time>2017-07-08T09:03:13Z</time>
      </trkpt>
      <trkpt lat="45.89661" lon="4.71763">
        <ele>183</ele>
        <time>2017-07-08T09:03:14Z</time>
      </trkpt>
      <trkpt lat="45.89661" lon="4.71753">
        <ele>183</ele>
        <time>2017-07-08T09:03:16Z</time>
      </trkpt>
      <trkpt lat="45.89661" lon="4.71748">
        <ele>183</ele>
        <time>2017-07-08T09:03:17Z</time>
      </trkpt>
      <trkpt lat="45.8966" lon="4.71739">
        <ele>184</ele>
        <time>2017-07-08T09:03:19Z</time>
      </trkpt>
      <trkpt lat="45.89659" lon="4.71735">
        <ele>184</ele>
        <time>2017-07-08T09:03:20Z</time>
      </trkpt>
      <trkpt lat="45.89659" lon="4.71726">
        <ele>184</ele>
        <time>2017-07-08T09:03:22Z</time>
      </trkpt>
      <trkpt lat="45.89659" lon="4.71722">
        <ele>185</ele>
        <time>2017-07-08T09:03:23Z</time>
      </trkpt>
      <trkpt lat="45.89657" lon="4.7171">
        <ele>185</ele>
        <time>2017-07-08T09:03:26Z</time>
      </trkpt>
      <trkpt lat="45.89656" lon="4.71707">
        <ele>185</ele>
        <time>2017-07-08T09:03:27Z</time>
      </trkpt>
      <trkpt lat="45.89654" lon="4.71695">
        <ele>186</ele>
        <time>2017-07-08T09:03:30Z</time>
      </trkpt>
      <trkpt lat="45.89654" lon="4.71691">
        <ele>186</ele>
        <time>2017-07-08T09:03:31Z</time>
      </trkpt>
      <trkpt lat="45.89653" lon="4.7168">
        <ele>186</ele>
        <time>2017-07-08T09:03:34Z</time>
      </trkpt>
      <trkpt lat="45.89652" lon="4.71677">
        <ele>186</ele>
        <time>2017-07-08T09:03:35Z</time>
      </trkpt>
      <trkpt lat="45.8965" lon="4.71667">
        <ele>186</ele>
        <time>2017-07-08T09:03:38Z</time>
      </trkpt>
      <trkpt lat="45.8965" lon="4.71664">
        <ele>188</ele>
        <time>2017-07-08T09:03:39Z</time>
      </trkpt>
      <trkpt lat="45.89648" lon="4.71654">
        <ele>189</ele>
        <time>2017-07-08T09:03:42Z</time>
      </trkpt>
      <trkpt lat="45.89648" lon="4.7165">
        <ele>189</ele>
        <time>2017-07-08T09:03:43Z</time>
      </trkpt>
      <trkpt lat="45.89647" lon="4.7164">
        <ele>189</ele>
        <time>2017-07-08T09:03:46Z</time>
      </trkpt>
      <trkpt lat="45.89646" lon="4.71637">
        <ele>189</ele>
        <time>2017-07-08T09:03:47Z</time>
      </trkpt>
      <trkpt lat="45.89645" lon="4.71627">
        <ele>190</ele>
        <time>2017-07-08T09:03:50Z</time>
      </trkpt>
      <trkpt lat="45.89644" lon="4.71623">
        <ele>190</ele>
        <time>2017-07-08T09:03:51Z</time>
      </trkpt>
      <trkpt lat="45.89645" lon="4.71611">
        <ele>190</ele>
        <time>2017-07-08T09:03:54Z</time>
      </trkpt>
      <trkpt lat="45.89644" lon="4.71607">
        <ele>191</ele>
        <time>2017-07-08T09:03:55Z</time>
      </trkpt>
      <trkpt lat="45.89644" lon="4.71596">
        <ele>191</ele>
        <time>2017-07-08T09:03:58Z</time>
      </trkpt>
      <trkpt lat="45.89644" lon="4.71592">
        <ele>191</ele>
        <time>2017-07-08T09:03:59Z</time>
      </trkpt>
      <trkpt lat="45.89642" lon="4.71582">
        <ele>193</ele>
        <time>2017-07-08T09:04:02Z</time>
      </trkpt>
      <trkpt lat="45.89642" lon="4.71578">
        <ele>193</ele>
        <time>2017-07-08T09:04:03Z</time>
      </trkpt>
      <trkpt lat="45.89642" lon="4.71568">
        <ele>193</ele>
        <time>2017-07-08T09:04:06Z</time>
      </trkpt>
      <trkpt lat="45.89643" lon="4.71564">
        <ele>193</ele>
        <time>2017-07-08T09:04:07Z</time>
      </trkpt>
      <trkpt lat="45.89648" lon="4.71555">
        <ele>193</ele>
        <time>2017-07-08T09:04:10Z</time>
      </trkpt>
      <trkpt lat="45.8965" lon="4.71552">
        <ele>193</ele>
        <time>2017-07-08T09:04:11Z</time>
      </trkpt>
      <trkpt lat="45.89656" lon="4.71548">
        <ele>193</ele>
        <time>2017-07-08T09:04:13Z</time>
      </trkpt>
      <trkpt lat="45.89659" lon="4.71546">
        <ele>193</ele>
        <time>2017-07-08T09:04:14Z</time>
      </trkpt>
      <trkpt lat="45.89665" lon="4.71543">
        <ele>193</ele>
        <time>2017-07-08T09:04:16Z</time>
      </trkpt>
      <trkpt lat="45.89668" lon="4.71542">
        <ele>193</ele>
        <time>2017-07-08T09:04:17Z</time>
      </trkpt>
      <trkpt lat="45.89674" lon="4.71542">
        <ele>193</ele>
        <time>2017-07-08T09:04:19Z</time>
      </trkpt>
      <trkpt lat="45.89677" lon="4.71542">
        <ele>193</ele>
        <time>2017-07-08T09:04:20Z</time>
      </trkpt>
      <trkpt lat="45.89684" lon="4.71544">
        <ele>193</ele>
        <time>2017-07-08T09:04:22Z</time>
      </trkpt>
      <trkpt lat="45.89688" lon="4.71544">
        <ele>193</ele>
        <time>2017-07-08T09:04:23Z</time>
      </trkpt>
      <trkpt lat="45.89696" lon="4.71544">
        <ele>193</ele>
        <time>2017-07-08T09:04:25Z</time>
      </trkpt>
      <trkpt lat="45.897" lon="4.71544">
        <ele>193</ele>
        <time>2017-07-08T09:04:26Z</time>
      </trkpt>
      <trkpt lat="45.89708" lon="4.71542">
        <ele>192</ele>
        <time>2017-07-08T09:04:28Z</time>
      </trkpt>
      <trkpt lat="45.89712" lon="4.71542">
        <ele>192</ele>
        <time>2017-07-08T09:04:29Z</time>
      </trkpt>
      <trkpt lat="45.89721" lon="4.7154">
        <ele>192</ele>
        <time>2017-07-08T09:04:31Z</time>
      </trkpt>
      <trkpt lat="45.89725" lon="4.71541">
        <ele>192</ele>
        <time>2017-07-08T09:04:32Z</time>
      </trkpt>
      <trkpt lat="45.89734" lon="4.71542">
        <ele>192</ele>
        <time>2017-07-08T09:04:34Z</time>
      </trkpt>
      <trkpt lat="45.89739" lon="4.71541">
        <ele>192</ele>
        <time>2017-07-08T09:04:35Z</time>
      </trkpt>
      <trkpt lat="45.89747" lon="4.71539">
        <ele>192</ele>
        <time>2017-07-08T09:04:37Z</time>
      </trkpt>
      <trkpt lat="45.89751" lon="4.71539">
        <ele>192</ele>
        <time>2017-07-08T09:04:38Z</time>
      </trkpt>
      <trkpt lat="45.8976" lon="4.71538">
        <ele>192</ele>
        <time>2017-07-08T09:04:40Z</time>
      </trkpt>
      <trkpt lat="45.89764" lon="4.71538">
        <ele>192</ele>
        <time>2017-07-08T09:04:41Z</time>
      </trkpt>
      <trkpt lat="45.89769" lon="4.71539">
        <ele>192</ele>
        <time>2017-07-08T09:04:42Z</time>
      </trkpt>
      <trkpt lat="45.89773" lon="4.71538">
        <ele>192</ele>
        <time>2017-07-08T09:04:43Z</time>
      </trkpt>
      <trkpt lat="45.89778" lon="4.71537">
        <ele>192</ele>
        <time>2017-07-08T09:04:44Z</time>
      </trkpt>
      <trkpt lat="45.89783" lon="4.71536">
        <ele>192</ele>
        <time>2017-07-08T09:04:45Z</time>
      </trkpt>
      <trkpt lat="45.89787" lon="4.71536">
        <ele>192</ele>
        <time>2017-07-08T09:04:46Z</time>
      </trkpt>
      <trkpt lat="45.89793" lon="4.71536">
        <ele>192</ele>
        <time>2017-07-08T09:04:47Z</time>
      </trkpt>
      <trkpt lat="45.89798" lon="4.71537">
        <ele>192</ele>
        <time>2017-07-08T09:04:48Z</time>
      </trkpt>
      <trkpt lat="45.89804" lon="4.71539">
        <ele>192</ele>
        <time>2017-07-08T09:04:49Z</time>
      </trkpt>
      <trkpt lat="45.89809" lon="4.7154">
        <ele>192</ele>
        <time>2017-07-08T09:04:50Z</time>
      </trkpt>
      <trkpt lat="45.89814" lon="4.71543">
        <ele>192</ele>
        <time>2017-07-08T09:04:51Z</time>
      </trkpt>
      <trkpt lat="45.8982" lon="4.71546">
        <ele>192</ele>
        <time>2017-07-08T09:04:52Z</time>
      </trkpt>
      <trkpt lat="45.89826" lon="4.71548">
        <ele>192</ele>
        <time>2017-07-08T09:04:53Z</time>
      </trkpt>
      <trkpt lat="45.89832" lon="4.7155">
        <ele>192</ele>
        <time>2017-07-08T09:04:54Z</time>
      </trkpt>
      <trkpt lat="45.89838" lon="4.7155">
        <ele>192</ele>
        <time>2017-07-08T09:04:55Z</time>
      </trkpt>
      <trkpt lat="45.89845" lon="4.71551">
        <ele>192</ele>
        <time>2017-07-08T09:04:56Z</time>
      </trkpt>
      <trkpt lat="45.89851" lon="4.71552">
        <ele>192</ele>
        <time>2017-07-08T09:04:57Z</time>
      </trkpt>
      <trkpt lat="45.89859" lon="4.71552">
        <ele>192</ele>
        <time>2017-07-08T09:04:58Z</time>
      </trkpt>
      <trkpt lat="45.89866" lon="4.71552">
        <ele>192</ele>
        <time>2017-07-08T09:04:59Z</time>
      </trkpt>
      <trkpt lat="45.89873" lon="4.71553">
        <ele>192</ele>
        <time>2017-07-08T09:05:00Z</time>
      </trkpt>
      <trkpt lat="45.8988" lon="4.71552">
        <ele>192</ele>
        <time>2017-07-08T09:05:01Z</time>
      </trkpt>
      <trkpt lat="45.89886" lon="4.71551">
        <ele>192</ele>
        <time>2017-07-08T09:05:02Z</time>
      </trkpt>
      <trkpt lat="45.89892" lon="4.71549">
        <ele>192</ele>
        <time>2017-07-08T09:05:03Z</time>
      </trkpt>
      <trkpt lat="45.89898" lon="4.71549">
        <ele>192</ele>
        <time>2017-07-08T09:05:04Z</time>
      </trkpt>
      <trkpt lat="45.89903" lon="4.71548">
        <ele>192</ele>
        <time>2017-07-08T09:05:05Z</time>
      </trkpt>
      <trkpt lat="45.89908" lon="4.71548">
        <ele>192</ele>
        <time>2017-07-08T09:05:06Z</time>
      </trkpt>
      <trkpt lat="45.89912" lon="4.71548">
        <ele>192</ele>
        <time>2017-07-08T09:05:07Z</time>
      </trkpt>
      <trkpt lat="45.89917" lon="4.71547">
        <ele>192</ele>
        <time>2017-07-08T09:05:08Z</time>
      </trkpt>
      <trkpt lat="45.89921" lon="4.71546">
        <ele>193</ele>
        <time>2017-07-08T09:05:09Z</time>
      </trkpt>
      <trkpt lat="45.8993" lon="4.71545">
        <ele>193</ele>
        <time>2017-07-08T09:05:11Z</time>
      </trkpt>
      <trkpt lat="45.89934" lon="4.71545">
        <ele>193</ele>
        <time>2017-07-08T09:05:12Z</time>
      </trkpt>
      <trkpt lat="45.89942" lon="4.71544">
        <ele>193</ele>
        <time>2017-07-08T09:05:14Z</time>
      </trkpt>
      <trkpt lat="45.89946" lon="4.71544">
        <ele>193</ele>
        <time>2017-07-08T09:05:15Z</time>
      </trkpt>
      <trkpt lat="45.89953" lon="4.71544">
        <ele>193</ele>
        <time>2017-07-08T09:05:17Z</time>
      </trkpt>
      <trkpt lat="45.89957" lon="4.71543">
        <ele>193</ele>
        <time>2017-07-08T09:05:18Z</time>
      </trkpt>
      <trkpt lat="45.89965" lon="4.71543">
        <ele>194</ele>
        <time>2017-07-08T09:05:20Z</time>
      </trkpt>
      <trkpt lat="45.89968" lon="4.71542">
        <ele>194</ele>
        <time>2017-07-08T09:05:21Z</time>
      </trkpt>
      <trkpt lat="45.89975" lon="4.71541">
        <ele>194</ele>
        <time>2017-07-08T09:05:23Z</time>
      </trkpt>
      <trkpt lat="45.89978" lon="4.71541">
        <ele>194</ele>
        <time>2017-07-08T09:05:24Z</time>
      </trkpt>
      <trkpt lat="45.89984" lon="4.71542">
        <ele>194</ele>
        <time>2017-07-08T09:05:26Z</time>
      </trkpt>
      <trkpt lat="45.89988" lon="4.71542">
        <ele>194</ele>
        <time>2017-07-08T09:05:27Z</time>
      </trkpt>
      <trkpt lat="45.89995" lon="4.71539">
        <ele>194</ele>
        <time>2017-07-08T09:05:29Z</time>
      </trkpt>
      <trkpt lat="45.89999" lon="4.71539">
        <ele>194</ele>
        <time>2017-07-08T09:05:30Z</time>
      </trkpt>
      <trkpt lat="45.90005" lon="4.71538">
        <ele>196</ele>
        <time>2017-07-08T09:05:32Z</time>
      </trkpt>
      <trkpt lat="45.90008" lon="4.71538">
        <ele>196</ele>
        <time>2017-07-08T09:05:33Z</time>
      </trkpt>
      <trkpt lat="45.90017" lon="4.71538">
        <ele>197</ele>
        <time>2017-07-08T09:05:36Z</time>
      </trkpt>
      <trkpt lat="45.9002" lon="4.71538">
        <ele>197</ele>
        <time>2017-07-08T09:05:37Z</time>
      </trkpt>
      <trkpt lat="45.90028" lon="4.71537">
        <ele>197</ele>
        <time>2017-07-08T09:05:40Z</time>
      </trkpt>
      <trkpt lat="45.90031" lon="4.71536">
        <ele>197</ele>
        <time>2017-07-08T09:05:41Z</time>
      </trkpt>
      <trkpt lat="45.90039" lon="4.71537">
        <ele>197</ele>
        <time>2017-07-08T09:05:44Z</time>
      </trkpt>
      <trkpt lat="45.90042" lon="4.71537">
        <ele>197</ele>
        <time>2017-07-08T09:05:45Z</time>
      </trkpt>
      <trkpt lat="45.9005" lon="4.71537">
        <ele>198</ele>
        <time>2017-07-08T09:05:48Z</time>
      </trkpt>
      <trkpt lat="45.90053" lon="4.71537">
        <ele>198</ele>
        <time>2017-07-08T09:05:49Z</time>
      </trkpt>
      <trkpt lat="45.90062" lon="4.71535">
        <ele>198</ele>
        <time>2017-07-08T09:05:52Z</time>
      </trkpt>
      <trkpt lat="45.90065" lon="4.71535">
        <ele>198</ele>
        <time>2017-07-08T09:05:53Z</time>
      </trkpt>
      <trkpt lat="45.90071" lon="4.71535">
        <ele>198</ele>
        <time>2017-07-08T09:05:55Z</time>
      </trkpt>
      <trkpt lat="45.90074" lon="4.71534">
        <ele>198</ele>
        <time>2017-07-08T09:05:56Z</time>
      </trkpt>
      <trkpt lat="45.90083" lon="4.71534">
        <ele>198</ele>
        <time>2017-07-08T09:05:59Z</time>
      </trkpt>
      <trkpt lat="45.90086" lon="4.71534">
        <ele>200</ele>
        <time>2017-07-08T09:06:00Z</time>
      </trkpt>
      <trkpt lat="45.90092" lon="4.71535">
        <ele>200</ele>
        <time>2017-07-08T09:06:02Z</time>
      </trkpt>
      <trkpt lat="45.90095" lon="4.71535">
        <ele>200</ele>
        <time>2017-07-08T09:06:03Z</time>
      </trkpt>
      <trkpt lat="45.90104" lon="4.71534">
        <ele>200</ele>
        <time>2017-07-08T09:06:07Z</time>
      </trkpt>
      <trkpt lat="45.90106" lon="4.71534">
        <ele>201</ele>
        <time>2017-07-08T09:06:08Z</time>
      </trkpt>
      <trkpt lat="45.90114" lon="4.71537">
        <ele>200</ele>
        <time>2017-07-08T09:06:11Z</time>
      </trkpt>
      <trkpt lat="45.90118" lon="4.71539">
        <ele>200</ele>
        <time>2017-07-08T09:06:12Z</time>
      </trkpt>
      <trkpt lat="45.90125" lon="4.71541">
        <ele>201</ele>
        <time>2017-07-08T09:06:14Z</time>
      </trkpt>
      <trkpt lat="45.9013" lon="4.7154">
        <ele>201</ele>
        <time>2017-07-08T09:06:15Z</time>
      </trkpt>
      <trkpt lat="45.90139" lon="4.7154">
        <ele>201</ele>
        <time>2017-07-08T09:06:17Z</time>
      </trkpt>
      <trkpt lat="45.90143" lon="4.7154">
        <ele>201</ele>
        <time>2017-07-08T09:06:18Z</time>
      </trkpt>
      <trkpt lat="45.90151" lon="4.71542">
        <ele>201</ele>
        <time>2017-07-08T09:06:20Z</time>
      </trkpt>
      <trkpt lat="45.90154" lon="4.71544">
        <ele>201</ele>
        <time>2017-07-08T09:06:21Z</time>
      </trkpt>
      <trkpt lat="45.90162" lon="4.71546">
        <ele>201</ele>
        <time>2017-07-08T09:06:23Z</time>
      </trkpt>
      <trkpt lat="45.90166" lon="4.71546">
        <ele>201</ele>
        <time>2017-07-08T09:06:24Z</time>
      </trkpt>
      <trkpt lat="45.90175" lon="4.71547">
        <ele>200</ele>
        <time>2017-07-08T09:06:26Z</time>
      </trkpt>
      <trkpt lat="45.90179" lon="4.71546">
        <ele>200</ele>
        <time>2017-07-08T09:06:27Z</time>
      </trkpt>
      <trkpt lat="45.90184" lon="4.71546">
        <ele>200</ele>
        <time>2017-07-08T09:06:28Z</time>
      </trkpt>
      <trkpt lat="45.90189" lon="4.71548">
        <ele>200</ele>
        <time>2017-07-08T09:06:29Z</time>
      </trkpt>
      <trkpt lat="45.90195" lon="4.71548">
        <ele>199</ele>
        <time>2017-07-08T09:06:30Z</time>
      </trkpt>
      <trkpt lat="45.902" lon="4.71548">
        <ele>199</ele>
        <time>2017-07-08T09:06:31Z</time>
      </trkpt>
      <trkpt lat="45.90206" lon="4.71548">
        <ele>199</ele>
        <time>2017-07-08T09:06:32Z</time>
      </trkpt>
      <trkpt lat="45.90212" lon="4.7155">
        <ele>199</ele>
        <time>2017-07-08T09:06:33Z</time>
      </trkpt>
      <trkpt lat="45.90217" lon="4.71551">
        <ele>199</ele>
        <time>2017-07-08T09:06:34Z</time>
      </trkpt>
      <trkpt lat="45.90223" lon="4.71552">
        <ele>199</ele>
        <time>2017-07-08T09:06:35Z</time>
      </trkpt>
      <trkpt lat="45.90229" lon="4.71553">
        <ele>199</ele>
        <time>2017-07-08T09:06:36Z</time>
      </trkpt>
      <trkpt lat="45.90235" lon="4.71553">
        <ele>198</ele>
        <time>2017-07-08T09:06:37Z</time>
      </trkpt>
      <trkpt lat="45.9024" lon="4.71554">
        <ele>198</ele>
        <time>2017-07-08T09:06:38Z</time>
      </trkpt>
      <trkpt lat="45.90246" lon="4.71553">
        <ele>198</ele>
        <time>2017-07-08T09:06:39Z</time>
      </trkpt>
      <trkpt lat="45.90252" lon="4.71552">
        <ele>196</ele>
        <time>2017-07-08T09:06:40Z</time>
      </trkpt>
      <trkpt lat="45.90257" lon="4.71551">
        <ele>196</ele>
        <time>2017-07-08T09:06:41Z</time>
      </trkpt>
      <trkpt lat="45.90265" lon="4.7155">
        <ele>196</ele>
        <time>2017-07-08T09:06:43Z</time>
      </trkpt>
      <trkpt lat="45.90269" lon="4.71549">
        <ele>196</ele>
        <time>2017-07-08T09:06:44Z</time>
      </trkpt>
      <trkpt lat="45.90275" lon="4.71554">
        <ele>195</ele>
        <time>2017-07-08T09:06:47Z</time>
      </trkpt>
      <trkpt lat="45.90276" lon="4.71557">
        <ele>195</ele>
        <time>2017-07-08T09:06:48Z</time>
      </trkpt>
      <trkpt lat="45.90277" lon="4.71566">
        <ele>195</ele>
        <time>2017-07-08T09:06:50Z</time>
      </trkpt>
      <trkpt lat="45.90277" lon="4.71571">
        <ele>195</ele>
        <time>2017-07-08T09:06:51Z</time>
      </trkpt>
      <trkpt lat="45.90277" lon="4.71583">
        <ele>195</ele>
        <time>2017-07-08T09:06:53Z</time>
      </trkpt>
      <trkpt lat="45.90276" lon="4.71589">
        <ele>194</ele>
        <time>2017-07-08T09:06:54Z</time>
      </trkpt>
      <trkpt lat="45.90275" lon="4.71595">
        <ele>193</ele>
        <time>2017-07-08T09:06:55Z</time>
      </trkpt>
      <trkpt lat="45.90275" lon="4.71602">
        <ele>193</ele>
        <time>2017-07-08T09:06:56Z</time>
      </trkpt>
      <trkpt lat="45.90274" lon="4.71609">
        <ele>193</ele>
        <time>2017-07-08T09:06:57Z</time>
      </trkpt>
      <trkpt lat="45.90274" lon="4.71617">
        <ele>193</ele>
        <time>2017-07-08T09:06:58Z</time>
      </trkpt>
      <trkpt lat="45.90274" lon="4.71625">
        <ele>193</ele>
        <time>2017-07-08T09:06:59Z</time>
      </trkpt>
      <trkpt lat="45.90274" lon="4.71634">
        <ele>192</ele>
        <time>2017-07-08T09:07:00Z</time>
      </trkpt>
      <trkpt lat="45.90274" lon="4.71643">
        <ele>192</ele>
        <time>2017-07-08T09:07:01Z</time>
      </trkpt>
      <trkpt lat="45.90273" lon="4.71652">
        <ele>192</ele>
        <time>2017-07-08T09:07:02Z</time>
      </trkpt>
      <trkpt lat="45.90272" lon="4.71661">
        <ele>192</ele>
        <time>2017-07-08T09:07:03Z</time>
      </trkpt>
      <trkpt lat="45.9027" lon="4.71668">
        <ele>189</ele>
        <time>2017-07-08T09:07:04Z</time>
      </trkpt>
      <trkpt lat="45.90269" lon="4.71676">
        <ele>189</ele>
        <time>2017-07-08T09:07:05Z</time>
      </trkpt>
      <trkpt lat="45.90268" lon="4.71683">
        <ele>189</ele>
        <time>2017-07-08T09:07:06Z</time>
      </trkpt>
      <trkpt lat="45.90266" lon="4.7169">
        <ele>188</ele>
        <time>2017-07-08T09:07:07Z</time>
      </trkpt>
      <trkpt lat="45.90265" lon="4.71697">
        <ele>188</ele>
        <time>2017-07-08T09:07:08Z</time>
      </trkpt>
      <trkpt lat="45.90263" lon="4.71705">
        <ele>187</ele>
        <time>2017-07-08T09:07:09Z</time>
      </trkpt>
      <trkpt lat="45.90262" lon="4.71713">
        <ele>187</ele>
        <time>2017-07-08T09:07:10Z</time>
      </trkpt>
      <trkpt lat="45.9026" lon="4.71722">
        <ele>186</ele>
        <time>2017-07-08T09:07:11Z</time>
      </trkpt>
      <trkpt lat="45.90258" lon="4.71731">
        <ele>186</ele>
        <time>2017-07-08T09:07:12Z</time>
      </trkpt>
      <trkpt lat="45.90257" lon="4.71741">
        <ele>186</ele>
        <time>2017-07-08T09:07:13Z</time>
      </trkpt>
      <trkpt lat="45.90256" lon="4.71751">
        <ele>184</ele>
        <time>2017-07-08T09:07:14Z</time>
      </trkpt>
      <trkpt lat="45.90256" lon="4.7176">
        <ele>184</ele>
        <time>2017-07-08T09:07:15Z</time>
      </trkpt>
      <trkpt lat="45.90256" lon="4.71771">
        <ele>183</ele>
        <time>2017-07-08T09:07:16Z</time>
      </trkpt>
      <trkpt lat="45.90255" lon="4.71782">
        <ele>183</ele>
        <time>2017-07-08T09:07:17Z</time>
      </trkpt>
      <trkpt lat="45.90253" lon="4.71793">
        <ele>182</ele>
        <time>2017-07-08T09:07:18Z</time>
      </trkpt>
      <trkpt lat="45.90251" lon="4.71805">
        <ele>182</ele>
        <time>2017-07-08T09:07:19Z</time>
      </trkpt>
      <trkpt lat="45.90248" lon="4.71815">
        <ele>183</ele>
        <time>2017-07-08T09:07:20Z</time>
      </trkpt>
      <trkpt lat="45.90243" lon="4.71825">
        <ele>183</ele>
        <time>2017-07-08T09:07:21Z</time>
      </trkpt>
      <trkpt lat="45.90238" lon="4.71834">
        <ele>182</ele>
        <time>2017-07-08T09:07:22Z</time>
      </trkpt>
      <trkpt lat="45.90233" lon="4.71843">
        <ele>182</ele>
        <time>2017-07-08T09:07:23Z</time>
      </trkpt>
      <trkpt lat="45.90227" lon="4.71851">
        <ele>181</ele>
        <time>2017-07-08T09:07:24Z</time>
      </trkpt>
      <trkpt lat="45.90222" lon="4.7186">
        <ele>181</ele>
        <time>2017-07-08T09:07:25Z</time>
      </trkpt>
      <trkpt lat="45.90217" lon="4.71868">
        <ele>181</ele>
        <time>2017-07-08T09:07:26Z</time>
      </trkpt>
      <trkpt lat="45.90212" lon="4.71876">
        <ele>180</ele>
        <time>2017-07-08T09:07:27Z</time>
      </trkpt>
      <trkpt lat="45.90208" lon="4.71884">
        <ele>180</ele>
        <time>2017-07-08T09:07:28Z</time>
      </trkpt>
      <trkpt lat="45.90203" lon="4.71893">
        <ele>180</ele>
        <time>2017-07-08T09:07:29Z</time>
      </trkpt>
      <trkpt lat="45.90198" lon="4.71901">
        <ele>180</ele>
        <time>2017-07-08T09:07:30Z</time>
      </trkpt>
      <trkpt lat="45.90194" lon="4.71909">
        <ele>179</ele>
        <time>2017-07-08T09:07:31Z</time>
      </trkpt>
      <trkpt lat="45.9019" lon="4.71918">
        <ele>178</ele>
        <time>2017-07-08T09:07:32Z</time>
      </trkpt>
      <trkpt lat="45.90188" lon="4.71926">
        <ele>178</ele>
        <time>2017-07-08T09:07:33Z</time>
      </trkpt>
      <trkpt lat="45.90185" lon="4.71934">
        <ele>178</ele>
        <time>2017-07-08T09:07:34Z</time>
      </trkpt>
      <trkpt lat="45.90183" lon="4.71942">
        <ele>178</ele>
        <time>2017-07-08T09:07:35Z</time>
      </trkpt>
      <trkpt lat="45.90181" lon="4.71949">
        <ele>179</ele>
        <time>2017-07-08T09:07:36Z</time>
      </trkpt>
      <trkpt lat="45.9018" lon="4.71956">
        <ele>179</ele>
        <time>2017-07-08T09:07:37Z</time>
      </trkpt>
      <trkpt lat="45.90179" lon="4.71964">
        <ele>179</ele>
        <time>2017-07-08T09:07:38Z</time>
      </trkpt>
      <trkpt lat="45.90179" lon="4.71971">
        <ele>179</ele>
        <time>2017-07-08T09:07:39Z</time>
      </trkpt>
      <trkpt lat="45.90178" lon="4.71977">
        <ele>179</ele>
        <time>2017-07-08T09:07:40Z</time>
      </trkpt>
      <trkpt lat="45.90178" lon="4.71989">
        <ele>179</ele>
        <time>2017-07-08T09:07:42Z</time>
      </trkpt>
      <trkpt lat="45.90178" lon="4.71994">
        <ele>179</ele>
        <time>2017-07-08T09:07:43Z</time>
      </trkpt>
      <trkpt lat="45.90178" lon="4.72005">
        <ele>179</ele>
        <time>2017-07-08T09:07:45Z</time>
      </trkpt>
      <trkpt lat="45.90179" lon="4.72011">
        <ele>179</ele>
        <time>2017-07-08T09:07:46Z</time>
      </trkpt>
      <trkpt lat="45.90179" lon="4.72022">
        <ele>179</ele>
        <time>2017-07-08T09:07:48Z</time>
      </trkpt>
      <trkpt lat="45.90179" lon="4.72028">
        <ele>179</ele>
        <time>2017-07-08T09:07:49Z</time>
      </trkpt>
      <trkpt lat="45.90179" lon="4.72039">
        <ele>179</ele>
        <time>2017-07-08T09:07:51Z</time>
      </trkpt>
      <trkpt lat="45.9018" lon="4.72047">
        <ele>179</ele>
        <time>2017-07-08T09:07:52Z</time>
      </trkpt>
      <trkpt lat="45.90181" lon="4.72054">
        <ele>179</ele>
        <time>2017-07-08T09:07:53Z</time>
      </trkpt>
      <trkpt lat="45.90181" lon="4.72061">
        <ele>179</ele>
        <time>2017-07-08T09:07:54Z</time>
      </trkpt>
      <trkpt lat="45.90182" lon="4.72068">
        <ele>179</ele>
        <time>2017-07-08T09:07:55Z</time>
      </trkpt>
      <trkpt lat="45.90183" lon="4.72075">
        <ele>179</ele>
        <time>2017-07-08T09:07:56Z</time>
      </trkpt>
      <trkpt lat="45.90184" lon="4.72087">
        <ele>178</ele>
        <time>2017-07-08T09:07:58Z</time>
      </trkpt>
      <trkpt lat="45.90184" lon="4.72093">
        <ele>178</ele>
        <time>2017-07-08T09:07:59Z</time>
      </trkpt>
      <trkpt lat="45.90186" lon="4.72104">
        <ele>178</ele>
        <time>2017-07-08T09:08:01Z</time>
      </trkpt>
      <trkpt lat="45.90186" lon="4.72109">
        <ele>178</ele>
        <time>2017-07-08T09:08:02Z</time>
      </trkpt>
      <trkpt lat="45.90186" lon="4.72119">
        <ele>178</ele>
        <time>2017-07-08T09:08:04Z</time>
      </trkpt>
      <trkpt lat="45.90186" lon="4.72125">
        <ele>178</ele>
        <time>2017-07-08T09:08:05Z</time>
      </trkpt>
      <trkpt lat="45.90186" lon="4.72137">
        <ele>178</ele>
        <time>2017-07-08T09:08:07Z</time>
      </trkpt>
      <trkpt lat="45.90186" lon="4.72143">
        <ele>178</ele>
        <time>2017-07-08T09:08:08Z</time>
      </trkpt>
      <trkpt lat="45.90187" lon="4.7215">
        <ele>178</ele>
        <time>2017-07-08T09:08:09Z</time>
      </trkpt>
      <trkpt lat="45.90187" lon="4.72156">
        <ele>178</ele>
        <time>2017-07-08T09:08:10Z</time>
      </trkpt>
      <trkpt lat="45.90188" lon="4.72168">
        <ele>177</ele>
        <time>2017-07-08T09:08:12Z</time>
      </trkpt>
      <trkpt lat="45.90188" lon="4.72174">
        <ele>177</ele>
        <time>2017-07-08T09:08:13Z</time>
      </trkpt>
      <trkpt lat="45.90189" lon="4.72187">
        <ele>177</ele>
        <time>2017-07-08T09:08:15Z</time>
      </trkpt>
      <trkpt lat="45.90189" lon="4.72193">
        <ele>177</ele>
        <time>2017-07-08T09:08:16Z</time>
      </trkpt>
      <trkpt lat="45.90191" lon="4.72205">
        <ele>177</ele>
        <time>2017-07-08T09:08:18Z</time>
      </trkpt>
      <trkpt lat="45.90191" lon="4.72211">
        <ele>177</ele>
        <time>2017-07-08T09:08:19Z</time>
      </trkpt>
      <trkpt lat="45.90193" lon="4.72222">
        <ele>177</ele>
        <time>2017-07-08T09:08:21Z</time>
      </trkpt>
      <trkpt lat="45.90193" lon="4.72228">
        <ele>177</ele>
        <time>2017-07-08T09:08:22Z</time>
      </trkpt>
      <trkpt lat="45.90195" lon="4.7224">
        <ele>177</ele>
        <time>2017-07-08T09:08:24Z</time>
      </trkpt>
      <trkpt lat="45.90195" lon="4.72246">
        <ele>177</ele>
        <time>2017-07-08T09:08:25Z</time>
      </trkpt>
      <trkpt lat="45.90196" lon="4.72253">
        <ele>177</ele>
        <time>2017-07-08T09:08:26Z</time>
      </trkpt>
      <trkpt lat="45.90197" lon="4.7226">
        <ele>177</ele>
        <time>2017-07-08T09:08:27Z</time>
      </trkpt>
      <trkpt lat="45.90198" lon="4.72272">
        <ele>177</ele>
        <time>2017-07-08T09:08:29Z</time>
      </trkpt>
      <trkpt lat="45.90199" lon="4.72278">
        <ele>177</ele>
        <time>2017-07-08T09:08:30Z</time>
      </trkpt>
      <trkpt lat="45.902" lon="4.72289">
        <ele>177</ele>
        <time>2017-07-08T09:08:32Z</time>
      </trkpt>
      <trkpt lat="45.90201" lon="4.72294">
        <ele>177</ele>
        <time>2017-07-08T09:08:33Z</time>
      </trkpt>
      <trkpt lat="45.90204" lon="4.72305">
        <ele>177</ele>
        <time>2017-07-08T09:08:35Z</time>
      </trkpt>
      <trkpt lat="45.90207" lon="4.72308">
        <ele>177</ele>
        <time>2017-07-08T09:08:36Z</time>
      </trkpt>
      <trkpt lat="45.90213" lon="4.72314">
        <ele>177</ele>
        <time>2017-07-08T09:08:38Z</time>
      </trkpt>
      <trkpt lat="45.90216" lon="4.72315">
        <ele>177</ele>
        <time>2017-07-08T09:08:39Z</time>
      </trkpt>
      <trkpt lat="45.90224" lon="4.72317">
        <ele>177</ele>
        <time>2017-07-08T09:08:42Z</time>
      </trkpt>
      <trkpt lat="45.90228" lon="4.72316">
        <ele>177</ele>
        <time>2017-07-08T09:08:43Z</time>
      </trkpt>
      <trkpt lat="45.90232" lon="4.72315">
        <ele>177</ele>
        <time>2017-07-08T09:08:44Z</time>
      </trkpt>
      <trkpt lat="45.90237" lon="4.72314">
        <ele>177</ele>
        <time>2017-07-08T09:08:45Z</time>
      </trkpt>
      <trkpt lat="45.90245" lon="4.72312">
        <ele>177</ele>
        <time>2017-07-08T09:08:47Z</time>
      </trkpt>
      <trkpt lat="45.90249" lon="4.7231">
        <ele>177</ele>
        <time>2017-07-08T09:08:48Z</time>
      </trkpt>
      <trkpt lat="45.90258" lon="4.72309">
        <ele>177</ele>
        <time>2017-07-08T09:08:50Z</time>
      </trkpt>
      <trkpt lat="45.90262" lon="4.72308">
        <ele>177</ele>
        <time>2017-07-08T09:08:51Z</time>
      </trkpt>
      <trkpt lat="45.9027" lon="4.72307">
        <ele>177</ele>
        <time>2017-07-08T09:08:53Z</time>
      </trkpt>
      <trkpt lat="45.90274" lon="4.72306">
        <ele>177</ele>
        <time>2017-07-08T09:08:54Z</time>
      </trkpt>
      <trkpt lat="45.9028" lon="4.72304">
        <ele>177</ele>
        <time>2017-07-08T09:08:56Z</time>
      </trkpt>
      <trkpt lat="45.90284" lon="4.72302">
        <ele>177</ele>
        <time>2017-07-08T09:08:57Z</time>
      </trkpt>
      <trkpt lat="45.90291" lon="4.723">
        <ele>177</ele>
        <time>2017-07-08T09:08:59Z</time>
      </trkpt>
      <trkpt lat="45.90295" lon="4.72299">
        <ele>177</ele>
        <time>2017-07-08T09:09:00Z</time>
      </trkpt>
      <trkpt lat="45.90302" lon="4.72298">
        <ele>177</ele>
        <time>2017-07-08T09:09:02Z</time>
      </trkpt>
      <trkpt lat="45.90306" lon="4.72296">
        <ele>177</ele>
        <time>2017-07-08T09:09:03Z</time>
      </trkpt>
      <trkpt lat="45.9031" lon="4.72293">
        <ele>177</ele>
        <time>2017-07-08T09:09:04Z</time>
      </trkpt>
      <trkpt lat="45.90314" lon="4.72291">
        <ele>177</ele>
        <time>2017-07-08T09:09:05Z</time>
      </trkpt>
      <trkpt lat="45.90322" lon="4.72288">
        <ele>177</ele>
        <time>2017-07-08T09:09:07Z</time>
      </trkpt>
      <trkpt lat="45.90325" lon="4.72287">
        <ele>177</ele>
        <time>2017-07-08T09:09:08Z</time>
      </trkpt>
      <trkpt lat="45.90332" lon="4.72285">
        <ele>177</ele>
        <time>2017-07-08T09:09:10Z</time>
      </trkpt>
      <trkpt lat="45.90335" lon="4.72284">
        <ele>178</ele>
        <time>2017-07-08T09:09:11Z</time>
      </trkpt>
      <trkpt lat="45.90341" lon="4.72282">
        <ele>178</ele>
        <time>2017-07-08T09:09:13Z</time>
      </trkpt>
      <trkpt lat="45.90344" lon="4.72281">
        <ele>178</ele>
        <time>2017-07-08T09:09:14Z</time>
      </trkpt>
      <trkpt lat="45.9035" lon="4.72278">
        <ele>178</ele>
        <time>2017-07-08T09:09:16Z</time>
      </trkpt>
      <trkpt lat="45.90353" lon="4.72277">
        <ele>178</ele>
        <time>2017-07-08T09:09:17Z</time>
      </trkpt>
      <trkpt lat="45.90361" lon="4.72274">
        <ele>178</ele>
        <time>2017-07-08T09:09:20Z</time>
      </trkpt>
      <trkpt lat="45.90365" lon="4.72273">
        <ele>178</ele>
        <time>2017-07-08T09:09:21Z</time>
      </trkpt>
      <trkpt lat="45.90371" lon="4.7227">
        <ele>178</ele>
        <time>2017-07-08T09:09:23Z</time>
      </trkpt>
      <trkpt lat="45.90374" lon="4.72269">
        <ele>178</ele>
        <time>2017-07-08T09:09:24Z</time>
      </trkpt>
      <trkpt lat="45.90381" lon="4.72265">
        <ele>178</ele>
        <time>2017-07-08T09:09:26Z</time>
      </trkpt>
      <trkpt lat="45.90384" lon="4.72264">
        <ele>178</ele>
        <time>2017-07-08T09:09:27Z</time>
      </trkpt>
      <trkpt lat="45.90392" lon="4.72259">
        <ele>178</ele>
        <time>2017-07-08T09:09:29Z</time>
      </trkpt>
      <trkpt lat="45.90396" lon="4.72257">
        <ele>178</ele>
        <time>2017-07-08T09:09:30Z</time>
      </trkpt>
      <trkpt lat="45.90404" lon="4.72253">
        <ele>178</ele>
        <time>2017-07-08T09:09:32Z</time>
      </trkpt>
      <trkpt lat="45.90408" lon="4.72251">
        <ele>179</ele>
        <time>2017-07-08T09:09:33Z</time>
      </trkpt>
      <trkpt lat="45.90414" lon="4.72247">
        <ele>179</ele>
        <time>2017-07-08T09:09:35Z</time>
      </trkpt>
      <trkpt lat="45.90417" lon="4.72246">
        <ele>179</ele>
        <time>2017-07-08T09:09:36Z</time>
      </trkpt>
      <trkpt lat="45.90424" lon="4.72242">
        <ele>179</ele>
        <time>2017-07-08T09:09:38Z</time>
      </trkpt>
      <trkpt lat="45.90427" lon="4.72241">
        <ele>179</ele>
        <time>2017-07-08T09:09:39Z</time>
      </trkpt>
      <trkpt lat="45.90434" lon="4.72237">
        <ele>179</ele>
        <time>2017-07-08T09:09:41Z</time>
      </trkpt>
      <trkpt lat="45.90437" lon="4.72234">
        <ele>179</ele>
        <time>2017-07-08T09:09:42Z</time>
      </trkpt>
      <trkpt lat="45.90444" lon="4.72228">
        <ele>179</ele>
        <time>2017-07-08T09:09:45Z</time>
      </trkpt>
      <trkpt lat="45.90447" lon="4.72226">
        <ele>179</ele>
        <time>2017-07-08T09:09:46Z</time>
      </trkpt>
      <trkpt lat="45.90452" lon="4.72222">
        <ele>179</ele>
        <time>2017-07-08T09:09:48Z</time>
      </trkpt>
      <trkpt lat="45.90455" lon="4.72219">
        <ele>179</ele>
        <time>2017-07-08T09:09:49Z</time>
      </trkpt>
      <trkpt lat="45.90462" lon="4.72215">
        <ele>179</ele>
        <time>2017-07-08T09:09:51Z</time>
      </trkpt>
      <trkpt lat="45.90465" lon="4.72213">
        <ele>179</ele>
        <time>2017-07-08T09:09:52Z</time>
      </trkpt>
      <trkpt lat="45.90471" lon="4.7221">
        <ele>179</ele>
        <time>2017-07-08T09:09:54Z</time>
      </trkpt>
      <trkpt lat="45.90474" lon="4.72209">
        <ele>179</ele>
        <time>2017-07-08T09:09:55Z</time>
      </trkpt>
      <trkpt lat="45.90482" lon="4.72205">
        <ele>178</ele>
        <time>2017-07-08T09:09:58Z</time>
      </trkpt>
      <trkpt lat="45.90485" lon="4.72203">
        <ele>178</ele>
        <time>2017-07-08T09:09:59Z</time>
      </trkpt>
      <trkpt lat="45.90492" lon="4.722">
        <ele>178</ele>
        <time>2017-07-08T09:10:01Z</time>
      </trkpt>
      <trkpt lat="45.90495" lon="4.72198">
        <ele>178</ele>
        <time>2017-07-08T09:10:02Z</time>
      </trkpt>
      <trkpt lat="45.90501" lon="4.72194">
        <ele>177</ele>
        <time>2017-07-08T09:10:04Z</time>
      </trkpt>
      <trkpt lat="45.90505" lon="4.72191">
        <ele>177</ele>
        <time>2017-07-08T09:10:05Z</time>
      </trkpt>
      <trkpt lat="45.90512" lon="4.72186">
        <ele>177</ele>
        <time>2017-07-08T09:10:08Z</time>
      </trkpt>
      <trkpt lat="45.90515" lon="4.72186">
        <ele>177</ele>
        <time>2017-07-08T09:10:09Z</time>
      </trkpt>
      <trkpt lat="45.90521" lon="4.72184">
        <ele>177</ele>
        <time>2017-07-08T09:10:11Z</time>
      </trkpt>
      <trkpt lat="45.90525" lon="4.72183">
        <ele>177</ele>
        <time>2017-07-08T09:10:12Z</time>
      </trkpt>
      <trkpt lat="45.90533" lon="4.72181">
        <ele>177</ele>
        <time>2017-07-08T09:10:14Z</time>
      </trkpt>
      <trkpt lat="45.90537" lon="4.7218">
        <ele>177</ele>
        <time>2017-07-08T09:10:15Z</time>
      </trkpt>
      <trkpt lat="45.90545" lon="4.72177">
        <ele>177</ele>
        <time>2017-07-08T09:10:17Z</time>
      </trkpt>
      <trkpt lat="45.9055" lon="4.72176">
        <ele>177</ele>
        <time>2017-07-08T09:10:18Z</time>
      </trkpt>
      <trkpt lat="45.90557" lon="4.72173">
        <ele>177</ele>
        <time>2017-07-08T09:10:20Z</time>
      </trkpt>
      <trkpt lat="45.90559" lon="4.72171">
        <ele>177</ele>
        <time>2017-07-08T09:10:21Z</time>
      </trkpt>
      <trkpt lat="45.90565" lon="4.72169">
        <ele>176</ele>
        <time>2017-07-08T09:10:23Z</time>
      </trkpt>
      <trkpt lat="45.90568" lon="4.72168">
        <ele>176</ele>
        <time>2017-07-08T09:10:24Z</time>
      </trkpt>
      <trkpt lat="45.90576" lon="4.72165">
        <ele>177</ele>
        <time>2017-07-08T09:10:27Z</time>
      </trkpt>
      <trkpt lat="45.90579" lon="4.72164">
        <ele>176</ele>
        <time>2017-07-08T09:10:28Z</time>
      </trkpt>
      <trkpt lat="45.90585" lon="4.72162">
        <ele>176</ele>
        <time>2017-07-08T09:10:30Z</time>
      </trkpt>
      <trkpt lat="45.90588" lon="4.72161">
        <ele>176</ele>
        <time>2017-07-08T09:10:31Z</time>
      </trkpt>
      <trkpt lat="45.90595" lon="4.72158">
        <ele>176</ele>
        <time>2017-07-08T09:10:33Z</time>
      </trkpt>
      <trkpt lat="45.90598" lon="4.72156">
        <ele>176</ele>
        <time>2017-07-08T09:10:34Z</time>
      </trkpt>
      <trkpt lat="45.90605" lon="4.72153">
        <ele>176</ele>
        <time>2017-07-08T09:10:36Z</time>
      </trkpt>
      <trkpt lat="45.90608" lon="4.7215">
        <ele>176</ele>
        <time>2017-07-08T09:10:37Z</time>
      </trkpt>
      <trkpt lat="45.90615" lon="4.72145">
        <ele>176</ele>
        <time>2017-07-08T09:10:39Z</time>
      </trkpt>
      <trkpt lat="45.90619" lon="4.72143">
        <ele>176</ele>
        <time>2017-07-08T09:10:40Z</time>
      </trkpt>
      <trkpt lat="45.90625" lon="4.72139">
        <ele>175</ele>
        <time>2017-07-08T09:10:42Z</time>
      </trkpt>
      <trkpt lat="45.90627" lon="4.72137">
        <ele>175</ele>
        <time>2017-07-08T09:10:43Z</time>
      </trkpt>
      <trkpt lat="45.90635" lon="4.72135">
        <ele>175</ele>
        <time>2017-07-08T09:10:46Z</time>
      </trkpt>
      <trkpt lat="45.90638" lon="4.72135">
        <ele>175</ele>
        <time>2017-07-08T09:10:47Z</time>
      </trkpt>
      <trkpt lat="45.90646" lon="4.72131">
        <ele>175</ele>
        <time>2017-07-08T09:10:50Z</time>
      </trkpt>
      <trkpt lat="45.90649" lon="4.72131">
        <ele>175</ele>
        <time>2017-07-08T09:10:51Z</time>
      </trkpt>
      <trkpt lat="45.90657" lon="4.72129">
        <ele>175</ele>
        <time>2017-07-08T09:10:53Z</time>
      </trkpt>
      <trkpt lat="45.9066" lon="4.72128">
        <ele>175</ele>
        <time>2017-07-08T09:10:54Z</time>
      </trkpt>
      <trkpt lat="45.90669" lon="4.72125">
        <ele>174</ele>
        <time>2017-07-08T09:10:56Z</time>
      </trkpt>
      <trkpt lat="45.90673" lon="4.72124">
        <ele>174</ele>
        <time>2017-07-08T09:10:57Z</time>
      </trkpt>
      <trkpt lat="45.9068" lon="4.72122">
        <ele>174</ele>
        <time>2017-07-08T09:10:59Z</time>
      </trkpt>
      <trkpt lat="45.90684" lon="4.72121">
        <ele>174</ele>
        <time>2017-07-08T09:11:00Z</time>
      </trkpt>
      <trkpt lat="45.90692" lon="4.72117">
        <ele>174</ele>
        <time>2017-07-08T09:11:02Z</time>
      </trkpt>
      <trkpt lat="45.90695" lon="4.72115">
        <ele>174</ele>
        <time>2017-07-08T09:11:03Z</time>
      </trkpt>
      <trkpt lat="45.90702" lon="4.72112">
        <ele>174</ele>
        <time>2017-07-08T09:11:05Z</time>
      </trkpt>
      <trkpt lat="45.90705" lon="4.7211">
        <ele>174</ele>
        <time>2017-07-08T09:11:06Z</time>
      </trkpt>
      <trkpt lat="45.90712" lon="4.72106">
        <ele>174</ele>
        <time>2017-07-08T09:11:08Z</time>
      </trkpt>
      <trkpt lat="45.90715" lon="4.72103">
        <ele>174</ele>
        <time>2017-07-08T09:11:09Z</time>
      </trkpt>
      <trkpt lat="45.90723" lon="4.72098">
        <ele>174</ele>
        <time>2017-07-08T09:11:11Z</time>
      </trkpt>
      <trkpt lat="45.90727" lon="4.72095">
        <ele>174</ele>
        <time>2017-07-08T09:11:12Z</time>
      </trkpt>
      <trkpt lat="45.9073" lon="4.72091">
        <ele>174</ele>
        <time>2017-07-08T09:11:13Z</time>
      </trkpt>
      <trkpt lat="45.90735" lon="4.72088">
        <ele>174</ele>
        <time>2017-07-08T09:11:14Z</time>
      </trkpt>
      <trkpt lat="45.90739" lon="4.72085">
        <ele>174</ele>
        <time>2017-07-08T09:11:15Z</time>
      </trkpt>
      <trkpt lat="45.90743" lon="4.72081">
        <ele>174</ele>
        <time>2017-07-08T09:11:16Z</time>
      </trkpt>
      <trkpt lat="45.90751" lon="4.72076">
        <ele>174</ele>
        <time>2017-07-08T09:11:18Z</time>
      </trkpt>
      <trkpt lat="45.90754" lon="4.72073">
        <ele>174</ele>
        <time>2017-07-08T09:11:19Z</time>
      </trkpt>
      <trkpt lat="45.90762" lon="4.72068">
        <ele>174</ele>
        <time>2017-07-08T09:11:21Z</time>
      </trkpt>
      <trkpt lat="45.90765" lon="4.72066">
        <ele>174</ele>
        <time>2017-07-08T09:11:22Z</time>
      </trkpt>
      <trkpt lat="45.90771" lon="4.72062">
        <ele>175</ele>
        <time>2017-07-08T09:11:24Z</time>
      </trkpt>
      <trkpt lat="45.90774" lon="4.7206">
        <ele>175</ele>
        <time>2017-07-08T09:11:25Z</time>
      </trkpt>
      <trkpt lat="45.90781" lon="4.72056">
        <ele>175</ele>
        <time>2017-07-08T09:11:27Z</time>
      </trkpt>
      <trkpt lat="45.90785" lon="4.72055">
        <ele>175</ele>
        <time>2017-07-08T09:11:28Z</time>
      </trkpt>
      <trkpt lat="45.90792" lon="4.72051">
        <ele>175</ele>
        <time>2017-07-08T09:11:30Z</time>
      </trkpt>
      <trkpt lat="45.90797" lon="4.7205">
        <ele>175</ele>
        <time>2017-07-08T09:11:31Z</time>
      </trkpt>
      <trkpt lat="45.90801" lon="4.72048">
        <ele>175</ele>
        <time>2017-07-08T09:11:32Z</time>
      </trkpt>
      <trkpt lat="45.90806" lon="4.72046">
        <ele>175</ele>
        <time>2017-07-08T09:11:33Z</time>
      </trkpt>
      <trkpt lat="45.9081" lon="4.72045">
        <ele>175</ele>
        <time>2017-07-08T09:11:34Z</time>
      </trkpt>
      <trkpt lat="45.90815" lon="4.72042">
        <ele>175</ele>
        <time>2017-07-08T09:11:35Z</time>
      </trkpt>
      <trkpt lat="45.9082" lon="4.7204">
        <ele>175</ele>
        <time>2017-07-08T09:11:36Z</time>
      </trkpt>
      <trkpt lat="45.90824" lon="4.72037">
        <ele>175</ele>
        <time>2017-07-08T09:11:37Z</time>
      </trkpt>
      <trkpt lat="45.90829" lon="4.72034">
        <ele>175</ele>
        <time>2017-07-08T09:11:38Z</time>
      </trkpt>
      <trkpt lat="45.90833" lon="4.72031">
        <ele>175</ele>
        <time>2017-07-08T09:11:39Z</time>
      </trkpt>
      <trkpt lat="45.90837" lon="4.72028">
        <ele>174</ele>
        <time>2017-07-08T09:11:40Z</time>
      </trkpt>
      <trkpt lat="45.90841" lon="4.72026">
        <ele>174</ele>
        <time>2017-07-08T09:11:41Z</time>
      </trkpt>
      <trkpt lat="45.90849" lon="4.72022">
        <ele>174</ele>
        <time>2017-07-08T09:11:43Z</time>
      </trkpt>
      <trkpt lat="45.90853" lon="4.7202">
        <ele>174</ele>
        <time>2017-07-08T09:11:44Z</time>
      </trkpt>
      <trkpt lat="45.9086" lon="4.72016">
        <ele>174</ele>
        <time>2017-07-08T09:11:46Z</time>
      </trkpt>
      <trkpt lat="45.90863" lon="4.72014">
        <ele>174</ele>
        <time>2017-07-08T09:11:47Z</time>
      </trkpt>
      <trkpt lat="45.90871" lon="4.7201">
        <ele>174</ele>
        <time>2017-07-08T09:11:49Z</time>
      </trkpt>
      <trkpt lat="45.90875" lon="4.72008">
        <ele>174</ele>
        <time>2017-07-08T09:11:50Z</time>
      </trkpt>
      <trkpt lat="45.9088" lon="4.72006">
        <ele>174</ele>
        <time>2017-07-08T09:11:51Z</time>
      </trkpt>
      <trkpt lat="45.90884" lon="4.72004">
        <ele>174</ele>
        <time>2017-07-08T09:11:52Z</time>
      </trkpt>
      <trkpt lat="45.90889" lon="4.72002">
        <ele>174</ele>
        <time>2017-07-08T09:11:53Z</time>
      </trkpt>
      <trkpt lat="45.90894" lon="4.72">
        <ele>174</ele>
        <time>2017-07-08T09:11:54Z</time>
      </trkpt>
      <trkpt lat="45.90898" lon="4.71998">
        <ele>174</ele>
        <time>2017-07-08T09:11:55Z</time>
      </trkpt>
      <trkpt lat="45.90903" lon="4.71995">
        <ele>174</ele>
        <time>2017-07-08T09:11:56Z</time>
      </trkpt>
      <trkpt lat="45.90907" lon="4.71994">
        <ele>174</ele>
        <time>2017-07-08T09:11:57Z</time>
      </trkpt>
      <trkpt lat="45.90911" lon="4.71991">
        <ele>174</ele>
        <time>2017-07-08T09:11:58Z</time>
      </trkpt>
      <trkpt lat="45.90919" lon="4.71987">
        <ele>174</ele>
        <time>2017-07-08T09:12:00Z</time>
      </trkpt>
      <trkpt lat="45.90923" lon="4.71985">
        <ele>174</ele>
        <time>2017-07-08T09:12:01Z</time>
      </trkpt>
      <trkpt lat="45.9093" lon="4.71982">
        <ele>174</ele>
        <time>2017-07-08T09:12:03Z</time>
      </trkpt>
      <trkpt lat="45.90933" lon="4.7198">
        <ele>174</ele>
        <time>2017-07-08T09:12:04Z</time>
      </trkpt>
      <trkpt lat="45.90939" lon="4.71976">
        <ele>174</ele>
        <time>2017-07-08T09:12:06Z</time>
      </trkpt>
      <trkpt lat="45.90942" lon="4.71975">
        <ele>174</ele>
        <time>2017-07-08T09:12:07Z</time>
      </trkpt>
      <trkpt lat="45.90948" lon="4.71972">
        <ele>174</ele>
        <time>2017-07-08T09:12:09Z</time>
      </trkpt>
      <trkpt lat="45.90952" lon="4.7197">
        <ele>174</ele>
        <time>2017-07-08T09:12:10Z</time>
      </trkpt>
      <trkpt lat="45.9096" lon="4.71964">
        <ele>174</ele>
        <time>2017-07-08T09:12:12Z</time>
      </trkpt>
      <trkpt lat="45.90964" lon="4.71962">
        <ele>174</ele>
        <time>2017-07-08T09:12:13Z</time>
      </trkpt>
      <trkpt lat="45.90972" lon="4.71957">
        <ele>174</ele>
        <time>2017-07-08T09:12:15Z</time>
      </trkpt>
      <trkpt lat="45.90976" lon="4.71955">
        <ele>174</ele>
        <time>2017-07-08T09:12:16Z</time>
      </trkpt>
      <trkpt lat="45.9098" lon="4.71952">
        <ele>174</ele>
        <time>2017-07-08T09:12:17Z</time>
      </trkpt>
      <trkpt lat="45.90985" lon="4.71949">
        <ele>174</ele>
        <time>2017-07-08T09:12:18Z</time>
      </trkpt>
      <trkpt lat="45.90989" lon="4.71947">
        <ele>174</ele>
        <time>2017-07-08T09:12:19Z</time>
      </trkpt>
      <trkpt lat="45.90993" lon="4.71945">
        <ele>174</ele>
        <time>2017-07-08T09:12:20Z</time>
      </trkpt>
      <trkpt lat="45.91002" lon="4.71942">
        <ele>173</ele>
        <time>2017-07-08T09:12:22Z</time>
      </trkpt>
      <trkpt lat="45.91005" lon="4.71942">
        <ele>174</ele>
        <time>2017-07-08T09:12:23Z</time>
      </trkpt>
      <trkpt lat="45.91013" lon="4.7194">
        <ele>174</ele>
        <time>2017-07-08T09:12:25Z</time>
      </trkpt>
      <trkpt lat="45.91017" lon="4.7194">
        <ele>174</ele>
        <time>2017-07-08T09:12:26Z</time>
      </trkpt>
      <trkpt lat="45.91025" lon="4.71939">
        <ele>174</ele>
        <time>2017-07-08T09:12:28Z</time>
      </trkpt>
      <trkpt lat="45.91029" lon="4.71939">
        <ele>174</ele>
        <time>2017-07-08T09:12:29Z</time>
      </trkpt>
      <trkpt lat="45.91034" lon="4.71939">
        <ele>174</ele>
        <time>2017-07-08T09:12:30Z</time>
      </trkpt>
      <trkpt lat="45.91038" lon="4.7194">
        <ele>174</ele>
        <time>2017-07-08T09:12:31Z</time>
      </trkpt>
      <trkpt lat="45.91047" lon="4.71941">
        <ele>174</ele>
        <time>2017-07-08T09:12:33Z</time>
      </trkpt>
      <trkpt lat="45.91051" lon="4.71942">
        <ele>174</ele>
        <time>2017-07-08T09:12:34Z</time>
      </trkpt>
      <trkpt lat="45.91058" lon="4.71943">
        <ele>174</ele>
        <time>2017-07-08T09:12:36Z</time>
      </trkpt>
      <trkpt lat="45.91062" lon="4.71943">
        <ele>174</ele>
        <time>2017-07-08T09:12:37Z</time>
      </trkpt>
      <trkpt lat="45.91068" lon="4.71943">
        <ele>174</ele>
        <time>2017-07-08T09:12:39Z</time>
      </trkpt>
      <trkpt lat="45.91071" lon="4.71944">
        <ele>174</ele>
        <time>2017-07-08T09:12:40Z</time>
      </trkpt>
      <trkpt lat="45.91078" lon="4.71943">
        <ele>174</ele>
        <time>2017-07-08T09:12:42Z</time>
      </trkpt>
      <trkpt lat="45.91082" lon="4.71942">
        <ele>174</ele>
        <time>2017-07-08T09:12:43Z</time>
      </trkpt>
      <trkpt lat="45.9109" lon="4.71938">
        <ele>174</ele>
        <time>2017-07-08T09:12:45Z</time>
      </trkpt>
      <trkpt lat="45.91094" lon="4.71936">
        <ele>174</ele>
        <time>2017-07-08T09:12:46Z</time>
      </trkpt>
      <trkpt lat="45.91099" lon="4.71934">
        <ele>174</ele>
        <time>2017-07-08T09:12:47Z</time>
      </trkpt>
      <trkpt lat="45.91103" lon="4.71932">
        <ele>174</ele>
        <time>2017-07-08T09:12:48Z</time>
      </trkpt>
      <trkpt lat="45.91107" lon="4.7193">
        <ele>174</ele>
        <time>2017-07-08T09:12:49Z</time>
      </trkpt>
      <trkpt lat="45.91111" lon="4.71927">
        <ele>174</ele>
        <time>2017-07-08T09:12:50Z</time>
      </trkpt>
      <trkpt lat="45.91119" lon="4.71922">
        <ele>174</ele>
        <time>2017-07-08T09:12:52Z</time>
      </trkpt>
      <trkpt lat="45.91123" lon="4.71919">
        <ele>175</ele>
        <time>2017-07-08T09:12:53Z</time>
      </trkpt>
      <trkpt lat="45.91131" lon="4.71914">
        <ele>175</ele>
        <time>2017-07-08T09:12:55Z</time>
      </trkpt>
      <trkpt lat="45.91134" lon="4.71912">
        <ele>175</ele>
        <time>2017-07-08T09:12:56Z</time>
      </trkpt>
      <trkpt lat="45.91141" lon="4.71909">
        <ele>175</ele>
        <time>2017-07-08T09:12:58Z</time>
      </trkpt>
      <trkpt lat="45.91146" lon="4.71908">
        <ele>175</ele>
        <time>2017-07-08T09:12:59Z</time>
      </trkpt>
      <trkpt lat="45.91153" lon="4.71905">
        <ele>175</ele>
        <time>2017-07-08T09:13:01Z</time>
      </trkpt>
      <trkpt lat="45.91157" lon="4.71904">
        <ele>175</ele>
        <time>2017-07-08T09:13:02Z</time>
      </trkpt>
      <trkpt lat="45.91162" lon="4.71905">
        <ele>176</ele>
        <time>2017-07-08T09:13:03Z</time>
      </trkpt>
      <trkpt lat="45.91166" lon="4.71905">
        <ele>176</ele>
        <time>2017-07-08T09:13:04Z</time>
      </trkpt>
      <trkpt lat="45.91171" lon="4.71905">
        <ele>176</ele>
        <time>2017-07-08T09:13:05Z</time>
      </trkpt>
      <trkpt lat="45.91176" lon="4.71907">
        <ele>176</ele>
        <time>2017-07-08T09:13:06Z</time>
      </trkpt>
      <trkpt lat="45.91181" lon="4.7191">
        <ele>176</ele>
        <time>2017-07-08T09:13:07Z</time>
      </trkpt>
      <trkpt lat="45.91185" lon="4.71912">
        <ele>176</ele>
        <time>2017-07-08T09:13:08Z</time>
      </trkpt>
      <trkpt lat="45.9119" lon="4.71912">
        <ele>176</ele>
        <time>2017-07-08T09:13:09Z</time>
      </trkpt>
      <trkpt lat="45.91195" lon="4.71912">
        <ele>176</ele>
        <time>2017-07-08T09:13:10Z</time>
      </trkpt>
      <trkpt lat="45.91203" lon="4.71913">
        <ele>176</ele>
        <time>2017-07-08T09:13:12Z</time>
      </trkpt>
      <trkpt lat="45.91207" lon="4.71914">
        <ele>176</ele>
        <time>2017-07-08T09:13:13Z</time>
      </trkpt>
      <trkpt lat="45.91215" lon="4.71916">
        <ele>176</ele>
        <time>2017-07-08T09:13:15Z</time>
      </trkpt>
      <trkpt lat="45.91219" lon="4.71917">
        <ele>176</ele>
        <time>2017-07-08T09:13:16Z</time>
      </trkpt>
      <trkpt lat="45.91226" lon="4.71921">
        <ele>176</ele>
        <time>2017-07-08T09:13:18Z</time>
      </trkpt>
      <trkpt lat="45.91229" lon="4.71923">
        <ele>176</ele>
        <time>2017-07-08T09:13:19Z</time>
      </trkpt>
      <trkpt lat="45.91236" lon="4.71925">
        <ele>176</ele>
        <time>2017-07-08T09:13:21Z</time>
      </trkpt>
      <trkpt lat="45.91239" lon="4.71926">
        <ele>176</ele>
        <time>2017-07-08T09:13:22Z</time>
      </trkpt>
      <trkpt lat="45.91246" lon="4.71927">
        <ele>176</ele>
        <time>2017-07-08T09:13:24Z</time>
      </trkpt>
      <trkpt lat="45.91249" lon="4.71929">
        <ele>176</ele>
        <time>2017-07-08T09:13:25Z</time>
      </trkpt>
      <trkpt lat="45.91255" lon="4.71931">
        <ele>176</ele>
        <time>2017-07-08T09:13:27Z</time>
      </trkpt>
      <trkpt lat="45.91258" lon="4.71932">
        <ele>176</ele>
        <time>2017-07-08T09:13:28Z</time>
      </trkpt>
      <trkpt lat="45.91266" lon="4.71934">
        <ele>175</ele>
        <time>2017-07-08T09:13:30Z</time>
      </trkpt>
      <trkpt lat="45.9127" lon="4.71936">
        <ele>175</ele>
        <time>2017-07-08T09:13:31Z</time>
      </trkpt>
      <trkpt lat="45.91275" lon="4.71937">
        <ele>175</ele>
        <time>2017-07-08T09:13:32Z</time>
      </trkpt>
      <trkpt lat="45.9128" lon="4.71939">
        <ele>175</ele>
        <time>2017-07-08T09:13:33Z</time>
      </trkpt>
      <trkpt lat="45.91284" lon="4.7194">
        <ele>175</ele>
        <time>2017-07-08T09:13:34Z</time>
      </trkpt>
      <trkpt lat="45.91288" lon="4.71942">
        <ele>175</ele>
        <time>2017-07-08T09:13:35Z</time>
      </trkpt>
      <trkpt lat="45.91293" lon="4.71944">
        <ele>175</ele>
        <time>2017-07-08T09:13:36Z</time>
      </trkpt>
      <trkpt lat="45.91297" lon="4.71945">
        <ele>175</ele>
        <time>2017-07-08T09:13:37Z</time>
      </trkpt>
      <trkpt lat="45.91305" lon="4.71948">
        <ele>174</ele>
        <time>2017-07-08T09:13:39Z</time>
      </trkpt>
      <trkpt lat="45.91309" lon="4.7195">
        <ele>174</ele>
        <time>2017-07-08T09:13:40Z</time>
      </trkpt>
      <trkpt lat="45.91316" lon="4.71955">
        <ele>174</ele>
        <time>2017-07-08T09:13:42Z</time>
      </trkpt>
      <trkpt lat="45.9132" lon="4.71957">
        <ele>174</ele>
        <time>2017-07-08T09:13:43Z</time>
      </trkpt>
      <trkpt lat="45.91327" lon="4.7196">
        <ele>174</ele>
        <time>2017-07-08T09:13:45Z</time>
      </trkpt>
      <trkpt lat="45.91329" lon="4.71961">
        <ele>174</ele>
        <time>2017-07-08T09:13:46Z</time>
      </trkpt>
      <trkpt lat="45.91335" lon="4.71965">
        <ele>173</ele>
        <time>2017-07-08T09:13:48Z</time>
      </trkpt>
      <trkpt lat="45.91339" lon="4.71966">
        <ele>173</ele>
        <time>2017-07-08T09:13:49Z</time>
      </trkpt>
      <trkpt lat="45.91347" lon="4.71968">
        <ele>173</ele>
        <time>2017-07-08T09:13:51Z</time>
      </trkpt>
      <trkpt lat="45.91351" lon="4.71969">
        <ele>173</ele>
        <time>2017-07-08T09:13:52Z</time>
      </trkpt>
      <trkpt lat="45.91356" lon="4.7197">
        <ele>173</ele>
        <time>2017-07-08T09:13:53Z</time>
      </trkpt>
      <trkpt lat="45.91361" lon="4.7197">
        <ele>173</ele>
        <time>2017-07-08T09:13:54Z</time>
      </trkpt>
      <trkpt lat="45.91365" lon="4.71971">
        <ele>173</ele>
        <time>2017-07-08T09:13:55Z</time>
      </trkpt>
      <trkpt lat="45.9137" lon="4.71971">
        <ele>173</ele>
        <time>2017-07-08T09:13:56Z</time>
      </trkpt>
      <trkpt lat="45.91379" lon="4.71971">
        <ele>174</ele>
        <time>2017-07-08T09:13:58Z</time>
      </trkpt>
      <trkpt lat="45.91383" lon="4.71971">
        <ele>174</ele>
        <time>2017-07-08T09:13:59Z</time>
      </trkpt>
      <trkpt lat="45.91391" lon="4.71969">
        <ele>174</ele>
        <time>2017-07-08T09:14:01Z</time>
      </trkpt>
      <trkpt lat="45.91394" lon="4.71967">
        <ele>174</ele>
        <time>2017-07-08T09:14:02Z</time>
      </trkpt>
      <trkpt lat="45.91401" lon="4.71963">
        <ele>174</ele>
        <time>2017-07-08T09:14:04Z</time>
      </trkpt>
      <trkpt lat="45.91404" lon="4.71961">
        <ele>174</ele>
        <time>2017-07-08T09:14:05Z</time>
      </trkpt>
      <trkpt lat="45.9141" lon="4.71955">
        <ele>173</ele>
        <time>2017-07-08T09:14:07Z</time>
      </trkpt>
      <trkpt lat="45.91413" lon="4.71951">
        <ele>173</ele>
        <time>2017-07-08T09:14:08Z</time>
      </trkpt>
      <trkpt lat="45.9142" lon="4.71945">
        <ele>173</ele>
        <time>2017-07-08T09:14:10Z</time>
      </trkpt>
      <trkpt lat="45.91424" lon="4.71942">
        <ele>173</ele>
        <time>2017-07-08T09:14:11Z</time>
      </trkpt>
      <trkpt lat="45.91431" lon="4.71937">
        <ele>173</ele>
        <time>2017-07-08T09:14:13Z</time>
      </trkpt>
      <trkpt lat="45.91435" lon="4.71935">
        <ele>173</ele>
        <time>2017-07-08T09:14:14Z</time>
      </trkpt>
      <trkpt lat="45.91443" lon="4.7193">
        <ele>173</ele>
        <time>2017-07-08T09:14:16Z</time>
      </trkpt>
      <trkpt lat="45.91447" lon="4.71928">
        <ele>173</ele>
        <time>2017-07-08T09:14:17Z</time>
      </trkpt>
      <trkpt lat="45.91455" lon="4.71924">
        <ele>173</ele>
        <time>2017-07-08T09:14:19Z</time>
      </trkpt>
      <trkpt lat="45.91459" lon="4.71921">
        <ele>173</ele>
        <time>2017-07-08T09:14:20Z</time>
      </trkpt>
      <trkpt lat="45.91465" lon="4.71917">
        <ele>173</ele>
        <time>2017-07-08T09:14:22Z</time>
      </trkpt>
      <trkpt lat="45.91469" lon="4.71915">
        <ele>173</ele>
        <time>2017-07-08T09:14:23Z</time>
      </trkpt>
      <trkpt lat="45.91475" lon="4.71912">
        <ele>173</ele>
        <time>2017-07-08T09:14:25Z</time>
      </trkpt>
      <trkpt lat="45.91478" lon="4.71911">
        <ele>173</ele>
        <time>2017-07-08T09:14:26Z</time>
      </trkpt>
      <trkpt lat="45.91484" lon="4.71907">
        <ele>173</ele>
        <time>2017-07-08T09:14:28Z</time>
      </trkpt>
      <trkpt lat="45.91487" lon="4.71905">
        <ele>173</ele>
        <time>2017-07-08T09:14:29Z</time>
      </trkpt>
      <trkpt lat="45.91494" lon="4.71901">
        <ele>173</ele>
        <time>2017-07-08T09:14:31Z</time>
      </trkpt>
      <trkpt lat="45.91497" lon="4.71899">
        <ele>173</ele>
        <time>2017-07-08T09:14:32Z</time>
      </trkpt>
      <trkpt lat="45.91502" lon="4.71892">
        <ele>173</ele>
        <time>2017-07-08T09:14:34Z</time>
      </trkpt>
      <trkpt lat="45.91504" lon="4.7189">
        <ele>173</ele>
        <time>2017-07-08T09:14:35Z</time>
      </trkpt>
      <trkpt lat="45.91509" lon="4.71884">
        <ele>173</ele>
        <time>2017-07-08T09:14:37Z</time>
      </trkpt>
      <trkpt lat="45.91511" lon="4.7188">
        <ele>173</ele>
        <time>2017-07-08T09:14:38Z</time>
      </trkpt>
      <trkpt lat="45.91514" lon="4.71874">
        <ele>174</ele>
        <time>2017-07-08T09:14:40Z</time>
      </trkpt>
      <trkpt lat="45.91516" lon="4.71869">
        <ele>174</ele>
        <time>2017-07-08T09:14:41Z</time>
      </trkpt>
      <trkpt lat="45.91518" lon="4.71864">
        <ele>174</ele>
        <time>2017-07-08T09:14:42Z</time>
      </trkpt>
      <trkpt lat="45.9152" lon="4.71856">
        <ele>174</ele>
        <time>2017-07-08T09:14:43Z</time>
      </trkpt>
      <trkpt lat="45.91522" lon="4.71849">
        <ele>174</ele>
        <time>2017-07-08T09:14:44Z</time>
      </trkpt>
      <trkpt lat="45.91524" lon="4.71842">
        <ele>174</ele>
        <time>2017-07-08T09:14:45Z</time>
      </trkpt>
      <trkpt lat="45.91527" lon="4.71832">
        <ele>174</ele>
        <time>2017-07-08T09:14:47Z</time>
      </trkpt>
      <trkpt lat="45.91528" lon="4.71827">
        <ele>174</ele>
        <time>2017-07-08T09:14:48Z</time>
      </trkpt>
      <trkpt lat="45.91531" lon="4.71819">
        <ele>174</ele>
        <time>2017-07-08T09:14:50Z</time>
      </trkpt>
      <trkpt lat="45.91533" lon="4.71814">
        <ele>174</ele>
        <time>2017-07-08T09:14:51Z</time>
      </trkpt>
      <trkpt lat="45.91537" lon="4.71807">
        <ele>174</ele>
        <time>2017-07-08T09:14:53Z</time>
      </trkpt>
      <trkpt lat="45.91538" lon="4.71803">
        <ele>174</ele>
        <time>2017-07-08T09:14:54Z</time>
      </trkpt>
      <trkpt lat="45.91543" lon="4.71793">
        <ele>174</ele>
        <time>2017-07-08T09:14:57Z</time>
      </trkpt>
      <trkpt lat="45.91545" lon="4.7179">
        <ele>174</ele>
        <time>2017-07-08T09:14:58Z</time>
      </trkpt>
      <trkpt lat="45.9155" lon="4.71783">
        <ele>174</ele>
        <time>2017-07-08T09:15:00Z</time>
      </trkpt>
      <trkpt lat="45.91553" lon="4.71779">
        <ele>174</ele>
        <time>2017-07-08T09:15:01Z</time>
      </trkpt>
      <trkpt lat="45.91558" lon="4.71772">
        <ele>174</ele>
        <time>2017-07-08T09:15:03Z</time>
      </trkpt>
      <trkpt lat="45.91561" lon="4.71769">
        <ele>174</ele>
        <time>2017-07-08T09:15:04Z</time>
      </trkpt>
      <trkpt lat="45.91566" lon="4.71762">
        <ele>174</ele>
        <time>2017-07-08T09:15:06Z</time>
      </trkpt>
      <trkpt lat="45.91569" lon="4.71759">
        <ele>174</ele>
        <time>2017-07-08T09:15:07Z</time>
      </trkpt>
      <trkpt lat="45.91576" lon="4.71753">
        <ele>174</ele>
        <time>2017-07-08T09:15:09Z</time>
      </trkpt>
      <trkpt lat="45.91579" lon="4.7175">
        <ele>174</ele>
        <time>2017-07-08T09:15:10Z</time>
      </trkpt>
      <trkpt lat="45.91586" lon="4.71744">
        <ele>174</ele>
        <time>2017-07-08T09:15:12Z</time>
      </trkpt>
      <trkpt lat="45.91589" lon="4.71741">
        <ele>174</ele>
        <time>2017-07-08T09:15:13Z</time>
      </trkpt>
      <trkpt lat="45.91597" lon="4.71735">
        <ele>173</ele>
        <time>2017-07-08T09:15:15Z</time>
      </trkpt>
      <trkpt lat="45.916" lon="4.71733">
        <ele>173</ele>
        <time>2017-07-08T09:15:16Z</time>
      </trkpt>
      <trkpt lat="45.91608" lon="4.71729">
        <ele>173</ele>
        <time>2017-07-08T09:15:18Z</time>
      </trkpt>
      <trkpt lat="45.91611" lon="4.71729">
        <ele>173</ele>
        <time>2017-07-08T09:15:19Z</time>
      </trkpt>
      <trkpt lat="45.91618" lon="4.71726">
        <ele>173</ele>
        <time>2017-07-08T09:15:21Z</time>
      </trkpt>
      <trkpt lat="45.91621" lon="4.71726">
        <ele>173</ele>
        <time>2017-07-08T09:15:22Z</time>
      </trkpt>
      <trkpt lat="45.91629" lon="4.71725">
        <ele>173</ele>
        <time>2017-07-08T09:15:25Z</time>
      </trkpt>
      <trkpt lat="45.91631" lon="4.71726">
        <ele>173</ele>
        <time>2017-07-08T09:15:26Z</time>
      </trkpt>
      <trkpt lat="45.91634" lon="4.71734">
        <ele>173</ele>
        <time>2017-07-08T09:15:29Z</time>
      </trkpt>
      <trkpt lat="45.91635" lon="4.71739">
        <ele>173</ele>
        <time>2017-07-08T09:15:30Z</time>
      </trkpt>
      <trkpt lat="45.91639" lon="4.71748">
        <ele>173</ele>
        <time>2017-07-08T09:15:32Z</time>
      </trkpt>
      <trkpt lat="45.91642" lon="4.71753">
        <ele>173</ele>
        <time>2017-07-08T09:15:33Z</time>
      </trkpt>
      <trkpt lat="45.91647" lon="4.71761">
        <ele>173</ele>
        <time>2017-07-08T09:15:35Z</time>
      </trkpt>
      <trkpt lat="45.91651" lon="4.71765">
        <ele>173</ele>
        <time>2017-07-08T09:15:36Z</time>
      </trkpt>
      <trkpt lat="45.91658" lon="4.7177">
        <ele>173</ele>
        <time>2017-07-08T09:15:38Z</time>
      </trkpt>
      <trkpt lat="45.91662" lon="4.71771">
        <ele>173</ele>
        <time>2017-07-08T09:15:39Z</time>
      </trkpt>
      <trkpt lat="45.91669" lon="4.71774">
        <ele>173</ele>
        <time>2017-07-08T09:15:41Z</time>
      </trkpt>
      <trkpt lat="45.91673" lon="4.71774">
        <ele>173</ele>
        <time>2017-07-08T09:15:42Z</time>
      </trkpt>
      <trkpt lat="45.91681" lon="4.71775">
        <ele>173</ele>
        <time>2017-07-08T09:15:44Z</time>
      </trkpt>
      <trkpt lat="45.91685" lon="4.71775">
        <ele>173</ele>
        <time>2017-07-08T09:15:45Z</time>
      </trkpt>
      <trkpt lat="45.91694" lon="4.71777">
        <ele>173</ele>
        <time>2017-07-08T09:15:47Z</time>
      </trkpt>
      <trkpt lat="45.91699" lon="4.71778">
        <ele>173</ele>
        <time>2017-07-08T09:15:48Z</time>
      </trkpt>
      <trkpt lat="45.91703" lon="4.71778">
        <ele>173</ele>
        <time>2017-07-08T09:15:49Z</time>
      </trkpt>
      <trkpt lat="45.91708" lon="4.71779">
        <ele>173</ele>
        <time>2017-07-08T09:15:50Z</time>
      </trkpt>
      <trkpt lat="45.91713" lon="4.71779">
        <ele>173</ele>
        <time>2017-07-08T09:15:51Z</time>
      </trkpt>
      <trkpt lat="45.91718" lon="4.71779">
        <ele>173</ele>
        <time>2017-07-08T09:15:52Z</time>
      </trkpt>
      <trkpt lat="45.91726" lon="4.71779">
        <ele>173</ele>
        <time>2017-07-08T09:15:54Z</time>
      </trkpt>
      <trkpt lat="45.9173" lon="4.7178">
        <ele>173</ele>
        <time>2017-07-08T09:15:55Z</time>
      </trkpt>
      <trkpt lat="45.91738" lon="4.71782">
        <ele>173</ele>
        <time>2017-07-08T09:15:57Z</time>
      </trkpt>
      <trkpt lat="45.91741" lon="4.71782">
        <ele>173</ele>
        <time>2017-07-08T09:15:58Z</time>
      </trkpt>
      <trkpt lat="45.9175" lon="4.71783">
        <ele>173</ele>
        <time>2017-07-08T09:16:00Z</time>
      </trkpt>
      <trkpt lat="45.91754" lon="4.71784">
        <ele>173</ele>
        <time>2017-07-08T09:16:01Z</time>
      </trkpt>
      <trkpt lat="45.91759" lon="4.71785">
        <ele>173</ele>
        <time>2017-07-08T09:16:02Z</time>
      </trkpt>
      <trkpt lat="45.91764" lon="4.71785">
        <ele>173</ele>
        <time>2017-07-08T09:16:03Z</time>
      </trkpt>
      <trkpt lat="45.91768" lon="4.71784">
        <ele>173</ele>
        <time>2017-07-08T09:16:04Z</time>
      </trkpt>
      <trkpt lat="45.91773" lon="4.71784">
        <ele>173</ele>
        <time>2017-07-08T09:16:05Z</time>
      </trkpt>
      <trkpt lat="45.91778" lon="4.71784">
        <ele>173</ele>
        <time>2017-07-08T09:16:06Z</time>
      </trkpt>
      <trkpt lat="45.91782" lon="4.71784">
        <ele>173</ele>
        <time>2017-07-08T09:16:07Z</time>
      </trkpt>
      <trkpt lat="45.91791" lon="4.71785">
        <ele>173</ele>
        <time>2017-07-08T09:16:09Z</time>
      </trkpt>
      <trkpt lat="45.91795" lon="4.71784">
        <ele>172</ele>
        <time>2017-07-08T09:16:10Z</time>
      </trkpt>
      <trkpt lat="45.91802" lon="4.71784">
        <ele>172</ele>
        <time>2017-07-08T09:16:12Z</time>
      </trkpt>
      <trkpt lat="45.91805" lon="4.71783">
        <ele>172</ele>
        <time>2017-07-08T09:16:13Z</time>
      </trkpt>
      <trkpt lat="45.91812" lon="4.71783">
        <ele>172</ele>
        <time>2017-07-08T09:16:15Z</time>
      </trkpt>
      <trkpt lat="45.91814" lon="4.71783">
        <ele>172</ele>
        <time>2017-07-08T09:16:16Z</time>
      </trkpt>
      <trkpt lat="45.9182" lon="4.71783">
        <ele>172</ele>
        <time>2017-07-08T09:16:18Z</time>
      </trkpt>
      <trkpt lat="45.91824" lon="4.71783">
        <ele>172</ele>
        <time>2017-07-08T09:16:19Z</time>
      </trkpt>
      <trkpt lat="45.91832" lon="4.71782">
        <ele>172</ele>
        <time>2017-07-08T09:16:21Z</time>
      </trkpt>
      <trkpt lat="45.91837" lon="4.71782">
        <ele>172</ele>
        <time>2017-07-08T09:16:22Z</time>
      </trkpt>
      <trkpt lat="45.91846" lon="4.7178">
        <ele>172</ele>
        <time>2017-07-08T09:16:24Z</time>
      </trkpt>
      <trkpt lat="45.9185" lon="4.71779">
        <ele>172</ele>
        <time>2017-07-08T09:16:25Z</time>
      </trkpt>
      <trkpt lat="45.91858" lon="4.71778">
        <ele>172</ele>
        <time>2017-07-08T09:16:27Z</time>
      </trkpt>
      <trkpt lat="45.91861" lon="4.71777">
        <ele>172</ele>
        <time>2017-07-08T09:16:28Z</time>
      </trkpt>
      <trkpt lat="45.91868" lon="4.71776">
        <ele>172</ele>
        <time>2017-07-08T09:16:30Z</time>
      </trkpt>
      <trkpt lat="45.91871" lon="4.71776">
        <ele>172</ele>
        <time>2017-07-08T09:16:31Z</time>
      </trkpt>
      <trkpt lat="45.91877" lon="4.71777">
        <ele>172</ele>
        <time>2017-07-08T09:16:33Z</time>
      </trkpt>
      <trkpt lat="45.91881" lon="4.71777">
        <ele>172</ele>
        <time>2017-07-08T09:16:34Z</time>
      </trkpt>
      <trkpt lat="45.91885" lon="4.71778">
        <ele>172</ele>
        <time>2017-07-08T09:16:35Z</time>
      </trkpt>
      <trkpt lat="45.9189" lon="4.71779">
        <ele>172</ele>
        <time>2017-07-08T09:16:36Z</time>
      </trkpt>
      <trkpt lat="45.91895" lon="4.7178">
        <ele>172</ele>
        <time>2017-07-08T09:16:37Z</time>
      </trkpt>
      <trkpt lat="45.91899" lon="4.71782">
        <ele>172</ele>
        <time>2017-07-08T09:16:38Z</time>
      </trkpt>
      <trkpt lat="45.91904" lon="4.71783">
        <ele>172</ele>
        <time>2017-07-08T09:16:39Z</time>
      </trkpt>
      <trkpt lat="45.91909" lon="4.71783">
        <ele>172</ele>
        <time>2017-07-08T09:16:40Z</time>
      </trkpt>
      <trkpt lat="45.91917" lon="4.71786">
        <ele>172</ele>
        <time>2017-07-08T09:16:42Z</time>
      </trkpt>
      <trkpt lat="45.91921" lon="4.71787">
        <ele>172</ele>
        <time>2017-07-08T09:16:43Z</time>
      </trkpt>
      <trkpt lat="45.91929" lon="4.71788">
        <ele>173</ele>
        <time>2017-07-08T09:16:45Z</time>
      </trkpt>
      <trkpt lat="45.91932" lon="4.71789">
        <ele>173</ele>
        <time>2017-07-08T09:16:46Z</time>
      </trkpt>
      <trkpt lat="45.91938" lon="4.71791">
        <ele>173</ele>
        <time>2017-07-08T09:16:48Z</time>
      </trkpt>
      <trkpt lat="45.91941" lon="4.71791">
        <ele>173</ele>
        <time>2017-07-08T09:16:49Z</time>
      </trkpt>
      <trkpt lat="45.91947" lon="4.7179">
        <ele>173</ele>
        <time>2017-07-08T09:16:51Z</time>
      </trkpt>
      <trkpt lat="45.9195" lon="4.7179">
        <ele>173</ele>
        <time>2017-07-08T09:16:52Z</time>
      </trkpt>
      <trkpt lat="45.91957" lon="4.7179">
        <ele>173</ele>
        <time>2017-07-08T09:16:54Z</time>
      </trkpt>
      <trkpt lat="45.91961" lon="4.7179">
        <ele>173</ele>
        <time>2017-07-08T09:16:55Z</time>
      </trkpt>
      <trkpt lat="45.9197" lon="4.71791">
        <ele>173</ele>
        <time>2017-07-08T09:16:57Z</time>
      </trkpt>
      <trkpt lat="45.91974" lon="4.71791">
        <ele>173</ele>
        <time>2017-07-08T09:16:58Z</time>
      </trkpt>
      <trkpt lat="45.91983" lon="4.7179">
        <ele>173</ele>
        <time>2017-07-08T09:17:00Z</time>
      </trkpt>
      <trkpt lat="45.91987" lon="4.7179">
        <ele>173</ele>
        <time>2017-07-08T09:17:01Z</time>
      </trkpt>
      <trkpt lat="45.91994" lon="4.7179">
        <ele>173</ele>
        <time>2017-07-08T09:17:03Z</time>
      </trkpt>
      <trkpt lat="45.91998" lon="4.7179">
        <ele>173</ele>
        <time>2017-07-08T09:17:04Z</time>
      </trkpt>
      <trkpt lat="45.92005" lon="4.7179">
        <ele>173</ele>
        <time>2017-07-08T09:17:06Z</time>
      </trkpt>
      <trkpt lat="45.92009" lon="4.7179">
        <ele>173</ele>
        <time>2017-07-08T09:17:07Z</time>
      </trkpt>
      <trkpt lat="45.92015" lon="4.7179">
        <ele>173</ele>
        <time>2017-07-08T09:17:09Z</time>
      </trkpt>
      <trkpt lat="45.92019" lon="4.71791">
        <ele>173</ele>
        <time>2017-07-08T09:17:10Z</time>
      </trkpt>
      <trkpt lat="45.92026" lon="4.71792">
        <ele>173</ele>
        <time>2017-07-08T09:17:12Z</time>
      </trkpt>
      <trkpt lat="45.9203" lon="4.71792">
        <ele>173</ele>
        <time>2017-07-08T09:17:13Z</time>
      </trkpt>
      <trkpt lat="45.92038" lon="4.71792">
        <ele>173</ele>
        <time>2017-07-08T09:17:15Z</time>
      </trkpt>
      <trkpt lat="45.92041" lon="4.71791">
        <ele>173</ele>
        <time>2017-07-08T09:17:16Z</time>
      </trkpt>
      <trkpt lat="45.92047" lon="4.71786">
        <ele>173</ele>
        <time>2017-07-08T09:17:18Z</time>
      </trkpt>
      <trkpt lat="45.92049" lon="4.71782">
        <ele>173</ele>
        <time>2017-07-08T09:17:19Z</time>
      </trkpt>
      <trkpt lat="45.92049" lon="4.71771">
        <ele>173</ele>
        <time>2017-07-08T09:17:21Z</time>
      </trkpt>
      <trkpt lat="45.92049" lon="4.71766">
        <ele>173</ele>
        <time>2017-07-08T09:17:22Z</time>
      </trkpt>
      <trkpt lat="45.92051" lon="4.7176">
        <ele>173</ele>
        <time>2017-07-08T09:17:23Z</time>
      </trkpt>
      <trkpt lat="45.92051" lon="4.71753">
        <ele>173</ele>
        <time>2017-07-08T09:17:24Z</time>
      </trkpt>
      <trkpt lat="45.92052" lon="4.71746">
        <ele>173</ele>
        <time>2017-07-08T09:17:25Z</time>
      </trkpt>
      <trkpt lat="45.92052" lon="4.7174">
        <ele>173</ele>
        <time>2017-07-08T09:17:26Z</time>
      </trkpt>
      <trkpt lat="45.92054" lon="4.71728">
        <ele>173</ele>
        <time>2017-07-08T09:17:28Z</time>
      </trkpt>
      <trkpt lat="45.92055" lon="4.71722">
        <ele>173</ele>
        <time>2017-07-08T09:17:29Z</time>
      </trkpt>
      <trkpt lat="45.92057" lon="4.71711">
        <ele>173</ele>
        <time>2017-07-08T09:17:31Z</time>
      </trkpt>
      <trkpt lat="45.92058" lon="4.71706">
        <ele>173</ele>
        <time>2017-07-08T09:17:32Z</time>
      </trkpt>
      <trkpt lat="45.9206" lon="4.71693">
        <ele>173</ele>
        <time>2017-07-08T09:17:34Z</time>
      </trkpt>
      <trkpt lat="45.92061" lon="4.71687">
        <ele>173</ele>
        <time>2017-07-08T09:17:35Z</time>
      </trkpt>
      <trkpt lat="45.92063" lon="4.71679">
        <ele>173</ele>
        <time>2017-07-08T09:17:36Z</time>
      </trkpt>
      <trkpt lat="45.92064" lon="4.71672">
        <ele>173</ele>
        <time>2017-07-08T09:17:37Z</time>
      </trkpt>
      <trkpt lat="45.92066" lon="4.71665">
        <ele>172</ele>
        <time>2017-07-08T09:17:38Z</time>
      </trkpt>
      <trkpt lat="45.92067" lon="4.71657">
        <ele>172</ele>
        <time>2017-07-08T09:17:39Z</time>
      </trkpt>
      <trkpt lat="45.92068" lon="4.7165">
        <ele>172</ele>
        <time>2017-07-08T09:17:40Z</time>
      </trkpt>
      <trkpt lat="45.92069" lon="4.71643">
        <ele>172</ele>
        <time>2017-07-08T09:17:41Z</time>
      </trkpt>
      <trkpt lat="45.9207" lon="4.71636">
        <ele>172</ele>
        <time>2017-07-08T09:17:42Z</time>
      </trkpt>
      <trkpt lat="45.92071" lon="4.7163">
        <ele>173</ele>
        <time>2017-07-08T09:17:43Z</time>
      </trkpt>
      <trkpt lat="45.92073" lon="4.71618">
        <ele>173</ele>
        <time>2017-07-08T09:17:45Z</time>
      </trkpt>
      <trkpt lat="45.92074" lon="4.71612">
        <ele>172</ele>
        <time>2017-07-08T09:17:46Z</time>
      </trkpt>
      <trkpt lat="45.92076" lon="4.71602">
        <ele>172</ele>
        <time>2017-07-08T09:17:48Z</time>
      </trkpt>
      <trkpt lat="45.92078" lon="4.71596">
        <ele>172</ele>
        <time>2017-07-08T09:17:49Z</time>
      </trkpt>
      <trkpt lat="45.9208" lon="4.71584">
        <ele>172</ele>
        <time>2017-07-08T09:17:51Z</time>
      </trkpt>
      <trkpt lat="45.92081" lon="4.71578">
        <ele>172</ele>
        <time>2017-07-08T09:17:52Z</time>
      </trkpt>
      <trkpt lat="45.92083" lon="4.71571">
        <ele>173</ele>
        <time>2017-07-08T09:17:53Z</time>
      </trkpt>
      <trkpt lat="45.92084" lon="4.71565">
        <ele>173</ele>
        <time>2017-07-08T09:17:54Z</time>
      </trkpt>
      <trkpt lat="45.92085" lon="4.71558">
        <ele>173</ele>
        <time>2017-07-08T09:17:55Z</time>
      </trkpt>
      <trkpt lat="45.92085" lon="4.71551">
        <ele>173</ele>
        <time>2017-07-08T09:17:56Z</time>
      </trkpt>
      <trkpt lat="45.92087" lon="4.71538">
        <ele>173</ele>
        <time>2017-07-08T09:17:58Z</time>
      </trkpt>
      <trkpt lat="45.92088" lon="4.71532">
        <ele>173</ele>
        <time>2017-07-08T09:17:59Z</time>
      </trkpt>
      <trkpt lat="45.92089" lon="4.7152">
        <ele>174</ele>
        <time>2017-07-08T09:18:01Z</time>
      </trkpt>
      <trkpt lat="45.9209" lon="4.71515">
        <ele>174</ele>
        <time>2017-07-08T09:18:02Z</time>
      </trkpt>
      <trkpt lat="45.92091" lon="4.71505">
        <ele>174</ele>
        <time>2017-07-08T09:18:04Z</time>
      </trkpt>
      <trkpt lat="45.92092" lon="4.715">
        <ele>174</ele>
        <time>2017-07-08T09:18:05Z</time>
      </trkpt>
      <trkpt lat="45.92094" lon="4.71488">
        <ele>174</ele>
        <time>2017-07-08T09:18:07Z</time>
      </trkpt>
      <trkpt lat="45.92095" lon="4.71482">
        <ele>174</ele>
        <time>2017-07-08T09:18:08Z</time>
      </trkpt>
      <trkpt lat="45.92096" lon="4.71476">
        <ele>174</ele>
        <time>2017-07-08T09:18:09Z</time>
      </trkpt>
      <trkpt lat="45.92098" lon="4.7147">
        <ele>174</ele>
        <time>2017-07-08T09:18:10Z</time>
      </trkpt>
      <trkpt lat="45.921" lon="4.71457">
        <ele>174</ele>
        <time>2017-07-08T09:18:12Z</time>
      </trkpt>
      <trkpt lat="45.92102" lon="4.71451">
        <ele>174</ele>
        <time>2017-07-08T09:18:13Z</time>
      </trkpt>
      <trkpt lat="45.92103" lon="4.71444">
        <ele>174</ele>
        <time>2017-07-08T09:18:14Z</time>
      </trkpt>
      <trkpt lat="45.92104" lon="4.71436">
        <ele>174</ele>
        <time>2017-07-08T09:18:15Z</time>
      </trkpt>
      <trkpt lat="45.92106" lon="4.71429">
        <ele>174</ele>
        <time>2017-07-08T09:18:16Z</time>
      </trkpt>
      <trkpt lat="45.92106" lon="4.71422">
        <ele>174</ele>
        <time>2017-07-08T09:18:17Z</time>
      </trkpt>
      <trkpt lat="45.92105" lon="4.71414">
        <ele>174</ele>
        <time>2017-07-08T09:18:18Z</time>
      </trkpt>
      <trkpt lat="45.92107" lon="4.71408">
        <ele>174</ele>
        <time>2017-07-08T09:18:19Z</time>
      </trkpt>
      <trkpt lat="45.92104" lon="4.71399">
        <ele>174</ele>
        <time>2017-07-08T09:18:20Z</time>
      </trkpt>
      <trkpt lat="45.92105" lon="4.71393">
        <ele>174</ele>
        <time>2017-07-08T09:18:21Z</time>
      </trkpt>
      <trkpt lat="45.92107" lon="4.7138">
        <ele>173</ele>
        <time>2017-07-08T09:18:23Z</time>
      </trkpt>
      <trkpt lat="45.92107" lon="4.71374">
        <ele>173</ele>
        <time>2017-07-08T09:18:24Z</time>
      </trkpt>
      <trkpt lat="45.92107" lon="4.71361">
        <ele>174</ele>
        <time>2017-07-08T09:18:26Z</time>
      </trkpt>
      <trkpt lat="45.92108" lon="4.71356">
        <ele>174</ele>
        <time>2017-07-08T09:18:27Z</time>
      </trkpt>
      <trkpt lat="45.9211" lon="4.71349">
        <ele>174</ele>
        <time>2017-07-08T09:18:28Z</time>
      </trkpt>
      <trkpt lat="45.92111" lon="4.71341">
        <ele>174</ele>
        <time>2017-07-08T09:18:29Z</time>
      </trkpt>
      <trkpt lat="45.92112" lon="4.71334">
        <ele>174</ele>
        <time>2017-07-08T09:18:30Z</time>
      </trkpt>
      <trkpt lat="45.92113" lon="4.71328">
        <ele>174</ele>
        <time>2017-07-08T09:18:31Z</time>
      </trkpt>
      <trkpt lat="45.92114" lon="4.71316">
        <ele>174</ele>
        <time>2017-07-08T09:18:33Z</time>
      </trkpt>
      <trkpt lat="45.92115" lon="4.71311">
        <ele>174</ele>
        <time>2017-07-08T09:18:34Z</time>
      </trkpt>
      <trkpt lat="45.92116" lon="4.71299">
        <ele>174</ele>
        <time>2017-07-08T09:18:36Z</time>
      </trkpt>
      <trkpt lat="45.92116" lon="4.71293">
        <ele>174</ele>
        <time>2017-07-08T09:18:37Z</time>
      </trkpt>
      <trkpt lat="45.92117" lon="4.71286">
        <ele>174</ele>
        <time>2017-07-08T09:18:38Z</time>
      </trkpt>
      <trkpt lat="45.92118" lon="4.71279">
        <ele>174</ele>
        <time>2017-07-08T09:18:39Z</time>
      </trkpt>
      <trkpt lat="45.92119" lon="4.71272">
        <ele>174</ele>
        <time>2017-07-08T09:18:40Z</time>
      </trkpt>
      <trkpt lat="45.92119" lon="4.71266">
        <ele>174</ele>
        <time>2017-07-08T09:18:41Z</time>
      </trkpt>
      <trkpt lat="45.9212" lon="4.71254">
        <ele>174</ele>
        <time>2017-07-08T09:18:43Z</time>
      </trkpt>
      <trkpt lat="45.92122" lon="4.71248">
        <ele>175</ele>
        <time>2017-07-08T09:18:44Z</time>
      </trkpt>
      <trkpt lat="45.92123" lon="4.71237">
        <ele>175</ele>
        <time>2017-07-08T09:18:46Z</time>
      </trkpt>
      <trkpt lat="45.92123" lon="4.71232">
        <ele>175</ele>
        <time>2017-07-08T09:18:47Z</time>
      </trkpt>
      <trkpt lat="45.92125" lon="4.71222">
        <ele>175</ele>
        <time>2017-07-08T09:18:49Z</time>
      </trkpt>
      <trkpt lat="45.92127" lon="4.71217">
        <ele>175</ele>
        <time>2017-07-08T09:18:50Z</time>
      </trkpt>
      <trkpt lat="45.92129" lon="4.71204">
        <ele>175</ele>
        <time>2017-07-08T09:18:52Z</time>
      </trkpt>
      <trkpt lat="45.9213" lon="4.71198">
        <ele>175</ele>
        <time>2017-07-08T09:18:53Z</time>
      </trkpt>
      <trkpt lat="45.92131" lon="4.71186">
        <ele>176</ele>
        <time>2017-07-08T09:18:55Z</time>
      </trkpt>
      <trkpt lat="45.92132" lon="4.71181">
        <ele>176</ele>
        <time>2017-07-08T09:18:56Z</time>
      </trkpt>
      <trkpt lat="45.92134" lon="4.71172">
        <ele>176</ele>
        <time>2017-07-08T09:18:58Z</time>
      </trkpt>
      <trkpt lat="45.92135" lon="4.71167">
        <ele>176</ele>
        <time>2017-07-08T09:18:59Z</time>
      </trkpt>
      <trkpt lat="45.92137" lon="4.71158">
        <ele>178</ele>
        <time>2017-07-08T09:19:01Z</time>
      </trkpt>
      <trkpt lat="45.92138" lon="4.71153">
        <ele>178</ele>
        <time>2017-07-08T09:19:02Z</time>
      </trkpt>
      <trkpt lat="45.92141" lon="4.71144">
        <ele>178</ele>
        <time>2017-07-08T09:19:04Z</time>
      </trkpt>
      <trkpt lat="45.92142" lon="4.71139">
        <ele>178</ele>
        <time>2017-07-08T09:19:05Z</time>
      </trkpt>
      <trkpt lat="45.92144" lon="4.71129">
        <ele>178</ele>
        <time>2017-07-08T09:19:07Z</time>
      </trkpt>
      <trkpt lat="45.92145" lon="4.71123">
        <ele>178</ele>
        <time>2017-07-08T09:19:08Z</time>
      </trkpt>
      <trkpt lat="45.92147" lon="4.71112">
        <ele>179</ele>
        <time>2017-07-08T09:19:10Z</time>
      </trkpt>
      <trkpt lat="45.92147" lon="4.71106">
        <ele>179</ele>
        <time>2017-07-08T09:19:11Z</time>
      </trkpt>
      <trkpt lat="45.9215" lon="4.71095">
        <ele>179</ele>
        <time>2017-07-08T09:19:13Z</time>
      </trkpt>
      <trkpt lat="45.92151" lon="4.7109">
        <ele>179</ele>
        <time>2017-07-08T09:19:14Z</time>
      </trkpt>
      <trkpt lat="45.92152" lon="4.71078">
        <ele>181</ele>
        <time>2017-07-08T09:19:16Z</time>
      </trkpt>
      <trkpt lat="45.92153" lon="4.71073">
        <ele>181</ele>
        <time>2017-07-08T09:19:17Z</time>
      </trkpt>
      <trkpt lat="45.92155" lon="4.71064">
        <ele>181</ele>
        <time>2017-07-08T09:19:19Z</time>
      </trkpt>
      <trkpt lat="45.92156" lon="4.7106">
        <ele>181</ele>
        <time>2017-07-08T09:19:20Z</time>
      </trkpt>
      <trkpt lat="45.92158" lon="4.71052">
        <ele>181</ele>
        <time>2017-07-08T09:19:22Z</time>
      </trkpt>
      <trkpt lat="45.92158" lon="4.71048">
        <ele>181</ele>
        <time>2017-07-08T09:19:23Z</time>
      </trkpt>
      <trkpt lat="45.92158" lon="4.71039">
        <ele>181</ele>
        <time>2017-07-08T09:19:25Z</time>
      </trkpt>
      <trkpt lat="45.92159" lon="4.71034">
        <ele>181</ele>
        <time>2017-07-08T09:19:26Z</time>
      </trkpt>
      <trkpt lat="45.92162" lon="4.71024">
        <ele>181</ele>
        <time>2017-07-08T09:19:28Z</time>
      </trkpt>
      <trkpt lat="45.92164" lon="4.7102">
        <ele>181</ele>
        <time>2017-07-08T09:19:29Z</time>
      </trkpt>
      <trkpt lat="45.92171" lon="4.71015">
        <ele>181</ele>
        <time>2017-07-08T09:19:32Z</time>
      </trkpt>
      <trkpt lat="45.92173" lon="4.71016">
        <ele>181</ele>
        <time>2017-07-08T09:19:33Z</time>
      </trkpt>
      <trkpt lat="45.9218" lon="4.71019">
        <ele>181</ele>
        <time>2017-07-08T09:19:36Z</time>
      </trkpt>
      <trkpt lat="45.92183" lon="4.7102">
        <ele>181</ele>
        <time>2017-07-08T09:19:37Z</time>
      </trkpt>
      <trkpt lat="45.92191" lon="4.7102">
        <ele>181</ele>
        <time>2017-07-08T09:19:40Z</time>
      </trkpt>
      <trkpt lat="45.92193" lon="4.71021">
        <ele>181</ele>
        <time>2017-07-08T09:19:41Z</time>
      </trkpt>
      <trkpt lat="45.92201" lon="4.71025">
        <ele>181</ele>
        <time>2017-07-08T09:19:44Z</time>
      </trkpt>
      <trkpt lat="45.92203" lon="4.71027">
        <ele>182</ele>
        <time>2017-07-08T09:19:45Z</time>
      </trkpt>
      <trkpt lat="45.92211" lon="4.7103">
        <ele>182</ele>
        <time>2017-07-08T09:19:48Z</time>
      </trkpt>
      <trkpt lat="45.92213" lon="4.71032">
        <ele>182</ele>
        <time>2017-07-08T09:19:49Z</time>
      </trkpt>
      <trkpt lat="45.92221" lon="4.71031">
        <ele>182</ele>
        <time>2017-07-08T09:26:02Z</time>
      </trkpt>
      <trkpt lat="45.92223" lon="4.71032">
        <ele>182</ele>
        <time>2017-07-08T09:26:03Z</time>
      </trkpt>
      <trkpt lat="45.9223" lon="4.71038">
        <ele>182</ele>
        <time>2017-07-08T09:26:07Z</time>
      </trkpt>
      <trkpt lat="45.92233" lon="4.7104">
        <ele>182</ele>
        <time>2017-07-08T09:26:08Z</time>
      </trkpt>
      <trkpt lat="45.92241" lon="4.71044">
        <ele>182</ele>
        <time>2017-07-08T09:26:11Z</time>
      </trkpt>
      <trkpt lat="45.92243" lon="4.71046">
        <ele>182</ele>
        <time>2017-07-08T09:26:12Z</time>
      </trkpt>
      <trkpt lat="45.92251" lon="4.71052">
        <ele>183</ele>
        <time>2017-07-08T09:26:15Z</time>
      </trkpt>
      <trkpt lat="45.92254" lon="4.71053">
        <ele>183</ele>
        <time>2017-07-08T09:26:16Z</time>
      </trkpt>
      <trkpt lat="45.9226" lon="4.71056">
        <ele>183</ele>
        <time>2017-07-08T09:26:18Z</time>
      </trkpt>
      <trkpt lat="45.92263" lon="4.71057">
        <ele>183</ele>
        <time>2017-07-08T09:26:19Z</time>
      </trkpt>
      <trkpt lat="45.9227" lon="4.71061">
        <ele>183</ele>
        <time>2017-07-08T09:26:21Z</time>
      </trkpt>
      <trkpt lat="45.92273" lon="4.71062">
        <ele>183</ele>
        <time>2017-07-08T09:26:22Z</time>
      </trkpt>
      <trkpt lat="45.92279" lon="4.71065">
        <ele>183</ele>
        <time>2017-07-08T09:26:24Z</time>
      </trkpt>
      <trkpt lat="45.92283" lon="4.71067">
        <ele>183</ele>
        <time>2017-07-08T09:26:25Z</time>
      </trkpt>
      <trkpt lat="45.92289" lon="4.7107">
        <ele>183</ele>
        <time>2017-07-08T09:26:27Z</time>
      </trkpt>
      <trkpt lat="45.92292" lon="4.71072">
        <ele>183</ele>
        <time>2017-07-08T09:26:28Z</time>
      </trkpt>
      <trkpt lat="45.92298" lon="4.71075">
        <ele>183</ele>
        <time>2017-07-08T09:26:30Z</time>
      </trkpt>
      <trkpt lat="45.92302" lon="4.71077">
        <ele>183</ele>
        <time>2017-07-08T09:26:31Z</time>
      </trkpt>
      <trkpt lat="45.92308" lon="4.7108">
        <ele>184</ele>
        <time>2017-07-08T09:26:33Z</time>
      </trkpt>
      <trkpt lat="45.92311" lon="4.71082">
        <ele>184</ele>
        <time>2017-07-08T09:26:34Z</time>
      </trkpt>
      <trkpt lat="45.92317" lon="4.71085">
        <ele>182</ele>
        <time>2017-07-08T09:26:36Z</time>
      </trkpt>
      <trkpt lat="45.92319" lon="4.71085">
        <ele>183</ele>
        <time>2017-07-08T09:26:37Z</time>
      </trkpt>
      <trkpt lat="45.92327" lon="4.71089">
        <ele>183</ele>
        <time>2017-07-08T09:26:40Z</time>
      </trkpt>
      <trkpt lat="45.9233" lon="4.71091">
        <ele>183</ele>
        <time>2017-07-08T09:26:41Z</time>
      </trkpt>
      <trkpt lat="45.92338" lon="4.71095">
        <ele>184</ele>
        <time>2017-07-08T09:26:44Z</time>
      </trkpt>
      <trkpt lat="45.92341" lon="4.71097">
        <ele>184</ele>
        <time>2017-07-08T09:26:45Z</time>
      </trkpt>
      <trkpt lat="45.92347" lon="4.711">
        <ele>184</ele>
        <time>2017-07-08T09:26:47Z</time>
      </trkpt>
      <trkpt lat="45.9235" lon="4.71102">
        <ele>184</ele>
        <time>2017-07-08T09:26:48Z</time>
      </trkpt>
      <trkpt lat="45.92356" lon="4.71105">
        <ele>184</ele>
        <time>2017-07-08T09:26:50Z</time>
      </trkpt>
      <trkpt lat="45.92359" lon="4.71107">
        <ele>184</ele>
        <time>2017-07-08T09:26:51Z</time>
      </trkpt>
      <trkpt lat="45.92365" lon="4.71111">
        <ele>184</ele>
        <time>2017-07-08T09:26:53Z</time>
      </trkpt>
      <trkpt lat="45.92368" lon="4.71113">
        <ele>184</ele>
        <time>2017-07-08T09:26:54Z</time>
      </trkpt>
      <trkpt lat="45.92374" lon="4.71117">
        <ele>184</ele>
        <time>2017-07-08T09:26:56Z</time>
      </trkpt>
      <trkpt lat="45.92377" lon="4.71118">
        <ele>184</ele>
        <time>2017-07-08T09:26:57Z</time>
      </trkpt>
      <trkpt lat="45.92383" lon="4.71121">
        <ele>184</ele>
        <time>2017-07-08T09:26:59Z</time>
      </trkpt>
      <trkpt lat="45.92386" lon="4.71123">
        <ele>184</ele>
        <time>2017-07-08T09:27:00Z</time>
      </trkpt>
      <trkpt lat="45.92391" lon="4.71126">
        <ele>184</ele>
        <time>2017-07-08T09:27:02Z</time>
      </trkpt>
      <trkpt lat="45.92394" lon="4.71128">
        <ele>184</ele>
        <time>2017-07-08T09:27:03Z</time>
      </trkpt>
      <trkpt lat="45.92403" lon="4.71131">
        <ele>184</ele>
        <time>2017-07-08T09:27:06Z</time>
      </trkpt>
      <trkpt lat="45.92406" lon="4.71132">
        <ele>184</ele>
        <time>2017-07-08T09:27:07Z</time>
      </trkpt>
      <trkpt lat="45.92412" lon="4.71136">
        <ele>184</ele>
        <time>2017-07-08T09:27:09Z</time>
      </trkpt>
      <trkpt lat="45.92416" lon="4.71138">
        <ele>184</ele>
        <time>2017-07-08T09:27:10Z</time>
      </trkpt>
      <trkpt lat="45.92423" lon="4.71144">
        <ele>185</ele>
        <time>2017-07-08T09:27:13Z</time>
      </trkpt>
      <trkpt lat="45.92426" lon="4.71146">
        <ele>185</ele>
        <time>2017-07-08T09:27:14Z</time>
      </trkpt>
      <trkpt lat="45.92433" lon="4.71151">
        <ele>185</ele>
        <time>2017-07-08T09:27:17Z</time>
      </trkpt>
      <trkpt lat="45.92435" lon="4.71153">
        <ele>185</ele>
        <time>2017-07-08T09:27:18Z</time>
      </trkpt>
      <trkpt lat="45.92443" lon="4.71158">
        <ele>185</ele>
        <time>2017-07-08T09:27:21Z</time>
      </trkpt>
      <trkpt lat="45.92445" lon="4.7116">
        <ele>186</ele>
        <time>2017-07-08T09:27:22Z</time>
      </trkpt>
      <trkpt lat="45.92451" lon="4.71164">
        <ele>186</ele>
        <time>2017-07-08T09:27:24Z</time>
      </trkpt>
      <trkpt lat="45.92453" lon="4.71166">
        <ele>186</ele>
        <time>2017-07-08T09:27:25Z</time>
      </trkpt>
      <trkpt lat="45.92459" lon="4.7117">
        <ele>184</ele>
        <time>2017-07-08T09:27:27Z</time>
      </trkpt>
      <trkpt lat="45.92462" lon="4.71171">
        <ele>184</ele>
        <time>2017-07-08T09:27:28Z</time>
      </trkpt>
      <trkpt lat="45.92468" lon="4.71174">
        <ele>184</ele>
        <time>2017-07-08T09:27:30Z</time>
      </trkpt>
      <trkpt lat="45.92471" lon="4.71176">
        <ele>184</ele>
        <time>2017-07-08T09:27:31Z</time>
      </trkpt>
      <trkpt lat="45.92479" lon="4.7118">
        <ele>184</ele>
        <time>2017-07-08T09:27:34Z</time>
      </trkpt>
      <trkpt lat="45.92482" lon="4.71181">
        <ele>184</ele>
        <time>2017-07-08T09:27:35Z</time>
      </trkpt>
      <trkpt lat="45.92489" lon="4.71182">
        <ele>185</ele>
        <time>2017-07-08T09:27:37Z</time>
      </trkpt>
      <trkpt lat="45.92492" lon="4.71184">
        <ele>185</ele>
        <time>2017-07-08T09:27:38Z</time>
      </trkpt>
      <trkpt lat="45.92498" lon="4.71187">
        <ele>185</ele>
        <time>2017-07-08T09:27:40Z</time>
      </trkpt>
      <trkpt lat="45.92501" lon="4.71188">
        <ele>185</ele>
        <time>2017-07-08T09:27:41Z</time>
      </trkpt>
      <trkpt lat="45.92507" lon="4.7119">
        <ele>185</ele>
        <time>2017-07-08T09:27:43Z</time>
      </trkpt>
      <trkpt lat="45.9251" lon="4.71192">
        <ele>185</ele>
        <time>2017-07-08T09:27:44Z</time>
      </trkpt>
      <trkpt lat="45.92516" lon="4.71193">
        <ele>185</ele>
        <time>2017-07-08T09:27:46Z</time>
      </trkpt>
      <trkpt lat="45.92519" lon="4.71194">
        <ele>185</ele>
        <time>2017-07-08T09:27:47Z</time>
      </trkpt>
      <trkpt lat="45.92525" lon="4.71197">
        <ele>185</ele>
        <time>2017-07-08T09:27:49Z</time>
      </trkpt>
      <trkpt lat="45.92529" lon="4.71198">
        <ele>185</ele>
        <time>2017-07-08T09:27:50Z</time>
      </trkpt>
      <trkpt lat="45.92535" lon="4.71201">
        <ele>185</ele>
        <time>2017-07-08T09:27:52Z</time>
      </trkpt>
      <trkpt lat="45.92538" lon="4.71202">
        <ele>185</ele>
        <time>2017-07-08T09:27:53Z</time>
      </trkpt>
      <trkpt lat="45.92544" lon="4.71205">
        <ele>185</ele>
        <time>2017-07-08T09:27:55Z</time>
      </trkpt>
      <trkpt lat="45.92547" lon="4.71207">
        <ele>185</ele>
        <time>2017-07-08T09:27:56Z</time>
      </trkpt>
      <trkpt lat="45.92552" lon="4.7121">
        <ele>185</ele>
        <time>2017-07-08T09:27:58Z</time>
      </trkpt>
      <trkpt lat="45.92555" lon="4.71212">
        <ele>185</ele>
        <time>2017-07-08T09:27:59Z</time>
      </trkpt>
      <trkpt lat="45.92563" lon="4.71215">
        <ele>185</ele>
        <time>2017-07-08T09:28:02Z</time>
      </trkpt>
      <trkpt lat="45.92566" lon="4.71216">
        <ele>185</ele>
        <time>2017-07-08T09:28:03Z</time>
      </trkpt>
      <trkpt lat="45.92573" lon="4.71218">
        <ele>185</ele>
        <time>2017-07-08T09:28:06Z</time>
      </trkpt>
      <trkpt lat="45.92576" lon="4.7122">
        <ele>185</ele>
        <time>2017-07-08T09:28:07Z</time>
      </trkpt>
      <trkpt lat="45.92583" lon="4.71222">
        <ele>185</ele>
        <time>2017-07-08T09:28:09Z</time>
      </trkpt>
      <trkpt lat="45.92585" lon="4.71224">
        <ele>186</ele>
        <time>2017-07-08T09:28:10Z</time>
      </trkpt>
      <trkpt lat="45.92592" lon="4.71226">
        <ele>186</ele>
        <time>2017-07-08T09:28:12Z</time>
      </trkpt>
      <trkpt lat="45.92595" lon="4.71227">
        <ele>186</ele>
        <time>2017-07-08T09:28:13Z</time>
      </trkpt>
      <trkpt lat="45.92603" lon="4.71229">
        <ele>186</ele>
        <time>2017-07-08T09:28:16Z</time>
      </trkpt>
      <trkpt lat="45.92606" lon="4.7123">
        <ele>186</ele>
        <time>2017-07-08T09:28:17Z</time>
      </trkpt>
      <trkpt lat="45.92614" lon="4.71235">
        <ele>186</ele>
        <time>2017-07-08T09:28:20Z</time>
      </trkpt>
      <trkpt lat="45.92617" lon="4.71236">
        <ele>186</ele>
        <time>2017-07-08T09:28:21Z</time>
      </trkpt>
      <trkpt lat="45.92624" lon="4.71241">
        <ele>186</ele>
        <time>2017-07-08T09:28:24Z</time>
      </trkpt>
      <trkpt lat="45.92627" lon="4.71242">
        <ele>186</ele>
        <time>2017-07-08T09:28:25Z</time>
      </trkpt>
      <trkpt lat="45.92635" lon="4.71246">
        <ele>186</ele>
        <time>2017-07-08T09:28:28Z</time>
      </trkpt>
      <trkpt lat="45.92638" lon="4.71248">
        <ele>186</ele>
        <time>2017-07-08T09:28:29Z</time>
      </trkpt>
      <trkpt lat="45.92643" lon="4.7125">
        <ele>185</ele>
        <time>2017-07-08T09:28:31Z</time>
      </trkpt>
      <trkpt lat="45.92646" lon="4.71252">
        <ele>186</ele>
        <time>2017-07-08T09:28:32Z</time>
      </trkpt>
      <trkpt lat="45.92654" lon="4.71252">
        <ele>186</ele>
        <time>2017-07-08T09:28:35Z</time>
      </trkpt>
      <trkpt lat="45.92656" lon="4.71253">
        <ele>186</ele>
        <time>2017-07-08T09:28:36Z</time>
      </trkpt>
      <trkpt lat="45.92664" lon="4.71256">
        <ele>186</ele>
        <time>2017-07-08T09:28:40Z</time>
      </trkpt>
      <trkpt lat="45.92666" lon="4.71258">
        <ele>186</ele>
        <time>2017-07-08T09:28:41Z</time>
      </trkpt>
      <trkpt lat="45.92675" lon="4.71261">
        <ele>187</ele>
        <time>2017-07-08T09:28:45Z</time>
      </trkpt>
      <trkpt lat="45.92676" lon="4.71262">
        <ele>187</ele>
        <time>2017-07-08T09:28:46Z</time>
      </trkpt>
      <trkpt lat="45.92683" lon="4.71267">
        <ele>187</ele>
        <time>2017-07-08T09:28:49Z</time>
      </trkpt>
      <trkpt lat="45.92685" lon="4.71269">
        <ele>187</ele>
        <time>2017-07-08T09:28:50Z</time>
      </trkpt>
      <trkpt lat="45.92692" lon="4.71272">
        <ele>187</ele>
        <time>2017-07-08T09:28:53Z</time>
      </trkpt>
      <trkpt lat="45.92695" lon="4.71272">
        <ele>187</ele>
        <time>2017-07-08T09:28:54Z</time>
      </trkpt>
      <trkpt lat="45.92701" lon="4.71274">
        <ele>187</ele>
        <time>2017-07-08T09:28:57Z</time>
      </trkpt>
      <trkpt lat="45.92704" lon="4.71274">
        <ele>187</ele>
        <time>2017-07-08T09:28:58Z</time>
      </trkpt>
      <trkpt lat="45.92712" lon="4.71275">
        <ele>187</ele>
        <time>2017-07-08T09:29:01Z</time>
      </trkpt>
      <trkpt lat="45.92714" lon="4.71276">
        <ele>187</ele>
        <time>2017-07-08T09:29:02Z</time>
      </trkpt>
      <trkpt lat="45.92721" lon="4.71278">
        <ele>188</ele>
        <time>2017-07-08T09:29:05Z</time>
      </trkpt>
      <trkpt lat="45.92723" lon="4.71278">
        <ele>188</ele>
        <time>2017-07-08T09:29:06Z</time>
      </trkpt>
      <trkpt lat="45.92731" lon="4.71279">
        <ele>188</ele>
        <time>2017-07-08T09:29:09Z</time>
      </trkpt>
      <trkpt lat="45.92733" lon="4.7128">
        <ele>188</ele>
        <time>2017-07-08T09:29:10Z</time>
      </trkpt>
      <trkpt lat="45.92741" lon="4.71285">
        <ele>188</ele>
        <time>2017-07-08T09:29:13Z</time>
      </trkpt>
      <trkpt lat="45.92743" lon="4.71286">
        <ele>188</ele>
        <time>2017-07-08T09:29:14Z</time>
      </trkpt>
      <trkpt lat="45.92751" lon="4.71291">
        <ele>189</ele>
        <time>2017-07-08T09:29:18Z</time>
      </trkpt>
      <trkpt lat="45.92753" lon="4.71291">
        <ele>189</ele>
        <time>2017-07-08T09:29:19Z</time>
      </trkpt>
      <trkpt lat="45.92761" lon="4.7129">
        <ele>189</ele>
        <time>2017-07-08T09:29:22Z</time>
      </trkpt>
      <trkpt lat="45.92764" lon="4.7129">
        <ele>189</ele>
        <time>2017-07-08T09:29:23Z</time>
      </trkpt>
      <trkpt lat="45.9277" lon="4.71289">
        <ele>189</ele>
        <time>2017-07-08T09:29:25Z</time>
      </trkpt>
      <trkpt lat="45.92773" lon="4.7129">
        <ele>189</ele>
        <time>2017-07-08T09:29:26Z</time>
      </trkpt>
      <trkpt lat="45.92782" lon="4.71292">
        <ele>189</ele>
        <time>2017-07-08T09:29:29Z</time>
      </trkpt>
      <trkpt lat="45.92785" lon="4.71293">
        <ele>189</ele>
        <time>2017-07-08T09:29:30Z</time>
      </trkpt>
      <trkpt lat="45.92792" lon="4.71294">
        <ele>189</ele>
        <time>2017-07-08T09:29:32Z</time>
      </trkpt>
      <trkpt lat="45.92795" lon="4.71295">
        <ele>189</ele>
        <time>2017-07-08T09:29:33Z</time>
      </trkpt>
      <trkpt lat="45.92803" lon="4.71299">
        <ele>189</ele>
        <time>2017-07-08T09:29:36Z</time>
      </trkpt>
      <trkpt lat="45.92805" lon="4.71301">
        <ele>189</ele>
        <time>2017-07-08T09:29:37Z</time>
      </trkpt>
      <trkpt lat="45.92812" lon="4.71305">
        <ele>189</ele>
        <time>2017-07-08T09:29:40Z</time>
      </trkpt>
      <trkpt lat="45.92814" lon="4.71306">
        <ele>189</ele>
        <time>2017-07-08T09:29:41Z</time>
      </trkpt>
      <trkpt lat="45.92819" lon="4.71313">
        <ele>189</ele>
        <time>2017-07-08T09:29:44Z</time>
      </trkpt>
      <trkpt lat="45.92821" lon="4.71317">
        <ele>189</ele>
        <time>2017-07-08T09:29:45Z</time>
      </trkpt>
      <trkpt lat="45.92822" lon="4.71326">
        <ele>190</ele>
        <time>2017-07-08T09:29:47Z</time>
      </trkpt>
      <trkpt lat="45.92823" lon="4.71331">
        <ele>190</ele>
        <time>2017-07-08T09:29:48Z</time>
      </trkpt>
      <trkpt lat="45.92824" lon="4.71342">
        <ele>189</ele>
        <time>2017-07-08T09:29:50Z</time>
      </trkpt>
      <trkpt lat="45.92826" lon="4.71347">
        <ele>188</ele>
        <time>2017-07-08T09:29:51Z</time>
      </trkpt>
      <trkpt lat="45.92827" lon="4.71357">
        <ele>188</ele>
        <time>2017-07-08T09:29:53Z</time>
      </trkpt>
      <trkpt lat="45.92828" lon="4.7136">
        <ele>188</ele>
        <time>2017-07-08T09:29:54Z</time>
      </trkpt>
      <trkpt lat="45.92831" lon="4.71368">
        <ele>187</ele>
        <time>2017-07-08T09:29:56Z</time>
      </trkpt>
      <trkpt lat="45.92833" lon="4.71373">
        <ele>187</ele>
        <time>2017-07-08T09:29:57Z</time>
      </trkpt>
      <trkpt lat="45.92837" lon="4.71383">
        <ele>188</ele>
        <time>2017-07-08T09:29:59Z</time>
      </trkpt>
      <trkpt lat="45.9284" lon="4.71387">
        <ele>188</ele>
        <time>2017-07-08T09:30:00Z</time>
      </trkpt>
      <trkpt lat="45.92844" lon="4.71397">
        <ele>187</ele>
        <time>2017-07-08T09:30:02Z</time>
      </trkpt>
      <trkpt lat="45.92845" lon="4.71401">
        <ele>187</ele>
        <time>2017-07-08T09:30:03Z</time>
      </trkpt>
      <trkpt lat="45.92844" lon="4.71408">
        <ele>187</ele>
        <time>2017-07-08T09:30:04Z</time>
      </trkpt>
      <trkpt lat="45.92841" lon="4.71416">
        <ele>187</ele>
        <time>2017-07-08T09:30:05Z</time>
      </trkpt>
      <trkpt lat="45.92839" lon="4.71424">
        <ele>185</ele>
        <time>2017-07-08T09:30:06Z</time>
      </trkpt>
      <trkpt lat="45.92837" lon="4.71431">
        <ele>184</ele>
        <time>2017-07-08T09:30:07Z</time>
      </trkpt>
      <trkpt lat="45.92835" lon="4.7144">
        <ele>183</ele>
        <time>2017-07-08T09:30:08Z</time>
      </trkpt>
      <trkpt lat="45.92832" lon="4.71449">
        <ele>181</ele>
        <time>2017-07-08T09:30:09Z</time>
      </trkpt>
      <trkpt lat="45.92829" lon="4.71459">
        <ele>180</ele>
        <time>2017-07-08T09:30:10Z</time>
      </trkpt>
      <trkpt lat="45.92827" lon="4.7147">
        <ele>179</ele>
        <time>2017-07-08T09:30:11Z</time>
      </trkpt>
      <trkpt lat="45.92824" lon="4.71479">
        <ele>178</ele>
        <time>2017-07-08T09:30:12Z</time>
      </trkpt>
      <trkpt lat="45.92821" lon="4.71491">
        <ele>178</ele>
        <time>2017-07-08T09:30:13Z</time>
      </trkpt>
      <trkpt lat="45.92818" lon="4.71502">
        <ele>175</ele>
        <time>2017-07-08T09:30:14Z</time>
      </trkpt>
      <trkpt lat="45.92815" lon="4.71512">
        <ele>174</ele>
        <time>2017-07-08T09:30:15Z</time>
      </trkpt>
      <trkpt lat="45.92812" lon="4.71523">
        <ele>174</ele>
        <time>2017-07-08T09:30:16Z</time>
      </trkpt>
      <trkpt lat="45.92809" lon="4.71534">
        <ele>173</ele>
        <time>2017-07-08T09:30:17Z</time>
      </trkpt>
      <trkpt lat="45.92805" lon="4.71545">
        <ele>173</ele>
        <time>2017-07-08T09:30:18Z</time>
      </trkpt>
      <trkpt lat="45.928" lon="4.71557">
        <ele>172</ele>
        <time>2017-07-08T09:30:19Z</time>
      </trkpt>
      <trkpt lat="45.92794" lon="4.71569">
        <ele>172</ele>
        <time>2017-07-08T09:30:20Z</time>
      </trkpt>
      <trkpt lat="45.92787" lon="4.71579">
        <ele>172</ele>
        <time>2017-07-08T09:30:21Z</time>
      </trkpt>
      <trkpt lat="45.92781" lon="4.71589">
        <ele>171</ele>
        <time>2017-07-08T09:30:22Z</time>
      </trkpt>
      <trkpt lat="45.92776" lon="4.71598">
        <ele>171</ele>
        <time>2017-07-08T09:30:23Z</time>
      </trkpt>
      <trkpt lat="45.9277" lon="4.71607">
        <ele>171</ele>
        <time>2017-07-08T09:30:24Z</time>
      </trkpt>
      <trkpt lat="45.92765" lon="4.71616">
        <ele>171</ele>
        <time>2017-07-08T09:30:25Z</time>
      </trkpt>
      <trkpt lat="45.9276" lon="4.71624">
        <ele>171</ele>
        <time>2017-07-08T09:30:26Z</time>
      </trkpt>
      <trkpt lat="45.92755" lon="4.71632">
        <ele>171</ele>
        <time>2017-07-08T09:30:27Z</time>
      </trkpt>
      <trkpt lat="45.9275" lon="4.71639">
        <ele>172</ele>
        <time>2017-07-08T09:30:28Z</time>
      </trkpt>
      <trkpt lat="45.92745" lon="4.71647">
        <ele>172</ele>
        <time>2017-07-08T09:30:29Z</time>
      </trkpt>
      <trkpt lat="45.92741" lon="4.71653">
        <ele>172</ele>
        <time>2017-07-08T09:30:30Z</time>
      </trkpt>
      <trkpt lat="45.92737" lon="4.7166">
        <ele>172</ele>
        <time>2017-07-08T09:30:31Z</time>
      </trkpt>
      <trkpt lat="45.92733" lon="4.71667">
        <ele>172</ele>
        <time>2017-07-08T09:30:32Z</time>
      </trkpt>
      <trkpt lat="45.92729" lon="4.71673">
        <ele>173</ele>
        <time>2017-07-08T09:30:33Z</time>
      </trkpt>
      <trkpt lat="45.92726" lon="4.71679">
        <ele>173</ele>
        <time>2017-07-08T09:30:34Z</time>
      </trkpt>
      <trkpt lat="45.92722" lon="4.71686">
        <ele>174</ele>
        <time>2017-07-08T09:30:35Z</time>
      </trkpt>
      <trkpt lat="45.92719" lon="4.71693">
        <ele>174</ele>
        <time>2017-07-08T09:30:36Z</time>
      </trkpt>
      <trkpt lat="45.92717" lon="4.71701">
        <ele>174</ele>
        <time>2017-07-08T09:30:37Z</time>
      </trkpt>
      <trkpt lat="45.92715" lon="4.71708">
        <ele>174</ele>
        <time>2017-07-08T09:30:38Z</time>
      </trkpt>
      <trkpt lat="45.92713" lon="4.71715">
        <ele>174</ele>
        <time>2017-07-08T09:30:39Z</time>
      </trkpt>
      <trkpt lat="45.92712" lon="4.71722">
        <ele>174</ele>
        <time>2017-07-08T09:30:40Z</time>
      </trkpt>
      <trkpt lat="45.92711" lon="4.71729">
        <ele>175</ele>
        <time>2017-07-08T09:30:41Z</time>
      </trkpt>
      <trkpt lat="45.9271" lon="4.71742">
        <ele>175</ele>
        <time>2017-07-08T09:30:43Z</time>
      </trkpt>
      <trkpt lat="45.9271" lon="4.71748">
        <ele>175</ele>
        <time>2017-07-08T09:30:44Z</time>
      </trkpt>
      <trkpt lat="45.92711" lon="4.7176">
        <ele>175</ele>
        <time>2017-07-08T09:30:46Z</time>
      </trkpt>
      <trkpt lat="45.92711" lon="4.71766">
        <ele>175</ele>
        <time>2017-07-08T09:30:47Z</time>
      </trkpt>
      <trkpt lat="45.92712" lon="4.71779">
        <ele>174</ele>
        <time>2017-07-08T09:30:49Z</time>
      </trkpt>
      <trkpt lat="45.92712" lon="4.71786">
        <ele>174</ele>
        <time>2017-07-08T09:30:50Z</time>
      </trkpt>
      <trkpt lat="45.9271" lon="4.71798">
        <ele>174</ele>
        <time>2017-07-08T09:30:52Z</time>
      </trkpt>
      <trkpt lat="45.9271" lon="4.71804">
        <ele>174</ele>
        <time>2017-07-08T09:30:53Z</time>
      </trkpt>
      <trkpt lat="45.9271" lon="4.71815">
        <ele>174</ele>
        <time>2017-07-08T09:30:55Z</time>
      </trkpt>
      <trkpt lat="45.92712" lon="4.71817">
        <ele>174</ele>
        <time>2017-07-08T09:30:56Z</time>
      </trkpt>
      <trkpt lat="45.92719" lon="4.71819">
        <ele>174</ele>
        <time>2017-07-08T09:30:58Z</time>
      </trkpt>
      <trkpt lat="45.92722" lon="4.71821">
        <ele>174</ele>
        <time>2017-07-08T09:30:59Z</time>
      </trkpt>
      <trkpt lat="45.92729" lon="4.71825">
        <ele>174</ele>
        <time>2017-07-08T09:31:01Z</time>
      </trkpt>
      <trkpt lat="45.92733" lon="4.71828">
        <ele>173</ele>
        <time>2017-07-08T09:31:02Z</time>
      </trkpt>
      <trkpt lat="45.92741" lon="4.71833">
        <ele>173</ele>
        <time>2017-07-08T09:31:04Z</time>
      </trkpt>
      <trkpt lat="45.92745" lon="4.71836">
        <ele>173</ele>
        <time>2017-07-08T09:31:05Z</time>
      </trkpt>
      <trkpt lat="45.92752" lon="4.71842">
        <ele>173</ele>
        <time>2017-07-08T09:31:07Z</time>
      </trkpt>
      <trkpt lat="45.92755" lon="4.71845">
        <ele>172</ele>
        <time>2017-07-08T09:31:08Z</time>
      </trkpt>
      <trkpt lat="45.92763" lon="4.7185">
        <ele>172</ele>
        <time>2017-07-08T09:31:10Z</time>
      </trkpt>
      <trkpt lat="45.92766" lon="4.71852">
        <ele>172</ele>
        <time>2017-07-08T09:31:11Z</time>
      </trkpt>
      <trkpt lat="45.92773" lon="4.71856">
        <ele>172</ele>
        <time>2017-07-08T09:31:13Z</time>
      </trkpt>
      <trkpt lat="45.92777" lon="4.71861">
        <ele>172</ele>
        <time>2017-07-08T09:31:14Z</time>
      </trkpt>
      <trkpt lat="45.92781" lon="4.71864">
        <ele>172</ele>
        <time>2017-07-08T09:31:15Z</time>
      </trkpt>
      <trkpt lat="45.92785" lon="4.71867">
        <ele>172</ele>
        <time>2017-07-08T09:31:16Z</time>
      </trkpt>
      <trkpt lat="45.92789" lon="4.71868">
        <ele>172</ele>
        <time>2017-07-08T09:31:17Z</time>
      </trkpt>
      <trkpt lat="45.92794" lon="4.71871">
        <ele>172</ele>
        <time>2017-07-08T09:31:18Z</time>
      </trkpt>
      <trkpt lat="45.92798" lon="4.71874">
        <ele>172</ele>
        <time>2017-07-08T09:31:19Z</time>
      </trkpt>
      <trkpt lat="45.92803" lon="4.71877">
        <ele>171</ele>
        <time>2017-07-08T09:31:20Z</time>
      </trkpt>
      <trkpt lat="45.92807" lon="4.71879">
        <ele>171</ele>
        <time>2017-07-08T09:31:21Z</time>
      </trkpt>
      <trkpt lat="45.92811" lon="4.71882">
        <ele>171</ele>
        <time>2017-07-08T09:31:22Z</time>
      </trkpt>
      <trkpt lat="45.92816" lon="4.71885">
        <ele>171</ele>
        <time>2017-07-08T09:31:23Z</time>
      </trkpt>
      <trkpt lat="45.9282" lon="4.71888">
        <ele>171</ele>
        <time>2017-07-08T09:31:24Z</time>
      </trkpt>
      <trkpt lat="45.92825" lon="4.71891">
        <ele>171</ele>
        <time>2017-07-08T09:31:25Z</time>
      </trkpt>
      <trkpt lat="45.92829" lon="4.71893">
        <ele>171</ele>
        <time>2017-07-08T09:31:26Z</time>
      </trkpt>
      <trkpt lat="45.92837" lon="4.71898">
        <ele>171</ele>
        <time>2017-07-08T09:31:28Z</time>
      </trkpt>
      <trkpt lat="45.9284" lon="4.719">
        <ele>171</ele>
        <time>2017-07-08T09:31:29Z</time>
      </trkpt>
      <trkpt lat="45.92848" lon="4.71905">
        <ele>171</ele>
        <time>2017-07-08T09:31:31Z</time>
      </trkpt>
      <trkpt lat="45.92852" lon="4.71908">
        <ele>171</ele>
        <time>2017-07-08T09:31:32Z</time>
      </trkpt>
      <trkpt lat="45.92857" lon="4.7191">
        <ele>171</ele>
        <time>2017-07-08T09:31:33Z</time>
      </trkpt>
      <trkpt lat="45.92861" lon="4.71913">
        <ele>171</ele>
        <time>2017-07-08T09:31:34Z</time>
      </trkpt>
      <trkpt lat="45.92866" lon="4.71916">
        <ele>171</ele>
        <time>2017-07-08T09:31:35Z</time>
      </trkpt>
      <trkpt lat="45.92871" lon="4.71918">
        <ele>170</ele>
        <time>2017-07-08T09:31:36Z</time>
      </trkpt>
      <trkpt lat="45.92875" lon="4.71921">
        <ele>170</ele>
        <time>2017-07-08T09:31:37Z</time>
      </trkpt>
      <trkpt lat="45.92879" lon="4.71924">
        <ele>170</ele>
        <time>2017-07-08T09:31:38Z</time>
      </trkpt>
      <trkpt lat="45.92887" lon="4.71928">
        <ele>170</ele>
        <time>2017-07-08T09:31:40Z</time>
      </trkpt>
      <trkpt lat="45.92891" lon="4.71931">
        <ele>170</ele>
        <time>2017-07-08T09:31:41Z</time>
      </trkpt>
      <trkpt lat="45.92898" lon="4.71935">
        <ele>170</ele>
        <time>2017-07-08T09:31:43Z</time>
      </trkpt>
      <trkpt lat="45.92901" lon="4.71937">
        <ele>170</ele>
        <time>2017-07-08T09:31:44Z</time>
      </trkpt>
      <trkpt lat="45.92909" lon="4.71938">
        <ele>170</ele>
        <time>2017-07-08T09:31:46Z</time>
      </trkpt>
      <trkpt lat="45.92913" lon="4.7194">
        <ele>170</ele>
        <time>2017-07-08T09:31:47Z</time>
      </trkpt>
      <trkpt lat="45.92921" lon="4.71945">
        <ele>170</ele>
        <time>2017-07-08T09:31:49Z</time>
      </trkpt>
      <trkpt lat="45.92925" lon="4.71946">
        <ele>170</ele>
        <time>2017-07-08T09:31:50Z</time>
      </trkpt>
      <trkpt lat="45.92934" lon="4.71948">
        <ele>170</ele>
        <time>2017-07-08T09:31:52Z</time>
      </trkpt>
      <trkpt lat="45.92937" lon="4.71949">
        <ele>170</ele>
        <time>2017-07-08T09:31:53Z</time>
      </trkpt>
      <trkpt lat="45.92944" lon="4.71952">
        <ele>169</ele>
        <time>2017-07-08T09:31:55Z</time>
      </trkpt>
      <trkpt lat="45.92948" lon="4.71954">
        <ele>169</ele>
        <time>2017-07-08T09:31:56Z</time>
      </trkpt>
      <trkpt lat="45.92955" lon="4.71957">
        <ele>169</ele>
        <time>2017-07-08T09:31:58Z</time>
      </trkpt>
      <trkpt lat="45.92959" lon="4.71958">
        <ele>169</ele>
        <time>2017-07-08T09:31:59Z</time>
      </trkpt>
      <trkpt lat="45.92967" lon="4.7196">
        <ele>169</ele>
        <time>2017-07-08T09:32:01Z</time>
      </trkpt>
      <trkpt lat="45.92971" lon="4.71961">
        <ele>169</ele>
        <time>2017-07-08T09:32:02Z</time>
      </trkpt>
      <trkpt lat="45.9298" lon="4.71964">
        <ele>169</ele>
        <time>2017-07-08T09:32:04Z</time>
      </trkpt>
      <trkpt lat="45.92984" lon="4.71966">
        <ele>169</ele>
        <time>2017-07-08T09:32:05Z</time>
      </trkpt>
      <trkpt lat="45.92989" lon="4.71967">
        <ele>169</ele>
        <time>2017-07-08T09:32:06Z</time>
      </trkpt>
      <trkpt lat="45.92993" lon="4.71969">
        <ele>169</ele>
        <time>2017-07-08T09:32:07Z</time>
      </trkpt>
      <trkpt lat="45.92998" lon="4.7197">
        <ele>169</ele>
        <time>2017-07-08T09:32:08Z</time>
      </trkpt>
      <trkpt lat="45.93002" lon="4.71971">
        <ele>169</ele>
        <time>2017-07-08T09:32:09Z</time>
      </trkpt>
      <trkpt lat="45.93011" lon="4.71974">
        <ele>169</ele>
        <time>2017-07-08T09:32:11Z</time>
      </trkpt>
      <trkpt lat="45.93015" lon="4.71976">
        <ele>169</ele>
        <time>2017-07-08T09:32:12Z</time>
      </trkpt>
      <trkpt lat="45.93023" lon="4.71979">
        <ele>169</ele>
        <time>2017-07-08T09:32:14Z</time>
      </trkpt>
      <trkpt lat="45.93027" lon="4.7198">
        <ele>169</ele>
        <time>2017-07-08T09:32:15Z</time>
      </trkpt>
      <trkpt lat="45.93031" lon="4.71981">
        <ele>169</ele>
        <time>2017-07-08T09:32:16Z</time>
      </trkpt>
      <trkpt lat="45.93036" lon="4.71983">
        <ele>169</ele>
        <time>2017-07-08T09:32:17Z</time>
      </trkpt>
      <trkpt lat="45.9304" lon="4.71984">
        <ele>169</ele>
        <time>2017-07-08T09:32:18Z</time>
      </trkpt>
      <trkpt lat="45.93045" lon="4.71986">
        <ele>169</ele>
        <time>2017-07-08T09:32:19Z</time>
      </trkpt>
      <trkpt lat="45.93049" lon="4.71988">
        <ele>169</ele>
        <time>2017-07-08T09:32:20Z</time>
      </trkpt>
      <trkpt lat="45.93053" lon="4.71989">
        <ele>169</ele>
        <time>2017-07-08T09:32:21Z</time>
      </trkpt>
      <trkpt lat="45.93061" lon="4.71992">
        <ele>169</ele>
        <time>2017-07-08T09:32:23Z</time>
      </trkpt>
      <trkpt lat="45.93065" lon="4.71994">
        <ele>169</ele>
        <time>2017-07-08T09:32:24Z</time>
      </trkpt>
      <trkpt lat="45.93072" lon="4.71996">
        <ele>169</ele>
        <time>2017-07-08T09:32:26Z</time>
      </trkpt>
      <trkpt lat="45.93076" lon="4.71997">
        <ele>169</ele>
        <time>2017-07-08T09:32:27Z</time>
      </trkpt>
      <trkpt lat="45.93083" lon="4.72">
        <ele>169</ele>
        <time>2017-07-08T09:32:29Z</time>
      </trkpt>
      <trkpt lat="45.93087" lon="4.72002">
        <ele>169</ele>
        <time>2017-07-08T09:32:30Z</time>
      </trkpt>
      <trkpt lat="45.93091" lon="4.72004">
        <ele>169</ele>
        <time>2017-07-08T09:32:31Z</time>
      </trkpt>
      <trkpt lat="45.93096" lon="4.72005">
        <ele>169</ele>
        <time>2017-07-08T09:32:32Z</time>
      </trkpt>
      <trkpt lat="45.931" lon="4.72007">
        <ele>169</ele>
        <time>2017-07-08T09:32:33Z</time>
      </trkpt>
      <trkpt lat="45.93105" lon="4.72008">
        <ele>169</ele>
        <time>2017-07-08T09:32:34Z</time>
      </trkpt>
      <trkpt lat="45.93113" lon="4.72011">
        <ele>169</ele>
        <time>2017-07-08T09:32:36Z</time>
      </trkpt>
      <trkpt lat="45.93116" lon="4.72012">
        <ele>169</ele>
        <time>2017-07-08T09:32:37Z</time>
      </trkpt>
      <trkpt lat="45.93123" lon="4.72014">
        <ele>169</ele>
        <time>2017-07-08T09:32:39Z</time>
      </trkpt>
      <trkpt lat="45.93126" lon="4.72015">
        <ele>169</ele>
        <time>2017-07-08T09:32:40Z</time>
      </trkpt>
      <trkpt lat="45.93133" lon="4.72018">
        <ele>169</ele>
        <time>2017-07-08T09:32:42Z</time>
      </trkpt>
      <trkpt lat="45.93136" lon="4.7202">
        <ele>169</ele>
        <time>2017-07-08T09:32:43Z</time>
      </trkpt>
      <trkpt lat="45.93144" lon="4.72023">
        <ele>169</ele>
        <time>2017-07-08T09:32:45Z</time>
      </trkpt>
      <trkpt lat="45.93148" lon="4.72024">
        <ele>169</ele>
        <time>2017-07-08T09:32:46Z</time>
      </trkpt>
      <trkpt lat="45.93156" lon="4.72026">
        <ele>169</ele>
        <time>2017-07-08T09:32:48Z</time>
      </trkpt>
      <trkpt lat="45.9316" lon="4.72026">
        <ele>169</ele>
        <time>2017-07-08T09:32:49Z</time>
      </trkpt>
      <trkpt lat="45.93168" lon="4.72029">
        <ele>170</ele>
        <time>2017-07-08T09:32:51Z</time>
      </trkpt>
      <trkpt lat="45.93171" lon="4.7203">
        <ele>170</ele>
        <time>2017-07-08T09:32:52Z</time>
      </trkpt>
      <trkpt lat="45.93177" lon="4.72034">
        <ele>170</ele>
        <time>2017-07-08T09:32:54Z</time>
      </trkpt>
      <trkpt lat="45.9318" lon="4.72036">
        <ele>170</ele>
        <time>2017-07-08T09:32:55Z</time>
      </trkpt>
      <trkpt lat="45.9318" lon="4.72049">
        <ele>170</ele>
        <time>2017-07-08T09:32:58Z</time>
      </trkpt>
      <trkpt lat="45.93179" lon="4.72054">
        <ele>170</ele>
        <time>2017-07-08T09:32:59Z</time>
      </trkpt>
      <trkpt lat="45.93177" lon="4.72066">
        <ele>169</ele>
        <time>2017-07-08T09:33:01Z</time>
      </trkpt>
      <trkpt lat="45.93176" lon="4.72072">
        <ele>169</ele>
        <time>2017-07-08T09:33:02Z</time>
      </trkpt>
      <trkpt lat="45.93175" lon="4.72084">
        <ele>169</ele>
        <time>2017-07-08T09:33:04Z</time>
      </trkpt>
      <trkpt lat="45.93174" lon="4.7209">
        <ele>169</ele>
        <time>2017-07-08T09:33:05Z</time>
      </trkpt>
      <trkpt lat="45.93174" lon="4.72097">
        <ele>169</ele>
        <time>2017-07-08T09:33:06Z</time>
      </trkpt>
      <trkpt lat="45.93173" lon="4.72103">
        <ele>169</ele>
        <time>2017-07-08T09:33:07Z</time>
      </trkpt>
      <trkpt lat="45.93172" lon="4.7211">
        <ele>170</ele>
        <time>2017-07-08T09:33:08Z</time>
      </trkpt>
      <trkpt lat="45.93172" lon="4.72117">
        <ele>170</ele>
        <time>2017-07-08T09:33:09Z</time>
      </trkpt>
      <trkpt lat="45.93171" lon="4.72125">
        <ele>170</ele>
        <time>2017-07-08T09:33:10Z</time>
      </trkpt>
      <trkpt lat="45.93171" lon="4.72132">
        <ele>170</ele>
        <time>2017-07-08T09:33:11Z</time>
      </trkpt>
      <trkpt lat="45.9317" lon="4.72139">
        <ele>170</ele>
        <time>2017-07-08T09:33:12Z</time>
      </trkpt>
      <trkpt lat="45.9317" lon="4.72145">
        <ele>170</ele>
        <time>2017-07-08T09:33:13Z</time>
      </trkpt>
      <trkpt lat="45.93169" lon="4.72157">
        <ele>169</ele>
        <time>2017-07-08T09:33:15Z</time>
      </trkpt>
      <trkpt lat="45.93168" lon="4.72163">
        <ele>169</ele>
        <time>2017-07-08T09:33:16Z</time>
      </trkpt>
      <trkpt lat="45.93167" lon="4.72173">
        <ele>169</ele>
        <time>2017-07-08T09:33:18Z</time>
      </trkpt>
      <trkpt lat="45.93166" lon="4.72178">
        <ele>169</ele>
        <time>2017-07-08T09:33:19Z</time>
      </trkpt>
      <trkpt lat="45.93165" lon="4.72188">
        <ele>170</ele>
        <time>2017-07-08T09:33:21Z</time>
      </trkpt>
      <trkpt lat="45.93165" lon="4.72193">
        <ele>170</ele>
        <time>2017-07-08T09:33:22Z</time>
      </trkpt>
      <trkpt lat="45.93164" lon="4.72204">
        <ele>170</ele>
        <time>2017-07-08T09:33:24Z</time>
      </trkpt>
      <trkpt lat="45.93164" lon="4.72209">
        <ele>170</ele>
        <time>2017-07-08T09:33:25Z</time>
      </trkpt>
      <trkpt lat="45.93167" lon="4.72218">
        <ele>170</ele>
        <time>2017-07-08T09:33:27Z</time>
      </trkpt>
      <trkpt lat="45.9317" lon="4.72221">
        <ele>170</ele>
        <time>2017-07-08T09:33:28Z</time>
      </trkpt>
      <trkpt lat="45.93176" lon="4.72223">
        <ele>170</ele>
        <time>2017-07-08T09:33:30Z</time>
      </trkpt>
      <trkpt lat="45.9318" lon="4.72223">
        <ele>170</ele>
        <time>2017-07-08T09:33:31Z</time>
      </trkpt>
      <trkpt lat="45.93184" lon="4.72222">
        <ele>170</ele>
        <time>2017-07-08T09:33:32Z</time>
      </trkpt>
      <trkpt lat="45.93189" lon="4.72222">
        <ele>171</ele>
        <time>2017-07-08T09:33:33Z</time>
      </trkpt>
      <trkpt lat="45.93194" lon="4.72221">
        <ele>171</ele>
        <time>2017-07-08T09:33:34Z</time>
      </trkpt>
      <trkpt lat="45.93199" lon="4.72221">
        <ele>171</ele>
        <time>2017-07-08T09:33:35Z</time>
      </trkpt>
      <trkpt lat="45.93207" lon="4.7222">
        <ele>171</ele>
        <time>2017-07-08T09:33:37Z</time>
      </trkpt>
      <trkpt lat="45.93211" lon="4.7222">
        <ele>171</ele>
        <time>2017-07-08T09:33:38Z</time>
      </trkpt>
      <trkpt lat="45.93219" lon="4.72219">
        <ele>171</ele>
        <time>2017-07-08T09:33:40Z</time>
      </trkpt>
      <trkpt lat="45.93223" lon="4.72218">
        <ele>171</ele>
        <time>2017-07-08T09:33:41Z</time>
      </trkpt>
      <trkpt lat="45.93231" lon="4.72216">
        <ele>171</ele>
        <time>2017-07-08T09:33:43Z</time>
      </trkpt>
      <trkpt lat="45.93236" lon="4.72215">
        <ele>171</ele>
        <time>2017-07-08T09:33:44Z</time>
      </trkpt>
      <trkpt lat="45.9324" lon="4.72214">
        <ele>171</ele>
        <time>2017-07-08T09:33:45Z</time>
      </trkpt>
      <trkpt lat="45.93246" lon="4.72214">
        <ele>171</ele>
        <time>2017-07-08T09:33:46Z</time>
      </trkpt>
      <trkpt lat="45.93251" lon="4.72215">
        <ele>174</ele>
        <time>2017-07-08T09:33:47Z</time>
      </trkpt>
      <trkpt lat="45.93257" lon="4.72216">
        <ele>174</ele>
        <time>2017-07-08T09:33:48Z</time>
      </trkpt>
      <trkpt lat="45.93264" lon="4.72218">
        <ele>174</ele>
        <time>2017-07-08T09:33:50Z</time>
      </trkpt>
      <trkpt lat="45.93269" lon="4.72219">
        <ele>174</ele>
        <time>2017-07-08T09:33:51Z</time>
      </trkpt>
      <trkpt lat="45.93275" lon="4.7222">
        <ele>174</ele>
        <time>2017-07-08T09:33:52Z</time>
      </trkpt>
      <trkpt lat="45.93279" lon="4.7222">
        <ele>174</ele>
        <time>2017-07-08T09:33:53Z</time>
      </trkpt>
      <trkpt lat="45.93287" lon="4.7222">
        <ele>174</ele>
        <time>2017-07-08T09:33:55Z</time>
      </trkpt>
      <trkpt lat="45.93291" lon="4.7222">
        <ele>175</ele>
        <time>2017-07-08T09:33:56Z</time>
      </trkpt>
      <trkpt lat="45.93298" lon="4.72219">
        <ele>175</ele>
        <time>2017-07-08T09:33:58Z</time>
      </trkpt>
      <trkpt lat="45.93302" lon="4.72218">
        <ele>175</ele>
        <time>2017-07-08T09:33:59Z</time>
      </trkpt>
      <trkpt lat="45.9331" lon="4.72219">
        <ele>175</ele>
        <time>2017-07-08T09:34:01Z</time>
      </trkpt>
      <trkpt lat="45.93315" lon="4.72219">
        <ele>175</ele>
        <time>2017-07-08T09:34:02Z</time>
      </trkpt>
      <trkpt lat="45.93319" lon="4.72218">
        <ele>175</ele>
        <time>2017-07-08T09:34:03Z</time>
      </trkpt>
      <trkpt lat="45.93326" lon="4.72217">
        <ele>175</ele>
        <time>2017-07-08T09:34:04Z</time>
      </trkpt>
      <trkpt lat="45.93332" lon="4.72216">
        <ele>176</ele>
        <time>2017-07-08T09:34:05Z</time>
      </trkpt>
      <trkpt lat="45.93337" lon="4.72214">
        <ele>176</ele>
        <time>2017-07-08T09:34:06Z</time>
      </trkpt>
      <trkpt lat="45.93343" lon="4.72214">
        <ele>176</ele>
        <time>2017-07-08T09:34:07Z</time>
      </trkpt>
      <trkpt lat="45.93348" lon="4.72212">
        <ele>176</ele>
        <time>2017-07-08T09:34:08Z</time>
      </trkpt>
      <trkpt lat="45.93354" lon="4.7221">
        <ele>177</ele>
        <time>2017-07-08T09:34:09Z</time>
      </trkpt>
      <trkpt lat="45.93358" lon="4.72209">
        <ele>176</ele>
        <time>2017-07-08T09:34:10Z</time>
      </trkpt>
      <trkpt lat="45.93366" lon="4.72209">
        <ele>176</ele>
        <time>2017-07-08T09:34:12Z</time>
      </trkpt>
      <trkpt lat="45.9337" lon="4.72209">
        <ele>176</ele>
        <time>2017-07-08T09:34:13Z</time>
      </trkpt>
      <trkpt lat="45.93378" lon="4.72209">
        <ele>176</ele>
        <time>2017-07-08T09:34:15Z</time>
      </trkpt>
      <trkpt lat="45.93382" lon="4.72209">
        <ele>176</ele>
        <time>2017-07-08T09:34:16Z</time>
      </trkpt>
      <trkpt lat="45.93387" lon="4.72209">
        <ele>176</ele>
        <time>2017-07-08T09:34:17Z</time>
      </trkpt>
      <trkpt lat="45.93392" lon="4.72208">
        <ele>176</ele>
        <time>2017-07-08T09:34:18Z</time>
      </trkpt>
      <trkpt lat="45.93397" lon="4.72207">
        <ele>176</ele>
        <time>2017-07-08T09:34:19Z</time>
      </trkpt>
      <trkpt lat="45.93403" lon="4.72207">
        <ele>176</ele>
        <time>2017-07-08T09:34:20Z</time>
      </trkpt>
      <trkpt lat="45.9341" lon="4.72203">
        <ele>176</ele>
        <time>2017-07-08T09:34:21Z</time>
      </trkpt>
      <trkpt lat="45.93414" lon="4.722">
        <ele>176</ele>
        <time>2017-07-08T09:34:22Z</time>
      </trkpt>
      <trkpt lat="45.93419" lon="4.72195">
        <ele>175</ele>
        <time>2017-07-08T09:34:23Z</time>
      </trkpt>
      <trkpt lat="45.93423" lon="4.72192">
        <ele>175</ele>
        <time>2017-07-08T09:34:24Z</time>
      </trkpt>
      <trkpt lat="45.93427" lon="4.72188">
        <ele>175</ele>
        <time>2017-07-08T09:34:25Z</time>
      </trkpt>
      <trkpt lat="45.93431" lon="4.72186">
        <ele>175</ele>
        <time>2017-07-08T09:34:26Z</time>
      </trkpt>
      <trkpt lat="45.93439" lon="4.72183">
        <ele>175</ele>
        <time>2017-07-08T09:34:28Z</time>
      </trkpt>
      <trkpt lat="45.93442" lon="4.72183">
        <ele>174</ele>
        <time>2017-07-08T09:34:29Z</time>
      </trkpt>
      <trkpt lat="45.93449" lon="4.72184">
        <ele>174</ele>
        <time>2017-07-08T09:34:31Z</time>
      </trkpt>
      <trkpt lat="45.93453" lon="4.72185">
        <ele>174</ele>
        <time>2017-07-08T09:34:32Z</time>
      </trkpt>
      <trkpt lat="45.93461" lon="4.72187">
        <ele>174</ele>
        <time>2017-07-08T09:34:34Z</time>
      </trkpt>
      <trkpt lat="45.93466" lon="4.72189">
        <ele>174</ele>
        <time>2017-07-08T09:34:35Z</time>
      </trkpt>
      <trkpt lat="45.9347" lon="4.7219">
        <ele>174</ele>
        <time>2017-07-08T09:34:36Z</time>
      </trkpt>
      <trkpt lat="45.93475" lon="4.72192">
        <ele>173</ele>
        <time>2017-07-08T09:34:37Z</time>
      </trkpt>
      <trkpt lat="45.93482" lon="4.72195">
        <ele>173</ele>
        <time>2017-07-08T09:34:39Z</time>
      </trkpt>
      <trkpt lat="45.93486" lon="4.72196">
        <ele>173</ele>
        <time>2017-07-08T09:34:40Z</time>
      </trkpt>
      <trkpt lat="45.93492" lon="4.72203">
        <ele>173</ele>
        <time>2017-07-08T09:34:43Z</time>
      </trkpt>
      <trkpt lat="45.93496" lon="4.72204">
        <ele>173</ele>
        <time>2017-07-08T09:34:44Z</time>
      </trkpt>
      <trkpt lat="45.93503" lon="4.72205">
        <ele>172</ele>
        <time>2017-07-08T09:34:46Z</time>
      </trkpt>
      <trkpt lat="45.93506" lon="4.72207">
        <ele>172</ele>
        <time>2017-07-08T09:34:47Z</time>
      </trkpt>
      <trkpt lat="45.93514" lon="4.72212">
        <ele>172</ele>
        <time>2017-07-08T09:34:50Z</time>
      </trkpt>
      <trkpt lat="45.93518" lon="4.72211">
        <ele>172</ele>
        <time>2017-07-08T09:34:51Z</time>
      </trkpt>
      <trkpt lat="45.93524" lon="4.72212">
        <ele>172</ele>
        <time>2017-07-08T09:34:52Z</time>
      </trkpt>
      <trkpt lat="45.93527" lon="4.72213">
        <ele>172</ele>
        <time>2017-07-08T09:34:53Z</time>
      </trkpt>
      <trkpt lat="45.93533" lon="4.72214">
        <ele>172</ele>
        <time>2017-07-08T09:34:54Z</time>
      </trkpt>
      <trkpt lat="45.93536" lon="4.72215">
        <ele>172</ele>
        <time>2017-07-08T09:34:55Z</time>
      </trkpt>
      <trkpt lat="45.93544" lon="4.7222">
        <ele>172</ele>
        <time>2017-07-08T09:34:58Z</time>
      </trkpt>
      <trkpt lat="45.93545" lon="4.72222">
        <ele>172</ele>
        <time>2017-07-08T09:34:59Z</time>
      </trkpt>
      <trkpt lat="45.93544" lon="4.72232">
        <ele>172</ele>
        <time>2017-07-08T09:35:09Z</time>
      </trkpt>
      <trkpt lat="45.93543" lon="4.72235">
        <ele>172</ele>
        <time>2017-07-08T09:35:10Z</time>
      </trkpt>
      <trkpt lat="45.93539" lon="4.72242">
        <ele>172</ele>
        <time>2017-07-08T09:35:12Z</time>
      </trkpt>
      <trkpt lat="45.93538" lon="4.72246">
        <ele>172</ele>
        <time>2017-07-08T09:35:13Z</time>
      </trkpt>
      <trkpt lat="45.93535" lon="4.72256">
        <ele>172</ele>
        <time>2017-07-08T09:35:15Z</time>
      </trkpt>
      <trkpt lat="45.93533" lon="4.72261">
        <ele>172</ele>
        <time>2017-07-08T09:35:16Z</time>
      </trkpt>
      <trkpt lat="45.9353" lon="4.72272">
        <ele>172</ele>
        <time>2017-07-08T09:35:18Z</time>
      </trkpt>
      <trkpt lat="45.93527" lon="4.72278">
        <ele>172</ele>
        <time>2017-07-08T09:35:19Z</time>
      </trkpt>
      <trkpt lat="45.93525" lon="4.72285">
        <ele>172</ele>
        <time>2017-07-08T09:35:20Z</time>
      </trkpt>
      <trkpt lat="45.93523" lon="4.72291">
        <ele>172</ele>
        <time>2017-07-08T09:35:21Z</time>
      </trkpt>
      <trkpt lat="45.9352" lon="4.72297">
        <ele>172</ele>
        <time>2017-07-08T09:35:22Z</time>
      </trkpt>
      <trkpt lat="45.93517" lon="4.72304">
        <ele>173</ele>
        <time>2017-07-08T09:35:23Z</time>
      </trkpt>
      <trkpt lat="45.93514" lon="4.7231">
        <ele>173</ele>
        <time>2017-07-08T09:35:24Z</time>
      </trkpt>
      <trkpt lat="45.93512" lon="4.72317">
        <ele>173</ele>
        <time>2017-07-08T09:35:25Z</time>
      </trkpt>
      <trkpt lat="45.93512" lon="4.72325">
        <ele>173</ele>
        <time>2017-07-08T09:35:26Z</time>
      </trkpt>
      <trkpt lat="45.93514" lon="4.72332">
        <ele>173</ele>
        <time>2017-07-08T09:35:27Z</time>
      </trkpt>
      <trkpt lat="45.93517" lon="4.7234">
        <ele>173</ele>
        <time>2017-07-08T09:35:28Z</time>
      </trkpt>
      <trkpt lat="45.9352" lon="4.72347">
        <ele>173</ele>
        <time>2017-07-08T09:35:29Z</time>
      </trkpt>
      <trkpt lat="45.93524" lon="4.72354">
        <ele>173</ele>
        <time>2017-07-08T09:35:30Z</time>
      </trkpt>
      <trkpt lat="45.93528" lon="4.72361">
        <ele>173</ele>
        <time>2017-07-08T09:35:31Z</time>
      </trkpt>
      <trkpt lat="45.93531" lon="4.72369">
        <ele>173</ele>
        <time>2017-07-08T09:35:32Z</time>
      </trkpt>
      <trkpt lat="45.93535" lon="4.72376">
        <ele>173</ele>
        <time>2017-07-08T09:35:33Z</time>
      </trkpt>
      <trkpt lat="45.93538" lon="4.72384">
        <ele>173</ele>
        <time>2017-07-08T09:35:34Z</time>
      </trkpt>
      <trkpt lat="45.93541" lon="4.72391">
        <ele>173</ele>
        <time>2017-07-08T09:35:35Z</time>
      </trkpt>
      <trkpt lat="45.93543" lon="4.72398">
        <ele>173</ele>
        <time>2017-07-08T09:35:36Z</time>
      </trkpt>
      <trkpt lat="45.93546" lon="4.72406">
        <ele>173</ele>
        <time>2017-07-08T09:35:37Z</time>
      </trkpt>
      <trkpt lat="45.93547" lon="4.72413">
        <ele>173</ele>
        <time>2017-07-08T09:35:38Z</time>
      </trkpt>
      <trkpt lat="45.93548" lon="4.72421">
        <ele>172</ele>
        <time>2017-07-08T09:35:39Z</time>
      </trkpt>
      <trkpt lat="45.93548" lon="4.72428">
        <ele>172</ele>
        <time>2017-07-08T09:35:40Z</time>
      </trkpt>
      <trkpt lat="45.93548" lon="4.72436">
        <ele>172</ele>
        <time>2017-07-08T09:35:41Z</time>
      </trkpt>
      <trkpt lat="45.93547" lon="4.72443">
        <ele>172</ele>
        <time>2017-07-08T09:35:42Z</time>
      </trkpt>
      <trkpt lat="45.93547" lon="4.7245">
        <ele>172</ele>
        <time>2017-07-08T09:35:43Z</time>
      </trkpt>
      <trkpt lat="45.93547" lon="4.72457">
        <ele>172</ele>
        <time>2017-07-08T09:35:44Z</time>
      </trkpt>
      <trkpt lat="45.93548" lon="4.72464">
        <ele>172</ele>
        <time>2017-07-08T09:35:45Z</time>
      </trkpt>
      <trkpt lat="45.93551" lon="4.7247">
        <ele>172</ele>
        <time>2017-07-08T09:35:46Z</time>
      </trkpt>
      <trkpt lat="45.93553" lon="4.72476">
        <ele>172</ele>
        <time>2017-07-08T09:35:47Z</time>
      </trkpt>
      <trkpt lat="45.93555" lon="4.72482">
        <ele>172</ele>
        <time>2017-07-08T09:35:48Z</time>
      </trkpt>
      <trkpt lat="45.93558" lon="4.72487">
        <ele>172</ele>
        <time>2017-07-08T09:35:49Z</time>
      </trkpt>
      <trkpt lat="45.93562" lon="4.72498">
        <ele>172</ele>
        <time>2017-07-08T09:35:51Z</time>
      </trkpt>
      <trkpt lat="45.93564" lon="4.72504">
        <ele>172</ele>
        <time>2017-07-08T09:35:52Z</time>
      </trkpt>
      <trkpt lat="45.93567" lon="4.72509">
        <ele>172</ele>
        <time>2017-07-08T09:35:53Z</time>
      </trkpt>
      <trkpt lat="45.93569" lon="4.72515">
        <ele>172</ele>
        <time>2017-07-08T09:35:54Z</time>
      </trkpt>
      <trkpt lat="45.93572" lon="4.72522">
        <ele>172</ele>
        <time>2017-07-08T09:35:55Z</time>
      </trkpt>
      <trkpt lat="45.93574" lon="4.72528">
        <ele>172</ele>
        <time>2017-07-08T09:35:56Z</time>
      </trkpt>
      <trkpt lat="45.93578" lon="4.72534">
        <ele>172</ele>
        <time>2017-07-08T09:35:57Z</time>
      </trkpt>
      <trkpt lat="45.9358" lon="4.7254">
        <ele>172</ele>
        <time>2017-07-08T09:35:58Z</time>
      </trkpt>
      <trkpt lat="45.93585" lon="4.7255">
        <ele>172</ele>
        <time>2017-07-08T09:36:00Z</time>
      </trkpt>
      <trkpt lat="45.93588" lon="4.72555">
        <ele>172</ele>
        <time>2017-07-08T09:36:01Z</time>
      </trkpt>
      <trkpt lat="45.93595" lon="4.72559">
        <ele>173</ele>
        <time>2017-07-08T09:36:03Z</time>
      </trkpt>
      <trkpt lat="45.93598" lon="4.7256">
        <ele>173</ele>
        <time>2017-07-08T09:36:04Z</time>
      </trkpt>
      <trkpt lat="45.93605" lon="4.72554">
        <ele>172</ele>
        <time>2017-07-08T09:36:06Z</time>
      </trkpt>
      <trkpt lat="45.93608" lon="4.7255">
        <ele>172</ele>
        <time>2017-07-08T09:36:07Z</time>
      </trkpt>
      <trkpt lat="45.93613" lon="4.7254">
        <ele>172</ele>
        <time>2017-07-08T09:36:09Z</time>
      </trkpt>
      <trkpt lat="45.93615" lon="4.72535">
        <ele>172</ele>
        <time>2017-07-08T09:36:10Z</time>
      </trkpt>
      <trkpt lat="45.93618" lon="4.7253">
        <ele>172</ele>
        <time>2017-07-08T09:36:11Z</time>
      </trkpt>
      <trkpt lat="45.93621" lon="4.72525">
        <ele>172</ele>
        <time>2017-07-08T09:36:12Z</time>
      </trkpt>
      <trkpt lat="45.93625" lon="4.72519">
        <ele>172</ele>
        <time>2017-07-08T09:36:13Z</time>
      </trkpt>
      <trkpt lat="45.93628" lon="4.72513">
        <ele>172</ele>
        <time>2017-07-08T09:36:14Z</time>
      </trkpt>
      <trkpt lat="45.93631" lon="4.72508">
        <ele>172</ele>
        <time>2017-07-08T09:36:15Z</time>
      </trkpt>
      <trkpt lat="45.93634" lon="4.72502">
        <ele>172</ele>
        <time>2017-07-08T09:36:16Z</time>
      </trkpt>
      <trkpt lat="45.93637" lon="4.72497">
        <ele>172</ele>
        <time>2017-07-08T09:36:17Z</time>
      </trkpt>
      <trkpt lat="45.93641" lon="4.72491">
        <ele>172</ele>
        <time>2017-07-08T09:36:18Z</time>
      </trkpt>
      <trkpt lat="45.93646" lon="4.72481">
        <ele>172</ele>
        <time>2017-07-08T09:36:20Z</time>
      </trkpt>
      <trkpt lat="45.93648" lon="4.72476">
        <ele>172</ele>
        <time>2017-07-08T09:36:21Z</time>
      </trkpt>
      <trkpt lat="45.93651" lon="4.72471">
        <ele>172</ele>
        <time>2017-07-08T09:36:22Z</time>
      </trkpt>
      <trkpt lat="45.93654" lon="4.72467">
        <ele>172</ele>
        <time>2017-07-08T09:36:23Z</time>
      </trkpt>
      <trkpt lat="45.93661" lon="4.7246">
        <ele>172</ele>
        <time>2017-07-08T09:36:25Z</time>
      </trkpt>
      <trkpt lat="45.93664" lon="4.72457">
        <ele>172</ele>
        <time>2017-07-08T09:36:26Z</time>
      </trkpt>
      <trkpt lat="45.93672" lon="4.72454">
        <ele>171</ele>
        <time>2017-07-08T09:36:29Z</time>
      </trkpt>
      <trkpt lat="45.93676" lon="4.72457">
        <ele>171</ele>
        <time>2017-07-08T09:36:30Z</time>
      </trkpt>
      <trkpt lat="45.93682" lon="4.72464">
        <ele>171</ele>
        <time>2017-07-08T09:36:32Z</time>
      </trkpt>
      <trkpt lat="45.93685" lon="4.72469">
        <ele>171</ele>
        <time>2017-07-08T09:36:33Z</time>
      </trkpt>
      <trkpt lat="45.93689" lon="4.72473">
        <ele>171</ele>
        <time>2017-07-08T09:36:34Z</time>
      </trkpt>
      <trkpt lat="45.93693" lon="4.72477">
        <ele>171</ele>
        <time>2017-07-08T09:36:35Z</time>
      </trkpt>
      <trkpt lat="45.93697" lon="4.72481">
        <ele>171</ele>
        <time>2017-07-08T09:36:36Z</time>
      </trkpt>
      <trkpt lat="45.93702" lon="4.72485">
        <ele>171</ele>
        <time>2017-07-08T09:36:37Z</time>
      </trkpt>
      <trkpt lat="45.93708" lon="4.72489">
        <ele>171</ele>
        <time>2017-07-08T09:36:38Z</time>
      </trkpt>
      <trkpt lat="45.93712" lon="4.72492">
        <ele>171</ele>
        <time>2017-07-08T09:36:39Z</time>
      </trkpt>
      <trkpt lat="45.93716" lon="4.72496">
        <ele>171</ele>
        <time>2017-07-08T09:36:40Z</time>
      </trkpt>
      <trkpt lat="45.9372" lon="4.72499">
        <ele>171</ele>
        <time>2017-07-08T09:36:41Z</time>
      </trkpt>
      <trkpt lat="45.93728" lon="4.72505">
        <ele>171</ele>
        <time>2017-07-08T09:36:43Z</time>
      </trkpt>
      <trkpt lat="45.93731" lon="4.72509">
        <ele>171</ele>
        <time>2017-07-08T09:36:44Z</time>
      </trkpt>
      <trkpt lat="45.93739" lon="4.72516">
        <ele>171</ele>
        <time>2017-07-08T09:36:46Z</time>
      </trkpt>
      <trkpt lat="45.93743" lon="4.72519">
        <ele>171</ele>
        <time>2017-07-08T09:36:47Z</time>
      </trkpt>
      <trkpt lat="45.93747" lon="4.72523">
        <ele>172</ele>
        <time>2017-07-08T09:36:48Z</time>
      </trkpt>
      <trkpt lat="45.93751" lon="4.72527">
        <ele>172</ele>
        <time>2017-07-08T09:36:49Z</time>
      </trkpt>
      <trkpt lat="45.93756" lon="4.7253">
        <ele>172</ele>
        <time>2017-07-08T09:36:50Z</time>
      </trkpt>
      <trkpt lat="45.9376" lon="4.72534">
        <ele>173</ele>
        <time>2017-07-08T09:36:51Z</time>
      </trkpt>
      <trkpt lat="45.93764" lon="4.72537">
        <ele>173</ele>
        <time>2017-07-08T09:36:52Z</time>
      </trkpt>
      <trkpt lat="45.93768" lon="4.7254">
        <ele>173</ele>
        <time>2017-07-08T09:36:53Z</time>
      </trkpt>
      <trkpt lat="45.93772" lon="4.72544">
        <ele>173</ele>
        <time>2017-07-08T09:36:54Z</time>
      </trkpt>
      <trkpt lat="45.93775" lon="4.72548">
        <ele>173</ele>
        <time>2017-07-08T09:36:55Z</time>
      </trkpt>
      <trkpt lat="45.93781" lon="4.72556">
        <ele>173</ele>
        <time>2017-07-08T09:36:57Z</time>
      </trkpt>
      <trkpt lat="45.93782" lon="4.72559">
        <ele>174</ele>
        <time>2017-07-08T09:36:58Z</time>
      </trkpt>
      <trkpt lat="45.93787" lon="4.72565">
        <ele>174</ele>
        <time>2017-07-08T09:37:00Z</time>
      </trkpt>
      <trkpt lat="45.9379" lon="4.72567">
        <ele>174</ele>
        <time>2017-07-08T09:37:01Z</time>
      </trkpt>
      <trkpt lat="45.93796" lon="4.72573">
        <ele>174</ele>
        <time>2017-07-08T09:37:03Z</time>
      </trkpt>
      <trkpt lat="45.93795" lon="4.72581">
        <ele>174</ele>
        <time>2017-07-08T09:37:04Z</time>
      </trkpt>
      <trkpt lat="45.93799" lon="4.72591">
        <ele>174</ele>
        <time>2017-07-08T09:37:06Z</time>
      </trkpt>
      <trkpt lat="45.93803" lon="4.72596">
        <ele>174</ele>
        <time>2017-07-08T09:37:07Z</time>
      </trkpt>
      <trkpt lat="45.93805" lon="4.72601">
        <ele>173</ele>
        <time>2017-07-08T09:37:08Z</time>
      </trkpt>
      <trkpt lat="45.93807" lon="4.72609">
        <ele>173</ele>
        <time>2017-07-08T09:37:09Z</time>
      </trkpt>
      <trkpt lat="45.93807" lon="4.72619">
        <ele>173</ele>
        <time>2017-07-08T09:37:11Z</time>
      </trkpt>
      <trkpt lat="45.93806" lon="4.72622">
        <ele>173</ele>
        <time>2017-07-08T09:37:12Z</time>
      </trkpt>
      <trkpt lat="45.93803" lon="4.72629">
        <ele>173</ele>
        <time>2017-07-08T09:37:14Z</time>
      </trkpt>
      <trkpt lat="45.93801" lon="4.72633">
        <ele>173</ele>
        <time>2017-07-08T09:37:15Z</time>
      </trkpt>
      <trkpt lat="45.93795" lon="4.72642">
        <ele>173</ele>
        <time>2017-07-08T09:37:17Z</time>
      </trkpt>
      <trkpt lat="45.93792" lon="4.72646">
        <ele>173</ele>
        <time>2017-07-08T09:37:18Z</time>
      </trkpt>
      <trkpt lat="45.93788" lon="4.7265">
        <ele>173</ele>
        <time>2017-07-08T09:37:19Z</time>
      </trkpt>
      <trkpt lat="45.93785" lon="4.72654">
        <ele>173</ele>
        <time>2017-07-08T09:37:20Z</time>
      </trkpt>
      <trkpt lat="45.93781" lon="4.72659">
        <ele>173</ele>
        <time>2017-07-08T09:37:21Z</time>
      </trkpt>
      <trkpt lat="45.93777" lon="4.72663">
        <ele>173</ele>
        <time>2017-07-08T09:37:22Z</time>
      </trkpt>
      <trkpt lat="45.93773" lon="4.72668">
        <ele>172</ele>
        <time>2017-07-08T09:37:23Z</time>
      </trkpt>
      <trkpt lat="45.9377" lon="4.72672">
        <ele>173</ele>
        <time>2017-07-08T09:37:24Z</time>
      </trkpt>
      <trkpt lat="45.93763" lon="4.7268">
        <ele>173</ele>
        <time>2017-07-08T09:37:26Z</time>
      </trkpt>
      <trkpt lat="45.9376" lon="4.72683">
        <ele>173</ele>
        <time>2017-07-08T09:37:27Z</time>
      </trkpt>
      <trkpt lat="45.93753" lon="4.72689">
        <ele>173</ele>
        <time>2017-07-08T09:37:29Z</time>
      </trkpt>
      <trkpt lat="45.9375" lon="4.72693">
        <ele>173</ele>
        <time>2017-07-08T09:37:30Z</time>
      </trkpt>
      <trkpt lat="45.93743" lon="4.727">
        <ele>173</ele>
        <time>2017-07-08T09:37:32Z</time>
      </trkpt>
      <trkpt lat="45.93739" lon="4.72704">
        <ele>173</ele>
        <time>2017-07-08T09:37:33Z</time>
      </trkpt>
      <trkpt lat="45.93735" lon="4.72708">
        <ele>173</ele>
        <time>2017-07-08T09:37:34Z</time>
      </trkpt>
      <trkpt lat="45.93731" lon="4.72712">
        <ele>173</ele>
        <time>2017-07-08T09:37:35Z</time>
      </trkpt>
      <trkpt lat="45.93726" lon="4.72716">
        <ele>173</ele>
        <time>2017-07-08T09:37:36Z</time>
      </trkpt>
      <trkpt lat="45.93722" lon="4.72721">
        <ele>173</ele>
        <time>2017-07-08T09:37:37Z</time>
      </trkpt>
      <trkpt lat="45.93717" lon="4.72725">
        <ele>173</ele>
        <time>2017-07-08T09:37:38Z</time>
      </trkpt>
      <trkpt lat="45.93713" lon="4.72729">
        <ele>173</ele>
        <time>2017-07-08T09:37:39Z</time>
      </trkpt>
      <trkpt lat="45.93708" lon="4.72733">
        <ele>173</ele>
        <time>2017-07-08T09:37:40Z</time>
      </trkpt>
      <trkpt lat="45.93705" lon="4.72736">
        <ele>173</ele>
        <time>2017-07-08T09:37:41Z</time>
      </trkpt>
      <trkpt lat="45.93697" lon="4.72743">
        <ele>173</ele>
        <time>2017-07-08T09:37:43Z</time>
      </trkpt>
      <trkpt lat="45.93694" lon="4.72747">
        <ele>173</ele>
        <time>2017-07-08T09:37:44Z</time>
      </trkpt>
      <trkpt lat="45.93687" lon="4.72753">
        <ele>173</ele>
        <time>2017-07-08T09:37:46Z</time>
      </trkpt>
      <trkpt lat="45.93684" lon="4.72756">
        <ele>173</ele>
        <time>2017-07-08T09:37:47Z</time>
      </trkpt>
      <trkpt lat="45.93677" lon="4.72763">
        <ele>173</ele>
        <time>2017-07-08T09:37:49Z</time>
      </trkpt>
      <trkpt lat="45.93674" lon="4.72765">
        <ele>173</ele>
        <time>2017-07-08T09:37:50Z</time>
      </trkpt>
      <trkpt lat="45.93667" lon="4.72771">
        <ele>173</ele>
        <time>2017-07-08T09:37:52Z</time>
      </trkpt>
      <trkpt lat="45.93664" lon="4.72774">
        <ele>174</ele>
        <time>2017-07-08T09:37:53Z</time>
      </trkpt>
      <trkpt lat="45.93656" lon="4.72779">
        <ele>174</ele>
        <time>2017-07-08T09:37:55Z</time>
      </trkpt>
      <trkpt lat="45.93652" lon="4.72782">
        <ele>174</ele>
        <time>2017-07-08T09:37:56Z</time>
      </trkpt>
      <trkpt lat="45.93644" lon="4.72787">
        <ele>173</ele>
        <time>2017-07-08T09:37:58Z</time>
      </trkpt>
      <trkpt lat="45.9364" lon="4.7279">
        <ele>173</ele>
        <time>2017-07-08T09:37:59Z</time>
      </trkpt>
      <trkpt lat="45.93633" lon="4.72796">
        <ele>173</ele>
        <time>2017-07-08T09:38:01Z</time>
      </trkpt>
      <trkpt lat="45.93629" lon="4.72798">
        <ele>173</ele>
        <time>2017-07-08T09:38:02Z</time>
      </trkpt>
      <trkpt lat="45.93621" lon="4.72804">
        <ele>173</ele>
        <time>2017-07-08T09:38:04Z</time>
      </trkpt>
      <trkpt lat="45.93618" lon="4.72807">
        <ele>173</ele>
        <time>2017-07-08T09:38:05Z</time>
      </trkpt>
      <trkpt lat="45.9361" lon="4.72813">
        <ele>173</ele>
        <time>2017-07-08T09:38:07Z</time>
      </trkpt>
      <trkpt lat="45.93606" lon="4.72817">
        <ele>173</ele>
        <time>2017-07-08T09:38:08Z</time>
      </trkpt>
      <trkpt lat="45.93602" lon="4.7282">
        <ele>173</ele>
        <time>2017-07-08T09:38:09Z</time>
      </trkpt>
      <trkpt lat="45.93597" lon="4.72824">
        <ele>173</ele>
        <time>2017-07-08T09:38:10Z</time>
      </trkpt>
      <trkpt lat="45.93593" lon="4.72827">
        <ele>173</ele>
        <time>2017-07-08T09:38:11Z</time>
      </trkpt>
      <trkpt lat="45.93588" lon="4.72831">
        <ele>172</ele>
        <time>2017-07-08T09:38:12Z</time>
      </trkpt>
      <trkpt lat="45.93584" lon="4.72834">
        <ele>172</ele>
        <time>2017-07-08T09:38:13Z</time>
      </trkpt>
      <trkpt lat="45.9358" lon="4.72837">
        <ele>172</ele>
        <time>2017-07-08T09:38:14Z</time>
      </trkpt>
      <trkpt lat="45.93573" lon="4.72843">
        <ele>172</ele>
        <time>2017-07-08T09:38:16Z</time>
      </trkpt>
      <trkpt lat="45.93569" lon="4.72846">
        <ele>172</ele>
        <time>2017-07-08T09:38:17Z</time>
      </trkpt>
      <trkpt lat="45.93562" lon="4.72853">
        <ele>172</ele>
        <time>2017-07-08T09:38:19Z</time>
      </trkpt>
      <trkpt lat="45.93558" lon="4.72857">
        <ele>172</ele>
        <time>2017-07-08T09:38:20Z</time>
      </trkpt>
      <trkpt lat="45.93554" lon="4.72861">
        <ele>172</ele>
        <time>2017-07-08T09:38:21Z</time>
      </trkpt>
      <trkpt lat="45.9355" lon="4.72866">
        <ele>172</ele>
        <time>2017-07-08T09:38:22Z</time>
      </trkpt>
      <trkpt lat="45.93546" lon="4.7287">
        <ele>173</ele>
        <time>2017-07-08T09:38:23Z</time>
      </trkpt>
      <trkpt lat="45.93541" lon="4.72874">
        <ele>173</ele>
        <time>2017-07-08T09:38:24Z</time>
      </trkpt>
      <trkpt lat="45.93537" lon="4.72878">
        <ele>173</ele>
        <time>2017-07-08T09:38:25Z</time>
      </trkpt>
      <trkpt lat="45.93533" lon="4.72883">
        <ele>172</ele>
        <time>2017-07-08T09:38:26Z</time>
      </trkpt>
      <trkpt lat="45.93529" lon="4.72888">
        <ele>172</ele>
        <time>2017-07-08T09:38:27Z</time>
      </trkpt>
      <trkpt lat="45.93526" lon="4.72892">
        <ele>172</ele>
        <time>2017-07-08T09:38:28Z</time>
      </trkpt>
      <trkpt lat="45.93522" lon="4.72896">
        <ele>172</ele>
        <time>2017-07-08T09:38:29Z</time>
      </trkpt>
      <trkpt lat="45.93519" lon="4.72901">
        <ele>172</ele>
        <time>2017-07-08T09:38:30Z</time>
      </trkpt>
      <trkpt lat="45.93512" lon="4.72908">
        <ele>172</ele>
        <time>2017-07-08T09:38:32Z</time>
      </trkpt>
      <trkpt lat="45.93509" lon="4.72911">
        <ele>172</ele>
        <time>2017-07-08T09:38:33Z</time>
      </trkpt>
      <trkpt lat="45.93503" lon="4.72919">
        <ele>172</ele>
        <time>2017-07-08T09:38:35Z</time>
      </trkpt>
      <trkpt lat="45.93501" lon="4.72924">
        <ele>172</ele>
        <time>2017-07-08T09:38:36Z</time>
      </trkpt>
      <trkpt lat="45.93499" lon="4.7293">
        <ele>172</ele>
        <time>2017-07-08T09:38:37Z</time>
      </trkpt>
      <trkpt lat="45.93497" lon="4.72936">
        <ele>172</ele>
        <time>2017-07-08T09:38:38Z</time>
      </trkpt>
      <trkpt lat="45.93496" lon="4.72943">
        <ele>171</ele>
        <time>2017-07-08T09:38:39Z</time>
      </trkpt>
      <trkpt lat="45.93494" lon="4.7295">
        <ele>171</ele>
        <time>2017-07-08T09:38:40Z</time>
      </trkpt>
      <trkpt lat="45.93493" lon="4.72957">
        <ele>171</ele>
        <time>2017-07-08T09:38:41Z</time>
      </trkpt>
      <trkpt lat="45.93492" lon="4.72963">
        <ele>171</ele>
        <time>2017-07-08T09:38:42Z</time>
      </trkpt>
      <trkpt lat="45.93489" lon="4.72975">
        <ele>171</ele>
        <time>2017-07-08T09:38:44Z</time>
      </trkpt>
      <trkpt lat="45.93489" lon="4.72981">
        <ele>171</ele>
        <time>2017-07-08T09:38:45Z</time>
      </trkpt>
      <trkpt lat="45.93488" lon="4.72993">
        <ele>170</ele>
        <time>2017-07-08T09:38:47Z</time>
      </trkpt>
      <trkpt lat="45.93488" lon="4.72999">
        <ele>170</ele>
        <time>2017-07-08T09:38:48Z</time>
      </trkpt>
      <trkpt lat="45.93488" lon="4.7301">
        <ele>170</ele>
        <time>2017-07-08T09:38:50Z</time>
      </trkpt>
      <trkpt lat="45.93487" lon="4.73015">
        <ele>170</ele>
        <time>2017-07-08T09:38:51Z</time>
      </trkpt>
      <trkpt lat="45.93488" lon="4.73026">
        <ele>170</ele>
        <time>2017-07-08T09:38:53Z</time>
      </trkpt>
      <trkpt lat="45.93487" lon="4.73032">
        <ele>170</ele>
        <time>2017-07-08T09:38:54Z</time>
      </trkpt>
      <trkpt lat="45.93487" lon="4.73043">
        <ele>170</ele>
        <time>2017-07-08T09:38:56Z</time>
      </trkpt>
      <trkpt lat="45.93487" lon="4.73049">
        <ele>170</ele>
        <time>2017-07-08T09:38:57Z</time>
      </trkpt>
      <trkpt lat="45.93487" lon="4.73061">
        <ele>170</ele>
        <time>2017-07-08T09:38:59Z</time>
      </trkpt>
      <trkpt lat="45.93487" lon="4.73067">
        <ele>170</ele>
        <time>2017-07-08T09:39:00Z</time>
      </trkpt>
      <trkpt lat="45.93485" lon="4.73079">
        <ele>170</ele>
        <time>2017-07-08T09:39:02Z</time>
      </trkpt>
      <trkpt lat="45.93486" lon="4.73085">
        <ele>170</ele>
        <time>2017-07-08T09:39:03Z</time>
      </trkpt>
      <trkpt lat="45.93486" lon="4.73096">
        <ele>170</ele>
        <time>2017-07-08T09:39:05Z</time>
      </trkpt>
      <trkpt lat="45.93487" lon="4.73102">
        <ele>170</ele>
        <time>2017-07-08T09:39:06Z</time>
      </trkpt>
      <trkpt lat="45.93488" lon="4.73111">
        <ele>170</ele>
        <time>2017-07-08T09:39:08Z</time>
      </trkpt>
      <trkpt lat="45.93489" lon="4.73115">
        <ele>170</ele>
        <time>2017-07-08T09:39:09Z</time>
      </trkpt>
      <trkpt lat="45.93489" lon="4.73124">
        <ele>170</ele>
        <time>2017-07-08T09:39:11Z</time>
      </trkpt>
      <trkpt lat="45.93489" lon="4.73128">
        <ele>170</ele>
        <time>2017-07-08T09:39:12Z</time>
      </trkpt>
      <trkpt lat="45.9349" lon="4.73138">
        <ele>170</ele>
        <time>2017-07-08T09:39:14Z</time>
      </trkpt>
      <trkpt lat="45.9349" lon="4.73144">
        <ele>170</ele>
        <time>2017-07-08T09:39:15Z</time>
      </trkpt>
      <trkpt lat="45.93493" lon="4.73154">
        <ele>170</ele>
        <time>2017-07-08T09:39:17Z</time>
      </trkpt>
      <trkpt lat="45.93494" lon="4.73158">
        <ele>170</ele>
        <time>2017-07-08T09:39:18Z</time>
      </trkpt>
      <trkpt lat="45.93498" lon="4.73168">
        <ele>170</ele>
        <time>2017-07-08T09:39:20Z</time>
      </trkpt>
      <trkpt lat="45.93499" lon="4.73174">
        <ele>170</ele>
        <time>2017-07-08T09:39:21Z</time>
      </trkpt>
      <trkpt lat="45.93501" lon="4.73179">
        <ele>169</ele>
        <time>2017-07-08T09:39:22Z</time>
      </trkpt>
      <trkpt lat="45.93503" lon="4.73185">
        <ele>169</ele>
        <time>2017-07-08T09:39:23Z</time>
      </trkpt>
      <trkpt lat="45.93505" lon="4.73191">
        <ele>169</ele>
        <time>2017-07-08T09:39:24Z</time>
      </trkpt>
      <trkpt lat="45.93506" lon="4.73198">
        <ele>169</ele>
        <time>2017-07-08T09:39:25Z</time>
      </trkpt>
      <trkpt lat="45.93507" lon="4.73205">
        <ele>169</ele>
        <time>2017-07-08T09:39:26Z</time>
      </trkpt>
      <trkpt lat="45.93508" lon="4.73212">
        <ele>169</ele>
        <time>2017-07-08T09:39:27Z</time>
      </trkpt>
      <trkpt lat="45.93509" lon="4.73219">
        <ele>169</ele>
        <time>2017-07-08T09:39:28Z</time>
      </trkpt>
      <trkpt lat="45.93509" lon="4.73225">
        <ele>169</ele>
        <time>2017-07-08T09:39:29Z</time>
      </trkpt>
      <trkpt lat="45.9351" lon="4.73236">
        <ele>169</ele>
        <time>2017-07-08T09:39:31Z</time>
      </trkpt>
      <trkpt lat="45.93511" lon="4.73242">
        <ele>169</ele>
        <time>2017-07-08T09:39:32Z</time>
      </trkpt>
      <trkpt lat="45.93512" lon="4.73253">
        <ele>169</ele>
        <time>2017-07-08T09:39:34Z</time>
      </trkpt>
      <trkpt lat="45.93513" lon="4.73259">
        <ele>169</ele>
        <time>2017-07-08T09:39:35Z</time>
      </trkpt>
      <trkpt lat="45.93514" lon="4.7327">
        <ele>169</ele>
        <time>2017-07-08T09:39:37Z</time>
      </trkpt>
      <trkpt lat="45.93516" lon="4.73277">
        <ele>169</ele>
        <time>2017-07-08T09:39:38Z</time>
      </trkpt>
      <trkpt lat="45.93518" lon="4.73283">
        <ele>169</ele>
        <time>2017-07-08T09:39:39Z</time>
      </trkpt>
      <trkpt lat="45.9352" lon="4.73289">
        <ele>169</ele>
        <time>2017-07-08T09:39:40Z</time>
      </trkpt>
      <trkpt lat="45.93521" lon="4.73302">
        <ele>169</ele>
        <time>2017-07-08T09:39:42Z</time>
      </trkpt>
      <trkpt lat="45.93522" lon="4.73308">
        <ele>169</ele>
        <time>2017-07-08T09:39:43Z</time>
      </trkpt>
      <trkpt lat="45.93523" lon="4.73315">
        <ele>169</ele>
        <time>2017-07-08T09:39:44Z</time>
      </trkpt>
      <trkpt lat="45.93525" lon="4.73322">
        <ele>169</ele>
        <time>2017-07-08T09:39:45Z</time>
      </trkpt>
      <trkpt lat="45.93526" lon="4.73329">
        <ele>169</ele>
        <time>2017-07-08T09:39:46Z</time>
      </trkpt>
      <trkpt lat="45.93527" lon="4.73336">
        <ele>169</ele>
        <time>2017-07-08T09:39:47Z</time>
      </trkpt>
      <trkpt lat="45.93528" lon="4.73343">
        <ele>169</ele>
        <time>2017-07-08T09:39:48Z</time>
      </trkpt>
      <trkpt lat="45.9353" lon="4.7335">
        <ele>169</ele>
        <time>2017-07-08T09:39:49Z</time>
      </trkpt>
      <trkpt lat="45.93532" lon="4.73362">
        <ele>169</ele>
        <time>2017-07-08T09:39:51Z</time>
      </trkpt>
      <trkpt lat="45.93533" lon="4.73368">
        <ele>169</ele>
        <time>2017-07-08T09:39:52Z</time>
      </trkpt>
      <trkpt lat="45.93535" lon="4.7338">
        <ele>169</ele>
        <time>2017-07-08T09:39:54Z</time>
      </trkpt>
      <trkpt lat="45.93536" lon="4.73385">
        <ele>169</ele>
        <time>2017-07-08T09:39:55Z</time>
      </trkpt>
      <trkpt lat="45.93538" lon="4.73397">
        <ele>169</ele>
        <time>2017-07-08T09:39:57Z</time>
      </trkpt>
      <trkpt lat="45.93539" lon="4.73403">
        <ele>169</ele>
        <time>2017-07-08T09:39:58Z</time>
      </trkpt>
      <trkpt lat="45.9354" lon="4.73409">
        <ele>169</ele>
        <time>2017-07-08T09:39:59Z</time>
      </trkpt>
      <trkpt lat="45.93541" lon="4.73415">
        <ele>169</ele>
        <time>2017-07-08T09:40:00Z</time>
      </trkpt>
      <trkpt lat="45.93543" lon="4.73422">
        <ele>169</ele>
        <time>2017-07-08T09:40:01Z</time>
      </trkpt>
      <trkpt lat="45.93544" lon="4.73428">
        <ele>169</ele>
        <time>2017-07-08T09:40:02Z</time>
      </trkpt>
      <trkpt lat="45.93545" lon="4.73434">
        <ele>169</ele>
        <time>2017-07-08T09:40:03Z</time>
      </trkpt>
      <trkpt lat="45.93547" lon="4.73441">
        <ele>169</ele>
        <time>2017-07-08T09:40:04Z</time>
      </trkpt>
      <trkpt lat="45.93549" lon="4.73448">
        <ele>169</ele>
        <time>2017-07-08T09:40:05Z</time>
      </trkpt>
      <trkpt lat="45.9355" lon="4.73455">
        <ele>169</ele>
        <time>2017-07-08T09:40:06Z</time>
      </trkpt>
      <trkpt lat="45.93552" lon="4.73463">
        <ele>169</ele>
        <time>2017-07-08T09:40:07Z</time>
      </trkpt>
      <trkpt lat="45.93555" lon="4.7347">
        <ele>169</ele>
        <time>2017-07-08T09:40:08Z</time>
      </trkpt>
      <trkpt lat="45.93557" lon="4.73477">
        <ele>169</ele>
        <time>2017-07-08T09:40:09Z</time>
      </trkpt>
      <trkpt lat="45.93559" lon="4.73484">
        <ele>169</ele>
        <time>2017-07-08T09:40:10Z</time>
      </trkpt>
      <trkpt lat="45.93561" lon="4.73491">
        <ele>169</ele>
        <time>2017-07-08T09:40:11Z</time>
      </trkpt>
      <trkpt lat="45.93563" lon="4.73497">
        <ele>169</ele>
        <time>2017-07-08T09:40:12Z</time>
      </trkpt>
      <trkpt lat="45.93564" lon="4.73504">
        <ele>168</ele>
        <time>2017-07-08T09:40:13Z</time>
      </trkpt>
      <trkpt lat="45.93566" lon="4.7351">
        <ele>168</ele>
        <time>2017-07-08T09:40:14Z</time>
      </trkpt>
      <trkpt lat="45.93567" lon="4.73517">
        <ele>168</ele>
        <time>2017-07-08T09:40:15Z</time>
      </trkpt>
      <trkpt lat="45.93569" lon="4.73523">
        <ele>168</ele>
        <time>2017-07-08T09:40:16Z</time>
      </trkpt>
      <trkpt lat="45.9357" lon="4.7353">
        <ele>169</ele>
        <time>2017-07-08T09:40:17Z</time>
      </trkpt>
      <trkpt lat="45.93572" lon="4.73536">
        <ele>169</ele>
        <time>2017-07-08T09:40:18Z</time>
      </trkpt>
      <trkpt lat="45.93574" lon="4.73548">
        <ele>168</ele>
        <time>2017-07-08T09:40:20Z</time>
      </trkpt>
      <trkpt lat="45.93574" lon="4.73554">
        <ele>168</ele>
        <time>2017-07-08T09:40:21Z</time>
      </trkpt>
      <trkpt lat="45.93576" lon="4.73566">
        <ele>168</ele>
        <time>2017-07-08T09:40:23Z</time>
      </trkpt>
      <trkpt lat="45.93577" lon="4.73571">
        <ele>168</ele>
        <time>2017-07-08T09:40:24Z</time>
      </trkpt>
      <trkpt lat="45.93578" lon="4.73583">
        <ele>168</ele>
        <time>2017-07-08T09:40:26Z</time>
      </trkpt>
      <trkpt lat="45.93579" lon="4.73589">
        <ele>168</ele>
        <time>2017-07-08T09:40:27Z</time>
      </trkpt>
      <trkpt lat="45.9358" lon="4.73595">
        <ele>168</ele>
        <time>2017-07-08T09:40:28Z</time>
      </trkpt>
      <trkpt lat="45.93581" lon="4.73602">
        <ele>168</ele>
        <time>2017-07-08T09:40:29Z</time>
      </trkpt>
      <trkpt lat="45.93582" lon="4.73608">
        <ele>168</ele>
        <time>2017-07-08T09:40:30Z</time>
      </trkpt>
      <trkpt lat="45.93582" lon="4.73615">
        <ele>168</ele>
        <time>2017-07-08T09:40:31Z</time>
      </trkpt>
      <trkpt lat="45.93582" lon="4.73622">
        <ele>168</ele>
        <time>2017-07-08T09:40:32Z</time>
      </trkpt>
      <trkpt lat="45.93583" lon="4.7363">
        <ele>168</ele>
        <time>2017-07-08T09:40:33Z</time>
      </trkpt>
      <trkpt lat="45.93584" lon="4.73638">
        <ele>168</ele>
        <time>2017-07-08T09:40:34Z</time>
      </trkpt>
      <trkpt lat="45.93584" lon="4.73645">
        <ele>168</ele>
        <time>2017-07-08T09:40:35Z</time>
      </trkpt>
      <trkpt lat="45.93586" lon="4.73653">
        <ele>168</ele>
        <time>2017-07-08T09:40:36Z</time>
      </trkpt>
      <trkpt lat="45.93586" lon="4.7366">
        <ele>168</ele>
        <time>2017-07-08T09:40:37Z</time>
      </trkpt>
      <trkpt lat="45.93587" lon="4.73667">
        <ele>168</ele>
        <time>2017-07-08T09:40:38Z</time>
      </trkpt>
      <trkpt lat="45.93588" lon="4.73673">
        <ele>168</ele>
        <time>2017-07-08T09:40:39Z</time>
      </trkpt>
      <trkpt lat="45.93588" lon="4.73686">
        <ele>169</ele>
        <time>2017-07-08T09:40:41Z</time>
      </trkpt>
      <trkpt lat="45.93588" lon="4.73692">
        <ele>169</ele>
        <time>2017-07-08T09:40:42Z</time>
      </trkpt>
      <trkpt lat="45.93586" lon="4.73704">
        <ele>169</ele>
        <time>2017-07-08T09:40:44Z</time>
      </trkpt>
      <trkpt lat="45.93585" lon="4.7371">
        <ele>169</ele>
        <time>2017-07-08T09:40:45Z</time>
      </trkpt>
      <trkpt lat="45.9358" lon="4.73719">
        <ele>169</ele>
        <time>2017-07-08T09:40:47Z</time>
      </trkpt>
      <trkpt lat="45.93578" lon="4.73722">
        <ele>169</ele>
        <time>2017-07-08T09:40:48Z</time>
      </trkpt>
      <trkpt lat="45.93572" lon="4.73729">
        <ele>169</ele>
        <time>2017-07-08T09:40:50Z</time>
      </trkpt>
      <trkpt lat="45.93569" lon="4.73733">
        <ele>169</ele>
        <time>2017-07-08T09:40:51Z</time>
      </trkpt>
      <trkpt lat="45.93563" lon="4.7374">
        <ele>169</ele>
        <time>2017-07-08T09:40:53Z</time>
      </trkpt>
      <trkpt lat="45.93559" lon="4.73744">
        <ele>169</ele>
        <time>2017-07-08T09:40:54Z</time>
      </trkpt>
      <trkpt lat="45.93556" lon="4.73748">
        <ele>169</ele>
        <time>2017-07-08T09:40:55Z</time>
      </trkpt>
      <trkpt lat="45.93552" lon="4.73752">
        <ele>169</ele>
        <time>2017-07-08T09:40:56Z</time>
      </trkpt>
      <trkpt lat="45.93548" lon="4.73756">
        <ele>169</ele>
        <time>2017-07-08T09:40:57Z</time>
      </trkpt>
      <trkpt lat="45.93544" lon="4.7376">
        <ele>169</ele>
        <time>2017-07-08T09:40:58Z</time>
      </trkpt>
      <trkpt lat="45.93537" lon="4.73766">
        <ele>169</ele>
        <time>2017-07-08T09:41:00Z</time>
      </trkpt>
      <trkpt lat="45.93534" lon="4.73769">
        <ele>169</ele>
        <time>2017-07-08T09:41:01Z</time>
      </trkpt>
      <trkpt lat="45.93527" lon="4.73775">
        <ele>169</ele>
        <time>2017-07-08T09:41:03Z</time>
      </trkpt>
      <trkpt lat="45.93524" lon="4.73779">
        <ele>169</ele>
        <time>2017-07-08T09:41:04Z</time>
      </trkpt>
      <trkpt lat="45.93517" lon="4.73787">
        <ele>169</ele>
        <time>2017-07-08T09:41:06Z</time>
      </trkpt>
      <trkpt lat="45.93513" lon="4.73791">
        <ele>169</ele>
        <time>2017-07-08T09:41:07Z</time>
      </trkpt>
      <trkpt lat="45.9351" lon="4.73796">
        <ele>169</ele>
        <time>2017-07-08T09:41:08Z</time>
      </trkpt>
      <trkpt lat="45.93506" lon="4.73799">
        <ele>169</ele>
        <time>2017-07-08T09:41:09Z</time>
      </trkpt>
      <trkpt lat="45.93501" lon="4.73803">
        <ele>169</ele>
        <time>2017-07-08T09:41:10Z</time>
      </trkpt>
      <trkpt lat="45.93497" lon="4.73806">
        <ele>169</ele>
        <time>2017-07-08T09:41:11Z</time>
      </trkpt>
      <trkpt lat="45.93492" lon="4.73809">
        <ele>169</ele>
        <time>2017-07-08T09:41:12Z</time>
      </trkpt>
      <trkpt lat="45.93487" lon="4.73811">
        <ele>169</ele>
        <time>2017-07-08T09:41:13Z</time>
      </trkpt>
      <trkpt lat="45.93482" lon="4.73813">
        <ele>169</ele>
        <time>2017-07-08T09:41:14Z</time>
      </trkpt>
      <trkpt lat="45.93477" lon="4.73817">
        <ele>169</ele>
        <time>2017-07-08T09:41:15Z</time>
      </trkpt>
      <trkpt lat="45.93472" lon="4.73819">
        <ele>169</ele>
        <time>2017-07-08T09:41:16Z</time>
      </trkpt>
      <trkpt lat="45.93467" lon="4.73822">
        <ele>169</ele>
        <time>2017-07-08T09:41:17Z</time>
      </trkpt>
      <trkpt lat="45.93462" lon="4.73824">
        <ele>169</ele>
        <time>2017-07-08T09:41:18Z</time>
      </trkpt>
      <trkpt lat="45.93457" lon="4.73826">
        <ele>169</ele>
        <time>2017-07-08T09:41:19Z</time>
      </trkpt>
      <trkpt lat="45.93452" lon="4.73827">
        <ele>169</ele>
        <time>2017-07-08T09:41:20Z</time>
      </trkpt>
      <trkpt lat="45.93448" lon="4.73829">
        <ele>169</ele>
        <time>2017-07-08T09:41:21Z</time>
      </trkpt>
      <trkpt lat="45.9344" lon="4.73832">
        <ele>169</ele>
        <time>2017-07-08T09:41:23Z</time>
      </trkpt>
      <trkpt lat="45.93436" lon="4.73834">
        <ele>169</ele>
        <time>2017-07-08T09:41:24Z</time>
      </trkpt>
      <trkpt lat="45.93429" lon="4.73838">
        <ele>169</ele>
        <time>2017-07-08T09:41:26Z</time>
      </trkpt>
      <trkpt lat="45.93426" lon="4.7384">
        <ele>169</ele>
        <time>2017-07-08T09:41:27Z</time>
      </trkpt>
      <trkpt lat="45.9342" lon="4.73843">
        <ele>169</ele>
        <time>2017-07-08T09:41:29Z</time>
      </trkpt>
      <trkpt lat="45.93417" lon="4.73845">
        <ele>169</ele>
        <time>2017-07-08T09:41:30Z</time>
      </trkpt>
      <trkpt lat="45.93412" lon="4.73848">
        <ele>169</ele>
        <time>2017-07-08T09:41:32Z</time>
      </trkpt>
      <trkpt lat="45.93408" lon="4.73851">
        <ele>169</ele>
        <time>2017-07-08T09:41:33Z</time>
      </trkpt>
      <trkpt lat="45.934" lon="4.73855">
        <ele>169</ele>
        <time>2017-07-08T09:41:35Z</time>
      </trkpt>
      <trkpt lat="45.93396" lon="4.73857">
        <ele>169</ele>
        <time>2017-07-08T09:41:36Z</time>
      </trkpt>
      <trkpt lat="45.93389" lon="4.73862">
        <ele>169</ele>
        <time>2017-07-08T09:41:38Z</time>
      </trkpt>
      <trkpt lat="45.93386" lon="4.73864">
        <ele>169</ele>
        <time>2017-07-08T09:41:39Z</time>
      </trkpt>
      <trkpt lat="45.9338" lon="4.73869">
        <ele>169</ele>
        <time>2017-07-08T09:41:41Z</time>
      </trkpt>
      <trkpt lat="45.93378" lon="4.73871">
        <ele>169</ele>
        <time>2017-07-08T09:41:42Z</time>
      </trkpt>
      <trkpt lat="45.93372" lon="4.73876">
        <ele>168</ele>
        <time>2017-07-08T09:41:44Z</time>
      </trkpt>
      <trkpt lat="45.93369" lon="4.7388">
        <ele>168</ele>
        <time>2017-07-08T09:41:45Z</time>
      </trkpt>
      <trkpt lat="45.93362" lon="4.73887">
        <ele>168</ele>
        <time>2017-07-08T09:41:47Z</time>
      </trkpt>
      <trkpt lat="45.93359" lon="4.73891">
        <ele>168</ele>
        <time>2017-07-08T09:41:48Z</time>
      </trkpt>
      <trkpt lat="45.93352" lon="4.739">
        <ele>168</ele>
        <time>2017-07-08T09:41:50Z</time>
      </trkpt>
      <trkpt lat="45.93349" lon="4.73905">
        <ele>168</ele>
        <time>2017-07-08T09:41:51Z</time>
      </trkpt>
      <trkpt lat="45.93345" lon="4.7391">
        <ele>168</ele>
        <time>2017-07-08T09:41:52Z</time>
      </trkpt>
      <trkpt lat="45.93342" lon="4.73916">
        <ele>168</ele>
        <time>2017-07-08T09:41:53Z</time>
      </trkpt>
      <trkpt lat="45.93338" lon="4.73922">
        <ele>168</ele>
        <time>2017-07-08T09:41:54Z</time>
      </trkpt>
      <trkpt lat="45.93335" lon="4.73927">
        <ele>168</ele>
        <time>2017-07-08T09:41:55Z</time>
      </trkpt>
      <trkpt lat="45.93332" lon="4.73932">
        <ele>168</ele>
        <time>2017-07-08T09:41:56Z</time>
      </trkpt>
      <trkpt lat="45.93329" lon="4.73937">
        <ele>168</ele>
        <time>2017-07-08T09:41:57Z</time>
      </trkpt>
      <trkpt lat="45.93324" lon="4.73947">
        <ele>168</ele>
        <time>2017-07-08T09:41:59Z</time>
      </trkpt>
      <trkpt lat="45.93322" lon="4.73951">
        <ele>168</ele>
        <time>2017-07-08T09:42:00Z</time>
      </trkpt>
      <trkpt lat="45.93317" lon="4.7396">
        <ele>168</ele>
        <time>2017-07-08T09:42:02Z</time>
      </trkpt>
      <trkpt lat="45.93315" lon="4.73964">
        <ele>168</ele>
        <time>2017-07-08T09:42:03Z</time>
      </trkpt>
      <trkpt lat="45.93311" lon="4.73971">
        <ele>168</ele>
        <time>2017-07-08T09:42:05Z</time>
      </trkpt>
      <trkpt lat="45.93309" lon="4.73974">
        <ele>168</ele>
        <time>2017-07-08T09:42:06Z</time>
      </trkpt>
      <trkpt lat="45.93304" lon="4.73983">
        <ele>168</ele>
        <time>2017-07-08T09:42:08Z</time>
      </trkpt>
      <trkpt lat="45.93302" lon="4.73987">
        <ele>168</ele>
        <time>2017-07-08T09:42:09Z</time>
      </trkpt>
      <trkpt lat="45.93297" lon="4.73995">
        <ele>168</ele>
        <time>2017-07-08T09:42:11Z</time>
      </trkpt>
      <trkpt lat="45.93294" lon="4.74">
        <ele>168</ele>
        <time>2017-07-08T09:42:12Z</time>
      </trkpt>
      <trkpt lat="45.93291" lon="4.74006">
        <ele>168</ele>
        <time>2017-07-08T09:42:13Z</time>
      </trkpt>
      <trkpt lat="45.93288" lon="4.74012">
        <ele>168</ele>
        <time>2017-07-08T09:42:14Z</time>
      </trkpt>
      <trkpt lat="45.93285" lon="4.74017">
        <ele>168</ele>
        <time>2017-07-08T09:42:15Z</time>
      </trkpt>
      <trkpt lat="45.93282" lon="4.74023">
        <ele>168</ele>
        <time>2017-07-08T09:42:16Z</time>
      </trkpt>
      <trkpt lat="45.93279" lon="4.74029">
        <ele>168</ele>
        <time>2017-07-08T09:42:17Z</time>
      </trkpt>
      <trkpt lat="45.93277" lon="4.74035">
        <ele>168</ele>
        <time>2017-07-08T09:42:18Z</time>
      </trkpt>
      <trkpt lat="45.93273" lon="4.74046">
        <ele>168</ele>
        <time>2017-07-08T09:42:20Z</time>
      </trkpt>
      <trkpt lat="45.93271" lon="4.74051">
        <ele>168</ele>
        <time>2017-07-08T09:42:21Z</time>
      </trkpt>
      <trkpt lat="45.93267" lon="4.74059">
        <ele>168</ele>
        <time>2017-07-08T09:42:23Z</time>
      </trkpt>
      <trkpt lat="45.93265" lon="4.74063">
        <ele>168</ele>
        <time>2017-07-08T09:42:24Z</time>
      </trkpt>
      <trkpt lat="45.93261" lon="4.74073">
        <ele>167</ele>
        <time>2017-07-08T09:42:26Z</time>
      </trkpt>
      <trkpt lat="45.93259" lon="4.74077">
        <ele>167</ele>
        <time>2017-07-08T09:42:27Z</time>
      </trkpt>
      <trkpt lat="45.93255" lon="4.74086">
        <ele>167</ele>
        <time>2017-07-08T09:42:29Z</time>
      </trkpt>
      <trkpt lat="45.93253" lon="4.7409">
        <ele>167</ele>
        <time>2017-07-08T09:42:30Z</time>
      </trkpt>
      <trkpt lat="45.93249" lon="4.74097">
        <ele>167</ele>
        <time>2017-07-08T09:42:32Z</time>
      </trkpt>
      <trkpt lat="45.93247" lon="4.741">
        <ele>167</ele>
        <time>2017-07-08T09:42:33Z</time>
      </trkpt>
      <trkpt lat="45.93241" lon="4.74109">
        <ele>167</ele>
        <time>2017-07-08T09:42:36Z</time>
      </trkpt>
      <trkpt lat="45.93238" lon="4.74111">
        <ele>167</ele>
        <time>2017-07-08T09:42:37Z</time>
      </trkpt>
      <trkpt lat="45.9323" lon="4.74112">
        <ele>167</ele>
        <time>2017-07-08T09:42:39Z</time>
      </trkpt>
      <trkpt lat="45.93227" lon="4.74112">
        <ele>167</ele>
        <time>2017-07-08T09:42:40Z</time>
      </trkpt>
      <trkpt lat="45.93219" lon="4.74109">
        <ele>167</ele>
        <time>2017-07-08T09:42:42Z</time>
      </trkpt>
      <trkpt lat="45.93215" lon="4.74106">
        <ele>167</ele>
        <time>2017-07-08T09:42:43Z</time>
      </trkpt>
      <trkpt lat="45.93208" lon="4.741">
        <ele>167</ele>
        <time>2017-07-08T09:42:45Z</time>
      </trkpt>
      <trkpt lat="45.93205" lon="4.74097">
        <ele>167</ele>
        <time>2017-07-08T09:42:46Z</time>
      </trkpt>
      <trkpt lat="45.93201" lon="4.74094">
        <ele>167</ele>
        <time>2017-07-08T09:42:47Z</time>
      </trkpt>
      <trkpt lat="45.93197" lon="4.74091">
        <ele>167</ele>
        <time>2017-07-08T09:42:48Z</time>
      </trkpt>
      <trkpt lat="45.93189" lon="4.74084">
        <ele>168</ele>
        <time>2017-07-08T09:42:50Z</time>
      </trkpt>
      <trkpt lat="45.93186" lon="4.7408">
        <ele>168</ele>
        <time>2017-07-08T09:42:51Z</time>
      </trkpt>
      <trkpt lat="45.93179" lon="4.74074">
        <ele>168</ele>
        <time>2017-07-08T09:42:53Z</time>
      </trkpt>
      <trkpt lat="45.93177" lon="4.74071">
        <ele>168</ele>
        <time>2017-07-08T09:42:54Z</time>
      </trkpt>
      <trkpt lat="45.93171" lon="4.74066">
        <ele>168</ele>
        <time>2017-07-08T09:42:56Z</time>
      </trkpt>
      <trkpt lat="45.93168" lon="4.74064">
        <ele>168</ele>
        <time>2017-07-08T09:42:57Z</time>
      </trkpt>
      <trkpt lat="45.93162" lon="4.74057">
        <ele>168</ele>
        <time>2017-07-08T09:42:59Z</time>
      </trkpt>
      <trkpt lat="45.93159" lon="4.74054">
        <ele>168</ele>
        <time>2017-07-08T09:43:00Z</time>
      </trkpt>
      <trkpt lat="45.93151" lon="4.74048">
        <ele>168</ele>
        <time>2017-07-08T09:43:02Z</time>
      </trkpt>
      <trkpt lat="45.93147" lon="4.74044">
        <ele>168</ele>
        <time>2017-07-08T09:43:03Z</time>
      </trkpt>
      <trkpt lat="45.93143" lon="4.74041">
        <ele>168</ele>
        <time>2017-07-08T09:43:04Z</time>
      </trkpt>
      <trkpt lat="45.93139" lon="4.74037">
        <ele>168</ele>
        <time>2017-07-08T09:43:05Z</time>
      </trkpt>
      <trkpt lat="45.93135" lon="4.74034">
        <ele>168</ele>
        <time>2017-07-08T09:43:06Z</time>
      </trkpt>
      <trkpt lat="45.93131" lon="4.74031">
        <ele>168</ele>
        <time>2017-07-08T09:43:07Z</time>
      </trkpt>
      <trkpt lat="45.93124" lon="4.74026">
        <ele>168</ele>
        <time>2017-07-08T09:43:09Z</time>
      </trkpt>
      <trkpt lat="45.9312" lon="4.74024">
        <ele>168</ele>
        <time>2017-07-08T09:43:10Z</time>
      </trkpt>
      <trkpt lat="45.93111" lon="4.74021">
        <ele>168</ele>
        <time>2017-07-08T09:43:12Z</time>
      </trkpt>
      <trkpt lat="45.93107" lon="4.74019">
        <ele>168</ele>
        <time>2017-07-08T09:43:13Z</time>
      </trkpt>
      <trkpt lat="45.93099" lon="4.74017">
        <ele>168</ele>
        <time>2017-07-08T09:43:15Z</time>
      </trkpt>
      <trkpt lat="45.93095" lon="4.74016">
        <ele>168</ele>
        <time>2017-07-08T09:43:16Z</time>
      </trkpt>
      <trkpt lat="45.93091" lon="4.74015">
        <ele>168</ele>
        <time>2017-07-08T09:43:17Z</time>
      </trkpt>
      <trkpt lat="45.93086" lon="4.74015">
        <ele>168</ele>
        <time>2017-07-08T09:43:18Z</time>
      </trkpt>
      <trkpt lat="45.93081" lon="4.74014">
        <ele>169</ele>
        <time>2017-07-08T09:43:19Z</time>
      </trkpt>
      <trkpt lat="45.93077" lon="4.74014">
        <ele>169</ele>
        <time>2017-07-08T09:43:20Z</time>
      </trkpt>
      <trkpt lat="45.93068" lon="4.74012">
        <ele>169</ele>
        <time>2017-07-08T09:43:22Z</time>
      </trkpt>
      <trkpt lat="45.93063" lon="4.74011">
        <ele>169</ele>
        <time>2017-07-08T09:43:23Z</time>
      </trkpt>
      <trkpt lat="45.93055" lon="4.74007">
        <ele>169</ele>
        <time>2017-07-08T09:43:25Z</time>
      </trkpt>
      <trkpt lat="45.93051" lon="4.74005">
        <ele>169</ele>
        <time>2017-07-08T09:43:26Z</time>
      </trkpt>
      <trkpt lat="45.93043" lon="4.74003">
        <ele>169</ele>
        <time>2017-07-08T09:43:28Z</time>
      </trkpt>
      <trkpt lat="45.93039" lon="4.74001">
        <ele>169</ele>
        <time>2017-07-08T09:43:29Z</time>
      </trkpt>
      <trkpt lat="45.93032" lon="4.73998">
        <ele>169</ele>
        <time>2017-07-08T09:43:31Z</time>
      </trkpt>
      <trkpt lat="45.93028" lon="4.73996">
        <ele>169</ele>
        <time>2017-07-08T09:43:32Z</time>
      </trkpt>
      <trkpt lat="45.9302" lon="4.73995">
        <ele>169</ele>
        <time>2017-07-08T09:43:34Z</time>
      </trkpt>
      <trkpt lat="45.93017" lon="4.73997">
        <ele>169</ele>
        <time>2017-07-08T09:43:35Z</time>
      </trkpt>
      <trkpt lat="45.9301" lon="4.74004">
        <ele>170</ele>
        <time>2017-07-08T09:43:37Z</time>
      </trkpt>
      <trkpt lat="45.93008" lon="4.74009">
        <ele>170</ele>
        <time>2017-07-08T09:43:38Z</time>
      </trkpt>
      <trkpt lat="45.93006" lon="4.74015">
        <ele>170</ele>
        <time>2017-07-08T09:43:39Z</time>
      </trkpt>
      <trkpt lat="45.93004" lon="4.74021">
        <ele>170</ele>
        <time>2017-07-08T09:43:40Z</time>
      </trkpt>
      <trkpt lat="45.93003" lon="4.74028">
        <ele>170</ele>
        <time>2017-07-08T09:43:41Z</time>
      </trkpt>
      <trkpt lat="45.93001" lon="4.74034">
        <ele>170</ele>
        <time>2017-07-08T09:43:42Z</time>
      </trkpt>
      <trkpt lat="45.92999" lon="4.74046">
        <ele>171</ele>
        <time>2017-07-08T09:43:44Z</time>
      </trkpt>
      <trkpt lat="45.92999" lon="4.74052">
        <ele>171</ele>
        <time>2017-07-08T09:43:45Z</time>
      </trkpt>
      <trkpt lat="45.92998" lon="4.74062">
        <ele>171</ele>
        <time>2017-07-08T09:43:47Z</time>
      </trkpt>
      <trkpt lat="45.92998" lon="4.74067">
        <ele>171</ele>
        <time>2017-07-08T09:43:48Z</time>
      </trkpt>
      <trkpt lat="45.93" lon="4.74078">
        <ele>171</ele>
        <time>2017-07-08T09:43:50Z</time>
      </trkpt>
      <trkpt lat="45.93" lon="4.74084">
        <ele>171</ele>
        <time>2017-07-08T09:43:51Z</time>
      </trkpt>
      <trkpt lat="45.92999" lon="4.74094">
        <ele>171</ele>
        <time>2017-07-08T09:43:53Z</time>
      </trkpt>
      <trkpt lat="45.92998" lon="4.74099">
        <ele>171</ele>
        <time>2017-07-08T09:43:54Z</time>
      </trkpt>
      <trkpt lat="45.92997" lon="4.74109">
        <ele>171</ele>
        <time>2017-07-08T09:43:56Z</time>
      </trkpt>
      <trkpt lat="45.92996" lon="4.74114">
        <ele>171</ele>
        <time>2017-07-08T09:43:57Z</time>
      </trkpt>
      <trkpt lat="45.92992" lon="4.74122">
        <ele>171</ele>
        <time>2017-07-08T09:43:59Z</time>
      </trkpt>
      <trkpt lat="45.92991" lon="4.74127">
        <ele>171</ele>
        <time>2017-07-08T09:44:00Z</time>
      </trkpt>
      <trkpt lat="45.92988" lon="4.74139">
        <ele>171</ele>
        <time>2017-07-08T09:44:03Z</time>
      </trkpt>
      <trkpt lat="45.92987" lon="4.74142">
        <ele>171</ele>
        <time>2017-07-08T09:44:04Z</time>
      </trkpt>
      <trkpt lat="45.92984" lon="4.74153">
        <ele>170</ele>
        <time>2017-07-08T09:44:07Z</time>
      </trkpt>
      <trkpt lat="45.92983" lon="4.74157">
        <ele>170</ele>
        <time>2017-07-08T09:44:08Z</time>
      </trkpt>
      <trkpt lat="45.9298" lon="4.74165">
        <ele>170</ele>
        <time>2017-07-08T09:44:10Z</time>
      </trkpt>
      <trkpt lat="45.92979" lon="4.74168">
        <ele>170</ele>
        <time>2017-07-08T09:44:11Z</time>
      </trkpt>
      <trkpt lat="45.92975" lon="4.74179">
        <ele>170</ele>
        <time>2017-07-08T09:44:14Z</time>
      </trkpt>
      <trkpt lat="45.92973" lon="4.74183">
        <ele>170</ele>
        <time>2017-07-08T09:44:15Z</time>
      </trkpt>
      <trkpt lat="45.92971" lon="4.7419">
        <ele>170</ele>
        <time>2017-07-08T09:44:17Z</time>
      </trkpt>
      <trkpt lat="45.92968" lon="4.74193">
        <ele>170</ele>
        <time>2017-07-08T09:44:18Z</time>
      </trkpt>
      <trkpt lat="45.92964" lon="4.74199">
        <ele>170</ele>
        <time>2017-07-08T09:44:20Z</time>
      </trkpt>
      <trkpt lat="45.92961" lon="4.74201">
        <ele>170</ele>
        <time>2017-07-08T09:44:21Z</time>
      </trkpt>
      <trkpt lat="45.92955" lon="4.74202">
        <ele>170</ele>
        <time>2017-07-08T09:44:23Z</time>
      </trkpt>
      <trkpt lat="45.92951" lon="4.74202">
        <ele>170</ele>
        <time>2017-07-08T09:44:24Z</time>
      </trkpt>
      <trkpt lat="45.92946" lon="4.742">
        <ele>170</ele>
        <time>2017-07-08T09:44:26Z</time>
      </trkpt>
      <trkpt lat="45.92943" lon="4.74198">
        <ele>170</ele>
        <time>2017-07-08T09:44:27Z</time>
      </trkpt>
      <trkpt lat="45.92935" lon="4.74194">
        <ele>170</ele>
        <time>2017-07-08T09:44:29Z</time>
      </trkpt>
      <trkpt lat="45.92933" lon="4.74192">
        <ele>170</ele>
        <time>2017-07-08T09:44:30Z</time>
      </trkpt>
      <trkpt lat="45.92925" lon="4.74187">
        <ele>171</ele>
        <time>2017-07-08T09:44:33Z</time>
      </trkpt>
      <trkpt lat="45.92922" lon="4.74186">
        <ele>171</ele>
        <time>2017-07-08T09:44:34Z</time>
      </trkpt>
      <trkpt lat="45.92915" lon="4.74181">
        <ele>172</ele>
        <time>2017-07-08T09:44:37Z</time>
      </trkpt>
      <trkpt lat="45.92912" lon="4.7418">
        <ele>172</ele>
        <time>2017-07-08T09:44:38Z</time>
      </trkpt>
      <trkpt lat="45.92904" lon="4.74174">
        <ele>172</ele>
        <time>2017-07-08T09:44:41Z</time>
      </trkpt>
      <trkpt lat="45.929" lon="4.74172">
        <ele>172</ele>
        <time>2017-07-08T09:44:42Z</time>
      </trkpt>
      <trkpt lat="45.92895" lon="4.74168">
        <ele>172</ele>
        <time>2017-07-08T09:44:44Z</time>
      </trkpt>
      <trkpt lat="45.92892" lon="4.74165">
        <ele>172</ele>
        <time>2017-07-08T09:44:45Z</time>
      </trkpt>
      <trkpt lat="45.92888" lon="4.74158">
        <ele>172</ele>
        <time>2017-07-08T09:44:47Z</time>
      </trkpt>
      <trkpt lat="45.92886" lon="4.74152">
        <ele>172</ele>
        <time>2017-07-08T09:44:48Z</time>
      </trkpt>
      <trkpt lat="45.92884" lon="4.74141">
        <ele>172</ele>
        <time>2017-07-08T09:44:50Z</time>
      </trkpt>
      <trkpt lat="45.92885" lon="4.74134">
        <ele>172</ele>
        <time>2017-07-08T09:44:51Z</time>
      </trkpt>
      <trkpt lat="45.92888" lon="4.74128">
        <ele>172</ele>
        <time>2017-07-08T09:44:52Z</time>
      </trkpt>
      <trkpt lat="45.92891" lon="4.74121">
        <ele>172</ele>
        <time>2017-07-08T09:44:53Z</time>
      </trkpt>
      <trkpt lat="45.92896" lon="4.74116">
        <ele>172</ele>
        <time>2017-07-08T09:44:54Z</time>
      </trkpt>
      <trkpt lat="45.929" lon="4.7411">
        <ele>172</ele>
        <time>2017-07-08T09:44:55Z</time>
      </trkpt>
      <trkpt lat="45.92905" lon="4.74103">
        <ele>172</ele>
        <time>2017-07-08T09:44:56Z</time>
      </trkpt>
      <trkpt lat="45.92909" lon="4.74095">
        <ele>172</ele>
        <time>2017-07-08T09:44:57Z</time>
      </trkpt>
      <trkpt lat="45.92912" lon="4.74086">
        <ele>173</ele>
        <time>2017-07-08T09:44:58Z</time>
      </trkpt>
      <trkpt lat="45.92914" lon="4.74076">
        <ele>173</ele>
        <time>2017-07-08T09:44:59Z</time>
      </trkpt>
      <trkpt lat="45.92915" lon="4.74066">
        <ele>173</ele>
        <time>2017-07-08T09:45:00Z</time>
      </trkpt>
      <trkpt lat="45.92916" lon="4.74057">
        <ele>172</ele>
        <time>2017-07-08T09:45:01Z</time>
      </trkpt>
      <trkpt lat="45.92917" lon="4.74047">
        <ele>172</ele>
        <time>2017-07-08T09:45:02Z</time>
      </trkpt>
      <trkpt lat="45.92918" lon="4.74039">
        <ele>172</ele>
        <time>2017-07-08T09:45:03Z</time>
      </trkpt>
      <trkpt lat="45.92919" lon="4.7403">
        <ele>172</ele>
        <time>2017-07-08T09:45:04Z</time>
      </trkpt>
      <trkpt lat="45.9292" lon="4.74022">
        <ele>172</ele>
        <time>2017-07-08T09:45:05Z</time>
      </trkpt>
      <trkpt lat="45.9292" lon="4.74014">
        <ele>172</ele>
        <time>2017-07-08T09:45:06Z</time>
      </trkpt>
      <trkpt lat="45.92918" lon="4.74006">
        <ele>172</ele>
        <time>2017-07-08T09:45:07Z</time>
      </trkpt>
      <trkpt lat="45.92916" lon="4.73999">
        <ele>172</ele>
        <time>2017-07-08T09:45:08Z</time>
      </trkpt>
      <trkpt lat="45.92912" lon="4.73993">
        <ele>172</ele>
        <time>2017-07-08T09:45:09Z</time>
      </trkpt>
      <trkpt lat="45.92907" lon="4.73988">
        <ele>172</ele>
        <time>2017-07-08T09:45:10Z</time>
      </trkpt>
      <trkpt lat="45.92903" lon="4.73984">
        <ele>172</ele>
        <time>2017-07-08T09:45:11Z</time>
      </trkpt>
      <trkpt lat="45.92898" lon="4.7398">
        <ele>172</ele>
        <time>2017-07-08T09:45:12Z</time>
      </trkpt>
      <trkpt lat="45.92894" lon="4.73975">
        <ele>172</ele>
        <time>2017-07-08T09:45:13Z</time>
      </trkpt>
      <trkpt lat="45.92891" lon="4.73969">
        <ele>172</ele>
        <time>2017-07-08T09:45:14Z</time>
      </trkpt>
      <trkpt lat="45.9289" lon="4.73962">
        <ele>172</ele>
        <time>2017-07-08T09:45:15Z</time>
      </trkpt>
      <trkpt lat="45.92889" lon="4.73954">
        <ele>172</ele>
        <time>2017-07-08T09:45:16Z</time>
      </trkpt>
      <trkpt lat="45.92889" lon="4.73946">
        <ele>172</ele>
        <time>2017-07-08T09:45:17Z</time>
      </trkpt>
      <trkpt lat="45.92888" lon="4.73937">
        <ele>172</ele>
        <time>2017-07-08T09:45:18Z</time>
      </trkpt>
      <trkpt lat="45.92888" lon="4.73928">
        <ele>172</ele>
        <time>2017-07-08T09:45:19Z</time>
      </trkpt>
      <trkpt lat="45.92886" lon="4.7392">
        <ele>172</ele>
        <time>2017-07-08T09:45:20Z</time>
      </trkpt>
      <trkpt lat="45.92885" lon="4.73911">
        <ele>173</ele>
        <time>2017-07-08T09:45:21Z</time>
      </trkpt>
      <trkpt lat="45.92884" lon="4.73902">
        <ele>173</ele>
        <time>2017-07-08T09:45:22Z</time>
      </trkpt>
      <trkpt lat="45.92882" lon="4.73894">
        <ele>173</ele>
        <time>2017-07-08T09:45:23Z</time>
      </trkpt>
      <trkpt lat="45.9288" lon="4.73886">
        <ele>173</ele>
        <time>2017-07-08T09:45:24Z</time>
      </trkpt>
      <trkpt lat="45.92879" lon="4.73877">
        <ele>173</ele>
        <time>2017-07-08T09:45:25Z</time>
      </trkpt>
      <trkpt lat="45.92877" lon="4.73869">
        <ele>173</ele>
        <time>2017-07-08T09:45:26Z</time>
      </trkpt>
      <trkpt lat="45.92876" lon="4.73861">
        <ele>173</ele>
        <time>2017-07-08T09:45:27Z</time>
      </trkpt>
      <trkpt lat="45.92874" lon="4.73853">
        <ele>173</ele>
        <time>2017-07-08T09:45:28Z</time>
      </trkpt>
      <trkpt lat="45.92872" lon="4.73846">
        <ele>173</ele>
        <time>2017-07-08T09:45:29Z</time>
      </trkpt>
      <trkpt lat="45.92871" lon="4.73839">
        <ele>173</ele>
        <time>2017-07-08T09:45:30Z</time>
      </trkpt>
      <trkpt lat="45.9287" lon="4.73833">
        <ele>173</ele>
        <time>2017-07-08T09:45:31Z</time>
      </trkpt>
      <trkpt lat="45.92868" lon="4.73827">
        <ele>173</ele>
        <time>2017-07-08T09:45:32Z</time>
      </trkpt>
      <trkpt lat="45.92866" lon="4.7382">
        <ele>173</ele>
        <time>2017-07-08T09:45:33Z</time>
      </trkpt>
      <trkpt lat="45.92865" lon="4.73814">
        <ele>173</ele>
        <time>2017-07-08T09:45:34Z</time>
      </trkpt>
      <trkpt lat="45.92863" lon="4.73808">
        <ele>173</ele>
        <time>2017-07-08T09:45:35Z</time>
      </trkpt>
      <trkpt lat="45.92861" lon="4.73802">
        <ele>173</ele>
        <time>2017-07-08T09:45:36Z</time>
      </trkpt>
      <trkpt lat="45.92858" lon="4.73796">
        <ele>173</ele>
        <time>2017-07-08T09:45:37Z</time>
      </trkpt>
      <trkpt lat="45.92855" lon="4.73791">
        <ele>173</ele>
        <time>2017-07-08T09:45:38Z</time>
      </trkpt>
      <trkpt lat="45.92851" lon="4.73788">
        <ele>173</ele>
        <time>2017-07-08T09:45:39Z</time>
      </trkpt>
      <trkpt lat="45.92843" lon="4.73782">
        <ele>173</ele>
        <time>2017-07-08T09:45:41Z</time>
      </trkpt>
      <trkpt lat="45.92839" lon="4.7378">
        <ele>172</ele>
        <time>2017-07-08T09:45:42Z</time>
      </trkpt>
      <trkpt lat="45.92833" lon="4.73776">
        <ele>173</ele>
        <time>2017-07-08T09:45:44Z</time>
      </trkpt>
      <trkpt lat="45.92829" lon="4.73773">
        <ele>173</ele>
        <time>2017-07-08T09:45:45Z</time>
      </trkpt>
      <trkpt lat="45.92824" lon="4.73771">
        <ele>173</ele>
        <time>2017-07-08T09:45:46Z</time>
      </trkpt>
      <trkpt lat="45.9282" lon="4.73769">
        <ele>173</ele>
        <time>2017-07-08T09:45:47Z</time>
      </trkpt>
      <trkpt lat="45.92816" lon="4.73767">
        <ele>173</ele>
        <time>2017-07-08T09:45:48Z</time>
      </trkpt>
      <trkpt lat="45.92812" lon="4.73765">
        <ele>173</ele>
        <time>2017-07-08T09:45:49Z</time>
      </trkpt>
      <trkpt lat="45.92803" lon="4.73761">
        <ele>173</ele>
        <time>2017-07-08T09:45:51Z</time>
      </trkpt>
      <trkpt lat="45.92799" lon="4.73759">
        <ele>173</ele>
        <time>2017-07-08T09:45:52Z</time>
      </trkpt>
      <trkpt lat="45.92793" lon="4.73754">
        <ele>173</ele>
        <time>2017-07-08T09:45:54Z</time>
      </trkpt>
      <trkpt lat="45.92791" lon="4.73751">
        <ele>173</ele>
        <time>2017-07-08T09:45:55Z</time>
      </trkpt>
      <trkpt lat="45.92787" lon="4.73743">
        <ele>172</ele>
        <time>2017-07-08T09:45:57Z</time>
      </trkpt>
      <trkpt lat="45.92785" lon="4.73739">
        <ele>172</ele>
        <time>2017-07-08T09:45:58Z</time>
      </trkpt>
      <trkpt lat="45.92779" lon="4.73731">
        <ele>172</ele>
        <time>2017-07-08T09:46:00Z</time>
      </trkpt>
      <trkpt lat="45.92775" lon="4.73728">
        <ele>172</ele>
        <time>2017-07-08T09:46:01Z</time>
      </trkpt>
      <trkpt lat="45.92768" lon="4.73726">
        <ele>172</ele>
        <time>2017-07-08T09:46:03Z</time>
      </trkpt>
      <trkpt lat="45.92764" lon="4.73724">
        <ele>172</ele>
        <time>2017-07-08T09:46:04Z</time>
      </trkpt>
      <trkpt lat="45.92757" lon="4.73721">
        <ele>172</ele>
        <time>2017-07-08T09:46:06Z</time>
      </trkpt>
      <trkpt lat="45.92753" lon="4.73719">
        <ele>172</ele>
        <time>2017-07-08T09:46:07Z</time>
      </trkpt>
      <trkpt lat="45.92744" lon="4.73718">
        <ele>173</ele>
        <time>2017-07-08T09:46:09Z</time>
      </trkpt>
      <trkpt lat="45.9274" lon="4.73718">
        <ele>173</ele>
        <time>2017-07-08T09:46:10Z</time>
      </trkpt>
      <trkpt lat="45.92732" lon="4.73717">
        <ele>173</ele>
        <time>2017-07-08T09:46:12Z</time>
      </trkpt>
      <trkpt lat="45.92728" lon="4.73716">
        <ele>173</ele>
        <time>2017-07-08T09:46:13Z</time>
      </trkpt>
      <trkpt lat="45.92719" lon="4.73713">
        <ele>173</ele>
        <time>2017-07-08T09:46:15Z</time>
      </trkpt>
      <trkpt lat="45.92715" lon="4.73712">
        <ele>173</ele>
        <time>2017-07-08T09:46:16Z</time>
      </trkpt>
      <trkpt lat="45.9271" lon="4.73711">
        <ele>173</ele>
        <time>2017-07-08T09:46:17Z</time>
      </trkpt>
      <trkpt lat="45.92705" lon="4.7371">
        <ele>173</ele>
        <time>2017-07-08T09:46:18Z</time>
      </trkpt>
      <trkpt lat="45.92701" lon="4.73709">
        <ele>173</ele>
        <time>2017-07-08T09:46:19Z</time>
      </trkpt>
      <trkpt lat="45.92696" lon="4.73708">
        <ele>173</ele>
        <time>2017-07-08T09:46:20Z</time>
      </trkpt>
      <trkpt lat="45.92691" lon="4.73708">
        <ele>173</ele>
        <time>2017-07-08T09:46:21Z</time>
      </trkpt>
      <trkpt lat="45.92687" lon="4.73707">
        <ele>173</ele>
        <time>2017-07-08T09:46:22Z</time>
      </trkpt>
      <trkpt lat="45.92678" lon="4.73704">
        <ele>173</ele>
        <time>2017-07-08T09:46:24Z</time>
      </trkpt>
      <trkpt lat="45.92674" lon="4.73702">
        <ele>174</ele>
        <time>2017-07-08T09:46:25Z</time>
      </trkpt>
      <trkpt lat="45.92667" lon="4.73698">
        <ele>173</ele>
        <time>2017-07-08T09:46:27Z</time>
      </trkpt>
      <trkpt lat="45.92663" lon="4.73695">
        <ele>173</ele>
        <time>2017-07-08T09:46:28Z</time>
      </trkpt>
      <trkpt lat="45.92656" lon="4.7369">
        <ele>173</ele>
        <time>2017-07-08T09:46:30Z</time>
      </trkpt>
      <trkpt lat="45.92652" lon="4.73686">
        <ele>173</ele>
        <time>2017-07-08T09:46:31Z</time>
      </trkpt>
      <trkpt lat="45.92645" lon="4.73678">
        <ele>173</ele>
        <time>2017-07-08T09:46:33Z</time>
      </trkpt>
      <trkpt lat="45.92643" lon="4.73674">
        <ele>173</ele>
        <time>2017-07-08T09:46:34Z</time>
      </trkpt>
      <trkpt lat="45.92638" lon="4.73666">
        <ele>173</ele>
        <time>2017-07-08T09:46:36Z</time>
      </trkpt>
      <trkpt lat="45.92636" lon="4.73662">
        <ele>173</ele>
        <time>2017-07-08T09:46:37Z</time>
      </trkpt>
      <trkpt lat="45.92633" lon="4.73653">
        <ele>173</ele>
        <time>2017-07-08T09:46:39Z</time>
      </trkpt>
      <trkpt lat="45.92632" lon="4.73648">
        <ele>173</ele>
        <time>2017-07-08T09:46:40Z</time>
      </trkpt>
      <trkpt lat="45.92628" lon="4.73638">
        <ele>173</ele>
        <time>2017-07-08T09:46:42Z</time>
      </trkpt>
      <trkpt lat="45.92625" lon="4.73633">
        <ele>173</ele>
        <time>2017-07-08T09:46:43Z</time>
      </trkpt>
      <trkpt lat="45.92621" lon="4.73629">
        <ele>173</ele>
        <time>2017-07-08T09:46:44Z</time>
      </trkpt>
      <trkpt lat="45.92616" lon="4.73625">
        <ele>173</ele>
        <time>2017-07-08T09:46:45Z</time>
      </trkpt>
      <trkpt lat="45.92611" lon="4.73623">
        <ele>173</ele>
        <time>2017-07-08T09:46:46Z</time>
      </trkpt>
      <trkpt lat="45.92606" lon="4.73621">
        <ele>173</ele>
        <time>2017-07-08T09:46:47Z</time>
      </trkpt>
      <trkpt lat="45.92601" lon="4.7362">
        <ele>173</ele>
        <time>2017-07-08T09:46:48Z</time>
      </trkpt>
      <trkpt lat="45.92596" lon="4.73619">
        <ele>173</ele>
        <time>2017-07-08T09:46:49Z</time>
      </trkpt>
      <trkpt lat="45.92591" lon="4.73619">
        <ele>173</ele>
        <time>2017-07-08T09:46:50Z</time>
      </trkpt>
      <trkpt lat="45.92587" lon="4.7362">
        <ele>173</ele>
        <time>2017-07-08T09:46:51Z</time>
      </trkpt>
      <trkpt lat="45.92579" lon="4.7362">
        <ele>173</ele>
        <time>2017-07-08T09:46:53Z</time>
      </trkpt>
      <trkpt lat="45.92575" lon="4.73621">
        <ele>173</ele>
        <time>2017-07-08T09:46:54Z</time>
      </trkpt>
      <trkpt lat="45.92567" lon="4.73623">
        <ele>173</ele>
        <time>2017-07-08T09:46:56Z</time>
      </trkpt>
      <trkpt lat="45.92563" lon="4.73625">
        <ele>173</ele>
        <time>2017-07-08T09:46:57Z</time>
      </trkpt>
      <trkpt lat="45.92556" lon="4.73627">
        <ele>173</ele>
        <time>2017-07-08T09:46:59Z</time>
      </trkpt>
      <trkpt lat="45.92552" lon="4.73627">
        <ele>173</ele>
        <time>2017-07-08T09:47:00Z</time>
      </trkpt>
      <trkpt lat="45.92543" lon="4.7363">
        <ele>173</ele>
        <time>2017-07-08T09:47:02Z</time>
      </trkpt>
      <trkpt lat="45.9254" lon="4.73631">
        <ele>173</ele>
        <time>2017-07-08T09:47:03Z</time>
      </trkpt>
      <trkpt lat="45.92533" lon="4.73632">
        <ele>173</ele>
        <time>2017-07-08T09:47:05Z</time>
      </trkpt>
      <trkpt lat="45.92529" lon="4.73634">
        <ele>173</ele>
        <time>2017-07-08T09:47:06Z</time>
      </trkpt>
      <trkpt lat="45.9252" lon="4.73636">
        <ele>173</ele>
        <time>2017-07-08T09:47:08Z</time>
      </trkpt>
      <trkpt lat="45.92516" lon="4.73635">
        <ele>173</ele>
        <time>2017-07-08T09:47:09Z</time>
      </trkpt>
      <trkpt lat="45.92509" lon="4.73636">
        <ele>174</ele>
        <time>2017-07-08T09:47:11Z</time>
      </trkpt>
      <trkpt lat="45.92506" lon="4.73636">
        <ele>174</ele>
        <time>2017-07-08T09:47:12Z</time>
      </trkpt>
      <trkpt lat="45.925" lon="4.73637">
        <ele>174</ele>
        <time>2017-07-08T09:47:14Z</time>
      </trkpt>
      <trkpt lat="45.92496" lon="4.73637">
        <ele>174</ele>
        <time>2017-07-08T09:47:15Z</time>
      </trkpt>
      <trkpt lat="45.9249" lon="4.73638">
        <ele>174</ele>
        <time>2017-07-08T09:47:17Z</time>
      </trkpt>
      <trkpt lat="45.92487" lon="4.73638">
        <ele>174</ele>
        <time>2017-07-08T09:47:18Z</time>
      </trkpt>
      <trkpt lat="45.92478" lon="4.73639">
        <ele>174</ele>
        <time>2017-07-08T09:47:21Z</time>
      </trkpt>
      <trkpt lat="45.92475" lon="4.73642">
        <ele>174</ele>
        <time>2017-07-08T09:47:22Z</time>
      </trkpt>
      <trkpt lat="45.92471" lon="4.7365">
        <ele>174</ele>
        <time>2017-07-08T09:47:24Z</time>
      </trkpt>
      <trkpt lat="45.9247" lon="4.73655">
        <ele>174</ele>
        <time>2017-07-08T09:47:25Z</time>
      </trkpt>
      <trkpt lat="45.92468" lon="4.73665">
        <ele>174</ele>
        <time>2017-07-08T09:47:27Z</time>
      </trkpt>
      <trkpt lat="45.92467" lon="4.7367">
        <ele>174</ele>
        <time>2017-07-08T09:47:28Z</time>
      </trkpt>
      <trkpt lat="45.92467" lon="4.73681">
        <ele>174</ele>
        <time>2017-07-08T09:47:30Z</time>
      </trkpt>
      <trkpt lat="45.92466" lon="4.73685">
        <ele>174</ele>
        <time>2017-07-08T09:47:31Z</time>
      </trkpt>
      <trkpt lat="45.92466" lon="4.73695">
        <ele>174</ele>
        <time>2017-07-08T09:47:33Z</time>
      </trkpt>
      <trkpt lat="45.92466" lon="4.73699">
        <ele>174</ele>
        <time>2017-07-08T09:47:34Z</time>
      </trkpt>
      <trkpt lat="45.92465" lon="4.73705">
        <ele>174</ele>
        <time>2017-07-08T09:47:36Z</time>
      </trkpt>
      <trkpt lat="45.92464" lon="4.73707">
        <ele>174</ele>
        <time>2017-07-08T09:47:37Z</time>
      </trkpt>
      <trkpt lat="45.92462" lon="4.73708">
        <ele>174</ele>
        <time>2017-07-08T09:48:28.339Z</time>
      </trkpt>
    </trkseg>
  </trk>
</gpx>